<?xml version="1.0" encoding="UTF-8" standalone="no" ?>
<gpx xmlns="http://www.topografix.com/GPX/1/1" xmlns:xsi="http://www.w3.org/2001/XMLSchema-instance" xsi:schemaLocation="http://www.topografix.com/GPX/1/1 http://www.topografix.com/GPX/1/1/gpx.xsd" version="1.1" creator="VisuGPX - https://www.visugpx.com">
  <metadata>
    <name>VTT RSPG 22/11/2011Crete de la scie</name>
    <desc><![CDATA[Ballade sympa , 9 participants sympas , temps sympa : que demander de plus]]></desc>
  </metadata>
  <trk>
    <name><![CDATA[Cretye scie Brezier]]></name>
    <trkseg>
      <trkpt lat="44.42705" lon="6.19852">
        <ele>842.25</ele>
        <time>2011-11-22T08:44:21Z</time>
      </trkpt>
      <trkpt lat="44.42682" lon="6.19847">
        <ele>844.66</ele>
        <time>2011-11-22T08:44:34Z</time>
      </trkpt>
      <trkpt lat="44.42663" lon="6.19852">
        <ele>847.54</ele>
        <time>2011-11-22T08:44:45Z</time>
      </trkpt>
      <trkpt lat="44.42638" lon="6.1987">
        <ele>848.5</ele>
        <time>2011-11-22T08:45:00Z</time>
      </trkpt>
      <trkpt lat="44.42601" lon="6.19899">
        <ele>848.98</ele>
        <time>2011-11-22T08:45:16Z</time>
      </trkpt>
      <trkpt lat="44.4258" lon="6.19933">
        <ele>848.5</ele>
        <time>2011-11-22T08:45:27Z</time>
      </trkpt>
      <trkpt lat="44.42582" lon="6.19935">
        <ele>848.5</ele>
        <time>2011-11-22T08:45:28Z</time>
      </trkpt>
      <trkpt lat="44.42585" lon="6.1994">
        <ele>848.5</ele>
        <time>2011-11-22T08:45:32Z</time>
      </trkpt>
      <trkpt lat="44.42587" lon="6.19942">
        <ele>849.46</ele>
        <time>2011-11-22T08:45:36Z</time>
      </trkpt>
      <trkpt lat="44.42597" lon="6.19957">
        <ele>852.83</ele>
        <time>2011-11-22T08:45:48Z</time>
      </trkpt>
      <trkpt lat="44.426" lon="6.19965">
        <ele>853.31</ele>
        <time>2011-11-22T08:45:53Z</time>
      </trkpt>
      <trkpt lat="44.42604" lon="6.19978">
        <ele>856.19</ele>
        <time>2011-11-22T08:46:03Z</time>
      </trkpt>
      <trkpt lat="44.42615" lon="6.19998">
        <ele>858.59</ele>
        <time>2011-11-22T08:46:15Z</time>
      </trkpt>
      <trkpt lat="44.42616" lon="6.19999">
        <ele>860.04</ele>
        <time>2011-11-22T08:46:16Z</time>
      </trkpt>
      <trkpt lat="44.42622" lon="6.20016">
        <ele>862.44</ele>
        <time>2011-11-22T08:46:27Z</time>
      </trkpt>
      <trkpt lat="44.42633" lon="6.20037">
        <ele>864.84</ele>
        <time>2011-11-22T08:46:40Z</time>
      </trkpt>
      <trkpt lat="44.42635" lon="6.20039">
        <ele>865.8</ele>
        <time>2011-11-22T08:46:54Z</time>
      </trkpt>
      <trkpt lat="44.42635" lon="6.2004">
        <ele>866.29</ele>
        <time>2011-11-22T08:47:48Z</time>
      </trkpt>
      <trkpt lat="44.42638" lon="6.20047">
        <ele>865.8</ele>
        <time>2011-11-22T08:47:52Z</time>
      </trkpt>
      <trkpt lat="44.42646" lon="6.20077">
        <ele>863.4</ele>
        <time>2011-11-22T08:48:00Z</time>
      </trkpt>
      <trkpt lat="44.4267" lon="6.20125">
        <ele>860.04</ele>
        <time>2011-11-22T08:48:06Z</time>
      </trkpt>
      <trkpt lat="44.42722" lon="6.2021">
        <ele>858.59</ele>
        <time>2011-11-22T08:48:16Z</time>
      </trkpt>
      <trkpt lat="44.42757" lon="6.20254">
        <ele>858.59</ele>
        <time>2011-11-22T08:48:27Z</time>
      </trkpt>
      <trkpt lat="44.42765" lon="6.20263">
        <ele>861</ele>
        <time>2011-11-22T08:48:33Z</time>
      </trkpt>
      <trkpt lat="44.42785" lon="6.20284">
        <ele>862.92</ele>
        <time>2011-11-22T08:48:46Z</time>
      </trkpt>
      <trkpt lat="44.42799" lon="6.203">
        <ele>865.32</ele>
        <time>2011-11-22T08:48:57Z</time>
      </trkpt>
      <trkpt lat="44.42805" lon="6.20308">
        <ele>866.77</ele>
        <time>2011-11-22T08:49:02Z</time>
      </trkpt>
      <trkpt lat="44.4281" lon="6.20313">
        <ele>866.77</ele>
        <time>2011-11-22T08:49:06Z</time>
      </trkpt>
      <trkpt lat="44.42815" lon="6.2032">
        <ele>869.17</ele>
        <time>2011-11-22T08:49:11Z</time>
      </trkpt>
      <trkpt lat="44.42816" lon="6.20322">
        <ele>868.69</ele>
        <time>2011-11-22T08:49:12Z</time>
      </trkpt>
      <trkpt lat="44.42817" lon="6.20323">
        <ele>869.17</ele>
        <time>2011-11-22T08:49:13Z</time>
      </trkpt>
      <trkpt lat="44.42818" lon="6.20325">
        <ele>869.17</ele>
        <time>2011-11-22T08:49:14Z</time>
      </trkpt>
      <trkpt lat="44.42818" lon="6.20327">
        <ele>869.65</ele>
        <time>2011-11-22T08:49:15Z</time>
      </trkpt>
      <trkpt lat="44.42819" lon="6.20329">
        <ele>869.65</ele>
        <time>2011-11-22T08:49:16Z</time>
      </trkpt>
      <trkpt lat="44.4282" lon="6.20331">
        <ele>870.13</ele>
        <time>2011-11-22T08:49:17Z</time>
      </trkpt>
      <trkpt lat="44.4282" lon="6.20333">
        <ele>870.61</ele>
        <time>2011-11-22T08:49:18Z</time>
      </trkpt>
      <trkpt lat="44.4282" lon="6.20336">
        <ele>870.61</ele>
        <time>2011-11-22T08:49:19Z</time>
      </trkpt>
      <trkpt lat="44.42819" lon="6.20339">
        <ele>870.61</ele>
        <time>2011-11-22T08:49:20Z</time>
      </trkpt>
      <trkpt lat="44.42818" lon="6.2034">
        <ele>870.13</ele>
        <time>2011-11-22T08:49:21Z</time>
      </trkpt>
      <trkpt lat="44.42817" lon="6.20342">
        <ele>870.61</ele>
        <time>2011-11-22T08:49:22Z</time>
      </trkpt>
      <trkpt lat="44.42816" lon="6.20343">
        <ele>870.13</ele>
        <time>2011-11-22T08:49:23Z</time>
      </trkpt>
      <trkpt lat="44.42815" lon="6.20345">
        <ele>871.09</ele>
        <time>2011-11-22T08:49:24Z</time>
      </trkpt>
      <trkpt lat="44.42801" lon="6.20368">
        <ele>871.09</ele>
        <time>2011-11-22T08:49:36Z</time>
      </trkpt>
      <trkpt lat="44.42798" lon="6.20376">
        <ele>871.09</ele>
        <time>2011-11-22T08:49:45Z</time>
      </trkpt>
      <trkpt lat="44.42798" lon="6.20376">
        <ele>871.57</ele>
        <time>2011-11-22T08:50:06Z</time>
      </trkpt>
      <trkpt lat="44.42797" lon="6.20377">
        <ele>871.09</ele>
        <time>2011-11-22T08:50:07Z</time>
      </trkpt>
      <trkpt lat="44.42785" lon="6.20393">
        <ele>871.09</ele>
        <time>2011-11-22T08:50:15Z</time>
      </trkpt>
      <trkpt lat="44.42784" lon="6.20395">
        <ele>870.61</ele>
        <time>2011-11-22T08:50:16Z</time>
      </trkpt>
      <trkpt lat="44.42782" lon="6.20398">
        <ele>870.61</ele>
        <time>2011-11-22T08:50:17Z</time>
      </trkpt>
      <trkpt lat="44.42759" lon="6.2043">
        <ele>872.53</ele>
        <time>2011-11-22T08:50:30Z</time>
      </trkpt>
      <trkpt lat="44.42738" lon="6.20457">
        <ele>874.46</ele>
        <time>2011-11-22T08:50:43Z</time>
      </trkpt>
      <trkpt lat="44.42724" lon="6.20491">
        <ele>875.42</ele>
        <time>2011-11-22T08:50:54Z</time>
      </trkpt>
      <trkpt lat="44.42725" lon="6.20497">
        <ele>873.98</ele>
        <time>2011-11-22T08:50:55Z</time>
      </trkpt>
      <trkpt lat="44.42746" lon="6.20615">
        <ele>870.61</ele>
        <time>2011-11-22T08:51:10Z</time>
      </trkpt>
      <trkpt lat="44.42753" lon="6.20649">
        <ele>871.09</ele>
        <time>2011-11-22T08:51:15Z</time>
      </trkpt>
      <trkpt lat="44.42753" lon="6.20655">
        <ele>871.57</ele>
        <time>2011-11-22T08:51:16Z</time>
      </trkpt>
      <trkpt lat="44.42752" lon="6.2066">
        <ele>871.57</ele>
        <time>2011-11-22T08:51:17Z</time>
      </trkpt>
      <trkpt lat="44.4275" lon="6.20664">
        <ele>871.09</ele>
        <time>2011-11-22T08:51:18Z</time>
      </trkpt>
      <trkpt lat="44.42749" lon="6.20668">
        <ele>871.57</ele>
        <time>2011-11-22T08:51:19Z</time>
      </trkpt>
      <trkpt lat="44.42748" lon="6.20678">
        <ele>872.53</ele>
        <time>2011-11-22T08:51:21Z</time>
      </trkpt>
      <trkpt lat="44.42752" lon="6.20735">
        <ele>872.05</ele>
        <time>2011-11-22T08:51:32Z</time>
      </trkpt>
      <trkpt lat="44.42764" lon="6.20775">
        <ele>875.42</ele>
        <time>2011-11-22T08:51:43Z</time>
      </trkpt>
      <trkpt lat="44.42772" lon="6.20806">
        <ele>876.86</ele>
        <time>2011-11-22T08:51:56Z</time>
      </trkpt>
      <trkpt lat="44.42773" lon="6.20822">
        <ele>878.3</ele>
        <time>2011-11-22T08:52:03Z</time>
      </trkpt>
      <trkpt lat="44.42773" lon="6.20824">
        <ele>878.78</ele>
        <time>2011-11-22T08:52:04Z</time>
      </trkpt>
      <trkpt lat="44.42773" lon="6.20827">
        <ele>879.26</ele>
        <time>2011-11-22T08:52:05Z</time>
      </trkpt>
      <trkpt lat="44.42773" lon="6.20829">
        <ele>879.26</ele>
        <time>2011-11-22T08:52:06Z</time>
      </trkpt>
      <trkpt lat="44.42773" lon="6.2083">
        <ele>879.26</ele>
        <time>2011-11-22T08:52:07Z</time>
      </trkpt>
      <trkpt lat="44.42773" lon="6.20833">
        <ele>879.26</ele>
        <time>2011-11-22T08:52:08Z</time>
      </trkpt>
      <trkpt lat="44.42773" lon="6.20835">
        <ele>879.74</ele>
        <time>2011-11-22T08:52:09Z</time>
      </trkpt>
      <trkpt lat="44.42773" lon="6.20838">
        <ele>879.74</ele>
        <time>2011-11-22T08:52:10Z</time>
      </trkpt>
      <trkpt lat="44.42773" lon="6.2084">
        <ele>879.74</ele>
        <time>2011-11-22T08:52:11Z</time>
      </trkpt>
      <trkpt lat="44.42773" lon="6.20842">
        <ele>880.71</ele>
        <time>2011-11-22T08:52:12Z</time>
      </trkpt>
      <trkpt lat="44.42773" lon="6.20845">
        <ele>879.74</ele>
        <time>2011-11-22T08:52:13Z</time>
      </trkpt>
      <trkpt lat="44.42772" lon="6.20847">
        <ele>881.19</ele>
        <time>2011-11-22T08:52:14Z</time>
      </trkpt>
      <trkpt lat="44.42767" lon="6.20869">
        <ele>882.15</ele>
        <time>2011-11-22T08:52:26Z</time>
      </trkpt>
      <trkpt lat="44.42759" lon="6.20886">
        <ele>883.59</ele>
        <time>2011-11-22T08:52:37Z</time>
      </trkpt>
      <trkpt lat="44.42745" lon="6.20904">
        <ele>885.99</ele>
        <time>2011-11-22T08:52:50Z</time>
      </trkpt>
      <trkpt lat="44.42735" lon="6.20922">
        <ele>885.99</ele>
        <time>2011-11-22T08:53:02Z</time>
      </trkpt>
      <trkpt lat="44.4272" lon="6.20938">
        <ele>886.47</ele>
        <time>2011-11-22T08:53:13Z</time>
      </trkpt>
      <trkpt lat="44.42709" lon="6.20953">
        <ele>887.91</ele>
        <time>2011-11-22T08:53:23Z</time>
      </trkpt>
      <trkpt lat="44.42706" lon="6.20956">
        <ele>887.43</ele>
        <time>2011-11-22T08:53:25Z</time>
      </trkpt>
      <trkpt lat="44.42705" lon="6.20957">
        <ele>887.43</ele>
        <time>2011-11-22T08:53:26Z</time>
      </trkpt>
      <trkpt lat="44.42687" lon="6.20978">
        <ele>889.36</ele>
        <time>2011-11-22T08:53:40Z</time>
      </trkpt>
      <trkpt lat="44.42677" lon="6.20989">
        <ele>889.84</ele>
        <time>2011-11-22T08:53:48Z</time>
      </trkpt>
      <trkpt lat="44.42676" lon="6.20991">
        <ele>890.8</ele>
        <time>2011-11-22T08:53:49Z</time>
      </trkpt>
      <trkpt lat="44.42674" lon="6.20992">
        <ele>890.8</ele>
        <time>2011-11-22T08:53:50Z</time>
      </trkpt>
      <trkpt lat="44.42673" lon="6.20994">
        <ele>890.32</ele>
        <time>2011-11-22T08:53:51Z</time>
      </trkpt>
      <trkpt lat="44.42671" lon="6.20995">
        <ele>890.32</ele>
        <time>2011-11-22T08:53:52Z</time>
      </trkpt>
      <trkpt lat="44.4267" lon="6.20996">
        <ele>890.32</ele>
        <time>2011-11-22T08:53:53Z</time>
      </trkpt>
      <trkpt lat="44.42668" lon="6.20997">
        <ele>890.8</ele>
        <time>2011-11-22T08:53:54Z</time>
      </trkpt>
      <trkpt lat="44.42667" lon="6.20998">
        <ele>890.32</ele>
        <time>2011-11-22T08:53:55Z</time>
      </trkpt>
      <trkpt lat="44.42666" lon="6.20999">
        <ele>891.28</ele>
        <time>2011-11-22T08:53:56Z</time>
      </trkpt>
      <trkpt lat="44.42664" lon="6.20999">
        <ele>890.8</ele>
        <time>2011-11-22T08:53:57Z</time>
      </trkpt>
      <trkpt lat="44.42652" lon="6.21007">
        <ele>893.2</ele>
        <time>2011-11-22T08:54:07Z</time>
      </trkpt>
      <trkpt lat="44.42646" lon="6.21011">
        <ele>894.16</ele>
        <time>2011-11-22T08:54:12Z</time>
      </trkpt>
      <trkpt lat="44.42636" lon="6.21019">
        <ele>894.64</ele>
        <time>2011-11-22T08:54:20Z</time>
      </trkpt>
      <trkpt lat="44.42635" lon="6.2102">
        <ele>895.12</ele>
        <time>2011-11-22T08:54:21Z</time>
      </trkpt>
      <trkpt lat="44.42633" lon="6.21021">
        <ele>895.61</ele>
        <time>2011-11-22T08:54:22Z</time>
      </trkpt>
      <trkpt lat="44.42631" lon="6.21021">
        <ele>895.12</ele>
        <time>2011-11-22T08:54:23Z</time>
      </trkpt>
      <trkpt lat="44.42629" lon="6.21021">
        <ele>896.09</ele>
        <time>2011-11-22T08:54:24Z</time>
      </trkpt>
      <trkpt lat="44.42628" lon="6.21022">
        <ele>896.57</ele>
        <time>2011-11-22T08:54:25Z</time>
      </trkpt>
      <trkpt lat="44.42627" lon="6.21021">
        <ele>896.57</ele>
        <time>2011-11-22T08:54:26Z</time>
      </trkpt>
      <trkpt lat="44.42625" lon="6.21021">
        <ele>896.57</ele>
        <time>2011-11-22T08:54:27Z</time>
      </trkpt>
      <trkpt lat="44.42624" lon="6.21021">
        <ele>896.09</ele>
        <time>2011-11-22T08:54:28Z</time>
      </trkpt>
      <trkpt lat="44.42622" lon="6.2102">
        <ele>897.05</ele>
        <time>2011-11-22T08:54:29Z</time>
      </trkpt>
      <trkpt lat="44.42621" lon="6.2102">
        <ele>897.05</ele>
        <time>2011-11-22T08:54:30Z</time>
      </trkpt>
      <trkpt lat="44.4262" lon="6.21019">
        <ele>896.57</ele>
        <time>2011-11-22T08:54:31Z</time>
      </trkpt>
      <trkpt lat="44.42619" lon="6.21018">
        <ele>897.05</ele>
        <time>2011-11-22T08:54:32Z</time>
      </trkpt>
      <trkpt lat="44.42617" lon="6.21018">
        <ele>897.05</ele>
        <time>2011-11-22T08:54:33Z</time>
      </trkpt>
      <trkpt lat="44.42616" lon="6.21018">
        <ele>897.05</ele>
        <time>2011-11-22T08:54:34Z</time>
      </trkpt>
      <trkpt lat="44.42614" lon="6.21017">
        <ele>896.57</ele>
        <time>2011-11-22T08:54:35Z</time>
      </trkpt>
      <trkpt lat="44.42611" lon="6.21017">
        <ele>897.53</ele>
        <time>2011-11-22T08:54:37Z</time>
      </trkpt>
      <trkpt lat="44.4261" lon="6.21017">
        <ele>897.05</ele>
        <time>2011-11-22T08:54:38Z</time>
      </trkpt>
      <trkpt lat="44.42608" lon="6.21018">
        <ele>897.53</ele>
        <time>2011-11-22T08:54:39Z</time>
      </trkpt>
      <trkpt lat="44.42604" lon="6.21023">
        <ele>897.53</ele>
        <time>2011-11-22T08:54:43Z</time>
      </trkpt>
      <trkpt lat="44.42603" lon="6.21025">
        <ele>897.53</ele>
        <time>2011-11-22T08:54:44Z</time>
      </trkpt>
      <trkpt lat="44.42601" lon="6.21028">
        <ele>898.01</ele>
        <time>2011-11-22T08:54:45Z</time>
      </trkpt>
      <trkpt lat="44.42601" lon="6.21031">
        <ele>898.49</ele>
        <time>2011-11-22T08:54:46Z</time>
      </trkpt>
      <trkpt lat="44.426" lon="6.21033">
        <ele>898.49</ele>
        <time>2011-11-22T08:54:47Z</time>
      </trkpt>
      <trkpt lat="44.42599" lon="6.21035">
        <ele>898.01</ele>
        <time>2011-11-22T08:54:48Z</time>
      </trkpt>
      <trkpt lat="44.42599" lon="6.21037">
        <ele>899.45</ele>
        <time>2011-11-22T08:54:49Z</time>
      </trkpt>
      <trkpt lat="44.42599" lon="6.21039">
        <ele>898.97</ele>
        <time>2011-11-22T08:54:50Z</time>
      </trkpt>
      <trkpt lat="44.42599" lon="6.21062">
        <ele>900.41</ele>
        <time>2011-11-22T08:54:59Z</time>
      </trkpt>
      <trkpt lat="44.42601" lon="6.21076">
        <ele>900.89</ele>
        <time>2011-11-22T08:55:05Z</time>
      </trkpt>
      <trkpt lat="44.42601" lon="6.21079">
        <ele>901.85</ele>
        <time>2011-11-22T08:55:06Z</time>
      </trkpt>
      <trkpt lat="44.42602" lon="6.21081">
        <ele>900.89</ele>
        <time>2011-11-22T08:55:07Z</time>
      </trkpt>
      <trkpt lat="44.42603" lon="6.21083">
        <ele>901.37</ele>
        <time>2011-11-22T08:55:08Z</time>
      </trkpt>
      <trkpt lat="44.42603" lon="6.21085">
        <ele>901.85</ele>
        <time>2011-11-22T08:55:09Z</time>
      </trkpt>
      <trkpt lat="44.42601" lon="6.21096">
        <ele>902.82</ele>
        <time>2011-11-22T08:55:14Z</time>
      </trkpt>
      <trkpt lat="44.42601" lon="6.21099">
        <ele>903.3</ele>
        <time>2011-11-22T08:55:15Z</time>
      </trkpt>
      <trkpt lat="44.42601" lon="6.21102">
        <ele>903.3</ele>
        <time>2011-11-22T08:55:16Z</time>
      </trkpt>
      <trkpt lat="44.426" lon="6.21104">
        <ele>902.33</ele>
        <time>2011-11-22T08:55:17Z</time>
      </trkpt>
      <trkpt lat="44.426" lon="6.21106">
        <ele>903.3</ele>
        <time>2011-11-22T08:55:18Z</time>
      </trkpt>
      <trkpt lat="44.426" lon="6.21108">
        <ele>902.33</ele>
        <time>2011-11-22T08:55:19Z</time>
      </trkpt>
      <trkpt lat="44.426" lon="6.2111">
        <ele>903.3</ele>
        <time>2011-11-22T08:55:20Z</time>
      </trkpt>
      <trkpt lat="44.426" lon="6.21112">
        <ele>903.3</ele>
        <time>2011-11-22T08:55:21Z</time>
      </trkpt>
      <trkpt lat="44.426" lon="6.21114">
        <ele>902.82</ele>
        <time>2011-11-22T08:55:22Z</time>
      </trkpt>
      <trkpt lat="44.426" lon="6.21117">
        <ele>903.78</ele>
        <time>2011-11-22T08:55:23Z</time>
      </trkpt>
      <trkpt lat="44.426" lon="6.21118">
        <ele>903.3</ele>
        <time>2011-11-22T08:55:24Z</time>
      </trkpt>
      <trkpt lat="44.42599" lon="6.2112">
        <ele>904.74</ele>
        <time>2011-11-22T08:55:25Z</time>
      </trkpt>
      <trkpt lat="44.42598" lon="6.21122">
        <ele>903.3</ele>
        <time>2011-11-22T08:55:26Z</time>
      </trkpt>
      <trkpt lat="44.42597" lon="6.21124">
        <ele>904.74</ele>
        <time>2011-11-22T08:55:27Z</time>
      </trkpt>
      <trkpt lat="44.42596" lon="6.21126">
        <ele>904.26</ele>
        <time>2011-11-22T08:55:28Z</time>
      </trkpt>
      <trkpt lat="44.42595" lon="6.21127">
        <ele>904.74</ele>
        <time>2011-11-22T08:55:29Z</time>
      </trkpt>
      <trkpt lat="44.42584" lon="6.21134">
        <ele>905.22</ele>
        <time>2011-11-22T08:55:39Z</time>
      </trkpt>
      <trkpt lat="44.42584" lon="6.21134">
        <ele>906.18</ele>
        <time>2011-11-22T08:56:40Z</time>
      </trkpt>
      <trkpt lat="44.42583" lon="6.21134">
        <ele>906.66</ele>
        <time>2011-11-22T08:56:56Z</time>
      </trkpt>
      <trkpt lat="44.42578" lon="6.21136">
        <ele>907.14</ele>
        <time>2011-11-22T08:57:14Z</time>
      </trkpt>
      <trkpt lat="44.42569" lon="6.21139">
        <ele>909.06</ele>
        <time>2011-11-22T08:57:21Z</time>
      </trkpt>
      <trkpt lat="44.42559" lon="6.21142">
        <ele>910.03</ele>
        <time>2011-11-22T08:57:28Z</time>
      </trkpt>
      <trkpt lat="44.42558" lon="6.21143">
        <ele>910.03</ele>
        <time>2011-11-22T08:57:29Z</time>
      </trkpt>
      <trkpt lat="44.42557" lon="6.21143">
        <ele>910.03</ele>
        <time>2011-11-22T08:57:30Z</time>
      </trkpt>
      <trkpt lat="44.42553" lon="6.21145">
        <ele>910.51</ele>
        <time>2011-11-22T08:57:34Z</time>
      </trkpt>
      <trkpt lat="44.42552" lon="6.21146">
        <ele>911.47</ele>
        <time>2011-11-22T08:57:35Z</time>
      </trkpt>
      <trkpt lat="44.42535" lon="6.21155">
        <ele>913.39</ele>
        <time>2011-11-22T08:57:49Z</time>
      </trkpt>
      <trkpt lat="44.42517" lon="6.21162">
        <ele>915.31</ele>
        <time>2011-11-22T08:58:01Z</time>
      </trkpt>
      <trkpt lat="44.42504" lon="6.21173">
        <ele>918.68</ele>
        <time>2011-11-22T08:58:13Z</time>
      </trkpt>
      <trkpt lat="44.42503" lon="6.21175">
        <ele>918.2</ele>
        <time>2011-11-22T08:58:14Z</time>
      </trkpt>
      <trkpt lat="44.42503" lon="6.21177">
        <ele>918.68</ele>
        <time>2011-11-22T08:58:15Z</time>
      </trkpt>
      <trkpt lat="44.42502" lon="6.21178">
        <ele>919.16</ele>
        <time>2011-11-22T08:58:16Z</time>
      </trkpt>
      <trkpt lat="44.42501" lon="6.2118">
        <ele>918.68</ele>
        <time>2011-11-22T08:58:17Z</time>
      </trkpt>
      <trkpt lat="44.42499" lon="6.21181">
        <ele>918.68</ele>
        <time>2011-11-22T08:58:18Z</time>
      </trkpt>
      <trkpt lat="44.4249" lon="6.21193">
        <ele>922.04</ele>
        <time>2011-11-22T08:58:30Z</time>
      </trkpt>
      <trkpt lat="44.42489" lon="6.21193">
        <ele>922.04</ele>
        <time>2011-11-22T08:58:31Z</time>
      </trkpt>
      <trkpt lat="44.42479" lon="6.21203">
        <ele>923.96</ele>
        <time>2011-11-22T08:58:43Z</time>
      </trkpt>
      <trkpt lat="44.42473" lon="6.21207">
        <ele>924.45</ele>
        <time>2011-11-22T08:58:48Z</time>
      </trkpt>
      <trkpt lat="44.42471" lon="6.21208">
        <ele>924.93</ele>
        <time>2011-11-22T08:58:49Z</time>
      </trkpt>
      <trkpt lat="44.42459" lon="6.21209">
        <ele>926.85</ele>
        <time>2011-11-22T08:58:56Z</time>
      </trkpt>
      <trkpt lat="44.42458" lon="6.21209">
        <ele>926.37</ele>
        <time>2011-11-22T08:58:57Z</time>
      </trkpt>
      <trkpt lat="44.42456" lon="6.21208">
        <ele>925.89</ele>
        <time>2011-11-22T08:58:58Z</time>
      </trkpt>
      <trkpt lat="44.4245" lon="6.21209">
        <ele>927.33</ele>
        <time>2011-11-22T08:59:03Z</time>
      </trkpt>
      <trkpt lat="44.42436" lon="6.21218">
        <ele>929.25</ele>
        <time>2011-11-22T08:59:16Z</time>
      </trkpt>
      <trkpt lat="44.42427" lon="6.21228">
        <ele>929.25</ele>
        <time>2011-11-22T08:59:27Z</time>
      </trkpt>
      <trkpt lat="44.42405" lon="6.2122">
        <ele>931.17</ele>
        <time>2011-11-22T08:59:40Z</time>
      </trkpt>
      <trkpt lat="44.42403" lon="6.21217">
        <ele>931.17</ele>
        <time>2011-11-22T08:59:43Z</time>
      </trkpt>
      <trkpt lat="44.42402" lon="6.21215">
        <ele>931.17</ele>
        <time>2011-11-22T08:59:44Z</time>
      </trkpt>
      <trkpt lat="44.42401" lon="6.21215">
        <ele>931.17</ele>
        <time>2011-11-22T08:59:45Z</time>
      </trkpt>
      <trkpt lat="44.42399" lon="6.21214">
        <ele>932.14</ele>
        <time>2011-11-22T08:59:46Z</time>
      </trkpt>
      <trkpt lat="44.42382" lon="6.21214">
        <ele>932.62</ele>
        <time>2011-11-22T08:59:56Z</time>
      </trkpt>
      <trkpt lat="44.42379" lon="6.21216">
        <ele>932.62</ele>
        <time>2011-11-22T08:59:58Z</time>
      </trkpt>
      <trkpt lat="44.42378" lon="6.21216">
        <ele>932.62</ele>
        <time>2011-11-22T08:59:59Z</time>
      </trkpt>
      <trkpt lat="44.42376" lon="6.21216">
        <ele>933.1</ele>
        <time>2011-11-22T09:00:00Z</time>
      </trkpt>
      <trkpt lat="44.42374" lon="6.21216">
        <ele>933.1</ele>
        <time>2011-11-22T09:00:01Z</time>
      </trkpt>
      <trkpt lat="44.42373" lon="6.21216">
        <ele>932.62</ele>
        <time>2011-11-22T09:00:02Z</time>
      </trkpt>
      <trkpt lat="44.42371" lon="6.21216">
        <ele>933.1</ele>
        <time>2011-11-22T09:00:03Z</time>
      </trkpt>
      <trkpt lat="44.4237" lon="6.21216">
        <ele>933.58</ele>
        <time>2011-11-22T09:00:04Z</time>
      </trkpt>
      <trkpt lat="44.42368" lon="6.21216">
        <ele>933.1</ele>
        <time>2011-11-22T09:00:05Z</time>
      </trkpt>
      <trkpt lat="44.42367" lon="6.21216">
        <ele>932.62</ele>
        <time>2011-11-22T09:00:06Z</time>
      </trkpt>
      <trkpt lat="44.42365" lon="6.21216">
        <ele>933.58</ele>
        <time>2011-11-22T09:00:07Z</time>
      </trkpt>
      <trkpt lat="44.42364" lon="6.21217">
        <ele>933.1</ele>
        <time>2011-11-22T09:00:08Z</time>
      </trkpt>
      <trkpt lat="44.42362" lon="6.21217">
        <ele>933.58</ele>
        <time>2011-11-22T09:00:09Z</time>
      </trkpt>
      <trkpt lat="44.42361" lon="6.21217">
        <ele>933.58</ele>
        <time>2011-11-22T09:00:10Z</time>
      </trkpt>
      <trkpt lat="44.42359" lon="6.21217">
        <ele>933.58</ele>
        <time>2011-11-22T09:00:11Z</time>
      </trkpt>
      <trkpt lat="44.42358" lon="6.21217">
        <ele>934.54</ele>
        <time>2011-11-22T09:00:12Z</time>
      </trkpt>
      <trkpt lat="44.42356" lon="6.21216">
        <ele>934.54</ele>
        <time>2011-11-22T09:00:13Z</time>
      </trkpt>
      <trkpt lat="44.42355" lon="6.21215">
        <ele>935.02</ele>
        <time>2011-11-22T09:00:14Z</time>
      </trkpt>
      <trkpt lat="44.42352" lon="6.21215">
        <ele>935.02</ele>
        <time>2011-11-22T09:00:16Z</time>
      </trkpt>
      <trkpt lat="44.42348" lon="6.21217">
        <ele>933.58</ele>
        <time>2011-11-22T09:00:19Z</time>
      </trkpt>
      <trkpt lat="44.42346" lon="6.21217">
        <ele>934.54</ele>
        <time>2011-11-22T09:00:20Z</time>
      </trkpt>
      <trkpt lat="44.4234" lon="6.21216">
        <ele>935.5</ele>
        <time>2011-11-22T09:00:24Z</time>
      </trkpt>
      <trkpt lat="44.42338" lon="6.21216">
        <ele>935.5</ele>
        <time>2011-11-22T09:00:25Z</time>
      </trkpt>
      <trkpt lat="44.42322" lon="6.21222">
        <ele>935.98</ele>
        <time>2011-11-22T09:00:36Z</time>
      </trkpt>
      <trkpt lat="44.42297" lon="6.21241">
        <ele>935.02</ele>
        <time>2011-11-22T09:00:46Z</time>
      </trkpt>
      <trkpt lat="44.42287" lon="6.21245">
        <ele>934.54</ele>
        <time>2011-11-22T09:00:49Z</time>
      </trkpt>
      <trkpt lat="44.42282" lon="6.21243">
        <ele>934.06</ele>
        <time>2011-11-22T09:00:50Z</time>
      </trkpt>
      <trkpt lat="44.42279" lon="6.21239">
        <ele>934.06</ele>
        <time>2011-11-22T09:00:51Z</time>
      </trkpt>
      <trkpt lat="44.42277" lon="6.21234">
        <ele>934.54</ele>
        <time>2011-11-22T09:00:52Z</time>
      </trkpt>
      <trkpt lat="44.42275" lon="6.2123">
        <ele>934.54</ele>
        <time>2011-11-22T09:00:53Z</time>
      </trkpt>
      <trkpt lat="44.42273" lon="6.21226">
        <ele>934.54</ele>
        <time>2011-11-22T09:00:54Z</time>
      </trkpt>
      <trkpt lat="44.42272" lon="6.21222">
        <ele>935.5</ele>
        <time>2011-11-22T09:00:55Z</time>
      </trkpt>
      <trkpt lat="44.42259" lon="6.21202">
        <ele>933.58</ele>
        <time>2011-11-22T09:01:01Z</time>
      </trkpt>
      <trkpt lat="44.42256" lon="6.21199">
        <ele>932.62</ele>
        <time>2011-11-22T09:01:02Z</time>
      </trkpt>
      <trkpt lat="44.42251" lon="6.21197">
        <ele>932.62</ele>
        <time>2011-11-22T09:01:03Z</time>
      </trkpt>
      <trkpt lat="44.42241" lon="6.21193">
        <ele>931.17</ele>
        <time>2011-11-22T09:01:05Z</time>
      </trkpt>
      <trkpt lat="44.42203" lon="6.21186">
        <ele>929.73</ele>
        <time>2011-11-22T09:01:11Z</time>
      </trkpt>
      <trkpt lat="44.42197" lon="6.21185">
        <ele>929.73</ele>
        <time>2011-11-22T09:01:12Z</time>
      </trkpt>
      <trkpt lat="44.42171" lon="6.21182">
        <ele>930.69</ele>
        <time>2011-11-22T09:01:19Z</time>
      </trkpt>
      <trkpt lat="44.42169" lon="6.21184">
        <ele>930.21</ele>
        <time>2011-11-22T09:01:20Z</time>
      </trkpt>
      <trkpt lat="44.4216" lon="6.21202">
        <ele>928.77</ele>
        <time>2011-11-22T09:01:25Z</time>
      </trkpt>
      <trkpt lat="44.42153" lon="6.2121">
        <ele>928.29</ele>
        <time>2011-11-22T09:01:27Z</time>
      </trkpt>
      <trkpt lat="44.42148" lon="6.21212">
        <ele>928.29</ele>
        <time>2011-11-22T09:01:28Z</time>
      </trkpt>
      <trkpt lat="44.42144" lon="6.2121">
        <ele>927.81</ele>
        <time>2011-11-22T09:01:29Z</time>
      </trkpt>
      <trkpt lat="44.4214" lon="6.21206">
        <ele>926.85</ele>
        <time>2011-11-22T09:01:30Z</time>
      </trkpt>
      <trkpt lat="44.42137" lon="6.21201">
        <ele>927.81</ele>
        <time>2011-11-22T09:01:31Z</time>
      </trkpt>
      <trkpt lat="44.42134" lon="6.21196">
        <ele>928.77</ele>
        <time>2011-11-22T09:01:32Z</time>
      </trkpt>
      <trkpt lat="44.42131" lon="6.21191">
        <ele>927.33</ele>
        <time>2011-11-22T09:01:33Z</time>
      </trkpt>
      <trkpt lat="44.42129" lon="6.21185">
        <ele>927.33</ele>
        <time>2011-11-22T09:01:34Z</time>
      </trkpt>
      <trkpt lat="44.42126" lon="6.2118">
        <ele>927.81</ele>
        <time>2011-11-22T09:01:35Z</time>
      </trkpt>
      <trkpt lat="44.42123" lon="6.21175">
        <ele>927.81</ele>
        <time>2011-11-22T09:01:36Z</time>
      </trkpt>
      <trkpt lat="44.42117" lon="6.21167">
        <ele>927.33</ele>
        <time>2011-11-22T09:01:38Z</time>
      </trkpt>
      <trkpt lat="44.42113" lon="6.21165">
        <ele>925.89</ele>
        <time>2011-11-22T09:01:39Z</time>
      </trkpt>
      <trkpt lat="44.42108" lon="6.21164">
        <ele>926.37</ele>
        <time>2011-11-22T09:01:40Z</time>
      </trkpt>
      <trkpt lat="44.42103" lon="6.21164">
        <ele>925.41</ele>
        <time>2011-11-22T09:01:41Z</time>
      </trkpt>
      <trkpt lat="44.42096" lon="6.21162">
        <ele>925.89</ele>
        <time>2011-11-22T09:01:42Z</time>
      </trkpt>
      <trkpt lat="44.42091" lon="6.21157">
        <ele>924.45</ele>
        <time>2011-11-22T09:01:43Z</time>
      </trkpt>
      <trkpt lat="44.42086" lon="6.2115">
        <ele>924.45</ele>
        <time>2011-11-22T09:01:44Z</time>
      </trkpt>
      <trkpt lat="44.42082" lon="6.21142">
        <ele>924.93</ele>
        <time>2011-11-22T09:01:45Z</time>
      </trkpt>
      <trkpt lat="44.42079" lon="6.21134">
        <ele>924.45</ele>
        <time>2011-11-22T09:01:46Z</time>
      </trkpt>
      <trkpt lat="44.42075" lon="6.21128">
        <ele>924.93</ele>
        <time>2011-11-22T09:01:47Z</time>
      </trkpt>
      <trkpt lat="44.42071" lon="6.21125">
        <ele>924.45</ele>
        <time>2011-11-22T09:01:48Z</time>
      </trkpt>
      <trkpt lat="44.42066" lon="6.21123">
        <ele>923.96</ele>
        <time>2011-11-22T09:01:49Z</time>
      </trkpt>
      <trkpt lat="44.42061" lon="6.21122">
        <ele>923</ele>
        <time>2011-11-22T09:01:50Z</time>
      </trkpt>
      <trkpt lat="44.42054" lon="6.2112">
        <ele>923</ele>
        <time>2011-11-22T09:01:51Z</time>
      </trkpt>
      <trkpt lat="44.42049" lon="6.21116">
        <ele>922.52</ele>
        <time>2011-11-22T09:01:52Z</time>
      </trkpt>
      <trkpt lat="44.42044" lon="6.2111">
        <ele>923</ele>
        <time>2011-11-22T09:01:53Z</time>
      </trkpt>
      <trkpt lat="44.4204" lon="6.21104">
        <ele>921.56</ele>
        <time>2011-11-22T09:01:54Z</time>
      </trkpt>
      <trkpt lat="44.42036" lon="6.21099">
        <ele>921.56</ele>
        <time>2011-11-22T09:01:55Z</time>
      </trkpt>
      <trkpt lat="44.42031" lon="6.21095">
        <ele>923</ele>
        <time>2011-11-22T09:01:56Z</time>
      </trkpt>
      <trkpt lat="44.42026" lon="6.21092">
        <ele>921.56</ele>
        <time>2011-11-22T09:01:57Z</time>
      </trkpt>
      <trkpt lat="44.42015" lon="6.21085">
        <ele>922.04</ele>
        <time>2011-11-22T09:01:59Z</time>
      </trkpt>
      <trkpt lat="44.4201" lon="6.21082">
        <ele>922.04</ele>
        <time>2011-11-22T09:02:00Z</time>
      </trkpt>
      <trkpt lat="44.42" lon="6.21075">
        <ele>920.12</ele>
        <time>2011-11-22T09:02:02Z</time>
      </trkpt>
      <trkpt lat="44.41994" lon="6.21073">
        <ele>921.08</ele>
        <time>2011-11-22T09:02:03Z</time>
      </trkpt>
      <trkpt lat="44.41989" lon="6.2107">
        <ele>920.12</ele>
        <time>2011-11-22T09:02:04Z</time>
      </trkpt>
      <trkpt lat="44.41985" lon="6.21065">
        <ele>920.12</ele>
        <time>2011-11-22T09:02:05Z</time>
      </trkpt>
      <trkpt lat="44.41981" lon="6.21059">
        <ele>919.16</ele>
        <time>2011-11-22T09:02:06Z</time>
      </trkpt>
      <trkpt lat="44.41969" lon="6.21044">
        <ele>916.27</ele>
        <time>2011-11-22T09:02:09Z</time>
      </trkpt>
      <trkpt lat="44.41965" lon="6.21039">
        <ele>915.31</ele>
        <time>2011-11-22T09:02:10Z</time>
      </trkpt>
      <trkpt lat="44.41954" lon="6.21029">
        <ele>914.35</ele>
        <time>2011-11-22T09:02:14Z</time>
      </trkpt>
      <trkpt lat="44.41952" lon="6.2103">
        <ele>914.35</ele>
        <time>2011-11-22T09:02:27Z</time>
      </trkpt>
      <trkpt lat="44.41952" lon="6.2103">
        <ele>913.87</ele>
        <time>2011-11-22T09:03:21Z</time>
      </trkpt>
      <trkpt lat="44.41952" lon="6.2103">
        <ele>915.79</ele>
        <time>2011-11-22T09:03:56Z</time>
      </trkpt>
      <trkpt lat="44.41951" lon="6.2103">
        <ele>915.31</ele>
        <time>2011-11-22T09:04:25Z</time>
      </trkpt>
      <trkpt lat="44.41951" lon="6.21029">
        <ele>915.79</ele>
        <time>2011-11-22T09:05:00Z</time>
      </trkpt>
      <trkpt lat="44.41951" lon="6.21028">
        <ele>916.75</ele>
        <time>2011-11-22T09:05:56Z</time>
      </trkpt>
      <trkpt lat="44.4195" lon="6.21027">
        <ele>915.79</ele>
        <time>2011-11-22T09:05:57Z</time>
      </trkpt>
      <trkpt lat="44.41948" lon="6.21025">
        <ele>916.75</ele>
        <time>2011-11-22T09:05:58Z</time>
      </trkpt>
      <trkpt lat="44.41947" lon="6.21024">
        <ele>916.27</ele>
        <time>2011-11-22T09:05:59Z</time>
      </trkpt>
      <trkpt lat="44.41945" lon="6.21023">
        <ele>916.75</ele>
        <time>2011-11-22T09:06:00Z</time>
      </trkpt>
      <trkpt lat="44.41943" lon="6.2102">
        <ele>915.79</ele>
        <time>2011-11-22T09:06:01Z</time>
      </trkpt>
      <trkpt lat="44.41941" lon="6.21017">
        <ele>916.27</ele>
        <time>2011-11-22T09:06:02Z</time>
      </trkpt>
      <trkpt lat="44.41939" lon="6.21014">
        <ele>915.31</ele>
        <time>2011-11-22T09:06:03Z</time>
      </trkpt>
      <trkpt lat="44.41934" lon="6.21006">
        <ele>913.87</ele>
        <time>2011-11-22T09:06:06Z</time>
      </trkpt>
      <trkpt lat="44.41932" lon="6.21005">
        <ele>913.87</ele>
        <time>2011-11-22T09:06:07Z</time>
      </trkpt>
      <trkpt lat="44.41928" lon="6.21003">
        <ele>913.87</ele>
        <time>2011-11-22T09:06:10Z</time>
      </trkpt>
      <trkpt lat="44.41926" lon="6.21004">
        <ele>913.39</ele>
        <time>2011-11-22T09:06:11Z</time>
      </trkpt>
      <trkpt lat="44.41925" lon="6.21005">
        <ele>913.39</ele>
        <time>2011-11-22T09:06:12Z</time>
      </trkpt>
      <trkpt lat="44.41923" lon="6.21006">
        <ele>912.43</ele>
        <time>2011-11-22T09:06:13Z</time>
      </trkpt>
      <trkpt lat="44.41922" lon="6.21009">
        <ele>912.43</ele>
        <time>2011-11-22T09:06:14Z</time>
      </trkpt>
      <trkpt lat="44.41921" lon="6.21011">
        <ele>911.95</ele>
        <time>2011-11-22T09:06:15Z</time>
      </trkpt>
      <trkpt lat="44.41919" lon="6.21014">
        <ele>911.95</ele>
        <time>2011-11-22T09:06:16Z</time>
      </trkpt>
      <trkpt lat="44.41918" lon="6.21018">
        <ele>911.47</ele>
        <time>2011-11-22T09:06:17Z</time>
      </trkpt>
      <trkpt lat="44.41916" lon="6.21022">
        <ele>910.99</ele>
        <time>2011-11-22T09:06:18Z</time>
      </trkpt>
      <trkpt lat="44.41914" lon="6.21025">
        <ele>910.51</ele>
        <time>2011-11-22T09:06:19Z</time>
      </trkpt>
      <trkpt lat="44.41912" lon="6.21028">
        <ele>909.06</ele>
        <time>2011-11-22T09:06:20Z</time>
      </trkpt>
      <trkpt lat="44.41911" lon="6.21032">
        <ele>909.06</ele>
        <time>2011-11-22T09:06:21Z</time>
      </trkpt>
      <trkpt lat="44.41896" lon="6.21047">
        <ele>908.1</ele>
        <time>2011-11-22T09:06:28Z</time>
      </trkpt>
      <trkpt lat="44.41894" lon="6.21045">
        <ele>907.62</ele>
        <time>2011-11-22T09:06:29Z</time>
      </trkpt>
      <trkpt lat="44.41892" lon="6.21042">
        <ele>907.62</ele>
        <time>2011-11-22T09:06:30Z</time>
      </trkpt>
      <trkpt lat="44.41891" lon="6.21038">
        <ele>907.62</ele>
        <time>2011-11-22T09:06:31Z</time>
      </trkpt>
      <trkpt lat="44.4189" lon="6.21033">
        <ele>907.62</ele>
        <time>2011-11-22T09:06:32Z</time>
      </trkpt>
      <trkpt lat="44.4189" lon="6.21027">
        <ele>907.62</ele>
        <time>2011-11-22T09:06:33Z</time>
      </trkpt>
      <trkpt lat="44.4189" lon="6.21022">
        <ele>906.66</ele>
        <time>2011-11-22T09:06:34Z</time>
      </trkpt>
      <trkpt lat="44.41888" lon="6.21008">
        <ele>906.66</ele>
        <time>2011-11-22T09:06:37Z</time>
      </trkpt>
      <trkpt lat="44.41874" lon="6.20992">
        <ele>908.1</ele>
        <time>2011-11-22T09:06:47Z</time>
      </trkpt>
      <trkpt lat="44.41873" lon="6.2099">
        <ele>908.58</ele>
        <time>2011-11-22T09:06:48Z</time>
      </trkpt>
      <trkpt lat="44.41872" lon="6.20989">
        <ele>908.58</ele>
        <time>2011-11-22T09:06:49Z</time>
      </trkpt>
      <trkpt lat="44.41871" lon="6.20987">
        <ele>909.06</ele>
        <time>2011-11-22T09:06:50Z</time>
      </trkpt>
      <trkpt lat="44.4187" lon="6.20986">
        <ele>909.54</ele>
        <time>2011-11-22T09:06:51Z</time>
      </trkpt>
      <trkpt lat="44.41869" lon="6.20984">
        <ele>909.06</ele>
        <time>2011-11-22T09:06:52Z</time>
      </trkpt>
      <trkpt lat="44.41867" lon="6.20982">
        <ele>909.54</ele>
        <time>2011-11-22T09:06:53Z</time>
      </trkpt>
      <trkpt lat="44.41866" lon="6.2098">
        <ele>909.54</ele>
        <time>2011-11-22T09:06:54Z</time>
      </trkpt>
      <trkpt lat="44.41852" lon="6.2097">
        <ele>912.43</ele>
        <time>2011-11-22T09:07:05Z</time>
      </trkpt>
      <trkpt lat="44.41852" lon="6.20969">
        <ele>912.43</ele>
        <time>2011-11-22T09:07:06Z</time>
      </trkpt>
      <trkpt lat="44.4185" lon="6.20968">
        <ele>912.91</ele>
        <time>2011-11-22T09:07:07Z</time>
      </trkpt>
      <trkpt lat="44.41849" lon="6.20967">
        <ele>913.39</ele>
        <time>2011-11-22T09:07:08Z</time>
      </trkpt>
      <trkpt lat="44.41848" lon="6.20966">
        <ele>913.39</ele>
        <time>2011-11-22T09:07:09Z</time>
      </trkpt>
      <trkpt lat="44.41847" lon="6.20965">
        <ele>912.91</ele>
        <time>2011-11-22T09:07:10Z</time>
      </trkpt>
      <trkpt lat="44.41845" lon="6.20964">
        <ele>912.91</ele>
        <time>2011-11-22T09:07:11Z</time>
      </trkpt>
      <trkpt lat="44.41841" lon="6.20964">
        <ele>913.87</ele>
        <time>2011-11-22T09:07:14Z</time>
      </trkpt>
      <trkpt lat="44.41826" lon="6.20959">
        <ele>915.31</ele>
        <time>2011-11-22T09:07:23Z</time>
      </trkpt>
      <trkpt lat="44.41825" lon="6.20959">
        <ele>915.31</ele>
        <time>2011-11-22T09:07:24Z</time>
      </trkpt>
      <trkpt lat="44.41808" lon="6.20959">
        <ele>916.27</ele>
        <time>2011-11-22T09:07:37Z</time>
      </trkpt>
      <trkpt lat="44.41803" lon="6.2096">
        <ele>916.27</ele>
        <time>2011-11-22T09:07:41Z</time>
      </trkpt>
      <trkpt lat="44.41801" lon="6.2096">
        <ele>916.75</ele>
        <time>2011-11-22T09:07:42Z</time>
      </trkpt>
      <trkpt lat="44.41799" lon="6.2096">
        <ele>916.75</ele>
        <time>2011-11-22T09:07:43Z</time>
      </trkpt>
      <trkpt lat="44.41797" lon="6.20961">
        <ele>916.75</ele>
        <time>2011-11-22T09:07:44Z</time>
      </trkpt>
      <trkpt lat="44.41796" lon="6.20961">
        <ele>916.75</ele>
        <time>2011-11-22T09:07:45Z</time>
      </trkpt>
      <trkpt lat="44.41794" lon="6.20961">
        <ele>917.72</ele>
        <time>2011-11-22T09:07:46Z</time>
      </trkpt>
      <trkpt lat="44.41792" lon="6.20961">
        <ele>917.72</ele>
        <time>2011-11-22T09:07:47Z</time>
      </trkpt>
      <trkpt lat="44.4179" lon="6.20962">
        <ele>916.75</ele>
        <time>2011-11-22T09:07:48Z</time>
      </trkpt>
      <trkpt lat="44.41766" lon="6.2097">
        <ele>918.2</ele>
        <time>2011-11-22T09:08:00Z</time>
      </trkpt>
      <trkpt lat="44.41744" lon="6.20985">
        <ele>918.68</ele>
        <time>2011-11-22T09:08:11Z</time>
      </trkpt>
      <trkpt lat="44.41724" lon="6.21009">
        <ele>919.16</ele>
        <time>2011-11-22T09:08:24Z</time>
      </trkpt>
      <trkpt lat="44.41723" lon="6.21038">
        <ele>920.12</ele>
        <time>2011-11-22T09:08:35Z</time>
      </trkpt>
      <trkpt lat="44.41722" lon="6.2104">
        <ele>921.08</ele>
        <time>2011-11-22T09:08:36Z</time>
      </trkpt>
      <trkpt lat="44.41721" lon="6.21042">
        <ele>921.56</ele>
        <time>2011-11-22T09:08:37Z</time>
      </trkpt>
      <trkpt lat="44.4172" lon="6.21044">
        <ele>921.08</ele>
        <time>2011-11-22T09:08:38Z</time>
      </trkpt>
      <trkpt lat="44.41719" lon="6.21046">
        <ele>920.6</ele>
        <time>2011-11-22T09:08:39Z</time>
      </trkpt>
      <trkpt lat="44.41718" lon="6.21047">
        <ele>921.56</ele>
        <time>2011-11-22T09:08:40Z</time>
      </trkpt>
      <trkpt lat="44.41716" lon="6.21049">
        <ele>921.56</ele>
        <time>2011-11-22T09:08:41Z</time>
      </trkpt>
      <trkpt lat="44.41714" lon="6.2105">
        <ele>922.04</ele>
        <time>2011-11-22T09:08:42Z</time>
      </trkpt>
      <trkpt lat="44.41713" lon="6.21051">
        <ele>921.08</ele>
        <time>2011-11-22T09:08:43Z</time>
      </trkpt>
      <trkpt lat="44.41711" lon="6.21051">
        <ele>921.56</ele>
        <time>2011-11-22T09:08:44Z</time>
      </trkpt>
      <trkpt lat="44.4171" lon="6.21052">
        <ele>922.52</ele>
        <time>2011-11-22T09:08:45Z</time>
      </trkpt>
      <trkpt lat="44.41708" lon="6.21053">
        <ele>922.52</ele>
        <time>2011-11-22T09:08:46Z</time>
      </trkpt>
      <trkpt lat="44.41685" lon="6.21056">
        <ele>923.48</ele>
        <time>2011-11-22T09:09:00Z</time>
      </trkpt>
      <trkpt lat="44.41662" lon="6.21064">
        <ele>924.93</ele>
        <time>2011-11-22T09:09:13Z</time>
      </trkpt>
      <trkpt lat="44.41646" lon="6.21068">
        <ele>925.89</ele>
        <time>2011-11-22T09:09:21Z</time>
      </trkpt>
      <trkpt lat="44.41644" lon="6.21068">
        <ele>926.37</ele>
        <time>2011-11-22T09:09:22Z</time>
      </trkpt>
      <trkpt lat="44.41642" lon="6.21069">
        <ele>926.37</ele>
        <time>2011-11-22T09:09:23Z</time>
      </trkpt>
      <trkpt lat="44.4164" lon="6.2107">
        <ele>927.33</ele>
        <time>2011-11-22T09:09:24Z</time>
      </trkpt>
      <trkpt lat="44.41638" lon="6.2107">
        <ele>926.85</ele>
        <time>2011-11-22T09:09:25Z</time>
      </trkpt>
      <trkpt lat="44.41613" lon="6.21079">
        <ele>928.29</ele>
        <time>2011-11-22T09:09:38Z</time>
      </trkpt>
      <trkpt lat="44.41588" lon="6.21084">
        <ele>928.77</ele>
        <time>2011-11-22T09:09:50Z</time>
      </trkpt>
      <trkpt lat="44.41566" lon="6.2109">
        <ele>931.17</ele>
        <time>2011-11-22T09:10:01Z</time>
      </trkpt>
      <trkpt lat="44.41531" lon="6.21097">
        <ele>928.77</ele>
        <time>2011-11-22T09:10:13Z</time>
      </trkpt>
      <trkpt lat="44.41527" lon="6.21098">
        <ele>929.25</ele>
        <time>2011-11-22T09:10:14Z</time>
      </trkpt>
      <trkpt lat="44.41523" lon="6.21097">
        <ele>929.25</ele>
        <time>2011-11-22T09:10:15Z</time>
      </trkpt>
      <trkpt lat="44.41519" lon="6.21095">
        <ele>930.69</ele>
        <time>2011-11-22T09:10:16Z</time>
      </trkpt>
      <trkpt lat="44.41515" lon="6.21092">
        <ele>929.73</ele>
        <time>2011-11-22T09:10:17Z</time>
      </trkpt>
      <trkpt lat="44.41512" lon="6.21089">
        <ele>928.77</ele>
        <time>2011-11-22T09:10:18Z</time>
      </trkpt>
      <trkpt lat="44.4151" lon="6.21086">
        <ele>928.77</ele>
        <time>2011-11-22T09:10:19Z</time>
      </trkpt>
      <trkpt lat="44.41508" lon="6.21084">
        <ele>929.73</ele>
        <time>2011-11-22T09:10:20Z</time>
      </trkpt>
      <trkpt lat="44.41488" lon="6.21088">
        <ele>933.1</ele>
        <time>2011-11-22T09:10:32Z</time>
      </trkpt>
      <trkpt lat="44.41486" lon="6.2109">
        <ele>933.1</ele>
        <time>2011-11-22T09:10:33Z</time>
      </trkpt>
      <trkpt lat="44.41474" lon="6.21099">
        <ele>934.06</ele>
        <time>2011-11-22T09:10:41Z</time>
      </trkpt>
      <trkpt lat="44.41473" lon="6.211">
        <ele>933.58</ele>
        <time>2011-11-22T09:10:42Z</time>
      </trkpt>
      <trkpt lat="44.41472" lon="6.21101">
        <ele>934.06</ele>
        <time>2011-11-22T09:10:43Z</time>
      </trkpt>
      <trkpt lat="44.41459" lon="6.21106">
        <ele>931.17</ele>
        <time>2011-11-22T09:10:49Z</time>
      </trkpt>
      <trkpt lat="44.41457" lon="6.21106">
        <ele>931.65</ele>
        <time>2011-11-22T09:10:51Z</time>
      </trkpt>
      <trkpt lat="44.41456" lon="6.21104">
        <ele>931.65</ele>
        <time>2011-11-22T09:10:52Z</time>
      </trkpt>
      <trkpt lat="44.41455" lon="6.21102">
        <ele>932.14</ele>
        <time>2011-11-22T09:10:53Z</time>
      </trkpt>
      <trkpt lat="44.41454" lon="6.21099">
        <ele>932.14</ele>
        <time>2011-11-22T09:10:54Z</time>
      </trkpt>
      <trkpt lat="44.41454" lon="6.21096">
        <ele>931.65</ele>
        <time>2011-11-22T09:10:55Z</time>
      </trkpt>
      <trkpt lat="44.41454" lon="6.21092">
        <ele>930.69</ele>
        <time>2011-11-22T09:10:56Z</time>
      </trkpt>
      <trkpt lat="44.41455" lon="6.21089">
        <ele>930.69</ele>
        <time>2011-11-22T09:10:57Z</time>
      </trkpt>
      <trkpt lat="44.41458" lon="6.21064">
        <ele>927.33</ele>
        <time>2011-11-22T09:11:04Z</time>
      </trkpt>
      <trkpt lat="44.41458" lon="6.21058">
        <ele>926.85</ele>
        <time>2011-11-22T09:11:05Z</time>
      </trkpt>
      <trkpt lat="44.41463" lon="6.21029">
        <ele>925.41</ele>
        <time>2011-11-22T09:11:09Z</time>
      </trkpt>
      <trkpt lat="44.41465" lon="6.21014">
        <ele>924.93</ele>
        <time>2011-11-22T09:11:11Z</time>
      </trkpt>
      <trkpt lat="44.41465" lon="6.21006">
        <ele>924.45</ele>
        <time>2011-11-22T09:11:12Z</time>
      </trkpt>
      <trkpt lat="44.41465" lon="6.20997">
        <ele>923</ele>
        <time>2011-11-22T09:11:13Z</time>
      </trkpt>
      <trkpt lat="44.41464" lon="6.20989">
        <ele>922.52</ele>
        <time>2011-11-22T09:11:14Z</time>
      </trkpt>
      <trkpt lat="44.41463" lon="6.20982">
        <ele>922.04</ele>
        <time>2011-11-22T09:11:15Z</time>
      </trkpt>
      <trkpt lat="44.41462" lon="6.20977">
        <ele>921.56</ele>
        <time>2011-11-22T09:11:16Z</time>
      </trkpt>
      <trkpt lat="44.41461" lon="6.20974">
        <ele>921.56</ele>
        <time>2011-11-22T09:11:17Z</time>
      </trkpt>
      <trkpt lat="44.41457" lon="6.20968">
        <ele>921.08</ele>
        <time>2011-11-22T09:11:20Z</time>
      </trkpt>
      <trkpt lat="44.41454" lon="6.20968">
        <ele>920.12</ele>
        <time>2011-11-22T09:11:21Z</time>
      </trkpt>
      <trkpt lat="44.41452" lon="6.2097">
        <ele>921.08</ele>
        <time>2011-11-22T09:11:22Z</time>
      </trkpt>
      <trkpt lat="44.41451" lon="6.20972">
        <ele>919.64</ele>
        <time>2011-11-22T09:11:25Z</time>
      </trkpt>
      <trkpt lat="44.41444" lon="6.20983">
        <ele>919.16</ele>
        <time>2011-11-22T09:11:42Z</time>
      </trkpt>
      <trkpt lat="44.41441" lon="6.20987">
        <ele>918.68</ele>
        <time>2011-11-22T09:11:43Z</time>
      </trkpt>
      <trkpt lat="44.41425" lon="6.21008">
        <ele>917.24</ele>
        <time>2011-11-22T09:11:47Z</time>
      </trkpt>
      <trkpt lat="44.41419" lon="6.21013">
        <ele>917.24</ele>
        <time>2011-11-22T09:11:48Z</time>
      </trkpt>
      <trkpt lat="44.41347" lon="6.21065">
        <ele>913.39</ele>
        <time>2011-11-22T09:12:00Z</time>
      </trkpt>
      <trkpt lat="44.41342" lon="6.21067">
        <ele>913.39</ele>
        <time>2011-11-22T09:12:01Z</time>
      </trkpt>
      <trkpt lat="44.41333" lon="6.2107">
        <ele>913.87</ele>
        <time>2011-11-22T09:12:03Z</time>
      </trkpt>
      <trkpt lat="44.41292" lon="6.21087">
        <ele>915.79</ele>
        <time>2011-11-22T09:12:15Z</time>
      </trkpt>
      <trkpt lat="44.41261" lon="6.21098">
        <ele>915.31</ele>
        <time>2011-11-22T09:12:28Z</time>
      </trkpt>
      <trkpt lat="44.41259" lon="6.21099">
        <ele>915.31</ele>
        <time>2011-11-22T09:12:29Z</time>
      </trkpt>
      <trkpt lat="44.41257" lon="6.211">
        <ele>914.83</ele>
        <time>2011-11-22T09:12:30Z</time>
      </trkpt>
      <trkpt lat="44.41254" lon="6.21101">
        <ele>915.79</ele>
        <time>2011-11-22T09:12:31Z</time>
      </trkpt>
      <trkpt lat="44.41252" lon="6.21102">
        <ele>915.31</ele>
        <time>2011-11-22T09:12:32Z</time>
      </trkpt>
      <trkpt lat="44.41249" lon="6.21103">
        <ele>914.83</ele>
        <time>2011-11-22T09:12:33Z</time>
      </trkpt>
      <trkpt lat="44.41246" lon="6.21103">
        <ele>914.35</ele>
        <time>2011-11-22T09:12:34Z</time>
      </trkpt>
      <trkpt lat="44.41203" lon="6.21122">
        <ele>914.83</ele>
        <time>2011-11-22T09:12:50Z</time>
      </trkpt>
      <trkpt lat="44.41179" lon="6.21111">
        <ele>915.79</ele>
        <time>2011-11-22T09:13:00Z</time>
      </trkpt>
      <trkpt lat="44.41171" lon="6.21071">
        <ele>917.24</ele>
        <time>2011-11-22T09:13:09Z</time>
      </trkpt>
      <trkpt lat="44.4116" lon="6.21031">
        <ele>919.16</ele>
        <time>2011-11-22T09:13:23Z</time>
      </trkpt>
      <trkpt lat="44.41159" lon="6.20996">
        <ele>922.04</ele>
        <time>2011-11-22T09:13:36Z</time>
      </trkpt>
      <trkpt lat="44.41151" lon="6.20972">
        <ele>924.45</ele>
        <time>2011-11-22T09:13:46Z</time>
      </trkpt>
      <trkpt lat="44.41149" lon="6.20973">
        <ele>924.45</ele>
        <time>2011-11-22T09:13:47Z</time>
      </trkpt>
      <trkpt lat="44.41147" lon="6.20974">
        <ele>924.93</ele>
        <time>2011-11-22T09:13:48Z</time>
      </trkpt>
      <trkpt lat="44.41146" lon="6.20975">
        <ele>924.45</ele>
        <time>2011-11-22T09:13:49Z</time>
      </trkpt>
      <trkpt lat="44.41144" lon="6.20977">
        <ele>925.41</ele>
        <time>2011-11-22T09:13:50Z</time>
      </trkpt>
      <trkpt lat="44.41142" lon="6.20979">
        <ele>923.96</ele>
        <time>2011-11-22T09:13:51Z</time>
      </trkpt>
      <trkpt lat="44.4114" lon="6.2098">
        <ele>924.93</ele>
        <time>2011-11-22T09:13:52Z</time>
      </trkpt>
      <trkpt lat="44.41139" lon="6.2098">
        <ele>925.41</ele>
        <time>2011-11-22T09:13:53Z</time>
      </trkpt>
      <trkpt lat="44.41137" lon="6.20981">
        <ele>925.89</ele>
        <time>2011-11-22T09:13:54Z</time>
      </trkpt>
      <trkpt lat="44.41135" lon="6.20982">
        <ele>925.89</ele>
        <time>2011-11-22T09:13:55Z</time>
      </trkpt>
      <trkpt lat="44.41133" lon="6.20982">
        <ele>925.41</ele>
        <time>2011-11-22T09:13:56Z</time>
      </trkpt>
      <trkpt lat="44.41131" lon="6.20982">
        <ele>925.89</ele>
        <time>2011-11-22T09:13:57Z</time>
      </trkpt>
      <trkpt lat="44.41129" lon="6.20982">
        <ele>926.85</ele>
        <time>2011-11-22T09:13:58Z</time>
      </trkpt>
      <trkpt lat="44.41127" lon="6.20983">
        <ele>926.85</ele>
        <time>2011-11-22T09:13:59Z</time>
      </trkpt>
      <trkpt lat="44.41126" lon="6.20983">
        <ele>927.33</ele>
        <time>2011-11-22T09:14:00Z</time>
      </trkpt>
      <trkpt lat="44.41108" lon="6.20982">
        <ele>928.29</ele>
        <time>2011-11-22T09:14:10Z</time>
      </trkpt>
      <trkpt lat="44.41091" lon="6.20987">
        <ele>931.65</ele>
        <time>2011-11-22T09:14:22Z</time>
      </trkpt>
      <trkpt lat="44.41073" lon="6.20995">
        <ele>933.1</ele>
        <time>2011-11-22T09:14:33Z</time>
      </trkpt>
      <trkpt lat="44.41056" lon="6.21007">
        <ele>934.54</ele>
        <time>2011-11-22T09:14:46Z</time>
      </trkpt>
      <trkpt lat="44.41042" lon="6.21017">
        <ele>936.94</ele>
        <time>2011-11-22T09:14:56Z</time>
      </trkpt>
      <trkpt lat="44.41025" lon="6.21029">
        <ele>937.9</ele>
        <time>2011-11-22T09:15:07Z</time>
      </trkpt>
      <trkpt lat="44.41019" lon="6.21034">
        <ele>939.35</ele>
        <time>2011-11-22T09:15:11Z</time>
      </trkpt>
      <trkpt lat="44.40999" lon="6.21046">
        <ele>940.31</ele>
        <time>2011-11-22T09:15:23Z</time>
      </trkpt>
      <trkpt lat="44.40996" lon="6.21048">
        <ele>940.31</ele>
        <time>2011-11-22T09:15:25Z</time>
      </trkpt>
      <trkpt lat="44.40995" lon="6.21048">
        <ele>941.75</ele>
        <time>2011-11-22T09:15:26Z</time>
      </trkpt>
      <trkpt lat="44.40993" lon="6.21048">
        <ele>941.75</ele>
        <time>2011-11-22T09:15:27Z</time>
      </trkpt>
      <trkpt lat="44.40991" lon="6.21048">
        <ele>940.79</ele>
        <time>2011-11-22T09:15:28Z</time>
      </trkpt>
      <trkpt lat="44.40989" lon="6.21048">
        <ele>941.27</ele>
        <time>2011-11-22T09:15:29Z</time>
      </trkpt>
      <trkpt lat="44.40987" lon="6.21048">
        <ele>941.27</ele>
        <time>2011-11-22T09:15:30Z</time>
      </trkpt>
      <trkpt lat="44.40973" lon="6.21051">
        <ele>942.71</ele>
        <time>2011-11-22T09:15:38Z</time>
      </trkpt>
      <trkpt lat="44.40971" lon="6.21052">
        <ele>944.15</ele>
        <time>2011-11-22T09:15:39Z</time>
      </trkpt>
      <trkpt lat="44.4097" lon="6.21054">
        <ele>943.19</ele>
        <time>2011-11-22T09:15:40Z</time>
      </trkpt>
      <trkpt lat="44.40967" lon="6.21063">
        <ele>944.63</ele>
        <time>2011-11-22T09:15:44Z</time>
      </trkpt>
      <trkpt lat="44.40968" lon="6.21065">
        <ele>945.11</ele>
        <time>2011-11-22T09:15:45Z</time>
      </trkpt>
      <trkpt lat="44.40972" lon="6.2107">
        <ele>944.63</ele>
        <time>2011-11-22T09:15:48Z</time>
      </trkpt>
      <trkpt lat="44.40973" lon="6.21071">
        <ele>944.63</ele>
        <time>2011-11-22T09:15:49Z</time>
      </trkpt>
      <trkpt lat="44.40976" lon="6.21072">
        <ele>944.63</ele>
        <time>2011-11-22T09:15:50Z</time>
      </trkpt>
      <trkpt lat="44.40978" lon="6.21073">
        <ele>944.63</ele>
        <time>2011-11-22T09:15:51Z</time>
      </trkpt>
      <trkpt lat="44.4098" lon="6.21072">
        <ele>944.63</ele>
        <time>2011-11-22T09:15:52Z</time>
      </trkpt>
      <trkpt lat="44.40996" lon="6.21069">
        <ele>945.59</ele>
        <time>2011-11-22T09:16:01Z</time>
      </trkpt>
      <trkpt lat="44.40998" lon="6.21068">
        <ele>946.07</ele>
        <time>2011-11-22T09:16:02Z</time>
      </trkpt>
      <trkpt lat="44.41" lon="6.21066">
        <ele>946.56</ele>
        <time>2011-11-22T09:16:03Z</time>
      </trkpt>
      <trkpt lat="44.41001" lon="6.21065">
        <ele>946.56</ele>
        <time>2011-11-22T09:16:04Z</time>
      </trkpt>
      <trkpt lat="44.41003" lon="6.21065">
        <ele>946.07</ele>
        <time>2011-11-22T09:16:05Z</time>
      </trkpt>
      <trkpt lat="44.41004" lon="6.21064">
        <ele>947.04</ele>
        <time>2011-11-22T09:16:06Z</time>
      </trkpt>
      <trkpt lat="44.41006" lon="6.21063">
        <ele>947.04</ele>
        <time>2011-11-22T09:16:07Z</time>
      </trkpt>
      <trkpt lat="44.41007" lon="6.21062">
        <ele>947.52</ele>
        <time>2011-11-22T09:16:08Z</time>
      </trkpt>
      <trkpt lat="44.41026" lon="6.21056">
        <ele>948.48</ele>
        <time>2011-11-22T09:16:17Z</time>
      </trkpt>
      <trkpt lat="44.41028" lon="6.21057">
        <ele>947.52</ele>
        <time>2011-11-22T09:16:18Z</time>
      </trkpt>
      <trkpt lat="44.41039" lon="6.21068">
        <ele>948</ele>
        <time>2011-11-22T09:16:23Z</time>
      </trkpt>
      <trkpt lat="44.41039" lon="6.21072">
        <ele>948</ele>
        <time>2011-11-22T09:16:24Z</time>
      </trkpt>
      <trkpt lat="44.41036" lon="6.21089">
        <ele>949.44</ele>
        <time>2011-11-22T09:16:29Z</time>
      </trkpt>
      <trkpt lat="44.41035" lon="6.21092">
        <ele>948.96</ele>
        <time>2011-11-22T09:16:30Z</time>
      </trkpt>
      <trkpt lat="44.41034" lon="6.21095">
        <ele>949.44</ele>
        <time>2011-11-22T09:16:31Z</time>
      </trkpt>
      <trkpt lat="44.41033" lon="6.21098">
        <ele>948.96</ele>
        <time>2011-11-22T09:16:32Z</time>
      </trkpt>
      <trkpt lat="44.41031" lon="6.211">
        <ele>948.96</ele>
        <time>2011-11-22T09:16:33Z</time>
      </trkpt>
      <trkpt lat="44.4103" lon="6.21102">
        <ele>948.96</ele>
        <time>2011-11-22T09:16:34Z</time>
      </trkpt>
      <trkpt lat="44.41029" lon="6.21103">
        <ele>949.92</ele>
        <time>2011-11-22T09:16:35Z</time>
      </trkpt>
      <trkpt lat="44.41027" lon="6.21104">
        <ele>950.88</ele>
        <time>2011-11-22T09:16:36Z</time>
      </trkpt>
      <trkpt lat="44.41026" lon="6.21105">
        <ele>950.88</ele>
        <time>2011-11-22T09:16:37Z</time>
      </trkpt>
      <trkpt lat="44.41021" lon="6.21109">
        <ele>950.4</ele>
        <time>2011-11-22T09:16:40Z</time>
      </trkpt>
      <trkpt lat="44.41019" lon="6.2111">
        <ele>950.88</ele>
        <time>2011-11-22T09:16:41Z</time>
      </trkpt>
      <trkpt lat="44.41017" lon="6.21111">
        <ele>950.88</ele>
        <time>2011-11-22T09:16:42Z</time>
      </trkpt>
      <trkpt lat="44.41015" lon="6.21111">
        <ele>951.84</ele>
        <time>2011-11-22T09:16:43Z</time>
      </trkpt>
      <trkpt lat="44.41014" lon="6.21112">
        <ele>951.36</ele>
        <time>2011-11-22T09:16:44Z</time>
      </trkpt>
      <trkpt lat="44.41012" lon="6.21112">
        <ele>952.32</ele>
        <time>2011-11-22T09:16:45Z</time>
      </trkpt>
      <trkpt lat="44.4101" lon="6.21112">
        <ele>951.84</ele>
        <time>2011-11-22T09:16:46Z</time>
      </trkpt>
      <trkpt lat="44.41009" lon="6.21112">
        <ele>952.8</ele>
        <time>2011-11-22T09:16:47Z</time>
      </trkpt>
      <trkpt lat="44.41007" lon="6.21111">
        <ele>952.8</ele>
        <time>2011-11-22T09:16:48Z</time>
      </trkpt>
      <trkpt lat="44.40989" lon="6.21106">
        <ele>954.25</ele>
        <time>2011-11-22T09:16:58Z</time>
      </trkpt>
      <trkpt lat="44.40988" lon="6.21106">
        <ele>954.73</ele>
        <time>2011-11-22T09:16:59Z</time>
      </trkpt>
      <trkpt lat="44.40986" lon="6.21106">
        <ele>954.25</ele>
        <time>2011-11-22T09:17:00Z</time>
      </trkpt>
      <trkpt lat="44.40984" lon="6.21106">
        <ele>954.25</ele>
        <time>2011-11-22T09:17:01Z</time>
      </trkpt>
      <trkpt lat="44.40982" lon="6.21106">
        <ele>954.25</ele>
        <time>2011-11-22T09:17:02Z</time>
      </trkpt>
      <trkpt lat="44.40981" lon="6.21106">
        <ele>955.69</ele>
        <time>2011-11-22T09:17:03Z</time>
      </trkpt>
      <trkpt lat="44.40979" lon="6.21107">
        <ele>955.21</ele>
        <time>2011-11-22T09:17:04Z</time>
      </trkpt>
      <trkpt lat="44.40978" lon="6.21108">
        <ele>955.69</ele>
        <time>2011-11-22T09:17:05Z</time>
      </trkpt>
      <trkpt lat="44.40977" lon="6.21109">
        <ele>955.21</ele>
        <time>2011-11-22T09:17:06Z</time>
      </trkpt>
      <trkpt lat="44.40975" lon="6.21109">
        <ele>955.69</ele>
        <time>2011-11-22T09:17:07Z</time>
      </trkpt>
      <trkpt lat="44.40973" lon="6.2111">
        <ele>955.21</ele>
        <time>2011-11-22T09:17:08Z</time>
      </trkpt>
      <trkpt lat="44.40972" lon="6.21111">
        <ele>956.17</ele>
        <time>2011-11-22T09:17:09Z</time>
      </trkpt>
      <trkpt lat="44.40952" lon="6.21116">
        <ele>958.09</ele>
        <time>2011-11-22T09:17:20Z</time>
      </trkpt>
      <trkpt lat="44.40933" lon="6.21117">
        <ele>958.57</ele>
        <time>2011-11-22T09:17:31Z</time>
      </trkpt>
      <trkpt lat="44.40915" lon="6.21116">
        <ele>960.98</ele>
        <time>2011-11-22T09:17:41Z</time>
      </trkpt>
      <trkpt lat="44.40893" lon="6.21119">
        <ele>962.9</ele>
        <time>2011-11-22T09:17:55Z</time>
      </trkpt>
      <trkpt lat="44.4088" lon="6.2113">
        <ele>964.34</ele>
        <time>2011-11-22T09:18:04Z</time>
      </trkpt>
      <trkpt lat="44.40879" lon="6.21131">
        <ele>963.86</ele>
        <time>2011-11-22T09:18:05Z</time>
      </trkpt>
      <trkpt lat="44.40878" lon="6.21133">
        <ele>965.3</ele>
        <time>2011-11-22T09:18:06Z</time>
      </trkpt>
      <trkpt lat="44.40877" lon="6.21134">
        <ele>964.34</ele>
        <time>2011-11-22T09:18:07Z</time>
      </trkpt>
      <trkpt lat="44.40875" lon="6.21136">
        <ele>964.82</ele>
        <time>2011-11-22T09:18:08Z</time>
      </trkpt>
      <trkpt lat="44.40874" lon="6.21137">
        <ele>964.34</ele>
        <time>2011-11-22T09:18:09Z</time>
      </trkpt>
      <trkpt lat="44.40874" lon="6.21139">
        <ele>964.82</ele>
        <time>2011-11-22T09:18:10Z</time>
      </trkpt>
      <trkpt lat="44.40872" lon="6.2114">
        <ele>965.78</ele>
        <time>2011-11-22T09:18:11Z</time>
      </trkpt>
      <trkpt lat="44.40871" lon="6.21142">
        <ele>965.3</ele>
        <time>2011-11-22T09:18:12Z</time>
      </trkpt>
      <trkpt lat="44.4087" lon="6.21143">
        <ele>965.3</ele>
        <time>2011-11-22T09:18:13Z</time>
      </trkpt>
      <trkpt lat="44.40868" lon="6.21145">
        <ele>964.82</ele>
        <time>2011-11-22T09:18:14Z</time>
      </trkpt>
      <trkpt lat="44.40867" lon="6.21146">
        <ele>966.26</ele>
        <time>2011-11-22T09:18:15Z</time>
      </trkpt>
      <trkpt lat="44.40863" lon="6.21152">
        <ele>968.18</ele>
        <time>2011-11-22T09:18:18Z</time>
      </trkpt>
      <trkpt lat="44.40849" lon="6.21173">
        <ele>968.18</ele>
        <time>2011-11-22T09:18:30Z</time>
      </trkpt>
      <trkpt lat="44.40847" lon="6.21175">
        <ele>967.7</ele>
        <time>2011-11-22T09:18:31Z</time>
      </trkpt>
      <trkpt lat="44.40832" lon="6.21193">
        <ele>969.15</ele>
        <time>2011-11-22T09:18:42Z</time>
      </trkpt>
      <trkpt lat="44.40819" lon="6.21204">
        <ele>970.59</ele>
        <time>2011-11-22T09:18:54Z</time>
      </trkpt>
      <trkpt lat="44.40819" lon="6.21204">
        <ele>969.63</ele>
        <time>2011-11-22T09:19:22Z</time>
      </trkpt>
      <trkpt lat="44.40819" lon="6.21203">
        <ele>970.59</ele>
        <time>2011-11-22T09:19:33Z</time>
      </trkpt>
      <trkpt lat="44.40819" lon="6.21203">
        <ele>970.59</ele>
        <time>2011-11-22T09:19:46Z</time>
      </trkpt>
      <trkpt lat="44.40819" lon="6.21203">
        <ele>970.59</ele>
        <time>2011-11-22T09:20:15Z</time>
      </trkpt>
      <trkpt lat="44.40819" lon="6.21203">
        <ele>970.59</ele>
        <time>2011-11-22T09:20:30Z</time>
      </trkpt>
      <trkpt lat="44.40819" lon="6.21204">
        <ele>970.11</ele>
        <time>2011-11-22T09:20:45Z</time>
      </trkpt>
      <trkpt lat="44.40819" lon="6.21204">
        <ele>972.03</ele>
        <time>2011-11-22T09:22:12Z</time>
      </trkpt>
      <trkpt lat="44.40818" lon="6.21204">
        <ele>971.55</ele>
        <time>2011-11-22T09:22:36Z</time>
      </trkpt>
      <trkpt lat="44.40815" lon="6.21206">
        <ele>971.55</ele>
        <time>2011-11-22T09:22:57Z</time>
      </trkpt>
      <trkpt lat="44.40818" lon="6.21204">
        <ele>972.99</ele>
        <time>2011-11-22T09:23:23Z</time>
      </trkpt>
      <trkpt lat="44.40818" lon="6.21205">
        <ele>971.55</ele>
        <time>2011-11-22T09:23:51Z</time>
      </trkpt>
      <trkpt lat="44.40818" lon="6.21205">
        <ele>972.51</ele>
        <time>2011-11-22T09:24:00Z</time>
      </trkpt>
      <trkpt lat="44.40818" lon="6.21204">
        <ele>972.03</ele>
        <time>2011-11-22T09:24:21Z</time>
      </trkpt>
      <trkpt lat="44.40818" lon="6.21203">
        <ele>972.03</ele>
        <time>2011-11-22T09:25:00Z</time>
      </trkpt>
      <trkpt lat="44.40818" lon="6.21204">
        <ele>972.03</ele>
        <time>2011-11-22T09:25:34Z</time>
      </trkpt>
      <trkpt lat="44.40815" lon="6.21202">
        <ele>972.99</ele>
        <time>2011-11-22T09:25:46Z</time>
      </trkpt>
      <trkpt lat="44.40814" lon="6.21202">
        <ele>972.51</ele>
        <time>2011-11-22T09:25:47Z</time>
      </trkpt>
      <trkpt lat="44.40813" lon="6.21202">
        <ele>972.03</ele>
        <time>2011-11-22T09:25:48Z</time>
      </trkpt>
      <trkpt lat="44.40791" lon="6.2121">
        <ele>972.51</ele>
        <time>2011-11-22T09:25:58Z</time>
      </trkpt>
      <trkpt lat="44.40767" lon="6.21214">
        <ele>972.51</ele>
        <time>2011-11-22T09:26:07Z</time>
      </trkpt>
      <trkpt lat="44.40737" lon="6.21219">
        <ele>972.99</ele>
        <time>2011-11-22T09:26:18Z</time>
      </trkpt>
      <trkpt lat="44.40707" lon="6.21224">
        <ele>973.95</ele>
        <time>2011-11-22T09:26:29Z</time>
      </trkpt>
      <trkpt lat="44.4068" lon="6.21227">
        <ele>975.39</ele>
        <time>2011-11-22T09:26:39Z</time>
      </trkpt>
      <trkpt lat="44.40653" lon="6.21241">
        <ele>978.76</ele>
        <time>2011-11-22T09:26:51Z</time>
      </trkpt>
      <trkpt lat="44.40635" lon="6.21261">
        <ele>979.72</ele>
        <time>2011-11-22T09:27:03Z</time>
      </trkpt>
      <trkpt lat="44.40625" lon="6.21275">
        <ele>981.64</ele>
        <time>2011-11-22T09:27:10Z</time>
      </trkpt>
      <trkpt lat="44.40611" lon="6.213">
        <ele>982.6</ele>
        <time>2011-11-22T09:27:22Z</time>
      </trkpt>
      <trkpt lat="44.40604" lon="6.21332">
        <ele>984.05</ele>
        <time>2011-11-22T09:27:34Z</time>
      </trkpt>
      <trkpt lat="44.40602" lon="6.21363">
        <ele>985.97</ele>
        <time>2011-11-22T09:27:45Z</time>
      </trkpt>
      <trkpt lat="44.40599" lon="6.21395">
        <ele>987.89</ele>
        <time>2011-11-22T09:27:57Z</time>
      </trkpt>
      <trkpt lat="44.40599" lon="6.21401">
        <ele>988.37</ele>
        <time>2011-11-22T09:27:59Z</time>
      </trkpt>
      <trkpt lat="44.40599" lon="6.21404">
        <ele>987.89</ele>
        <time>2011-11-22T09:28:00Z</time>
      </trkpt>
      <trkpt lat="44.40598" lon="6.21406">
        <ele>987.89</ele>
        <time>2011-11-22T09:28:01Z</time>
      </trkpt>
      <trkpt lat="44.40598" lon="6.21409">
        <ele>987.89</ele>
        <time>2011-11-22T09:28:02Z</time>
      </trkpt>
      <trkpt lat="44.40598" lon="6.21412">
        <ele>988.85</ele>
        <time>2011-11-22T09:28:03Z</time>
      </trkpt>
      <trkpt lat="44.40598" lon="6.21415">
        <ele>988.85</ele>
        <time>2011-11-22T09:28:04Z</time>
      </trkpt>
      <trkpt lat="44.40594" lon="6.2145">
        <ele>990.3</ele>
        <time>2011-11-22T09:28:17Z</time>
      </trkpt>
      <trkpt lat="44.40599" lon="6.21489">
        <ele>991.74</ele>
        <time>2011-11-22T09:28:32Z</time>
      </trkpt>
      <trkpt lat="44.40609" lon="6.21513">
        <ele>994.14</ele>
        <time>2011-11-22T09:28:43Z</time>
      </trkpt>
      <trkpt lat="44.40619" lon="6.21531">
        <ele>995.1</ele>
        <time>2011-11-22T09:28:52Z</time>
      </trkpt>
      <trkpt lat="44.40621" lon="6.21533">
        <ele>995.1</ele>
        <time>2011-11-22T09:28:53Z</time>
      </trkpt>
      <trkpt lat="44.40622" lon="6.21534">
        <ele>995.58</ele>
        <time>2011-11-22T09:28:54Z</time>
      </trkpt>
      <trkpt lat="44.40624" lon="6.21536">
        <ele>995.1</ele>
        <time>2011-11-22T09:28:55Z</time>
      </trkpt>
      <trkpt lat="44.40625" lon="6.21538">
        <ele>995.1</ele>
        <time>2011-11-22T09:28:56Z</time>
      </trkpt>
      <trkpt lat="44.40649" lon="6.21553">
        <ele>996.54</ele>
        <time>2011-11-22T09:29:09Z</time>
      </trkpt>
      <trkpt lat="44.40669" lon="6.21558">
        <ele>997.51</ele>
        <time>2011-11-22T09:29:20Z</time>
      </trkpt>
      <trkpt lat="44.40685" lon="6.2157">
        <ele>998.47</ele>
        <time>2011-11-22T09:29:29Z</time>
      </trkpt>
      <trkpt lat="44.40686" lon="6.21573">
        <ele>998.95</ele>
        <time>2011-11-22T09:29:30Z</time>
      </trkpt>
      <trkpt lat="44.40686" lon="6.21576">
        <ele>999.43</ele>
        <time>2011-11-22T09:29:31Z</time>
      </trkpt>
      <trkpt lat="44.40687" lon="6.21578">
        <ele>999.43</ele>
        <time>2011-11-22T09:29:32Z</time>
      </trkpt>
      <trkpt lat="44.40687" lon="6.21581">
        <ele>999.43</ele>
        <time>2011-11-22T09:29:33Z</time>
      </trkpt>
      <trkpt lat="44.40686" lon="6.21583">
        <ele>1000.39</ele>
        <time>2011-11-22T09:29:34Z</time>
      </trkpt>
      <trkpt lat="44.40684" lon="6.21587">
        <ele>999.91</ele>
        <time>2011-11-22T09:29:36Z</time>
      </trkpt>
      <trkpt lat="44.40683" lon="6.21589">
        <ele>998.95</ele>
        <time>2011-11-22T09:29:37Z</time>
      </trkpt>
      <trkpt lat="44.40682" lon="6.21592">
        <ele>1000.87</ele>
        <time>2011-11-22T09:29:38Z</time>
      </trkpt>
      <trkpt lat="44.4068" lon="6.21593">
        <ele>999.91</ele>
        <time>2011-11-22T09:29:39Z</time>
      </trkpt>
      <trkpt lat="44.40679" lon="6.21594">
        <ele>1000.39</ele>
        <time>2011-11-22T09:29:40Z</time>
      </trkpt>
      <trkpt lat="44.40677" lon="6.21596">
        <ele>1000.39</ele>
        <time>2011-11-22T09:29:41Z</time>
      </trkpt>
      <trkpt lat="44.40675" lon="6.21597">
        <ele>1001.83</ele>
        <time>2011-11-22T09:29:42Z</time>
      </trkpt>
      <trkpt lat="44.40657" lon="6.21614">
        <ele>1003.27</ele>
        <time>2011-11-22T09:29:54Z</time>
      </trkpt>
      <trkpt lat="44.40648" lon="6.21617">
        <ele>1003.27</ele>
        <time>2011-11-22T09:29:58Z</time>
      </trkpt>
      <trkpt lat="44.40645" lon="6.21622">
        <ele>1004.23</ele>
        <time>2011-11-22T09:30:01Z</time>
      </trkpt>
      <trkpt lat="44.40633" lon="6.21645">
        <ele>1005.68</ele>
        <time>2011-11-22T09:30:12Z</time>
      </trkpt>
      <trkpt lat="44.40634" lon="6.21647">
        <ele>1005.2</ele>
        <time>2011-11-22T09:30:13Z</time>
      </trkpt>
      <trkpt lat="44.40632" lon="6.21648">
        <ele>1004.72</ele>
        <time>2011-11-22T09:30:14Z</time>
      </trkpt>
      <trkpt lat="44.4063" lon="6.21649">
        <ele>1004.72</ele>
        <time>2011-11-22T09:30:15Z</time>
      </trkpt>
      <trkpt lat="44.40629" lon="6.2165">
        <ele>1005.68</ele>
        <time>2011-11-22T09:30:16Z</time>
      </trkpt>
      <trkpt lat="44.40628" lon="6.21652">
        <ele>1004.72</ele>
        <time>2011-11-22T09:30:17Z</time>
      </trkpt>
      <trkpt lat="44.40626" lon="6.21652">
        <ele>1004.72</ele>
        <time>2011-11-22T09:30:18Z</time>
      </trkpt>
      <trkpt lat="44.40625" lon="6.21653">
        <ele>1005.2</ele>
        <time>2011-11-22T09:30:19Z</time>
      </trkpt>
      <trkpt lat="44.40622" lon="6.21655">
        <ele>1005.68</ele>
        <time>2011-11-22T09:30:20Z</time>
      </trkpt>
      <trkpt lat="44.4062" lon="6.21656">
        <ele>1005.2</ele>
        <time>2011-11-22T09:30:21Z</time>
      </trkpt>
      <trkpt lat="44.40596" lon="6.21678">
        <ele>1006.16</ele>
        <time>2011-11-22T09:30:34Z</time>
      </trkpt>
      <trkpt lat="44.40573" lon="6.21694">
        <ele>1007.12</ele>
        <time>2011-11-22T09:30:46Z</time>
      </trkpt>
      <trkpt lat="44.40554" lon="6.21709">
        <ele>1007.12</ele>
        <time>2011-11-22T09:30:56Z</time>
      </trkpt>
      <trkpt lat="44.4054" lon="6.21721">
        <ele>1009.04</ele>
        <time>2011-11-22T09:31:04Z</time>
      </trkpt>
      <trkpt lat="44.40538" lon="6.21723">
        <ele>1009.04</ele>
        <time>2011-11-22T09:31:05Z</time>
      </trkpt>
      <trkpt lat="44.40537" lon="6.21725">
        <ele>1009.04</ele>
        <time>2011-11-22T09:31:06Z</time>
      </trkpt>
      <trkpt lat="44.40534" lon="6.21727">
        <ele>1010</ele>
        <time>2011-11-22T09:31:07Z</time>
      </trkpt>
      <trkpt lat="44.40532" lon="6.21728">
        <ele>1009.52</ele>
        <time>2011-11-22T09:31:08Z</time>
      </trkpt>
      <trkpt lat="44.4053" lon="6.2173">
        <ele>1008.56</ele>
        <time>2011-11-22T09:31:09Z</time>
      </trkpt>
      <trkpt lat="44.40504" lon="6.21752">
        <ele>1011.44</ele>
        <time>2011-11-22T09:31:22Z</time>
      </trkpt>
      <trkpt lat="44.40479" lon="6.21773">
        <ele>1014.33</ele>
        <time>2011-11-22T09:31:37Z</time>
      </trkpt>
      <trkpt lat="44.40452" lon="6.21785">
        <ele>1016.25</ele>
        <time>2011-11-22T09:31:51Z</time>
      </trkpt>
      <trkpt lat="44.40441" lon="6.21786">
        <ele>1017.69</ele>
        <time>2011-11-22T09:31:56Z</time>
      </trkpt>
      <trkpt lat="44.4044" lon="6.21786">
        <ele>1017.69</ele>
        <time>2011-11-22T09:31:57Z</time>
      </trkpt>
      <trkpt lat="44.40438" lon="6.21786">
        <ele>1017.21</ele>
        <time>2011-11-22T09:31:58Z</time>
      </trkpt>
      <trkpt lat="44.40435" lon="6.21786">
        <ele>1017.69</ele>
        <time>2011-11-22T09:31:59Z</time>
      </trkpt>
      <trkpt lat="44.40433" lon="6.21785">
        <ele>1017.69</ele>
        <time>2011-11-22T09:32:00Z</time>
      </trkpt>
      <trkpt lat="44.40431" lon="6.21785">
        <ele>1018.17</ele>
        <time>2011-11-22T09:32:01Z</time>
      </trkpt>
      <trkpt lat="44.40429" lon="6.21785">
        <ele>1018.17</ele>
        <time>2011-11-22T09:32:02Z</time>
      </trkpt>
      <trkpt lat="44.40427" lon="6.21785">
        <ele>1018.65</ele>
        <time>2011-11-22T09:32:03Z</time>
      </trkpt>
      <trkpt lat="44.40399" lon="6.21784">
        <ele>1020.1</ele>
        <time>2011-11-22T09:32:16Z</time>
      </trkpt>
      <trkpt lat="44.40371" lon="6.21784">
        <ele>1021.06</ele>
        <time>2011-11-22T09:32:29Z</time>
      </trkpt>
      <trkpt lat="44.4034" lon="6.21786">
        <ele>1021.54</ele>
        <time>2011-11-22T09:32:42Z</time>
      </trkpt>
      <trkpt lat="44.4031" lon="6.21791">
        <ele>1023.94</ele>
        <time>2011-11-22T09:32:55Z</time>
      </trkpt>
      <trkpt lat="44.4028" lon="6.21802">
        <ele>1024.9</ele>
        <time>2011-11-22T09:33:08Z</time>
      </trkpt>
      <trkpt lat="44.40248" lon="6.21818">
        <ele>1027.79</ele>
        <time>2011-11-22T09:33:22Z</time>
      </trkpt>
      <trkpt lat="44.40217" lon="6.21838">
        <ele>1029.71</ele>
        <time>2011-11-22T09:33:36Z</time>
      </trkpt>
      <trkpt lat="44.40184" lon="6.21864">
        <ele>1030.19</ele>
        <time>2011-11-22T09:33:50Z</time>
      </trkpt>
      <trkpt lat="44.40174" lon="6.21907">
        <ele>1032.11</ele>
        <time>2011-11-22T09:34:02Z</time>
      </trkpt>
      <trkpt lat="44.40172" lon="6.21961">
        <ele>1032.59</ele>
        <time>2011-11-22T09:34:16Z</time>
      </trkpt>
      <trkpt lat="44.4017" lon="6.22009">
        <ele>1033.07</ele>
        <time>2011-11-22T09:34:28Z</time>
      </trkpt>
      <trkpt lat="44.4016" lon="6.2204">
        <ele>1033.55</ele>
        <time>2011-11-22T09:34:36Z</time>
      </trkpt>
      <trkpt lat="44.40157" lon="6.22041">
        <ele>1032.59</ele>
        <time>2011-11-22T09:34:37Z</time>
      </trkpt>
      <trkpt lat="44.40128" lon="6.22016">
        <ele>1034.52</ele>
        <time>2011-11-22T09:34:48Z</time>
      </trkpt>
      <trkpt lat="44.40102" lon="6.21996">
        <ele>1035.48</ele>
        <time>2011-11-22T09:34:58Z</time>
      </trkpt>
      <trkpt lat="44.40071" lon="6.22023">
        <ele>1036.44</ele>
        <time>2011-11-22T09:35:10Z</time>
      </trkpt>
      <trkpt lat="44.40053" lon="6.22074">
        <ele>1036.44</ele>
        <time>2011-11-22T09:35:22Z</time>
      </trkpt>
      <trkpt lat="44.40019" lon="6.22119">
        <ele>1037.4</ele>
        <time>2011-11-22T09:35:35Z</time>
      </trkpt>
      <trkpt lat="44.39982" lon="6.22158">
        <ele>1037.88</ele>
        <time>2011-11-22T09:35:47Z</time>
      </trkpt>
      <trkpt lat="44.39975" lon="6.22161">
        <ele>1038.84</ele>
        <time>2011-11-22T09:35:49Z</time>
      </trkpt>
      <trkpt lat="44.39972" lon="6.22161">
        <ele>1038.36</ele>
        <time>2011-11-22T09:35:50Z</time>
      </trkpt>
      <trkpt lat="44.39969" lon="6.22159">
        <ele>1037.88</ele>
        <time>2011-11-22T09:35:51Z</time>
      </trkpt>
      <trkpt lat="44.39965" lon="6.22155">
        <ele>1037.4</ele>
        <time>2011-11-22T09:35:52Z</time>
      </trkpt>
      <trkpt lat="44.39962" lon="6.22151">
        <ele>1038.36</ele>
        <time>2011-11-22T09:35:53Z</time>
      </trkpt>
      <trkpt lat="44.3996" lon="6.22146">
        <ele>1038.36</ele>
        <time>2011-11-22T09:35:54Z</time>
      </trkpt>
      <trkpt lat="44.39958" lon="6.22141">
        <ele>1038.36</ele>
        <time>2011-11-22T09:35:55Z</time>
      </trkpt>
      <trkpt lat="44.39956" lon="6.22135">
        <ele>1037.88</ele>
        <time>2011-11-22T09:35:56Z</time>
      </trkpt>
      <trkpt lat="44.3994" lon="6.22093">
        <ele>1040.28</ele>
        <time>2011-11-22T09:36:06Z</time>
      </trkpt>
      <trkpt lat="44.3991" lon="6.22066">
        <ele>1042.69</ele>
        <time>2011-11-22T09:36:18Z</time>
      </trkpt>
      <trkpt lat="44.39886" lon="6.22035">
        <ele>1044.61</ele>
        <time>2011-11-22T09:36:30Z</time>
      </trkpt>
      <trkpt lat="44.39867" lon="6.22016">
        <ele>1046.53</ele>
        <time>2011-11-22T09:36:40Z</time>
      </trkpt>
      <trkpt lat="44.39841" lon="6.22008">
        <ele>1048.94</ele>
        <time>2011-11-22T09:36:52Z</time>
      </trkpt>
      <trkpt lat="44.39816" lon="6.22003">
        <ele>1051.82</ele>
        <time>2011-11-22T09:37:04Z</time>
      </trkpt>
      <trkpt lat="44.39792" lon="6.21991">
        <ele>1051.82</ele>
        <time>2011-11-22T09:37:17Z</time>
      </trkpt>
      <trkpt lat="44.39778" lon="6.21981">
        <ele>1054.7</ele>
        <time>2011-11-22T09:37:25Z</time>
      </trkpt>
      <trkpt lat="44.39753" lon="6.21958">
        <ele>1057.11</ele>
        <time>2011-11-22T09:37:40Z</time>
      </trkpt>
      <trkpt lat="44.39731" lon="6.21935">
        <ele>1059.51</ele>
        <time>2011-11-22T09:37:53Z</time>
      </trkpt>
      <trkpt lat="44.39711" lon="6.21914">
        <ele>1061.43</ele>
        <time>2011-11-22T09:38:06Z</time>
      </trkpt>
      <trkpt lat="44.39704" lon="6.21904">
        <ele>1061.91</ele>
        <time>2011-11-22T09:38:12Z</time>
      </trkpt>
      <trkpt lat="44.39703" lon="6.21904">
        <ele>1061.91</ele>
        <time>2011-11-22T09:38:25Z</time>
      </trkpt>
      <trkpt lat="44.39701" lon="6.219">
        <ele>1061.91</ele>
        <time>2011-11-22T09:38:51Z</time>
      </trkpt>
      <trkpt lat="44.39699" lon="6.21898">
        <ele>1062.39</ele>
        <time>2011-11-22T09:38:52Z</time>
      </trkpt>
      <trkpt lat="44.39698" lon="6.21896">
        <ele>1061.91</ele>
        <time>2011-11-22T09:38:53Z</time>
      </trkpt>
      <trkpt lat="44.39696" lon="6.21895">
        <ele>1061.91</ele>
        <time>2011-11-22T09:38:54Z</time>
      </trkpt>
      <trkpt lat="44.39695" lon="6.21895">
        <ele>1061.43</ele>
        <time>2011-11-22T09:38:55Z</time>
      </trkpt>
      <trkpt lat="44.39693" lon="6.21895">
        <ele>1061.43</ele>
        <time>2011-11-22T09:38:56Z</time>
      </trkpt>
      <trkpt lat="44.39691" lon="6.21896">
        <ele>1062.87</ele>
        <time>2011-11-22T09:38:57Z</time>
      </trkpt>
      <trkpt lat="44.39686" lon="6.21899">
        <ele>1062.39</ele>
        <time>2011-11-22T09:39:01Z</time>
      </trkpt>
      <trkpt lat="44.39685" lon="6.21901">
        <ele>1062.39</ele>
        <time>2011-11-22T09:39:02Z</time>
      </trkpt>
      <trkpt lat="44.39685" lon="6.21903">
        <ele>1062.87</ele>
        <time>2011-11-22T09:39:03Z</time>
      </trkpt>
      <trkpt lat="44.39686" lon="6.21905">
        <ele>1062.87</ele>
        <time>2011-11-22T09:39:04Z</time>
      </trkpt>
      <trkpt lat="44.39687" lon="6.21907">
        <ele>1062.87</ele>
        <time>2011-11-22T09:39:05Z</time>
      </trkpt>
      <trkpt lat="44.39689" lon="6.21909">
        <ele>1063.36</ele>
        <time>2011-11-22T09:39:06Z</time>
      </trkpt>
      <trkpt lat="44.39701" lon="6.21937">
        <ele>1063.84</ele>
        <time>2011-11-22T09:39:18Z</time>
      </trkpt>
      <trkpt lat="44.39716" lon="6.21974">
        <ele>1065.76</ele>
        <time>2011-11-22T09:39:33Z</time>
      </trkpt>
      <trkpt lat="44.39731" lon="6.22008">
        <ele>1067.2</ele>
        <time>2011-11-22T09:39:46Z</time>
      </trkpt>
      <trkpt lat="44.39735" lon="6.2202">
        <ele>1066.72</ele>
        <time>2011-11-22T09:39:50Z</time>
      </trkpt>
      <trkpt lat="44.39736" lon="6.22023">
        <ele>1068.64</ele>
        <time>2011-11-22T09:39:51Z</time>
      </trkpt>
      <trkpt lat="44.39737" lon="6.22026">
        <ele>1067.2</ele>
        <time>2011-11-22T09:39:52Z</time>
      </trkpt>
      <trkpt lat="44.39751" lon="6.22059">
        <ele>1068.64</ele>
        <time>2011-11-22T09:40:04Z</time>
      </trkpt>
      <trkpt lat="44.39763" lon="6.22089">
        <ele>1070.08</ele>
        <time>2011-11-22T09:40:15Z</time>
      </trkpt>
      <trkpt lat="44.39775" lon="6.22116">
        <ele>1071.05</ele>
        <time>2011-11-22T09:40:25Z</time>
      </trkpt>
      <trkpt lat="44.3979" lon="6.22155">
        <ele>1072.49</ele>
        <time>2011-11-22T09:40:39Z</time>
      </trkpt>
      <trkpt lat="44.39802" lon="6.22196">
        <ele>1072.97</ele>
        <time>2011-11-22T09:40:52Z</time>
      </trkpt>
      <trkpt lat="44.39806" lon="6.22244">
        <ele>1073.45</ele>
        <time>2011-11-22T09:41:05Z</time>
      </trkpt>
      <trkpt lat="44.3981" lon="6.22293">
        <ele>1072.97</ele>
        <time>2011-11-22T09:41:17Z</time>
      </trkpt>
      <trkpt lat="44.39811" lon="6.2234">
        <ele>1074.41</ele>
        <time>2011-11-22T09:41:28Z</time>
      </trkpt>
      <trkpt lat="44.39802" lon="6.2238">
        <ele>1074.89</ele>
        <time>2011-11-22T09:41:38Z</time>
      </trkpt>
      <trkpt lat="44.39778" lon="6.22415">
        <ele>1075.85</ele>
        <time>2011-11-22T09:41:49Z</time>
      </trkpt>
      <trkpt lat="44.39764" lon="6.22457">
        <ele>1076.81</ele>
        <time>2011-11-22T09:42:00Z</time>
      </trkpt>
      <trkpt lat="44.39761" lon="6.22508">
        <ele>1077.78</ele>
        <time>2011-11-22T09:42:13Z</time>
      </trkpt>
      <trkpt lat="44.39767" lon="6.22553">
        <ele>1079.7</ele>
        <time>2011-11-22T09:42:24Z</time>
      </trkpt>
      <trkpt lat="44.3977" lon="6.22556">
        <ele>1079.7</ele>
        <time>2011-11-22T09:42:25Z</time>
      </trkpt>
      <trkpt lat="44.39772" lon="6.22557">
        <ele>1080.18</ele>
        <time>2011-11-22T09:42:26Z</time>
      </trkpt>
      <trkpt lat="44.39775" lon="6.22558">
        <ele>1080.18</ele>
        <time>2011-11-22T09:42:27Z</time>
      </trkpt>
      <trkpt lat="44.39778" lon="6.22559">
        <ele>1080.18</ele>
        <time>2011-11-22T09:42:28Z</time>
      </trkpt>
      <trkpt lat="44.39817" lon="6.22558">
        <ele>1080.66</ele>
        <time>2011-11-22T09:42:40Z</time>
      </trkpt>
      <trkpt lat="44.39846" lon="6.22551">
        <ele>1081.14</ele>
        <time>2011-11-22T09:42:50Z</time>
      </trkpt>
      <trkpt lat="44.39859" lon="6.22515">
        <ele>1082.58</ele>
        <time>2011-11-22T09:42:59Z</time>
      </trkpt>
      <trkpt lat="44.39872" lon="6.22504">
        <ele>1082.1</ele>
        <time>2011-11-22T09:43:04Z</time>
      </trkpt>
      <trkpt lat="44.39875" lon="6.22504">
        <ele>1082.1</ele>
        <time>2011-11-22T09:43:05Z</time>
      </trkpt>
      <trkpt lat="44.39878" lon="6.22505">
        <ele>1081.62</ele>
        <time>2011-11-22T09:43:06Z</time>
      </trkpt>
      <trkpt lat="44.39882" lon="6.22506">
        <ele>1083.06</ele>
        <time>2011-11-22T09:43:07Z</time>
      </trkpt>
      <trkpt lat="44.39885" lon="6.22509">
        <ele>1083.54</ele>
        <time>2011-11-22T09:43:08Z</time>
      </trkpt>
      <trkpt lat="44.39918" lon="6.22537">
        <ele>1083.06</ele>
        <time>2011-11-22T09:43:19Z</time>
      </trkpt>
      <trkpt lat="44.39961" lon="6.22558">
        <ele>1084.02</ele>
        <time>2011-11-22T09:43:32Z</time>
      </trkpt>
      <trkpt lat="44.39972" lon="6.22562">
        <ele>1084.99</ele>
        <time>2011-11-22T09:43:35Z</time>
      </trkpt>
      <trkpt lat="44.40013" lon="6.22577">
        <ele>1085.95</ele>
        <time>2011-11-22T09:43:46Z</time>
      </trkpt>
      <trkpt lat="44.40047" lon="6.2259">
        <ele>1084.5</ele>
        <time>2011-11-22T09:43:55Z</time>
      </trkpt>
      <trkpt lat="44.40094" lon="6.2258">
        <ele>1087.39</ele>
        <time>2011-11-22T09:44:08Z</time>
      </trkpt>
      <trkpt lat="44.40137" lon="6.2256">
        <ele>1086.91</ele>
        <time>2011-11-22T09:44:20Z</time>
      </trkpt>
      <trkpt lat="44.40166" lon="6.22549">
        <ele>1089.31</ele>
        <time>2011-11-22T09:44:28Z</time>
      </trkpt>
      <trkpt lat="44.40198" lon="6.22569">
        <ele>1090.27</ele>
        <time>2011-11-22T09:44:38Z</time>
      </trkpt>
      <trkpt lat="44.40197" lon="6.2261">
        <ele>1091.23</ele>
        <time>2011-11-22T09:44:47Z</time>
      </trkpt>
      <trkpt lat="44.40186" lon="6.22646">
        <ele>1093.16</ele>
        <time>2011-11-22T09:44:58Z</time>
      </trkpt>
      <trkpt lat="44.40182" lon="6.2266">
        <ele>1094.12</ele>
        <time>2011-11-22T09:45:02Z</time>
      </trkpt>
      <trkpt lat="44.40182" lon="6.22664">
        <ele>1094.12</ele>
        <time>2011-11-22T09:45:03Z</time>
      </trkpt>
      <trkpt lat="44.40174" lon="6.22702">
        <ele>1095.08</ele>
        <time>2011-11-22T09:45:14Z</time>
      </trkpt>
      <trkpt lat="44.40168" lon="6.22729">
        <ele>1097</ele>
        <time>2011-11-22T09:45:22Z</time>
      </trkpt>
      <trkpt lat="44.40163" lon="6.22772">
        <ele>1098.44</ele>
        <time>2011-11-22T09:45:34Z</time>
      </trkpt>
      <trkpt lat="44.40163" lon="6.22776">
        <ele>1098.92</ele>
        <time>2011-11-22T09:45:35Z</time>
      </trkpt>
      <trkpt lat="44.40163" lon="6.22779">
        <ele>1099.4</ele>
        <time>2011-11-22T09:45:36Z</time>
      </trkpt>
      <trkpt lat="44.40163" lon="6.22783">
        <ele>1099.4</ele>
        <time>2011-11-22T09:45:37Z</time>
      </trkpt>
      <trkpt lat="44.40163" lon="6.22786">
        <ele>1098.92</ele>
        <time>2011-11-22T09:45:38Z</time>
      </trkpt>
      <trkpt lat="44.40163" lon="6.2279">
        <ele>1098.92</ele>
        <time>2011-11-22T09:45:39Z</time>
      </trkpt>
      <trkpt lat="44.40164" lon="6.22794">
        <ele>1099.4</ele>
        <time>2011-11-22T09:45:40Z</time>
      </trkpt>
      <trkpt lat="44.40164" lon="6.22798">
        <ele>1098.92</ele>
        <time>2011-11-22T09:45:41Z</time>
      </trkpt>
      <trkpt lat="44.40165" lon="6.22801">
        <ele>1099.89</ele>
        <time>2011-11-22T09:45:42Z</time>
      </trkpt>
      <trkpt lat="44.40166" lon="6.22805">
        <ele>1099.89</ele>
        <time>2011-11-22T09:45:43Z</time>
      </trkpt>
      <trkpt lat="44.40166" lon="6.22809">
        <ele>1099.89</ele>
        <time>2011-11-22T09:45:44Z</time>
      </trkpt>
      <trkpt lat="44.40173" lon="6.22845">
        <ele>1100.85</ele>
        <time>2011-11-22T09:45:54Z</time>
      </trkpt>
      <trkpt lat="44.40181" lon="6.22884">
        <ele>1102.77</ele>
        <time>2011-11-22T09:46:05Z</time>
      </trkpt>
      <trkpt lat="44.40178" lon="6.22923">
        <ele>1103.73</ele>
        <time>2011-11-22T09:46:16Z</time>
      </trkpt>
      <trkpt lat="44.40166" lon="6.2296">
        <ele>1105.17</ele>
        <time>2011-11-22T09:46:28Z</time>
      </trkpt>
      <trkpt lat="44.40146" lon="6.22983">
        <ele>1106.61</ele>
        <time>2011-11-22T09:46:39Z</time>
      </trkpt>
      <trkpt lat="44.40121" lon="6.22991">
        <ele>1109.5</ele>
        <time>2011-11-22T09:46:49Z</time>
      </trkpt>
      <trkpt lat="44.40097" lon="6.23007">
        <ele>1109.98</ele>
        <time>2011-11-22T09:47:00Z</time>
      </trkpt>
      <trkpt lat="44.4008" lon="6.23022">
        <ele>1111.42</ele>
        <time>2011-11-22T09:47:09Z</time>
      </trkpt>
      <trkpt lat="44.40077" lon="6.23023">
        <ele>1111.42</ele>
        <time>2011-11-22T09:47:10Z</time>
      </trkpt>
      <trkpt lat="44.40075" lon="6.23024">
        <ele>1111.42</ele>
        <time>2011-11-22T09:47:11Z</time>
      </trkpt>
      <trkpt lat="44.40054" lon="6.23043">
        <ele>1113.82</ele>
        <time>2011-11-22T09:47:22Z</time>
      </trkpt>
      <trkpt lat="44.40052" lon="6.23044">
        <ele>1113.34</ele>
        <time>2011-11-22T09:47:23Z</time>
      </trkpt>
      <trkpt lat="44.4005" lon="6.23046">
        <ele>1113.82</ele>
        <time>2011-11-22T09:47:24Z</time>
      </trkpt>
      <trkpt lat="44.40025" lon="6.23066">
        <ele>1114.79</ele>
        <time>2011-11-22T09:47:36Z</time>
      </trkpt>
      <trkpt lat="44.39997" lon="6.23082">
        <ele>1116.23</ele>
        <time>2011-11-22T09:47:48Z</time>
      </trkpt>
      <trkpt lat="44.39971" lon="6.231">
        <ele>1118.63</ele>
        <time>2011-11-22T09:47:59Z</time>
      </trkpt>
      <trkpt lat="44.39945" lon="6.23125">
        <ele>1119.59</ele>
        <time>2011-11-22T09:48:12Z</time>
      </trkpt>
      <trkpt lat="44.39924" lon="6.23146">
        <ele>1122</ele>
        <time>2011-11-22T09:48:22Z</time>
      </trkpt>
      <trkpt lat="44.399" lon="6.23163">
        <ele>1122</ele>
        <time>2011-11-22T09:48:33Z</time>
      </trkpt>
      <trkpt lat="44.39868" lon="6.23174">
        <ele>1124.88</ele>
        <time>2011-11-22T09:48:46Z</time>
      </trkpt>
      <trkpt lat="44.39842" lon="6.23184">
        <ele>1126.32</ele>
        <time>2011-11-22T09:48:57Z</time>
      </trkpt>
      <trkpt lat="44.39812" lon="6.23203">
        <ele>1127.76</ele>
        <time>2011-11-22T09:49:09Z</time>
      </trkpt>
      <trkpt lat="44.39808" lon="6.23206">
        <ele>1127.28</ele>
        <time>2011-11-22T09:49:11Z</time>
      </trkpt>
      <trkpt lat="44.39807" lon="6.23208">
        <ele>1128.24</ele>
        <time>2011-11-22T09:49:12Z</time>
      </trkpt>
      <trkpt lat="44.39805" lon="6.23211">
        <ele>1128.24</ele>
        <time>2011-11-22T09:49:13Z</time>
      </trkpt>
      <trkpt lat="44.39802" lon="6.23213">
        <ele>1127.28</ele>
        <time>2011-11-22T09:49:14Z</time>
      </trkpt>
      <trkpt lat="44.398" lon="6.23215">
        <ele>1128.73</ele>
        <time>2011-11-22T09:49:15Z</time>
      </trkpt>
      <trkpt lat="44.39798" lon="6.23216">
        <ele>1128.24</ele>
        <time>2011-11-22T09:49:16Z</time>
      </trkpt>
      <trkpt lat="44.39795" lon="6.23218">
        <ele>1128.73</ele>
        <time>2011-11-22T09:49:17Z</time>
      </trkpt>
      <trkpt lat="44.39793" lon="6.2322">
        <ele>1129.21</ele>
        <time>2011-11-22T09:49:18Z</time>
      </trkpt>
      <trkpt lat="44.39791" lon="6.23221">
        <ele>1129.21</ele>
        <time>2011-11-22T09:49:19Z</time>
      </trkpt>
      <trkpt lat="44.39789" lon="6.23223">
        <ele>1129.21</ele>
        <time>2011-11-22T09:49:20Z</time>
      </trkpt>
      <trkpt lat="44.39787" lon="6.23225">
        <ele>1129.21</ele>
        <time>2011-11-22T09:49:21Z</time>
      </trkpt>
      <trkpt lat="44.39757" lon="6.23246">
        <ele>1131.13</ele>
        <time>2011-11-22T09:49:34Z</time>
      </trkpt>
      <trkpt lat="44.39755" lon="6.23248">
        <ele>1130.65</ele>
        <time>2011-11-22T09:49:35Z</time>
      </trkpt>
      <trkpt lat="44.39753" lon="6.2325">
        <ele>1131.13</ele>
        <time>2011-11-22T09:49:36Z</time>
      </trkpt>
      <trkpt lat="44.39725" lon="6.23277">
        <ele>1133.05</ele>
        <time>2011-11-22T09:49:49Z</time>
      </trkpt>
      <trkpt lat="44.39697" lon="6.23309">
        <ele>1134.97</ele>
        <time>2011-11-22T09:50:03Z</time>
      </trkpt>
      <trkpt lat="44.39674" lon="6.23322">
        <ele>1136.9</ele>
        <time>2011-11-22T09:50:15Z</time>
      </trkpt>
      <trkpt lat="44.39645" lon="6.23313">
        <ele>1137.86</ele>
        <time>2011-11-22T09:50:27Z</time>
      </trkpt>
      <trkpt lat="44.39623" lon="6.23306">
        <ele>1139.78</ele>
        <time>2011-11-22T09:50:38Z</time>
      </trkpt>
      <trkpt lat="44.39591" lon="6.23308">
        <ele>1141.22</ele>
        <time>2011-11-22T09:50:50Z</time>
      </trkpt>
      <trkpt lat="44.39566" lon="6.23335">
        <ele>1143.14</ele>
        <time>2011-11-22T09:51:02Z</time>
      </trkpt>
      <trkpt lat="44.39584" lon="6.23357">
        <ele>1144.11</ele>
        <time>2011-11-22T09:51:13Z</time>
      </trkpt>
      <trkpt lat="44.39607" lon="6.23361">
        <ele>1145.07</ele>
        <time>2011-11-22T09:51:23Z</time>
      </trkpt>
      <trkpt lat="44.39608" lon="6.23361">
        <ele>1145.55</ele>
        <time>2011-11-22T09:51:24Z</time>
      </trkpt>
      <trkpt lat="44.39621" lon="6.23369">
        <ele>1146.99</ele>
        <time>2011-11-22T09:51:32Z</time>
      </trkpt>
      <trkpt lat="44.39624" lon="6.23371">
        <ele>1146.99</ele>
        <time>2011-11-22T09:51:33Z</time>
      </trkpt>
      <trkpt lat="44.39625" lon="6.23373">
        <ele>1147.47</ele>
        <time>2011-11-22T09:51:34Z</time>
      </trkpt>
      <trkpt lat="44.39628" lon="6.23375">
        <ele>1147.47</ele>
        <time>2011-11-22T09:51:35Z</time>
      </trkpt>
      <trkpt lat="44.3963" lon="6.23377">
        <ele>1146.51</ele>
        <time>2011-11-22T09:51:36Z</time>
      </trkpt>
      <trkpt lat="44.39631" lon="6.23379">
        <ele>1147.95</ele>
        <time>2011-11-22T09:51:37Z</time>
      </trkpt>
      <trkpt lat="44.39633" lon="6.23381">
        <ele>1147.95</ele>
        <time>2011-11-22T09:51:38Z</time>
      </trkpt>
      <trkpt lat="44.39656" lon="6.23398">
        <ele>1148.91</ele>
        <time>2011-11-22T09:51:49Z</time>
      </trkpt>
      <trkpt lat="44.39678" lon="6.23412">
        <ele>1149.87</ele>
        <time>2011-11-22T09:52:00Z</time>
      </trkpt>
      <trkpt lat="44.39684" lon="6.23418">
        <ele>1150.35</ele>
        <time>2011-11-22T09:52:05Z</time>
      </trkpt>
      <trkpt lat="44.39685" lon="6.23419">
        <ele>1151.32</ele>
        <time>2011-11-22T09:52:06Z</time>
      </trkpt>
      <trkpt lat="44.39688" lon="6.2342">
        <ele>1150.84</ele>
        <time>2011-11-22T09:52:07Z</time>
      </trkpt>
      <trkpt lat="44.3969" lon="6.23421">
        <ele>1151.8</ele>
        <time>2011-11-22T09:52:08Z</time>
      </trkpt>
      <trkpt lat="44.39693" lon="6.23421">
        <ele>1151.32</ele>
        <time>2011-11-22T09:52:09Z</time>
      </trkpt>
      <trkpt lat="44.39696" lon="6.23422">
        <ele>1151.8</ele>
        <time>2011-11-22T09:52:10Z</time>
      </trkpt>
      <trkpt lat="44.39717" lon="6.23428">
        <ele>1152.28</ele>
        <time>2011-11-22T09:52:18Z</time>
      </trkpt>
      <trkpt lat="44.39723" lon="6.23427">
        <ele>1153.24</ele>
        <time>2011-11-22T09:52:21Z</time>
      </trkpt>
      <trkpt lat="44.39725" lon="6.23428">
        <ele>1153.24</ele>
        <time>2011-11-22T09:52:22Z</time>
      </trkpt>
      <trkpt lat="44.39726" lon="6.23428">
        <ele>1153.24</ele>
        <time>2011-11-22T09:52:23Z</time>
      </trkpt>
      <trkpt lat="44.3973" lon="6.23428">
        <ele>1154.2</ele>
        <time>2011-11-22T09:52:36Z</time>
      </trkpt>
      <trkpt lat="44.3973" lon="6.23428">
        <ele>1152.76</ele>
        <time>2011-11-22T09:52:41Z</time>
      </trkpt>
      <trkpt lat="44.39744" lon="6.2343">
        <ele>1152.76</ele>
        <time>2011-11-22T09:53:25Z</time>
      </trkpt>
      <trkpt lat="44.39769" lon="6.23417">
        <ele>1154.2</ele>
        <time>2011-11-22T09:53:37Z</time>
      </trkpt>
      <trkpt lat="44.39789" lon="6.23404">
        <ele>1156.12</ele>
        <time>2011-11-22T09:53:49Z</time>
      </trkpt>
      <trkpt lat="44.3979" lon="6.23405">
        <ele>1156.12</ele>
        <time>2011-11-22T09:54:51Z</time>
      </trkpt>
      <trkpt lat="44.39792" lon="6.23406">
        <ele>1156.12</ele>
        <time>2011-11-22T09:55:02Z</time>
      </trkpt>
      <trkpt lat="44.39793" lon="6.23407">
        <ele>1156.12</ele>
        <time>2011-11-22T09:55:03Z</time>
      </trkpt>
      <trkpt lat="44.39795" lon="6.23407">
        <ele>1156.12</ele>
        <time>2011-11-22T09:55:04Z</time>
      </trkpt>
      <trkpt lat="44.39798" lon="6.23407">
        <ele>1156.12</ele>
        <time>2011-11-22T09:55:05Z</time>
      </trkpt>
      <trkpt lat="44.398" lon="6.23408">
        <ele>1156.12</ele>
        <time>2011-11-22T09:55:06Z</time>
      </trkpt>
      <trkpt lat="44.39802" lon="6.23408">
        <ele>1156.6</ele>
        <time>2011-11-22T09:55:07Z</time>
      </trkpt>
      <trkpt lat="44.39818" lon="6.2341">
        <ele>1157.08</ele>
        <time>2011-11-22T09:55:13Z</time>
      </trkpt>
      <trkpt lat="44.39848" lon="6.23406">
        <ele>1159.49</ele>
        <time>2011-11-22T09:55:24Z</time>
      </trkpt>
      <trkpt lat="44.39875" lon="6.23391">
        <ele>1160.45</ele>
        <time>2011-11-22T09:55:35Z</time>
      </trkpt>
      <trkpt lat="44.39902" lon="6.23388">
        <ele>1162.37</ele>
        <time>2011-11-22T09:55:46Z</time>
      </trkpt>
      <trkpt lat="44.39907" lon="6.23389">
        <ele>1161.89</ele>
        <time>2011-11-22T09:55:48Z</time>
      </trkpt>
      <trkpt lat="44.3991" lon="6.23389">
        <ele>1161.89</ele>
        <time>2011-11-22T09:55:49Z</time>
      </trkpt>
      <trkpt lat="44.39912" lon="6.23389">
        <ele>1161.89</ele>
        <time>2011-11-22T09:55:50Z</time>
      </trkpt>
      <trkpt lat="44.39914" lon="6.23389">
        <ele>1162.85</ele>
        <time>2011-11-22T09:55:51Z</time>
      </trkpt>
      <trkpt lat="44.39916" lon="6.23389">
        <ele>1163.81</ele>
        <time>2011-11-22T09:55:52Z</time>
      </trkpt>
      <trkpt lat="44.39919" lon="6.23391">
        <ele>1162.37</ele>
        <time>2011-11-22T09:55:53Z</time>
      </trkpt>
      <trkpt lat="44.39922" lon="6.23392">
        <ele>1162.85</ele>
        <time>2011-11-22T09:55:54Z</time>
      </trkpt>
      <trkpt lat="44.39925" lon="6.23394">
        <ele>1163.81</ele>
        <time>2011-11-22T09:55:55Z</time>
      </trkpt>
      <trkpt lat="44.39927" lon="6.23395">
        <ele>1163.33</ele>
        <time>2011-11-22T09:55:56Z</time>
      </trkpt>
      <trkpt lat="44.39928" lon="6.23396">
        <ele>1163.33</ele>
        <time>2011-11-22T09:55:57Z</time>
      </trkpt>
      <trkpt lat="44.3993" lon="6.23398">
        <ele>1162.85</ele>
        <time>2011-11-22T09:55:58Z</time>
      </trkpt>
      <trkpt lat="44.39932" lon="6.234">
        <ele>1164.29</ele>
        <time>2011-11-22T09:55:59Z</time>
      </trkpt>
      <trkpt lat="44.39934" lon="6.23404">
        <ele>1164.77</ele>
        <time>2011-11-22T09:56:00Z</time>
      </trkpt>
      <trkpt lat="44.39936" lon="6.23407">
        <ele>1164.29</ele>
        <time>2011-11-22T09:56:01Z</time>
      </trkpt>
      <trkpt lat="44.39938" lon="6.23411">
        <ele>1164.29</ele>
        <time>2011-11-22T09:56:02Z</time>
      </trkpt>
      <trkpt lat="44.39939" lon="6.23415">
        <ele>1163.33</ele>
        <time>2011-11-22T09:56:03Z</time>
      </trkpt>
      <trkpt lat="44.39954" lon="6.23449">
        <ele>1166.7</ele>
        <time>2011-11-22T09:56:13Z</time>
      </trkpt>
      <trkpt lat="44.39975" lon="6.23479">
        <ele>1167.66</ele>
        <time>2011-11-22T09:56:25Z</time>
      </trkpt>
      <trkpt lat="44.39995" lon="6.23514">
        <ele>1170.54</ele>
        <time>2011-11-22T09:56:37Z</time>
      </trkpt>
      <trkpt lat="44.39993" lon="6.2355">
        <ele>1171.02</ele>
        <time>2011-11-22T09:56:47Z</time>
      </trkpt>
      <trkpt lat="44.39982" lon="6.23594">
        <ele>1173.43</ele>
        <time>2011-11-22T09:56:59Z</time>
      </trkpt>
      <trkpt lat="44.3998" lon="6.23631">
        <ele>1174.39</ele>
        <time>2011-11-22T09:57:09Z</time>
      </trkpt>
      <trkpt lat="44.39983" lon="6.23681">
        <ele>1176.79</ele>
        <time>2011-11-22T09:57:22Z</time>
      </trkpt>
      <trkpt lat="44.39992" lon="6.23721">
        <ele>1178.23</ele>
        <time>2011-11-22T09:57:33Z</time>
      </trkpt>
      <trkpt lat="44.39996" lon="6.2373">
        <ele>1178.71</ele>
        <time>2011-11-22T09:57:36Z</time>
      </trkpt>
      <trkpt lat="44.39998" lon="6.2373">
        <ele>1178.71</ele>
        <time>2011-11-22T09:57:37Z</time>
      </trkpt>
      <trkpt lat="44.39999" lon="6.2373">
        <ele>1179.19</ele>
        <time>2011-11-22T09:57:38Z</time>
      </trkpt>
      <trkpt lat="44.4" lon="6.23729">
        <ele>1178.23</ele>
        <time>2011-11-22T09:57:39Z</time>
      </trkpt>
      <trkpt lat="44.40001" lon="6.23728">
        <ele>1178.71</ele>
        <time>2011-11-22T09:57:40Z</time>
      </trkpt>
      <trkpt lat="44.40005" lon="6.23726">
        <ele>1179.67</ele>
        <time>2011-11-22T09:57:48Z</time>
      </trkpt>
      <trkpt lat="44.40005" lon="6.23726">
        <ele>1180.16</ele>
        <time>2011-11-22T09:58:43Z</time>
      </trkpt>
      <trkpt lat="44.40005" lon="6.23725">
        <ele>1180.16</ele>
        <time>2011-11-22T09:59:44Z</time>
      </trkpt>
      <trkpt lat="44.40004" lon="6.23727">
        <ele>1179.19</ele>
        <time>2011-11-22T10:00:20Z</time>
      </trkpt>
      <trkpt lat="44.40005" lon="6.23727">
        <ele>1180.16</ele>
        <time>2011-11-22T10:01:16Z</time>
      </trkpt>
      <trkpt lat="44.40004" lon="6.23728">
        <ele>1180.64</ele>
        <time>2011-11-22T10:02:03Z</time>
      </trkpt>
      <trkpt lat="44.40004" lon="6.23728">
        <ele>1180.64</ele>
        <time>2011-11-22T10:02:26Z</time>
      </trkpt>
      <trkpt lat="44.40004" lon="6.23728">
        <ele>1179.67</ele>
        <time>2011-11-22T10:03:00Z</time>
      </trkpt>
      <trkpt lat="44.40003" lon="6.23728">
        <ele>1181.12</ele>
        <time>2011-11-22T10:03:32Z</time>
      </trkpt>
      <trkpt lat="44.40003" lon="6.23728">
        <ele>1181.6</ele>
        <time>2011-11-22T10:05:21Z</time>
      </trkpt>
      <trkpt lat="44.40003" lon="6.23729">
        <ele>1182.56</ele>
        <time>2011-11-22T10:06:14Z</time>
      </trkpt>
      <trkpt lat="44.40003" lon="6.23729">
        <ele>1182.08</ele>
        <time>2011-11-22T10:07:51Z</time>
      </trkpt>
      <trkpt lat="44.40003" lon="6.23729">
        <ele>1182.08</ele>
        <time>2011-11-22T10:08:23Z</time>
      </trkpt>
      <trkpt lat="44.40003" lon="6.2373">
        <ele>1182.56</ele>
        <time>2011-11-22T10:09:18Z</time>
      </trkpt>
      <trkpt lat="44.40002" lon="6.2373">
        <ele>1182.08</ele>
        <time>2011-11-22T10:09:59Z</time>
      </trkpt>
      <trkpt lat="44.40002" lon="6.2373">
        <ele>1183.04</ele>
        <time>2011-11-22T10:10:30Z</time>
      </trkpt>
      <trkpt lat="44.39999" lon="6.23735">
        <ele>1183.52</ele>
        <time>2011-11-22T10:12:57Z</time>
      </trkpt>
      <trkpt lat="44.39998" lon="6.23738">
        <ele>1183.52</ele>
        <time>2011-11-22T10:12:58Z</time>
      </trkpt>
      <trkpt lat="44.39998" lon="6.2374">
        <ele>1184</ele>
        <time>2011-11-22T10:12:59Z</time>
      </trkpt>
      <trkpt lat="44.39997" lon="6.23743">
        <ele>1184</ele>
        <time>2011-11-22T10:13:00Z</time>
      </trkpt>
      <trkpt lat="44.39997" lon="6.23746">
        <ele>1183.52</ele>
        <time>2011-11-22T10:13:01Z</time>
      </trkpt>
      <trkpt lat="44.39997" lon="6.2375">
        <ele>1183.52</ele>
        <time>2011-11-22T10:13:02Z</time>
      </trkpt>
      <trkpt lat="44.39997" lon="6.23753">
        <ele>1183.52</ele>
        <time>2011-11-22T10:13:03Z</time>
      </trkpt>
      <trkpt lat="44.39993" lon="6.23793">
        <ele>1183.04</ele>
        <time>2011-11-22T10:13:13Z</time>
      </trkpt>
      <trkpt lat="44.39989" lon="6.23798">
        <ele>1182.56</ele>
        <time>2011-11-22T10:13:14Z</time>
      </trkpt>
      <trkpt lat="44.39985" lon="6.23802">
        <ele>1182.56</ele>
        <time>2011-11-22T10:13:15Z</time>
      </trkpt>
      <trkpt lat="44.3998" lon="6.23806">
        <ele>1181.12</ele>
        <time>2011-11-22T10:13:16Z</time>
      </trkpt>
      <trkpt lat="44.39974" lon="6.2381">
        <ele>1180.16</ele>
        <time>2011-11-22T10:13:17Z</time>
      </trkpt>
      <trkpt lat="44.39968" lon="6.23812">
        <ele>1180.16</ele>
        <time>2011-11-22T10:13:18Z</time>
      </trkpt>
      <trkpt lat="44.39962" lon="6.23813">
        <ele>1180.16</ele>
        <time>2011-11-22T10:13:19Z</time>
      </trkpt>
      <trkpt lat="44.39955" lon="6.23814">
        <ele>1179.67</ele>
        <time>2011-11-22T10:13:20Z</time>
      </trkpt>
      <trkpt lat="44.39919" lon="6.23805">
        <ele>1176.31</ele>
        <time>2011-11-22T10:13:25Z</time>
      </trkpt>
      <trkpt lat="44.39911" lon="6.238">
        <ele>1175.83</ele>
        <time>2011-11-22T10:13:26Z</time>
      </trkpt>
      <trkpt lat="44.39901" lon="6.23793">
        <ele>1175.35</ele>
        <time>2011-11-22T10:13:28Z</time>
      </trkpt>
      <trkpt lat="44.39897" lon="6.23793">
        <ele>1175.35</ele>
        <time>2011-11-22T10:13:29Z</time>
      </trkpt>
      <trkpt lat="44.39902" lon="6.23807">
        <ele>1173.91</ele>
        <time>2011-11-22T10:13:33Z</time>
      </trkpt>
      <trkpt lat="44.3992" lon="6.2382">
        <ele>1171.5</ele>
        <time>2011-11-22T10:13:37Z</time>
      </trkpt>
      <trkpt lat="44.39927" lon="6.23823">
        <ele>1171.02</ele>
        <time>2011-11-22T10:13:38Z</time>
      </trkpt>
      <trkpt lat="44.39932" lon="6.23825">
        <ele>1170.54</ele>
        <time>2011-11-22T10:13:39Z</time>
      </trkpt>
      <trkpt lat="44.39939" lon="6.23826">
        <ele>1170.54</ele>
        <time>2011-11-22T10:13:40Z</time>
      </trkpt>
      <trkpt lat="44.39945" lon="6.23827">
        <ele>1171.02</ele>
        <time>2011-11-22T10:13:41Z</time>
      </trkpt>
      <trkpt lat="44.39961" lon="6.2383">
        <ele>1168.62</ele>
        <time>2011-11-22T10:13:43Z</time>
      </trkpt>
      <trkpt lat="44.40011" lon="6.23847">
        <ele>1165.26</ele>
        <time>2011-11-22T10:13:49Z</time>
      </trkpt>
      <trkpt lat="44.40029" lon="6.23859">
        <ele>1163.33</ele>
        <time>2011-11-22T10:13:51Z</time>
      </trkpt>
      <trkpt lat="44.40056" lon="6.23882">
        <ele>1160.93</ele>
        <time>2011-11-22T10:13:54Z</time>
      </trkpt>
      <trkpt lat="44.40072" lon="6.23901">
        <ele>1159.97</ele>
        <time>2011-11-22T10:13:56Z</time>
      </trkpt>
      <trkpt lat="44.40079" lon="6.23909">
        <ele>1159.49</ele>
        <time>2011-11-22T10:13:57Z</time>
      </trkpt>
      <trkpt lat="44.40085" lon="6.23916">
        <ele>1159.49</ele>
        <time>2011-11-22T10:13:58Z</time>
      </trkpt>
      <trkpt lat="44.40093" lon="6.2392">
        <ele>1159.01</ele>
        <time>2011-11-22T10:13:59Z</time>
      </trkpt>
      <trkpt lat="44.401" lon="6.23923">
        <ele>1158.53</ele>
        <time>2011-11-22T10:14:00Z</time>
      </trkpt>
      <trkpt lat="44.40108" lon="6.23925">
        <ele>1157.56</ele>
        <time>2011-11-22T10:14:01Z</time>
      </trkpt>
      <trkpt lat="44.40115" lon="6.23927">
        <ele>1157.56</ele>
        <time>2011-11-22T10:14:02Z</time>
      </trkpt>
      <trkpt lat="44.40126" lon="6.23932">
        <ele>1157.56</ele>
        <time>2011-11-22T10:14:04Z</time>
      </trkpt>
      <trkpt lat="44.40129" lon="6.23937">
        <ele>1157.56</ele>
        <time>2011-11-22T10:14:05Z</time>
      </trkpt>
      <trkpt lat="44.4013" lon="6.23943">
        <ele>1157.56</ele>
        <time>2011-11-22T10:14:06Z</time>
      </trkpt>
      <trkpt lat="44.40127" lon="6.23946">
        <ele>1157.08</ele>
        <time>2011-11-22T10:14:07Z</time>
      </trkpt>
      <trkpt lat="44.40123" lon="6.23947">
        <ele>1155.16</ele>
        <time>2011-11-22T10:14:08Z</time>
      </trkpt>
      <trkpt lat="44.4012" lon="6.23946">
        <ele>1155.16</ele>
        <time>2011-11-22T10:14:09Z</time>
      </trkpt>
      <trkpt lat="44.40115" lon="6.23945">
        <ele>1155.16</ele>
        <time>2011-11-22T10:14:10Z</time>
      </trkpt>
      <trkpt lat="44.4011" lon="6.23943">
        <ele>1153.72</ele>
        <time>2011-11-22T10:14:11Z</time>
      </trkpt>
      <trkpt lat="44.40079" lon="6.23928">
        <ele>1151.8</ele>
        <time>2011-11-22T10:14:16Z</time>
      </trkpt>
      <trkpt lat="44.40072" lon="6.23923">
        <ele>1150.84</ele>
        <time>2011-11-22T10:14:17Z</time>
      </trkpt>
      <trkpt lat="44.40066" lon="6.23917">
        <ele>1150.35</ele>
        <time>2011-11-22T10:14:18Z</time>
      </trkpt>
      <trkpt lat="44.40051" lon="6.23904">
        <ele>1147.47</ele>
        <time>2011-11-22T10:14:20Z</time>
      </trkpt>
      <trkpt lat="44.4002" lon="6.23884">
        <ele>1146.03</ele>
        <time>2011-11-22T10:14:24Z</time>
      </trkpt>
      <trkpt lat="44.39994" lon="6.23873">
        <ele>1144.11</ele>
        <time>2011-11-22T10:14:27Z</time>
      </trkpt>
      <trkpt lat="44.39984" lon="6.23872">
        <ele>1143.63</ele>
        <time>2011-11-22T10:14:28Z</time>
      </trkpt>
      <trkpt lat="44.39974" lon="6.23872">
        <ele>1143.14</ele>
        <time>2011-11-22T10:14:29Z</time>
      </trkpt>
      <trkpt lat="44.39954" lon="6.23873">
        <ele>1141.7</ele>
        <time>2011-11-22T10:14:31Z</time>
      </trkpt>
      <trkpt lat="44.39913" lon="6.23872">
        <ele>1138.82</ele>
        <time>2011-11-22T10:14:35Z</time>
      </trkpt>
      <trkpt lat="44.39902" lon="6.2387">
        <ele>1137.38</ele>
        <time>2011-11-22T10:14:36Z</time>
      </trkpt>
      <trkpt lat="44.39891" lon="6.23867">
        <ele>1137.38</ele>
        <time>2011-11-22T10:14:37Z</time>
      </trkpt>
      <trkpt lat="44.3988" lon="6.23864">
        <ele>1136.42</ele>
        <time>2011-11-22T10:14:38Z</time>
      </trkpt>
      <trkpt lat="44.3987" lon="6.23863">
        <ele>1136.42</ele>
        <time>2011-11-22T10:14:39Z</time>
      </trkpt>
      <trkpt lat="44.39825" lon="6.2386">
        <ele>1133.53</ele>
        <time>2011-11-22T10:14:43Z</time>
      </trkpt>
      <trkpt lat="44.39805" lon="6.2386">
        <ele>1132.57</ele>
        <time>2011-11-22T10:14:45Z</time>
      </trkpt>
      <trkpt lat="44.3973" lon="6.23875">
        <ele>1129.21</ele>
        <time>2011-11-22T10:14:53Z</time>
      </trkpt>
      <trkpt lat="44.3972" lon="6.23874">
        <ele>1129.69</ele>
        <time>2011-11-22T10:14:54Z</time>
      </trkpt>
      <trkpt lat="44.39702" lon="6.23868">
        <ele>1128.24</ele>
        <time>2011-11-22T10:14:56Z</time>
      </trkpt>
      <trkpt lat="44.39675" lon="6.23855">
        <ele>1126.8</ele>
        <time>2011-11-22T10:14:59Z</time>
      </trkpt>
      <trkpt lat="44.39667" lon="6.23853">
        <ele>1126.8</ele>
        <time>2011-11-22T10:15:00Z</time>
      </trkpt>
      <trkpt lat="44.39659" lon="6.23854">
        <ele>1126.32</ele>
        <time>2011-11-22T10:15:01Z</time>
      </trkpt>
      <trkpt lat="44.39632" lon="6.2386">
        <ele>1124.88</ele>
        <time>2011-11-22T10:15:05Z</time>
      </trkpt>
      <trkpt lat="44.39621" lon="6.23863">
        <ele>1125.84</ele>
        <time>2011-11-22T10:15:07Z</time>
      </trkpt>
      <trkpt lat="44.39616" lon="6.23865">
        <ele>1124.88</ele>
        <time>2011-11-22T10:15:08Z</time>
      </trkpt>
      <trkpt lat="44.39612" lon="6.2387">
        <ele>1124.4</ele>
        <time>2011-11-22T10:15:09Z</time>
      </trkpt>
      <trkpt lat="44.39609" lon="6.23875">
        <ele>1124.88</ele>
        <time>2011-11-22T10:15:10Z</time>
      </trkpt>
      <trkpt lat="44.39608" lon="6.23882">
        <ele>1123.44</ele>
        <time>2011-11-22T10:15:11Z</time>
      </trkpt>
      <trkpt lat="44.39608" lon="6.23888">
        <ele>1123.92</ele>
        <time>2011-11-22T10:15:12Z</time>
      </trkpt>
      <trkpt lat="44.3961" lon="6.23893">
        <ele>1123.44</ele>
        <time>2011-11-22T10:15:13Z</time>
      </trkpt>
      <trkpt lat="44.39613" lon="6.23897">
        <ele>1124.4</ele>
        <time>2011-11-22T10:15:14Z</time>
      </trkpt>
      <trkpt lat="44.39617" lon="6.239">
        <ele>1124.4</ele>
        <time>2011-11-22T10:15:15Z</time>
      </trkpt>
      <trkpt lat="44.39621" lon="6.23901">
        <ele>1123.92</ele>
        <time>2011-11-22T10:15:16Z</time>
      </trkpt>
      <trkpt lat="44.39626" lon="6.23902">
        <ele>1123.44</ele>
        <time>2011-11-22T10:15:17Z</time>
      </trkpt>
      <trkpt lat="44.39631" lon="6.23903">
        <ele>1122.48</ele>
        <time>2011-11-22T10:15:18Z</time>
      </trkpt>
      <trkpt lat="44.39636" lon="6.23904">
        <ele>1122</ele>
        <time>2011-11-22T10:15:19Z</time>
      </trkpt>
      <trkpt lat="44.39641" lon="6.23906">
        <ele>1122</ele>
        <time>2011-11-22T10:15:20Z</time>
      </trkpt>
      <trkpt lat="44.39646" lon="6.23909">
        <ele>1121.03</ele>
        <time>2011-11-22T10:15:21Z</time>
      </trkpt>
      <trkpt lat="44.39651" lon="6.23912">
        <ele>1120.55</ele>
        <time>2011-11-22T10:15:22Z</time>
      </trkpt>
      <trkpt lat="44.39657" lon="6.23918">
        <ele>1120.55</ele>
        <time>2011-11-22T10:15:23Z</time>
      </trkpt>
      <trkpt lat="44.39661" lon="6.23926">
        <ele>1120.07</ele>
        <time>2011-11-22T10:15:24Z</time>
      </trkpt>
      <trkpt lat="44.39665" lon="6.23934">
        <ele>1120.07</ele>
        <time>2011-11-22T10:15:25Z</time>
      </trkpt>
      <trkpt lat="44.39669" lon="6.23942">
        <ele>1119.11</ele>
        <time>2011-11-22T10:15:26Z</time>
      </trkpt>
      <trkpt lat="44.39672" lon="6.23951">
        <ele>1118.63</ele>
        <time>2011-11-22T10:15:27Z</time>
      </trkpt>
      <trkpt lat="44.3968" lon="6.23979">
        <ele>1117.19</ele>
        <time>2011-11-22T10:15:30Z</time>
      </trkpt>
      <trkpt lat="44.39702" lon="6.24022">
        <ele>1115.27</ele>
        <time>2011-11-22T10:15:35Z</time>
      </trkpt>
      <trkpt lat="44.39707" lon="6.24029">
        <ele>1116.23</ele>
        <time>2011-11-22T10:15:36Z</time>
      </trkpt>
      <trkpt lat="44.39713" lon="6.24034">
        <ele>1115.27</ele>
        <time>2011-11-22T10:15:37Z</time>
      </trkpt>
      <trkpt lat="44.39719" lon="6.24039">
        <ele>1115.27</ele>
        <time>2011-11-22T10:15:38Z</time>
      </trkpt>
      <trkpt lat="44.39726" lon="6.24043">
        <ele>1114.31</ele>
        <time>2011-11-22T10:15:39Z</time>
      </trkpt>
      <trkpt lat="44.39732" lon="6.24048">
        <ele>1114.31</ele>
        <time>2011-11-22T10:15:40Z</time>
      </trkpt>
      <trkpt lat="44.39738" lon="6.24052">
        <ele>1112.86</ele>
        <time>2011-11-22T10:15:41Z</time>
      </trkpt>
      <trkpt lat="44.39745" lon="6.24057">
        <ele>1112.86</ele>
        <time>2011-11-22T10:15:42Z</time>
      </trkpt>
      <trkpt lat="44.39771" lon="6.24082">
        <ele>1110.94</ele>
        <time>2011-11-22T10:15:46Z</time>
      </trkpt>
      <trkpt lat="44.39778" lon="6.2409">
        <ele>1110.94</ele>
        <time>2011-11-22T10:15:47Z</time>
      </trkpt>
      <trkpt lat="44.39791" lon="6.24107">
        <ele>1109.5</ele>
        <time>2011-11-22T10:15:49Z</time>
      </trkpt>
      <trkpt lat="44.39813" lon="6.2413">
        <ele>1107.1</ele>
        <time>2011-11-22T10:15:52Z</time>
      </trkpt>
      <trkpt lat="44.3982" lon="6.24135">
        <ele>1107.1</ele>
        <time>2011-11-22T10:15:53Z</time>
      </trkpt>
      <trkpt lat="44.39842" lon="6.24147">
        <ele>1107.58</ele>
        <time>2011-11-22T10:15:56Z</time>
      </trkpt>
      <trkpt lat="44.39849" lon="6.24152">
        <ele>1106.61</ele>
        <time>2011-11-22T10:15:57Z</time>
      </trkpt>
      <trkpt lat="44.39855" lon="6.24157">
        <ele>1106.13</ele>
        <time>2011-11-22T10:15:58Z</time>
      </trkpt>
      <trkpt lat="44.39861" lon="6.24163">
        <ele>1106.61</ele>
        <time>2011-11-22T10:15:59Z</time>
      </trkpt>
      <trkpt lat="44.39866" lon="6.24169">
        <ele>1106.13</ele>
        <time>2011-11-22T10:16:00Z</time>
      </trkpt>
      <trkpt lat="44.39913" lon="6.24225">
        <ele>1102.29</ele>
        <time>2011-11-22T10:16:08Z</time>
      </trkpt>
      <trkpt lat="44.39941" lon="6.2427">
        <ele>1100.37</ele>
        <time>2011-11-22T10:16:13Z</time>
      </trkpt>
      <trkpt lat="44.3995" lon="6.2429">
        <ele>1099.89</ele>
        <time>2011-11-22T10:16:15Z</time>
      </trkpt>
      <trkpt lat="44.39967" lon="6.24346">
        <ele>1096.52</ele>
        <time>2011-11-22T10:16:20Z</time>
      </trkpt>
      <trkpt lat="44.39988" lon="6.24423">
        <ele>1095.08</ele>
        <time>2011-11-22T10:16:28Z</time>
      </trkpt>
      <trkpt lat="44.39991" lon="6.24439">
        <ele>1094.6</ele>
        <time>2011-11-22T10:16:30Z</time>
      </trkpt>
      <trkpt lat="44.39992" lon="6.24447">
        <ele>1094.6</ele>
        <time>2011-11-22T10:16:31Z</time>
      </trkpt>
      <trkpt lat="44.39992" lon="6.24487">
        <ele>1094.12</ele>
        <time>2011-11-22T10:16:39Z</time>
      </trkpt>
      <trkpt lat="44.39995" lon="6.24491">
        <ele>1093.64</ele>
        <time>2011-11-22T10:16:40Z</time>
      </trkpt>
      <trkpt lat="44.39998" lon="6.24494">
        <ele>1093.16</ele>
        <time>2011-11-22T10:16:41Z</time>
      </trkpt>
      <trkpt lat="44.40001" lon="6.24496">
        <ele>1093.16</ele>
        <time>2011-11-22T10:16:42Z</time>
      </trkpt>
      <trkpt lat="44.40004" lon="6.24497">
        <ele>1093.16</ele>
        <time>2011-11-22T10:16:43Z</time>
      </trkpt>
      <trkpt lat="44.40008" lon="6.24497">
        <ele>1092.2</ele>
        <time>2011-11-22T10:16:44Z</time>
      </trkpt>
      <trkpt lat="44.40011" lon="6.24496">
        <ele>1092.68</ele>
        <time>2011-11-22T10:16:45Z</time>
      </trkpt>
      <trkpt lat="44.40015" lon="6.24495">
        <ele>1092.68</ele>
        <time>2011-11-22T10:16:46Z</time>
      </trkpt>
      <trkpt lat="44.40041" lon="6.24484">
        <ele>1090.75</ele>
        <time>2011-11-22T10:16:52Z</time>
      </trkpt>
      <trkpt lat="44.40046" lon="6.24484">
        <ele>1090.75</ele>
        <time>2011-11-22T10:16:53Z</time>
      </trkpt>
      <trkpt lat="44.4005" lon="6.24485">
        <ele>1091.23</ele>
        <time>2011-11-22T10:16:54Z</time>
      </trkpt>
      <trkpt lat="44.40055" lon="6.24489">
        <ele>1091.23</ele>
        <time>2011-11-22T10:16:55Z</time>
      </trkpt>
      <trkpt lat="44.40058" lon="6.24495">
        <ele>1090.27</ele>
        <time>2011-11-22T10:16:56Z</time>
      </trkpt>
      <trkpt lat="44.40061" lon="6.24503">
        <ele>1088.83</ele>
        <time>2011-11-22T10:16:57Z</time>
      </trkpt>
      <trkpt lat="44.40063" lon="6.24511">
        <ele>1088.83</ele>
        <time>2011-11-22T10:16:58Z</time>
      </trkpt>
      <trkpt lat="44.40063" lon="6.24519">
        <ele>1088.35</ele>
        <time>2011-11-22T10:16:59Z</time>
      </trkpt>
      <trkpt lat="44.40062" lon="6.24534">
        <ele>1086.91</ele>
        <time>2011-11-22T10:17:01Z</time>
      </trkpt>
      <trkpt lat="44.40059" lon="6.24557">
        <ele>1086.43</ele>
        <time>2011-11-22T10:17:04Z</time>
      </trkpt>
      <trkpt lat="44.4006" lon="6.24566">
        <ele>1085.95</ele>
        <time>2011-11-22T10:17:05Z</time>
      </trkpt>
      <trkpt lat="44.40062" lon="6.24573">
        <ele>1085.47</ele>
        <time>2011-11-22T10:17:06Z</time>
      </trkpt>
      <trkpt lat="44.40065" lon="6.2458">
        <ele>1085.95</ele>
        <time>2011-11-22T10:17:07Z</time>
      </trkpt>
      <trkpt lat="44.40069" lon="6.24586">
        <ele>1084.5</ele>
        <time>2011-11-22T10:17:08Z</time>
      </trkpt>
      <trkpt lat="44.40073" lon="6.24592">
        <ele>1084.5</ele>
        <time>2011-11-22T10:17:09Z</time>
      </trkpt>
      <trkpt lat="44.40124" lon="6.24676">
        <ele>1081.14</ele>
        <time>2011-11-22T10:17:20Z</time>
      </trkpt>
      <trkpt lat="44.40141" lon="6.24708">
        <ele>1079.7</ele>
        <time>2011-11-22T10:17:24Z</time>
      </trkpt>
      <trkpt lat="44.40148" lon="6.24725">
        <ele>1079.22</ele>
        <time>2011-11-22T10:17:26Z</time>
      </trkpt>
      <trkpt lat="44.40155" lon="6.24755">
        <ele>1077.78</ele>
        <time>2011-11-22T10:17:29Z</time>
      </trkpt>
      <trkpt lat="44.40159" lon="6.24775">
        <ele>1076.81</ele>
        <time>2011-11-22T10:17:31Z</time>
      </trkpt>
      <trkpt lat="44.40162" lon="6.24785">
        <ele>1076.33</ele>
        <time>2011-11-22T10:17:32Z</time>
      </trkpt>
      <trkpt lat="44.40166" lon="6.24794">
        <ele>1075.85</ele>
        <time>2011-11-22T10:17:33Z</time>
      </trkpt>
      <trkpt lat="44.40204" lon="6.24868">
        <ele>1073.93</ele>
        <time>2011-11-22T10:17:42Z</time>
      </trkpt>
      <trkpt lat="44.40208" lon="6.24876">
        <ele>1072.97</ele>
        <time>2011-11-22T10:17:43Z</time>
      </trkpt>
      <trkpt lat="44.40228" lon="6.24942">
        <ele>1071.05</ele>
        <time>2011-11-22T10:17:50Z</time>
      </trkpt>
      <trkpt lat="44.40237" lon="6.24979">
        <ele>1069.6</ele>
        <time>2011-11-22T10:17:54Z</time>
      </trkpt>
      <trkpt lat="44.40245" lon="6.25005">
        <ele>1068.16</ele>
        <time>2011-11-22T10:17:57Z</time>
      </trkpt>
      <trkpt lat="44.40261" lon="6.25064">
        <ele>1065.76</ele>
        <time>2011-11-22T10:18:03Z</time>
      </trkpt>
      <trkpt lat="44.40303" lon="6.2514">
        <ele>1062.87</ele>
        <time>2011-11-22T10:18:12Z</time>
      </trkpt>
      <trkpt lat="44.4033" lon="6.25173">
        <ele>1061.43</ele>
        <time>2011-11-22T10:18:22Z</time>
      </trkpt>
      <trkpt lat="44.40333" lon="6.25171">
        <ele>1061.91</ele>
        <time>2011-11-22T10:18:25Z</time>
      </trkpt>
      <trkpt lat="44.4033" lon="6.25171">
        <ele>1061.43</ele>
        <time>2011-11-22T10:18:40Z</time>
      </trkpt>
      <trkpt lat="44.40322" lon="6.25157">
        <ele>1059.99</ele>
        <time>2011-11-22T10:18:48Z</time>
      </trkpt>
      <trkpt lat="44.40312" lon="6.25136">
        <ele>1060.47</ele>
        <time>2011-11-22T10:18:52Z</time>
      </trkpt>
      <trkpt lat="44.40306" lon="6.25125">
        <ele>1059.03</ele>
        <time>2011-11-22T10:18:54Z</time>
      </trkpt>
      <trkpt lat="44.40297" lon="6.25109">
        <ele>1060.47</ele>
        <time>2011-11-22T10:18:57Z</time>
      </trkpt>
      <trkpt lat="44.40295" lon="6.25104">
        <ele>1060.47</ele>
        <time>2011-11-22T10:18:58Z</time>
      </trkpt>
      <trkpt lat="44.40293" lon="6.25098">
        <ele>1060.47</ele>
        <time>2011-11-22T10:18:59Z</time>
      </trkpt>
      <trkpt lat="44.40291" lon="6.25092">
        <ele>1060.47</ele>
        <time>2011-11-22T10:19:00Z</time>
      </trkpt>
      <trkpt lat="44.40288" lon="6.25053">
        <ele>1059.99</ele>
        <time>2011-11-22T10:19:06Z</time>
      </trkpt>
      <trkpt lat="44.40286" lon="6.25047">
        <ele>1059.51</ele>
        <time>2011-11-22T10:19:07Z</time>
      </trkpt>
      <trkpt lat="44.40283" lon="6.25041">
        <ele>1059.03</ele>
        <time>2011-11-22T10:19:08Z</time>
      </trkpt>
      <trkpt lat="44.40281" lon="6.25033">
        <ele>1058.55</ele>
        <time>2011-11-22T10:19:09Z</time>
      </trkpt>
      <trkpt lat="44.40281" lon="6.25023">
        <ele>1057.11</ele>
        <time>2011-11-22T10:19:10Z</time>
      </trkpt>
      <trkpt lat="44.40281" lon="6.25015">
        <ele>1058.07</ele>
        <time>2011-11-22T10:19:11Z</time>
      </trkpt>
      <trkpt lat="44.40281" lon="6.25007">
        <ele>1057.11</ele>
        <time>2011-11-22T10:19:12Z</time>
      </trkpt>
      <trkpt lat="44.4028" lon="6.24991">
        <ele>1057.11</ele>
        <time>2011-11-22T10:19:14Z</time>
      </trkpt>
      <trkpt lat="44.40278" lon="6.24983">
        <ele>1057.11</ele>
        <time>2011-11-22T10:19:15Z</time>
      </trkpt>
      <trkpt lat="44.40277" lon="6.24974">
        <ele>1056.15</ele>
        <time>2011-11-22T10:19:16Z</time>
      </trkpt>
      <trkpt lat="44.40277" lon="6.24964">
        <ele>1055.67</ele>
        <time>2011-11-22T10:19:17Z</time>
      </trkpt>
      <trkpt lat="44.40277" lon="6.24953">
        <ele>1055.67</ele>
        <time>2011-11-22T10:19:18Z</time>
      </trkpt>
      <trkpt lat="44.40278" lon="6.2492">
        <ele>1053.74</ele>
        <time>2011-11-22T10:19:21Z</time>
      </trkpt>
      <trkpt lat="44.40278" lon="6.2487">
        <ele>1050.38</ele>
        <time>2011-11-22T10:19:25Z</time>
      </trkpt>
      <trkpt lat="44.4028" lon="6.24826">
        <ele>1046.05</ele>
        <time>2011-11-22T10:19:28Z</time>
      </trkpt>
      <trkpt lat="44.40286" lon="6.24794">
        <ele>1042.69</ele>
        <time>2011-11-22T10:19:30Z</time>
      </trkpt>
      <trkpt lat="44.40289" lon="6.24777">
        <ele>1041.73</ele>
        <time>2011-11-22T10:19:31Z</time>
      </trkpt>
      <trkpt lat="44.40298" lon="6.24747">
        <ele>1039.32</ele>
        <time>2011-11-22T10:19:33Z</time>
      </trkpt>
      <trkpt lat="44.40305" lon="6.24733">
        <ele>1038.36</ele>
        <time>2011-11-22T10:19:34Z</time>
      </trkpt>
      <trkpt lat="44.40312" lon="6.24721">
        <ele>1037.88</ele>
        <time>2011-11-22T10:19:35Z</time>
      </trkpt>
      <trkpt lat="44.40328" lon="6.24699">
        <ele>1036.92</ele>
        <time>2011-11-22T10:19:37Z</time>
      </trkpt>
      <trkpt lat="44.40332" lon="6.24687">
        <ele>1036.44</ele>
        <time>2011-11-22T10:19:38Z</time>
      </trkpt>
      <trkpt lat="44.40341" lon="6.24649">
        <ele>1038.36</ele>
        <time>2011-11-22T10:19:41Z</time>
      </trkpt>
      <trkpt lat="44.40345" lon="6.24638">
        <ele>1039.32</ele>
        <time>2011-11-22T10:19:42Z</time>
      </trkpt>
      <trkpt lat="44.40349" lon="6.2463">
        <ele>1040.76</ele>
        <time>2011-11-22T10:19:43Z</time>
      </trkpt>
      <trkpt lat="44.40353" lon="6.24624">
        <ele>1042.21</ele>
        <time>2011-11-22T10:19:44Z</time>
      </trkpt>
      <trkpt lat="44.40356" lon="6.24621">
        <ele>1042.69</ele>
        <time>2011-11-22T10:19:45Z</time>
      </trkpt>
      <trkpt lat="44.40359" lon="6.24619">
        <ele>1044.13</ele>
        <time>2011-11-22T10:19:46Z</time>
      </trkpt>
      <trkpt lat="44.40362" lon="6.24617">
        <ele>1044.61</ele>
        <time>2011-11-22T10:19:47Z</time>
      </trkpt>
      <trkpt lat="44.40395" lon="6.24612">
        <ele>1045.09</ele>
        <time>2011-11-22T10:19:57Z</time>
      </trkpt>
      <trkpt lat="44.40435" lon="6.24613">
        <ele>1047.01</ele>
        <time>2011-11-22T10:20:06Z</time>
      </trkpt>
      <trkpt lat="44.40471" lon="6.24634">
        <ele>1047.97</ele>
        <time>2011-11-22T10:20:16Z</time>
      </trkpt>
      <trkpt lat="44.40498" lon="6.24668">
        <ele>1048.45</ele>
        <time>2011-11-22T10:20:27Z</time>
      </trkpt>
      <trkpt lat="44.40534" lon="6.24697">
        <ele>1048.45</ele>
        <time>2011-11-22T10:20:39Z</time>
      </trkpt>
      <trkpt lat="44.40569" lon="6.24724">
        <ele>1048.45</ele>
        <time>2011-11-22T10:20:52Z</time>
      </trkpt>
      <trkpt lat="44.40588" lon="6.24736">
        <ele>1048.94</ele>
        <time>2011-11-22T10:21:04Z</time>
      </trkpt>
      <trkpt lat="44.40613" lon="6.2475">
        <ele>1050.86</ele>
        <time>2011-11-22T10:21:17Z</time>
      </trkpt>
      <trkpt lat="44.40618" lon="6.24754">
        <ele>1051.34</ele>
        <time>2011-11-22T10:21:29Z</time>
      </trkpt>
      <trkpt lat="44.40618" lon="6.24754">
        <ele>1050.38</ele>
        <time>2011-11-22T10:22:30Z</time>
      </trkpt>
      <trkpt lat="44.4062" lon="6.24757">
        <ele>1051.34</ele>
        <time>2011-11-22T10:22:59Z</time>
      </trkpt>
      <trkpt lat="44.40622" lon="6.2476">
        <ele>1050.38</ele>
        <time>2011-11-22T10:23:04Z</time>
      </trkpt>
      <trkpt lat="44.40636" lon="6.24775">
        <ele>1052.3</ele>
        <time>2011-11-22T10:23:16Z</time>
      </trkpt>
      <trkpt lat="44.40654" lon="6.24786">
        <ele>1050.38</ele>
        <time>2011-11-22T10:23:24Z</time>
      </trkpt>
      <trkpt lat="44.40659" lon="6.24788">
        <ele>1048.45</ele>
        <time>2011-11-22T10:23:25Z</time>
      </trkpt>
      <trkpt lat="44.40664" lon="6.24793">
        <ele>1047.97</ele>
        <time>2011-11-22T10:23:26Z</time>
      </trkpt>
      <trkpt lat="44.40668" lon="6.24802">
        <ele>1047.97</ele>
        <time>2011-11-22T10:23:27Z</time>
      </trkpt>
      <trkpt lat="44.40671" lon="6.2481">
        <ele>1047.97</ele>
        <time>2011-11-22T10:23:28Z</time>
      </trkpt>
      <trkpt lat="44.40672" lon="6.24818">
        <ele>1048.45</ele>
        <time>2011-11-22T10:23:29Z</time>
      </trkpt>
      <trkpt lat="44.40677" lon="6.24837">
        <ele>1049.42</ele>
        <time>2011-11-22T10:23:32Z</time>
      </trkpt>
      <trkpt lat="44.40679" lon="6.24842">
        <ele>1048.45</ele>
        <time>2011-11-22T10:23:33Z</time>
      </trkpt>
      <trkpt lat="44.40681" lon="6.24847">
        <ele>1049.42</ele>
        <time>2011-11-22T10:23:34Z</time>
      </trkpt>
      <trkpt lat="44.40682" lon="6.24852">
        <ele>1049.42</ele>
        <time>2011-11-22T10:23:35Z</time>
      </trkpt>
      <trkpt lat="44.40683" lon="6.24856">
        <ele>1048.94</ele>
        <time>2011-11-22T10:23:36Z</time>
      </trkpt>
      <trkpt lat="44.40684" lon="6.2486">
        <ele>1049.42</ele>
        <time>2011-11-22T10:23:37Z</time>
      </trkpt>
      <trkpt lat="44.40685" lon="6.24864">
        <ele>1048.94</ele>
        <time>2011-11-22T10:23:38Z</time>
      </trkpt>
      <trkpt lat="44.40686" lon="6.24867">
        <ele>1050.38</ele>
        <time>2011-11-22T10:23:39Z</time>
      </trkpt>
      <trkpt lat="44.40686" lon="6.24873">
        <ele>1049.9</ele>
        <time>2011-11-22T10:23:41Z</time>
      </trkpt>
      <trkpt lat="44.40688" lon="6.24875">
        <ele>1049.42</ele>
        <time>2011-11-22T10:23:42Z</time>
      </trkpt>
      <trkpt lat="44.40689" lon="6.24878">
        <ele>1049.42</ele>
        <time>2011-11-22T10:23:43Z</time>
      </trkpt>
      <trkpt lat="44.40691" lon="6.24881">
        <ele>1048.94</ele>
        <time>2011-11-22T10:23:44Z</time>
      </trkpt>
      <trkpt lat="44.40694" lon="6.24883">
        <ele>1048.45</ele>
        <time>2011-11-22T10:23:45Z</time>
      </trkpt>
      <trkpt lat="44.40702" lon="6.24888">
        <ele>1050.38</ele>
        <time>2011-11-22T10:23:49Z</time>
      </trkpt>
      <trkpt lat="44.40705" lon="6.2489">
        <ele>1051.34</ele>
        <time>2011-11-22T10:23:51Z</time>
      </trkpt>
      <trkpt lat="44.40706" lon="6.24891">
        <ele>1051.34</ele>
        <time>2011-11-22T10:23:52Z</time>
      </trkpt>
      <trkpt lat="44.40728" lon="6.24896">
        <ele>1052.3</ele>
        <time>2011-11-22T10:24:06Z</time>
      </trkpt>
      <trkpt lat="44.40749" lon="6.24881">
        <ele>1053.26</ele>
        <time>2011-11-22T10:24:20Z</time>
      </trkpt>
      <trkpt lat="44.4075" lon="6.24879">
        <ele>1053.26</ele>
        <time>2011-11-22T10:24:21Z</time>
      </trkpt>
      <trkpt lat="44.40751" lon="6.24877">
        <ele>1053.74</ele>
        <time>2011-11-22T10:24:22Z</time>
      </trkpt>
      <trkpt lat="44.40753" lon="6.24875">
        <ele>1053.26</ele>
        <time>2011-11-22T10:24:23Z</time>
      </trkpt>
      <trkpt lat="44.40754" lon="6.24873">
        <ele>1053.74</ele>
        <time>2011-11-22T10:24:24Z</time>
      </trkpt>
      <trkpt lat="44.40755" lon="6.2487">
        <ele>1053.26</ele>
        <time>2011-11-22T10:24:25Z</time>
      </trkpt>
      <trkpt lat="44.40756" lon="6.24868">
        <ele>1052.78</ele>
        <time>2011-11-22T10:24:26Z</time>
      </trkpt>
      <trkpt lat="44.40761" lon="6.24858">
        <ele>1052.78</ele>
        <time>2011-11-22T10:24:31Z</time>
      </trkpt>
      <trkpt lat="44.40762" lon="6.24856">
        <ele>1053.26</ele>
        <time>2011-11-22T10:24:32Z</time>
      </trkpt>
      <trkpt lat="44.40767" lon="6.24853">
        <ele>1053.74</ele>
        <time>2011-11-22T10:24:35Z</time>
      </trkpt>
      <trkpt lat="44.40773" lon="6.24855">
        <ele>1053.74</ele>
        <time>2011-11-22T10:24:37Z</time>
      </trkpt>
      <trkpt lat="44.40775" lon="6.24857">
        <ele>1053.74</ele>
        <time>2011-11-22T10:24:38Z</time>
      </trkpt>
      <trkpt lat="44.40778" lon="6.24868">
        <ele>1053.74</ele>
        <time>2011-11-22T10:24:43Z</time>
      </trkpt>
      <trkpt lat="44.40779" lon="6.24871">
        <ele>1052.78</ele>
        <time>2011-11-22T10:24:44Z</time>
      </trkpt>
      <trkpt lat="44.4078" lon="6.24874">
        <ele>1053.26</ele>
        <time>2011-11-22T10:24:45Z</time>
      </trkpt>
      <trkpt lat="44.40782" lon="6.24876">
        <ele>1053.26</ele>
        <time>2011-11-22T10:24:46Z</time>
      </trkpt>
      <trkpt lat="44.40783" lon="6.24878">
        <ele>1053.74</ele>
        <time>2011-11-22T10:24:47Z</time>
      </trkpt>
      <trkpt lat="44.40784" lon="6.2488">
        <ele>1053.74</ele>
        <time>2011-11-22T10:24:48Z</time>
      </trkpt>
      <trkpt lat="44.40786" lon="6.24882">
        <ele>1053.74</ele>
        <time>2011-11-22T10:24:49Z</time>
      </trkpt>
      <trkpt lat="44.40787" lon="6.24883">
        <ele>1053.26</ele>
        <time>2011-11-22T10:24:50Z</time>
      </trkpt>
      <trkpt lat="44.40799" lon="6.24896">
        <ele>1055.67</ele>
        <time>2011-11-22T10:24:59Z</time>
      </trkpt>
      <trkpt lat="44.408" lon="6.24898">
        <ele>1055.18</ele>
        <time>2011-11-22T10:25:00Z</time>
      </trkpt>
      <trkpt lat="44.40799" lon="6.2491">
        <ele>1054.7</ele>
        <time>2011-11-22T10:25:05Z</time>
      </trkpt>
      <trkpt lat="44.40798" lon="6.24913">
        <ele>1054.7</ele>
        <time>2011-11-22T10:25:06Z</time>
      </trkpt>
      <trkpt lat="44.40797" lon="6.24915">
        <ele>1055.18</ele>
        <time>2011-11-22T10:25:07Z</time>
      </trkpt>
      <trkpt lat="44.40796" lon="6.24918">
        <ele>1055.18</ele>
        <time>2011-11-22T10:25:08Z</time>
      </trkpt>
      <trkpt lat="44.40796" lon="6.2492">
        <ele>1055.18</ele>
        <time>2011-11-22T10:25:09Z</time>
      </trkpt>
      <trkpt lat="44.40795" lon="6.24923">
        <ele>1056.15</ele>
        <time>2011-11-22T10:25:10Z</time>
      </trkpt>
      <trkpt lat="44.40795" lon="6.24925">
        <ele>1055.67</ele>
        <time>2011-11-22T10:25:11Z</time>
      </trkpt>
      <trkpt lat="44.40794" lon="6.24927">
        <ele>1056.15</ele>
        <time>2011-11-22T10:25:12Z</time>
      </trkpt>
      <trkpt lat="44.40795" lon="6.24929">
        <ele>1056.15</ele>
        <time>2011-11-22T10:25:13Z</time>
      </trkpt>
      <trkpt lat="44.40795" lon="6.24932">
        <ele>1056.63</ele>
        <time>2011-11-22T10:25:14Z</time>
      </trkpt>
      <trkpt lat="44.40796" lon="6.24934">
        <ele>1056.63</ele>
        <time>2011-11-22T10:25:15Z</time>
      </trkpt>
      <trkpt lat="44.40796" lon="6.24936">
        <ele>1057.11</ele>
        <time>2011-11-22T10:25:16Z</time>
      </trkpt>
      <trkpt lat="44.40797" lon="6.24938">
        <ele>1057.59</ele>
        <time>2011-11-22T10:25:17Z</time>
      </trkpt>
      <trkpt lat="44.40807" lon="6.24962">
        <ele>1059.51</ele>
        <time>2011-11-22T10:25:31Z</time>
      </trkpt>
      <trkpt lat="44.40817" lon="6.24982">
        <ele>1062.39</ele>
        <time>2011-11-22T10:25:43Z</time>
      </trkpt>
      <trkpt lat="44.40827" lon="6.25002">
        <ele>1063.36</ele>
        <time>2011-11-22T10:25:57Z</time>
      </trkpt>
      <trkpt lat="44.40833" lon="6.25012">
        <ele>1065.28</ele>
        <time>2011-11-22T10:26:03Z</time>
      </trkpt>
      <trkpt lat="44.40841" lon="6.25028">
        <ele>1067.2</ele>
        <time>2011-11-22T10:26:14Z</time>
      </trkpt>
      <trkpt lat="44.40848" lon="6.25046">
        <ele>1069.12</ele>
        <time>2011-11-22T10:26:26Z</time>
      </trkpt>
      <trkpt lat="44.40856" lon="6.25062">
        <ele>1071.05</ele>
        <time>2011-11-22T10:26:38Z</time>
      </trkpt>
      <trkpt lat="44.40861" lon="6.2507">
        <ele>1072.01</ele>
        <time>2011-11-22T10:26:43Z</time>
      </trkpt>
      <trkpt lat="44.40868" lon="6.25084">
        <ele>1074.41</ele>
        <time>2011-11-22T10:26:53Z</time>
      </trkpt>
      <trkpt lat="44.40874" lon="6.25095">
        <ele>1074.89</ele>
        <time>2011-11-22T10:27:00Z</time>
      </trkpt>
      <trkpt lat="44.40887" lon="6.25113">
        <ele>1077.29</ele>
        <time>2011-11-22T10:27:14Z</time>
      </trkpt>
      <trkpt lat="44.40898" lon="6.2513">
        <ele>1079.22</ele>
        <time>2011-11-22T10:27:27Z</time>
      </trkpt>
      <trkpt lat="44.40907" lon="6.25141">
        <ele>1082.58</ele>
        <time>2011-11-22T10:27:36Z</time>
      </trkpt>
      <trkpt lat="44.40917" lon="6.25153">
        <ele>1083.06</ele>
        <time>2011-11-22T10:27:46Z</time>
      </trkpt>
      <trkpt lat="44.40924" lon="6.2515">
        <ele>1084.02</ele>
        <time>2011-11-22T10:27:54Z</time>
      </trkpt>
      <trkpt lat="44.40924" lon="6.25145">
        <ele>1084.5</ele>
        <time>2011-11-22T10:27:58Z</time>
      </trkpt>
      <trkpt lat="44.40917" lon="6.25135">
        <ele>1085.47</ele>
        <time>2011-11-22T10:28:05Z</time>
      </trkpt>
      <trkpt lat="44.40906" lon="6.25114">
        <ele>1086.43</ele>
        <time>2011-11-22T10:28:19Z</time>
      </trkpt>
      <trkpt lat="44.40902" lon="6.25103">
        <ele>1087.87</ele>
        <time>2011-11-22T10:28:26Z</time>
      </trkpt>
      <trkpt lat="44.40899" lon="6.25079">
        <ele>1089.31</ele>
        <time>2011-11-22T10:28:39Z</time>
      </trkpt>
      <trkpt lat="44.40896" lon="6.25071">
        <ele>1090.75</ele>
        <time>2011-11-22T10:28:43Z</time>
      </trkpt>
      <trkpt lat="44.40894" lon="6.25052">
        <ele>1091.71</ele>
        <time>2011-11-22T10:28:52Z</time>
      </trkpt>
      <trkpt lat="44.40893" lon="6.25044">
        <ele>1092.2</ele>
        <time>2011-11-22T10:28:56Z</time>
      </trkpt>
      <trkpt lat="44.40893" lon="6.25039">
        <ele>1092.2</ele>
        <time>2011-11-22T10:28:58Z</time>
      </trkpt>
      <trkpt lat="44.40894" lon="6.25031">
        <ele>1092.68</ele>
        <time>2011-11-22T10:29:02Z</time>
      </trkpt>
      <trkpt lat="44.40895" lon="6.25023">
        <ele>1094.12</ele>
        <time>2011-11-22T10:29:06Z</time>
      </trkpt>
      <trkpt lat="44.40901" lon="6.24995">
        <ele>1093.64</ele>
        <time>2011-11-22T10:29:19Z</time>
      </trkpt>
      <trkpt lat="44.40902" lon="6.24974">
        <ele>1095.08</ele>
        <time>2011-11-22T10:29:28Z</time>
      </trkpt>
      <trkpt lat="44.40905" lon="6.24946">
        <ele>1096.52</ele>
        <time>2011-11-22T10:29:40Z</time>
      </trkpt>
      <trkpt lat="44.40909" lon="6.24943">
        <ele>1096.52</ele>
        <time>2011-11-22T10:29:43Z</time>
      </trkpt>
      <trkpt lat="44.40917" lon="6.24964">
        <ele>1099.4</ele>
        <time>2011-11-22T10:29:55Z</time>
      </trkpt>
      <trkpt lat="44.40918" lon="6.24967">
        <ele>1098.92</ele>
        <time>2011-11-22T10:29:56Z</time>
      </trkpt>
      <trkpt lat="44.40924" lon="6.2499">
        <ele>1101.81</ele>
        <time>2011-11-22T10:30:08Z</time>
      </trkpt>
      <trkpt lat="44.4093" lon="6.25012">
        <ele>1104.21</ele>
        <time>2011-11-22T10:30:20Z</time>
      </trkpt>
      <trkpt lat="44.40934" lon="6.25034">
        <ele>1105.65</ele>
        <time>2011-11-22T10:30:31Z</time>
      </trkpt>
      <trkpt lat="44.40941" lon="6.25047">
        <ele>1108.54</ele>
        <time>2011-11-22T10:30:38Z</time>
      </trkpt>
      <trkpt lat="44.40944" lon="6.25051">
        <ele>1109.02</ele>
        <time>2011-11-22T10:30:41Z</time>
      </trkpt>
      <trkpt lat="44.40952" lon="6.25058">
        <ele>1110.94</ele>
        <time>2011-11-22T10:30:49Z</time>
      </trkpt>
      <trkpt lat="44.40959" lon="6.25056">
        <ele>1111.9</ele>
        <time>2011-11-22T10:30:55Z</time>
      </trkpt>
      <trkpt lat="44.40967" lon="6.25055">
        <ele>1112.86</ele>
        <time>2011-11-22T10:31:02Z</time>
      </trkpt>
      <trkpt lat="44.40972" lon="6.25053">
        <ele>1113.82</ele>
        <time>2011-11-22T10:31:16Z</time>
      </trkpt>
      <trkpt lat="44.40974" lon="6.25051">
        <ele>1114.31</ele>
        <time>2011-11-22T10:31:28Z</time>
      </trkpt>
      <trkpt lat="44.4099" lon="6.25044">
        <ele>1115.75</ele>
        <time>2011-11-22T10:31:40Z</time>
      </trkpt>
      <trkpt lat="44.41004" lon="6.25032">
        <ele>1117.67</ele>
        <time>2011-11-22T10:31:52Z</time>
      </trkpt>
      <trkpt lat="44.41021" lon="6.2502">
        <ele>1120.07</ele>
        <time>2011-11-22T10:32:04Z</time>
      </trkpt>
      <trkpt lat="44.41039" lon="6.25008">
        <ele>1124.4</ele>
        <time>2011-11-22T10:32:16Z</time>
      </trkpt>
      <trkpt lat="44.41043" lon="6.25007">
        <ele>1123.92</ele>
        <time>2011-11-22T10:32:18Z</time>
      </trkpt>
      <trkpt lat="44.4106" lon="6.25007">
        <ele>1124.4</ele>
        <time>2011-11-22T10:32:31Z</time>
      </trkpt>
      <trkpt lat="44.41058" lon="6.25012">
        <ele>1124.4</ele>
        <time>2011-11-22T10:32:46Z</time>
      </trkpt>
      <trkpt lat="44.41058" lon="6.25012">
        <ele>1124.4</ele>
        <time>2011-11-22T10:34:12Z</time>
      </trkpt>
      <trkpt lat="44.41059" lon="6.25011">
        <ele>1124.4</ele>
        <time>2011-11-22T10:34:45Z</time>
      </trkpt>
      <trkpt lat="44.41059" lon="6.25009">
        <ele>1123.92</ele>
        <time>2011-11-22T10:35:12Z</time>
      </trkpt>
      <trkpt lat="44.41059" lon="6.25009">
        <ele>1120.55</ele>
        <time>2011-11-22T10:35:14Z</time>
      </trkpt>
      <trkpt lat="44.41059" lon="6.25009">
        <ele>1124.88</ele>
        <time>2011-11-22T10:35:15Z</time>
      </trkpt>
      <trkpt lat="44.41059" lon="6.2501">
        <ele>1123.92</ele>
        <time>2011-11-22T10:35:48Z</time>
      </trkpt>
      <trkpt lat="44.41059" lon="6.2501">
        <ele>1123.44</ele>
        <time>2011-11-22T10:35:56Z</time>
      </trkpt>
      <trkpt lat="44.41059" lon="6.2501">
        <ele>1124.4</ele>
        <time>2011-11-22T10:36:42Z</time>
      </trkpt>
      <trkpt lat="44.41059" lon="6.2501">
        <ele>1124.4</ele>
        <time>2011-11-22T10:37:31Z</time>
      </trkpt>
      <trkpt lat="44.4106" lon="6.25012">
        <ele>1124.4</ele>
        <time>2011-11-22T10:37:55Z</time>
      </trkpt>
      <trkpt lat="44.41059" lon="6.25013">
        <ele>1124.4</ele>
        <time>2011-11-22T10:40:08Z</time>
      </trkpt>
      <trkpt lat="44.41059" lon="6.2501">
        <ele>1124.4</ele>
        <time>2011-11-22T10:41:45Z</time>
      </trkpt>
      <trkpt lat="44.4106" lon="6.25011">
        <ele>1124.4</ele>
        <time>2011-11-22T10:42:10Z</time>
      </trkpt>
      <trkpt lat="44.41063" lon="6.25011">
        <ele>1124.88</ele>
        <time>2011-11-22T10:42:56Z</time>
      </trkpt>
      <trkpt lat="44.41076" lon="6.25016">
        <ele>1124.88</ele>
        <time>2011-11-22T10:43:04Z</time>
      </trkpt>
      <trkpt lat="44.41104" lon="6.2501">
        <ele>1126.32</ele>
        <time>2011-11-22T10:43:17Z</time>
      </trkpt>
      <trkpt lat="44.41128" lon="6.25008">
        <ele>1126.8</ele>
        <time>2011-11-22T10:43:29Z</time>
      </trkpt>
      <trkpt lat="44.41148" lon="6.25013">
        <ele>1128.73</ele>
        <time>2011-11-22T10:43:39Z</time>
      </trkpt>
      <trkpt lat="44.41169" lon="6.25024">
        <ele>1130.17</ele>
        <time>2011-11-22T10:43:52Z</time>
      </trkpt>
      <trkpt lat="44.41182" lon="6.2503">
        <ele>1133.05</ele>
        <time>2011-11-22T10:44:02Z</time>
      </trkpt>
      <trkpt lat="44.41199" lon="6.25033">
        <ele>1134.97</ele>
        <time>2011-11-22T10:44:14Z</time>
      </trkpt>
      <trkpt lat="44.41214" lon="6.25034">
        <ele>1135.45</ele>
        <time>2011-11-22T10:44:25Z</time>
      </trkpt>
      <trkpt lat="44.41218" lon="6.25032">
        <ele>1136.42</ele>
        <time>2011-11-22T10:44:30Z</time>
      </trkpt>
      <trkpt lat="44.41219" lon="6.25027">
        <ele>1135.45</ele>
        <time>2011-11-22T10:44:33Z</time>
      </trkpt>
      <trkpt lat="44.41215" lon="6.25019">
        <ele>1136.42</ele>
        <time>2011-11-22T10:44:38Z</time>
      </trkpt>
      <trkpt lat="44.41213" lon="6.25016">
        <ele>1137.38</ele>
        <time>2011-11-22T10:44:40Z</time>
      </trkpt>
      <trkpt lat="44.41206" lon="6.25004">
        <ele>1138.34</ele>
        <time>2011-11-22T10:44:50Z</time>
      </trkpt>
      <trkpt lat="44.41199" lon="6.24988">
        <ele>1141.22</ele>
        <time>2011-11-22T10:45:00Z</time>
      </trkpt>
      <trkpt lat="44.41199" lon="6.24983">
        <ele>1140.74</ele>
        <time>2011-11-22T10:45:03Z</time>
      </trkpt>
      <trkpt lat="44.41205" lon="6.24964">
        <ele>1141.7</ele>
        <time>2011-11-22T10:45:14Z</time>
      </trkpt>
      <trkpt lat="44.41212" lon="6.24962">
        <ele>1142.66</ele>
        <time>2011-11-22T10:45:19Z</time>
      </trkpt>
      <trkpt lat="44.41226" lon="6.24955">
        <ele>1145.55</ele>
        <time>2011-11-22T10:45:30Z</time>
      </trkpt>
      <trkpt lat="44.41227" lon="6.24955">
        <ele>1145.07</ele>
        <time>2011-11-22T10:45:31Z</time>
      </trkpt>
      <trkpt lat="44.4123" lon="6.24953">
        <ele>1144.59</ele>
        <time>2011-11-22T10:45:33Z</time>
      </trkpt>
      <trkpt lat="44.41234" lon="6.24951">
        <ele>1146.03</ele>
        <time>2011-11-22T10:45:36Z</time>
      </trkpt>
      <trkpt lat="44.41244" lon="6.24949">
        <ele>1147.47</ele>
        <time>2011-11-22T10:45:43Z</time>
      </trkpt>
      <trkpt lat="44.41261" lon="6.24942">
        <ele>1148.91</ele>
        <time>2011-11-22T10:45:56Z</time>
      </trkpt>
      <trkpt lat="44.41258" lon="6.2493">
        <ele>1150.84</ele>
        <time>2011-11-22T10:46:03Z</time>
      </trkpt>
      <trkpt lat="44.41244" lon="6.24913">
        <ele>1153.72</ele>
        <time>2011-11-22T10:46:17Z</time>
      </trkpt>
      <trkpt lat="44.41235" lon="6.24899">
        <ele>1153.24</ele>
        <time>2011-11-22T10:46:28Z</time>
      </trkpt>
      <trkpt lat="44.4123" lon="6.2489">
        <ele>1156.6</ele>
        <time>2011-11-22T10:46:34Z</time>
      </trkpt>
      <trkpt lat="44.41222" lon="6.24878">
        <ele>1156.12</ele>
        <time>2011-11-22T10:46:43Z</time>
      </trkpt>
      <trkpt lat="44.41211" lon="6.2486">
        <ele>1158.05</ele>
        <time>2011-11-22T10:46:56Z</time>
      </trkpt>
      <trkpt lat="44.41196" lon="6.24847">
        <ele>1159.01</ele>
        <time>2011-11-22T10:47:08Z</time>
      </trkpt>
      <trkpt lat="44.41186" lon="6.24835">
        <ele>1160.93</ele>
        <time>2011-11-22T10:47:18Z</time>
      </trkpt>
      <trkpt lat="44.41184" lon="6.24828">
        <ele>1162.85</ele>
        <time>2011-11-22T10:47:23Z</time>
      </trkpt>
      <trkpt lat="44.41188" lon="6.24817">
        <ele>1163.33</ele>
        <time>2011-11-22T10:47:30Z</time>
      </trkpt>
      <trkpt lat="44.41192" lon="6.24817">
        <ele>1164.77</ele>
        <time>2011-11-22T10:47:34Z</time>
      </trkpt>
      <trkpt lat="44.41199" lon="6.24819">
        <ele>1165.26</ele>
        <time>2011-11-22T10:47:39Z</time>
      </trkpt>
      <trkpt lat="44.4121" lon="6.24815">
        <ele>1166.22</ele>
        <time>2011-11-22T10:47:47Z</time>
      </trkpt>
      <trkpt lat="44.41219" lon="6.24812">
        <ele>1168.14</ele>
        <time>2011-11-22T10:47:53Z</time>
      </trkpt>
      <trkpt lat="44.41242" lon="6.2482">
        <ele>1169.58</ele>
        <time>2011-11-22T10:48:08Z</time>
      </trkpt>
      <trkpt lat="44.41244" lon="6.24821">
        <ele>1169.58</ele>
        <time>2011-11-22T10:48:10Z</time>
      </trkpt>
      <trkpt lat="44.41258" lon="6.24818">
        <ele>1171.02</ele>
        <time>2011-11-22T10:48:21Z</time>
      </trkpt>
      <trkpt lat="44.41276" lon="6.24811">
        <ele>1173.43</ele>
        <time>2011-11-22T10:48:33Z</time>
      </trkpt>
      <trkpt lat="44.41294" lon="6.24797">
        <ele>1174.39</ele>
        <time>2011-11-22T10:48:45Z</time>
      </trkpt>
      <trkpt lat="44.41299" lon="6.2479">
        <ele>1174.87</ele>
        <time>2011-11-22T10:48:49Z</time>
      </trkpt>
      <trkpt lat="44.41304" lon="6.24784">
        <ele>1174.87</ele>
        <time>2011-11-22T10:48:53Z</time>
      </trkpt>
      <trkpt lat="44.41317" lon="6.24756">
        <ele>1177.27</ele>
        <time>2011-11-22T10:49:09Z</time>
      </trkpt>
      <trkpt lat="44.41322" lon="6.24752">
        <ele>1177.27</ele>
        <time>2011-11-22T10:49:13Z</time>
      </trkpt>
      <trkpt lat="44.41328" lon="6.24755">
        <ele>1178.23</ele>
        <time>2011-11-22T10:49:16Z</time>
      </trkpt>
      <trkpt lat="44.41334" lon="6.24762">
        <ele>1178.23</ele>
        <time>2011-11-22T10:49:20Z</time>
      </trkpt>
      <trkpt lat="44.4135" lon="6.24768">
        <ele>1180.64</ele>
        <time>2011-11-22T10:49:34Z</time>
      </trkpt>
      <trkpt lat="44.41372" lon="6.24751">
        <ele>1183.04</ele>
        <time>2011-11-22T10:49:49Z</time>
      </trkpt>
      <trkpt lat="44.41383" lon="6.24731">
        <ele>1184.48</ele>
        <time>2011-11-22T10:50:00Z</time>
      </trkpt>
      <trkpt lat="44.41386" lon="6.24727">
        <ele>1184.48</ele>
        <time>2011-11-22T10:50:03Z</time>
      </trkpt>
      <trkpt lat="44.41395" lon="6.24715">
        <ele>1185.44</ele>
        <time>2011-11-22T10:50:11Z</time>
      </trkpt>
      <trkpt lat="44.41409" lon="6.24701">
        <ele>1186.4</ele>
        <time>2011-11-22T10:50:23Z</time>
      </trkpt>
      <trkpt lat="44.41426" lon="6.24688">
        <ele>1188.33</ele>
        <time>2011-11-22T10:50:35Z</time>
      </trkpt>
      <trkpt lat="44.41434" lon="6.24686">
        <ele>1188.81</ele>
        <time>2011-11-22T10:50:41Z</time>
      </trkpt>
      <trkpt lat="44.41451" lon="6.24674">
        <ele>1191.21</ele>
        <time>2011-11-22T10:50:55Z</time>
      </trkpt>
      <trkpt lat="44.41459" lon="6.24668">
        <ele>1192.65</ele>
        <time>2011-11-22T10:51:01Z</time>
      </trkpt>
      <trkpt lat="44.4147" lon="6.24661">
        <ele>1193.61</ele>
        <time>2011-11-22T10:51:10Z</time>
      </trkpt>
      <trkpt lat="44.41482" lon="6.24649">
        <ele>1196.02</ele>
        <time>2011-11-22T10:51:21Z</time>
      </trkpt>
      <trkpt lat="44.41486" lon="6.24638">
        <ele>1196.98</ele>
        <time>2011-11-22T10:51:27Z</time>
      </trkpt>
      <trkpt lat="44.41488" lon="6.24633">
        <ele>1197.94</ele>
        <time>2011-11-22T10:51:30Z</time>
      </trkpt>
      <trkpt lat="44.41491" lon="6.24627">
        <ele>1198.42</ele>
        <time>2011-11-22T10:51:34Z</time>
      </trkpt>
      <trkpt lat="44.41498" lon="6.24615">
        <ele>1198.9</ele>
        <time>2011-11-22T10:51:41Z</time>
      </trkpt>
      <trkpt lat="44.41505" lon="6.2459">
        <ele>1200.82</ele>
        <time>2011-11-22T10:51:54Z</time>
      </trkpt>
      <trkpt lat="44.41505" lon="6.24587">
        <ele>1200.82</ele>
        <time>2011-11-22T10:51:56Z</time>
      </trkpt>
      <trkpt lat="44.41507" lon="6.24584">
        <ele>1201.79</ele>
        <time>2011-11-22T10:51:58Z</time>
      </trkpt>
      <trkpt lat="44.41511" lon="6.24567">
        <ele>1202.75</ele>
        <time>2011-11-22T10:52:07Z</time>
      </trkpt>
      <trkpt lat="44.41512" lon="6.2456">
        <ele>1202.27</ele>
        <time>2011-11-22T10:52:11Z</time>
      </trkpt>
      <trkpt lat="44.41516" lon="6.24546">
        <ele>1203.23</ele>
        <time>2011-11-22T10:52:19Z</time>
      </trkpt>
      <trkpt lat="44.41524" lon="6.24526">
        <ele>1203.71</ele>
        <time>2011-11-22T10:52:31Z</time>
      </trkpt>
      <trkpt lat="44.4153" lon="6.24509">
        <ele>1204.19</ele>
        <time>2011-11-22T10:52:41Z</time>
      </trkpt>
      <trkpt lat="44.41533" lon="6.24504">
        <ele>1205.63</ele>
        <time>2011-11-22T10:52:44Z</time>
      </trkpt>
      <trkpt lat="44.41534" lon="6.24503">
        <ele>1205.15</ele>
        <time>2011-11-22T10:52:45Z</time>
      </trkpt>
      <trkpt lat="44.41541" lon="6.24483">
        <ele>1206.11</ele>
        <time>2011-11-22T10:52:56Z</time>
      </trkpt>
      <trkpt lat="44.41544" lon="6.24473">
        <ele>1207.07</ele>
        <time>2011-11-22T10:53:01Z</time>
      </trkpt>
      <trkpt lat="44.41545" lon="6.24468">
        <ele>1207.07</ele>
        <time>2011-11-22T10:53:04Z</time>
      </trkpt>
      <trkpt lat="44.41544" lon="6.24459">
        <ele>1208.03</ele>
        <time>2011-11-22T10:53:09Z</time>
      </trkpt>
      <trkpt lat="44.41543" lon="6.24451">
        <ele>1209</ele>
        <time>2011-11-22T10:53:13Z</time>
      </trkpt>
      <trkpt lat="44.41542" lon="6.24446">
        <ele>1209</ele>
        <time>2011-11-22T10:53:15Z</time>
      </trkpt>
      <trkpt lat="44.41543" lon="6.24443">
        <ele>1209.48</ele>
        <time>2011-11-22T10:53:17Z</time>
      </trkpt>
      <trkpt lat="44.41544" lon="6.24438">
        <ele>1209.48</ele>
        <time>2011-11-22T10:53:20Z</time>
      </trkpt>
      <trkpt lat="44.41552" lon="6.24419">
        <ele>1210.44</ele>
        <time>2011-11-22T10:53:30Z</time>
      </trkpt>
      <trkpt lat="44.41555" lon="6.24412">
        <ele>1211.4</ele>
        <time>2011-11-22T10:53:34Z</time>
      </trkpt>
      <trkpt lat="44.41561" lon="6.24405">
        <ele>1211.4</ele>
        <time>2011-11-22T10:53:40Z</time>
      </trkpt>
      <trkpt lat="44.41577" lon="6.24409">
        <ele>1213.8</ele>
        <time>2011-11-22T10:53:51Z</time>
      </trkpt>
      <trkpt lat="44.41579" lon="6.24408">
        <ele>1214.28</ele>
        <time>2011-11-22T10:53:53Z</time>
      </trkpt>
      <trkpt lat="44.41582" lon="6.24399">
        <ele>1214.76</ele>
        <time>2011-11-22T10:53:59Z</time>
      </trkpt>
      <trkpt lat="44.41578" lon="6.24391">
        <ele>1215.72</ele>
        <time>2011-11-22T10:54:06Z</time>
      </trkpt>
      <trkpt lat="44.41573" lon="6.24375">
        <ele>1217.65</ele>
        <time>2011-11-22T10:54:17Z</time>
      </trkpt>
      <trkpt lat="44.41565" lon="6.24352">
        <ele>1218.61</ele>
        <time>2011-11-22T10:54:29Z</time>
      </trkpt>
      <trkpt lat="44.4156" lon="6.24331">
        <ele>1219.57</ele>
        <time>2011-11-22T10:54:40Z</time>
      </trkpt>
      <trkpt lat="44.41557" lon="6.24311">
        <ele>1218.61</ele>
        <time>2011-11-22T10:54:50Z</time>
      </trkpt>
      <trkpt lat="44.41557" lon="6.24309">
        <ele>1219.09</ele>
        <time>2011-11-22T10:54:51Z</time>
      </trkpt>
      <trkpt lat="44.4156" lon="6.24297">
        <ele>1218.13</ele>
        <time>2011-11-22T10:54:58Z</time>
      </trkpt>
      <trkpt lat="44.41561" lon="6.24294">
        <ele>1218.61</ele>
        <time>2011-11-22T10:55:00Z</time>
      </trkpt>
      <trkpt lat="44.41564" lon="6.24285">
        <ele>1219.09</ele>
        <time>2011-11-22T10:55:05Z</time>
      </trkpt>
      <trkpt lat="44.41564" lon="6.24277">
        <ele>1218.13</ele>
        <time>2011-11-22T10:55:10Z</time>
      </trkpt>
      <trkpt lat="44.41574" lon="6.24273">
        <ele>1218.61</ele>
        <time>2011-11-22T10:55:15Z</time>
      </trkpt>
      <trkpt lat="44.416" lon="6.24264">
        <ele>1218.61</ele>
        <time>2011-11-22T10:55:28Z</time>
      </trkpt>
      <trkpt lat="44.41603" lon="6.24263">
        <ele>1218.13</ele>
        <time>2011-11-22T10:55:29Z</time>
      </trkpt>
      <trkpt lat="44.41617" lon="6.24258">
        <ele>1216.69</ele>
        <time>2011-11-22T10:55:35Z</time>
      </trkpt>
      <trkpt lat="44.41629" lon="6.24251">
        <ele>1216.69</ele>
        <time>2011-11-22T10:55:40Z</time>
      </trkpt>
      <trkpt lat="44.41632" lon="6.24251">
        <ele>1217.17</ele>
        <time>2011-11-22T10:55:42Z</time>
      </trkpt>
      <trkpt lat="44.41658" lon="6.2427">
        <ele>1217.17</ele>
        <time>2011-11-22T10:55:54Z</time>
      </trkpt>
      <trkpt lat="44.41659" lon="6.24271">
        <ele>1218.13</ele>
        <time>2011-11-22T10:55:55Z</time>
      </trkpt>
      <trkpt lat="44.41669" lon="6.24271">
        <ele>1218.13</ele>
        <time>2011-11-22T10:56:11Z</time>
      </trkpt>
      <trkpt lat="44.41669" lon="6.24272">
        <ele>1217.65</ele>
        <time>2011-11-22T10:56:44Z</time>
      </trkpt>
      <trkpt lat="44.41671" lon="6.24274">
        <ele>1216.69</ele>
        <time>2011-11-22T10:58:50Z</time>
      </trkpt>
      <trkpt lat="44.41672" lon="6.24273">
        <ele>1215.72</ele>
        <time>2011-11-22T10:59:40Z</time>
      </trkpt>
      <trkpt lat="44.41673" lon="6.24273">
        <ele>1216.21</ele>
        <time>2011-11-22T11:00:10Z</time>
      </trkpt>
      <trkpt lat="44.41674" lon="6.24272">
        <ele>1217.17</ele>
        <time>2011-11-22T11:01:56Z</time>
      </trkpt>
      <trkpt lat="44.41674" lon="6.24272">
        <ele>1217.17</ele>
        <time>2011-11-22T11:02:04Z</time>
      </trkpt>
      <trkpt lat="44.41674" lon="6.24272">
        <ele>1215.24</ele>
        <time>2011-11-22T11:02:20Z</time>
      </trkpt>
      <trkpt lat="44.41674" lon="6.24271">
        <ele>1216.69</ele>
        <time>2011-11-22T11:02:29Z</time>
      </trkpt>
      <trkpt lat="44.41675" lon="6.24268">
        <ele>1215.72</ele>
        <time>2011-11-22T11:02:33Z</time>
      </trkpt>
      <trkpt lat="44.4168" lon="6.24243">
        <ele>1216.21</ele>
        <time>2011-11-22T11:02:46Z</time>
      </trkpt>
      <trkpt lat="44.41684" lon="6.24231">
        <ele>1216.69</ele>
        <time>2011-11-22T11:02:51Z</time>
      </trkpt>
      <trkpt lat="44.41684" lon="6.24225">
        <ele>1215.24</ele>
        <time>2011-11-22T11:02:54Z</time>
      </trkpt>
      <trkpt lat="44.41683" lon="6.24221">
        <ele>1214.28</ele>
        <time>2011-11-22T11:02:56Z</time>
      </trkpt>
      <trkpt lat="44.41682" lon="6.24215">
        <ele>1214.76</ele>
        <time>2011-11-22T11:02:58Z</time>
      </trkpt>
      <trkpt lat="44.41681" lon="6.24207">
        <ele>1214.28</ele>
        <time>2011-11-22T11:03:02Z</time>
      </trkpt>
      <trkpt lat="44.41682" lon="6.24191">
        <ele>1215.24</ele>
        <time>2011-11-22T11:03:10Z</time>
      </trkpt>
      <trkpt lat="44.41686" lon="6.24186">
        <ele>1213.8</ele>
        <time>2011-11-22T11:03:13Z</time>
      </trkpt>
      <trkpt lat="44.4169" lon="6.24178">
        <ele>1213.8</ele>
        <time>2011-11-22T11:03:17Z</time>
      </trkpt>
      <trkpt lat="44.417" lon="6.2417">
        <ele>1213.32</ele>
        <time>2011-11-22T11:03:22Z</time>
      </trkpt>
      <trkpt lat="44.41704" lon="6.2417">
        <ele>1211.88</ele>
        <time>2011-11-22T11:03:24Z</time>
      </trkpt>
      <trkpt lat="44.4172" lon="6.24192">
        <ele>1207.55</ele>
        <time>2011-11-22T11:03:34Z</time>
      </trkpt>
      <trkpt lat="44.41721" lon="6.24195">
        <ele>1207.55</ele>
        <time>2011-11-22T11:03:35Z</time>
      </trkpt>
      <trkpt lat="44.41732" lon="6.2422">
        <ele>1203.71</ele>
        <time>2011-11-22T11:03:42Z</time>
      </trkpt>
      <trkpt lat="44.41734" lon="6.24225">
        <ele>1203.71</ele>
        <time>2011-11-22T11:03:43Z</time>
      </trkpt>
      <trkpt lat="44.4174" lon="6.24248">
        <ele>1202.27</ele>
        <time>2011-11-22T11:03:49Z</time>
      </trkpt>
      <trkpt lat="44.41741" lon="6.24253">
        <ele>1201.3</ele>
        <time>2011-11-22T11:03:51Z</time>
      </trkpt>
      <trkpt lat="44.41752" lon="6.24266">
        <ele>1198.9</ele>
        <time>2011-11-22T11:03:58Z</time>
      </trkpt>
      <trkpt lat="44.41764" lon="6.24264">
        <ele>1198.42</ele>
        <time>2011-11-22T11:04:02Z</time>
      </trkpt>
      <trkpt lat="44.41771" lon="6.24255">
        <ele>1199.38</ele>
        <time>2011-11-22T11:04:05Z</time>
      </trkpt>
      <trkpt lat="44.41784" lon="6.24229">
        <ele>1197.94</ele>
        <time>2011-11-22T11:04:13Z</time>
      </trkpt>
      <trkpt lat="44.41788" lon="6.24227">
        <ele>1196.98</ele>
        <time>2011-11-22T11:04:14Z</time>
      </trkpt>
      <trkpt lat="44.41791" lon="6.24227">
        <ele>1197.46</ele>
        <time>2011-11-22T11:04:15Z</time>
      </trkpt>
      <trkpt lat="44.41794" lon="6.2423">
        <ele>1196.98</ele>
        <time>2011-11-22T11:04:16Z</time>
      </trkpt>
      <trkpt lat="44.41797" lon="6.24234">
        <ele>1196.98</ele>
        <time>2011-11-22T11:04:17Z</time>
      </trkpt>
      <trkpt lat="44.41823" lon="6.24255">
        <ele>1197.46</ele>
        <time>2011-11-22T11:04:26Z</time>
      </trkpt>
      <trkpt lat="44.41837" lon="6.24263">
        <ele>1197.46</ele>
        <time>2011-11-22T11:04:34Z</time>
      </trkpt>
      <trkpt lat="44.41839" lon="6.24263">
        <ele>1197.94</ele>
        <time>2011-11-22T11:04:35Z</time>
      </trkpt>
      <trkpt lat="44.41841" lon="6.24264">
        <ele>1197.46</ele>
        <time>2011-11-22T11:04:36Z</time>
      </trkpt>
      <trkpt lat="44.41842" lon="6.24265">
        <ele>1197.94</ele>
        <time>2011-11-22T11:04:37Z</time>
      </trkpt>
      <trkpt lat="44.41843" lon="6.24267">
        <ele>1197.94</ele>
        <time>2011-11-22T11:04:38Z</time>
      </trkpt>
      <trkpt lat="44.41845" lon="6.24269">
        <ele>1197.94</ele>
        <time>2011-11-22T11:04:39Z</time>
      </trkpt>
      <trkpt lat="44.41846" lon="6.24271">
        <ele>1198.42</ele>
        <time>2011-11-22T11:04:40Z</time>
      </trkpt>
      <trkpt lat="44.41847" lon="6.24272">
        <ele>1198.42</ele>
        <time>2011-11-22T11:04:41Z</time>
      </trkpt>
      <trkpt lat="44.41848" lon="6.24274">
        <ele>1198.42</ele>
        <time>2011-11-22T11:04:42Z</time>
      </trkpt>
      <trkpt lat="44.4185" lon="6.24276">
        <ele>1196.98</ele>
        <time>2011-11-22T11:04:43Z</time>
      </trkpt>
      <trkpt lat="44.41851" lon="6.24279">
        <ele>1197.94</ele>
        <time>2011-11-22T11:04:44Z</time>
      </trkpt>
      <trkpt lat="44.41852" lon="6.24281">
        <ele>1198.42</ele>
        <time>2011-11-22T11:04:45Z</time>
      </trkpt>
      <trkpt lat="44.41853" lon="6.24284">
        <ele>1199.38</ele>
        <time>2011-11-22T11:04:46Z</time>
      </trkpt>
      <trkpt lat="44.41854" lon="6.24285">
        <ele>1197.94</ele>
        <time>2011-11-22T11:04:47Z</time>
      </trkpt>
      <trkpt lat="44.41855" lon="6.24287">
        <ele>1197.94</ele>
        <time>2011-11-22T11:04:48Z</time>
      </trkpt>
      <trkpt lat="44.41866" lon="6.24293">
        <ele>1198.9</ele>
        <time>2011-11-22T11:04:54Z</time>
      </trkpt>
      <trkpt lat="44.41867" lon="6.24295">
        <ele>1198.9</ele>
        <time>2011-11-22T11:04:55Z</time>
      </trkpt>
      <trkpt lat="44.41869" lon="6.24297">
        <ele>1198.42</ele>
        <time>2011-11-22T11:04:56Z</time>
      </trkpt>
      <trkpt lat="44.4187" lon="6.24299">
        <ele>1198.9</ele>
        <time>2011-11-22T11:04:57Z</time>
      </trkpt>
      <trkpt lat="44.41871" lon="6.24301">
        <ele>1199.38</ele>
        <time>2011-11-22T11:04:58Z</time>
      </trkpt>
      <trkpt lat="44.41875" lon="6.24305">
        <ele>1199.38</ele>
        <time>2011-11-22T11:05:01Z</time>
      </trkpt>
      <trkpt lat="44.41876" lon="6.24307">
        <ele>1199.38</ele>
        <time>2011-11-22T11:05:02Z</time>
      </trkpt>
      <trkpt lat="44.41878" lon="6.24309">
        <ele>1199.38</ele>
        <time>2011-11-22T11:05:03Z</time>
      </trkpt>
      <trkpt lat="44.41879" lon="6.24311">
        <ele>1198.9</ele>
        <time>2011-11-22T11:05:04Z</time>
      </trkpt>
      <trkpt lat="44.4188" lon="6.24314">
        <ele>1199.86</ele>
        <time>2011-11-22T11:05:05Z</time>
      </trkpt>
      <trkpt lat="44.41881" lon="6.24316">
        <ele>1199.38</ele>
        <time>2011-11-22T11:05:06Z</time>
      </trkpt>
      <trkpt lat="44.41883" lon="6.24319">
        <ele>1200.34</ele>
        <time>2011-11-22T11:05:07Z</time>
      </trkpt>
      <trkpt lat="44.41893" lon="6.24334">
        <ele>1200.34</ele>
        <time>2011-11-22T11:05:14Z</time>
      </trkpt>
      <trkpt lat="44.41896" lon="6.24335">
        <ele>1200.34</ele>
        <time>2011-11-22T11:05:15Z</time>
      </trkpt>
      <trkpt lat="44.41898" lon="6.24336">
        <ele>1199.38</ele>
        <time>2011-11-22T11:05:16Z</time>
      </trkpt>
      <trkpt lat="44.41921" lon="6.24349">
        <ele>1199.86</ele>
        <time>2011-11-22T11:05:28Z</time>
      </trkpt>
      <trkpt lat="44.41945" lon="6.24358">
        <ele>1198.9</ele>
        <time>2011-11-22T11:05:38Z</time>
      </trkpt>
      <trkpt lat="44.4197" lon="6.24347">
        <ele>1199.38</ele>
        <time>2011-11-22T11:05:48Z</time>
      </trkpt>
      <trkpt lat="44.41987" lon="6.24318">
        <ele>1196.98</ele>
        <time>2011-11-22T11:05:55Z</time>
      </trkpt>
      <trkpt lat="44.41992" lon="6.24304">
        <ele>1195.54</ele>
        <time>2011-11-22T11:05:57Z</time>
      </trkpt>
      <trkpt lat="44.41999" lon="6.24277">
        <ele>1193.61</ele>
        <time>2011-11-22T11:06:01Z</time>
      </trkpt>
      <trkpt lat="44.42003" lon="6.24238">
        <ele>1192.65</ele>
        <time>2011-11-22T11:06:06Z</time>
      </trkpt>
      <trkpt lat="44.42004" lon="6.2423">
        <ele>1193.13</ele>
        <time>2011-11-22T11:06:07Z</time>
      </trkpt>
      <trkpt lat="44.42006" lon="6.24198">
        <ele>1192.65</ele>
        <time>2011-11-22T11:06:11Z</time>
      </trkpt>
      <trkpt lat="44.42008" lon="6.24185">
        <ele>1191.69</ele>
        <time>2011-11-22T11:06:13Z</time>
      </trkpt>
      <trkpt lat="44.42013" lon="6.24158">
        <ele>1191.69</ele>
        <time>2011-11-22T11:06:17Z</time>
      </trkpt>
      <trkpt lat="44.42013" lon="6.24151">
        <ele>1190.25</ele>
        <time>2011-11-22T11:06:18Z</time>
      </trkpt>
      <trkpt lat="44.42014" lon="6.24137">
        <ele>1189.77</ele>
        <time>2011-11-22T11:06:20Z</time>
      </trkpt>
      <trkpt lat="44.42014" lon="6.2413">
        <ele>1189.77</ele>
        <time>2011-11-22T11:06:21Z</time>
      </trkpt>
      <trkpt lat="44.42016" lon="6.24122">
        <ele>1188.33</ele>
        <time>2011-11-22T11:06:22Z</time>
      </trkpt>
      <trkpt lat="44.4202" lon="6.24114">
        <ele>1187.85</ele>
        <time>2011-11-22T11:06:23Z</time>
      </trkpt>
      <trkpt lat="44.42024" lon="6.24107">
        <ele>1188.33</ele>
        <time>2011-11-22T11:06:24Z</time>
      </trkpt>
      <trkpt lat="44.42045" lon="6.24087">
        <ele>1189.29</ele>
        <time>2011-11-22T11:06:31Z</time>
      </trkpt>
      <trkpt lat="44.42056" lon="6.24077">
        <ele>1190.25</ele>
        <time>2011-11-22T11:06:44Z</time>
      </trkpt>
      <trkpt lat="44.42063" lon="6.24085">
        <ele>1188.33</ele>
        <time>2011-11-22T11:06:52Z</time>
      </trkpt>
      <trkpt lat="44.42068" lon="6.24096">
        <ele>1188.33</ele>
        <time>2011-11-22T11:07:03Z</time>
      </trkpt>
      <trkpt lat="44.42072" lon="6.24108">
        <ele>1188.33</ele>
        <time>2011-11-22T11:07:17Z</time>
      </trkpt>
      <trkpt lat="44.42076" lon="6.24115">
        <ele>1188.33</ele>
        <time>2011-11-22T11:07:26Z</time>
      </trkpt>
      <trkpt lat="44.4208" lon="6.24119">
        <ele>1187.85</ele>
        <time>2011-11-22T11:07:30Z</time>
      </trkpt>
      <trkpt lat="44.42082" lon="6.24122">
        <ele>1187.85</ele>
        <time>2011-11-22T11:07:31Z</time>
      </trkpt>
      <trkpt lat="44.42083" lon="6.24125">
        <ele>1187.85</ele>
        <time>2011-11-22T11:07:32Z</time>
      </trkpt>
      <trkpt lat="44.42085" lon="6.24128">
        <ele>1186.88</ele>
        <time>2011-11-22T11:07:33Z</time>
      </trkpt>
      <trkpt lat="44.42087" lon="6.2413">
        <ele>1186.4</ele>
        <time>2011-11-22T11:07:34Z</time>
      </trkpt>
      <trkpt lat="44.42088" lon="6.24133">
        <ele>1186.4</ele>
        <time>2011-11-22T11:07:35Z</time>
      </trkpt>
      <trkpt lat="44.4209" lon="6.24134">
        <ele>1186.4</ele>
        <time>2011-11-22T11:07:36Z</time>
      </trkpt>
      <trkpt lat="44.42093" lon="6.24134">
        <ele>1186.4</ele>
        <time>2011-11-22T11:07:37Z</time>
      </trkpt>
      <trkpt lat="44.42097" lon="6.24134">
        <ele>1185.92</ele>
        <time>2011-11-22T11:07:38Z</time>
      </trkpt>
      <trkpt lat="44.421" lon="6.24134">
        <ele>1186.4</ele>
        <time>2011-11-22T11:07:39Z</time>
      </trkpt>
      <trkpt lat="44.42119" lon="6.24124">
        <ele>1185.92</ele>
        <time>2011-11-22T11:07:49Z</time>
      </trkpt>
      <trkpt lat="44.42139" lon="6.24116">
        <ele>1186.4</ele>
        <time>2011-11-22T11:07:58Z</time>
      </trkpt>
      <trkpt lat="44.42142" lon="6.24116">
        <ele>1186.4</ele>
        <time>2011-11-22T11:07:59Z</time>
      </trkpt>
      <trkpt lat="44.42144" lon="6.24117">
        <ele>1186.88</ele>
        <time>2011-11-22T11:08:00Z</time>
      </trkpt>
      <trkpt lat="44.42146" lon="6.2412">
        <ele>1186.88</ele>
        <time>2011-11-22T11:08:01Z</time>
      </trkpt>
      <trkpt lat="44.42148" lon="6.24123">
        <ele>1186.88</ele>
        <time>2011-11-22T11:08:02Z</time>
      </trkpt>
      <trkpt lat="44.42151" lon="6.24126">
        <ele>1186.4</ele>
        <time>2011-11-22T11:08:03Z</time>
      </trkpt>
      <trkpt lat="44.42152" lon="6.24129">
        <ele>1186.88</ele>
        <time>2011-11-22T11:08:04Z</time>
      </trkpt>
      <trkpt lat="44.42153" lon="6.24132">
        <ele>1185.92</ele>
        <time>2011-11-22T11:08:05Z</time>
      </trkpt>
      <trkpt lat="44.42148" lon="6.24168">
        <ele>1185.92</ele>
        <time>2011-11-22T11:08:13Z</time>
      </trkpt>
      <trkpt lat="44.42147" lon="6.24172">
        <ele>1184.96</ele>
        <time>2011-11-22T11:08:14Z</time>
      </trkpt>
      <trkpt lat="44.42146" lon="6.24176">
        <ele>1184.48</ele>
        <time>2011-11-22T11:08:15Z</time>
      </trkpt>
      <trkpt lat="44.42145" lon="6.2418">
        <ele>1184</ele>
        <time>2011-11-22T11:08:16Z</time>
      </trkpt>
      <trkpt lat="44.42145" lon="6.24184">
        <ele>1184.96</ele>
        <time>2011-11-22T11:08:17Z</time>
      </trkpt>
      <trkpt lat="44.42149" lon="6.24194">
        <ele>1184.96</ele>
        <time>2011-11-22T11:08:21Z</time>
      </trkpt>
      <trkpt lat="44.42151" lon="6.24195">
        <ele>1184.48</ele>
        <time>2011-11-22T11:08:22Z</time>
      </trkpt>
      <trkpt lat="44.42152" lon="6.24197">
        <ele>1184</ele>
        <time>2011-11-22T11:08:23Z</time>
      </trkpt>
      <trkpt lat="44.42154" lon="6.24198">
        <ele>1183.52</ele>
        <time>2011-11-22T11:08:24Z</time>
      </trkpt>
      <trkpt lat="44.42155" lon="6.24199">
        <ele>1185.44</ele>
        <time>2011-11-22T11:08:25Z</time>
      </trkpt>
      <trkpt lat="44.42157" lon="6.24201">
        <ele>1184.48</ele>
        <time>2011-11-22T11:08:26Z</time>
      </trkpt>
      <trkpt lat="44.42158" lon="6.24203">
        <ele>1184.48</ele>
        <time>2011-11-22T11:08:27Z</time>
      </trkpt>
      <trkpt lat="44.4216" lon="6.24204">
        <ele>1184.48</ele>
        <time>2011-11-22T11:08:28Z</time>
      </trkpt>
      <trkpt lat="44.42183" lon="6.24211">
        <ele>1184.96</ele>
        <time>2011-11-22T11:08:38Z</time>
      </trkpt>
      <trkpt lat="44.42218" lon="6.24203">
        <ele>1184.48</ele>
        <time>2011-11-22T11:08:51Z</time>
      </trkpt>
      <trkpt lat="44.42225" lon="6.24197">
        <ele>1183.04</ele>
        <time>2011-11-22T11:08:55Z</time>
      </trkpt>
      <trkpt lat="44.42247" lon="6.24173">
        <ele>1180.16</ele>
        <time>2011-11-22T11:09:04Z</time>
      </trkpt>
      <trkpt lat="44.42249" lon="6.24167">
        <ele>1179.67</ele>
        <time>2011-11-22T11:09:05Z</time>
      </trkpt>
      <trkpt lat="44.4226" lon="6.24147">
        <ele>1178.23</ele>
        <time>2011-11-22T11:09:08Z</time>
      </trkpt>
      <trkpt lat="44.42269" lon="6.24132">
        <ele>1177.27</ele>
        <time>2011-11-22T11:09:10Z</time>
      </trkpt>
      <trkpt lat="44.42274" lon="6.24127">
        <ele>1176.79</ele>
        <time>2011-11-22T11:09:11Z</time>
      </trkpt>
      <trkpt lat="44.42285" lon="6.24119">
        <ele>1174.87</ele>
        <time>2011-11-22T11:09:13Z</time>
      </trkpt>
      <trkpt lat="44.42294" lon="6.24111">
        <ele>1174.87</ele>
        <time>2011-11-22T11:09:15Z</time>
      </trkpt>
      <trkpt lat="44.42299" lon="6.2411">
        <ele>1173.43</ele>
        <time>2011-11-22T11:09:16Z</time>
      </trkpt>
      <trkpt lat="44.42304" lon="6.24112">
        <ele>1173.43</ele>
        <time>2011-11-22T11:09:17Z</time>
      </trkpt>
      <trkpt lat="44.42306" lon="6.24116">
        <ele>1173.91</ele>
        <time>2011-11-22T11:09:18Z</time>
      </trkpt>
      <trkpt lat="44.42309" lon="6.2412">
        <ele>1175.35</ele>
        <time>2011-11-22T11:09:19Z</time>
      </trkpt>
      <trkpt lat="44.4231" lon="6.24122">
        <ele>1174.39</ele>
        <time>2011-11-22T11:09:20Z</time>
      </trkpt>
      <trkpt lat="44.42311" lon="6.24125">
        <ele>1173.91</ele>
        <time>2011-11-22T11:09:21Z</time>
      </trkpt>
      <trkpt lat="44.42318" lon="6.24149">
        <ele>1174.87</ele>
        <time>2011-11-22T11:09:28Z</time>
      </trkpt>
      <trkpt lat="44.42319" lon="6.24152">
        <ele>1174.87</ele>
        <time>2011-11-22T11:09:29Z</time>
      </trkpt>
      <trkpt lat="44.42325" lon="6.24161">
        <ele>1175.35</ele>
        <time>2011-11-22T11:09:33Z</time>
      </trkpt>
      <trkpt lat="44.42325" lon="6.24164">
        <ele>1175.35</ele>
        <time>2011-11-22T11:09:34Z</time>
      </trkpt>
      <trkpt lat="44.42326" lon="6.24167">
        <ele>1176.79</ele>
        <time>2011-11-22T11:09:35Z</time>
      </trkpt>
      <trkpt lat="44.42326" lon="6.24169">
        <ele>1175.83</ele>
        <time>2011-11-22T11:09:36Z</time>
      </trkpt>
      <trkpt lat="44.42327" lon="6.24172">
        <ele>1176.31</ele>
        <time>2011-11-22T11:09:37Z</time>
      </trkpt>
      <trkpt lat="44.42328" lon="6.24174">
        <ele>1176.79</ele>
        <time>2011-11-22T11:09:38Z</time>
      </trkpt>
      <trkpt lat="44.42329" lon="6.24177">
        <ele>1175.83</ele>
        <time>2011-11-22T11:09:39Z</time>
      </trkpt>
      <trkpt lat="44.42331" lon="6.2418">
        <ele>1176.31</ele>
        <time>2011-11-22T11:09:40Z</time>
      </trkpt>
      <trkpt lat="44.42332" lon="6.24182">
        <ele>1175.83</ele>
        <time>2011-11-22T11:09:41Z</time>
      </trkpt>
      <trkpt lat="44.42333" lon="6.24185">
        <ele>1177.27</ele>
        <time>2011-11-22T11:09:42Z</time>
      </trkpt>
      <trkpt lat="44.42335" lon="6.24187">
        <ele>1176.79</ele>
        <time>2011-11-22T11:09:43Z</time>
      </trkpt>
      <trkpt lat="44.42336" lon="6.24189">
        <ele>1176.79</ele>
        <time>2011-11-22T11:09:44Z</time>
      </trkpt>
      <trkpt lat="44.42345" lon="6.2422">
        <ele>1177.75</ele>
        <time>2011-11-22T11:09:55Z</time>
      </trkpt>
      <trkpt lat="44.4235" lon="6.24256">
        <ele>1178.71</ele>
        <time>2011-11-22T11:10:07Z</time>
      </trkpt>
      <trkpt lat="44.42353" lon="6.24285">
        <ele>1180.64</ele>
        <time>2011-11-22T11:10:19Z</time>
      </trkpt>
      <trkpt lat="44.42353" lon="6.24287">
        <ele>1180.64</ele>
        <time>2011-11-22T11:10:20Z</time>
      </trkpt>
      <trkpt lat="44.42357" lon="6.24299">
        <ele>1181.6</ele>
        <time>2011-11-22T11:10:25Z</time>
      </trkpt>
      <trkpt lat="44.42358" lon="6.24301">
        <ele>1181.12</ele>
        <time>2011-11-22T11:10:26Z</time>
      </trkpt>
      <trkpt lat="44.42359" lon="6.24303">
        <ele>1181.6</ele>
        <time>2011-11-22T11:10:27Z</time>
      </trkpt>
      <trkpt lat="44.4236" lon="6.24304">
        <ele>1181.12</ele>
        <time>2011-11-22T11:10:28Z</time>
      </trkpt>
      <trkpt lat="44.42361" lon="6.24305">
        <ele>1181.6</ele>
        <time>2011-11-22T11:10:29Z</time>
      </trkpt>
      <trkpt lat="44.42373" lon="6.2432">
        <ele>1182.08</ele>
        <time>2011-11-22T11:10:39Z</time>
      </trkpt>
      <trkpt lat="44.42373" lon="6.24322">
        <ele>1182.56</ele>
        <time>2011-11-22T11:10:40Z</time>
      </trkpt>
      <trkpt lat="44.42374" lon="6.24324">
        <ele>1182.08</ele>
        <time>2011-11-22T11:10:41Z</time>
      </trkpt>
      <trkpt lat="44.42379" lon="6.24333">
        <ele>1184</ele>
        <time>2011-11-22T11:10:46Z</time>
      </trkpt>
      <trkpt lat="44.4238" lon="6.24335">
        <ele>1184</ele>
        <time>2011-11-22T11:10:47Z</time>
      </trkpt>
      <trkpt lat="44.4238" lon="6.24336">
        <ele>1183.52</ele>
        <time>2011-11-22T11:10:48Z</time>
      </trkpt>
      <trkpt lat="44.42381" lon="6.24338">
        <ele>1183.52</ele>
        <time>2011-11-22T11:10:49Z</time>
      </trkpt>
      <trkpt lat="44.42382" lon="6.24339">
        <ele>1183.04</ele>
        <time>2011-11-22T11:10:50Z</time>
      </trkpt>
      <trkpt lat="44.42397" lon="6.24354">
        <ele>1185.44</ele>
        <time>2011-11-22T11:11:04Z</time>
      </trkpt>
      <trkpt lat="44.42408" lon="6.24363">
        <ele>1187.85</ele>
        <time>2011-11-22T11:11:16Z</time>
      </trkpt>
      <trkpt lat="44.42409" lon="6.24365">
        <ele>1187.85</ele>
        <time>2011-11-22T11:11:18Z</time>
      </trkpt>
      <trkpt lat="44.42413" lon="6.24372">
        <ele>1187.85</ele>
        <time>2011-11-22T11:11:22Z</time>
      </trkpt>
      <trkpt lat="44.42425" lon="6.24387">
        <ele>1190.25</ele>
        <time>2011-11-22T11:11:34Z</time>
      </trkpt>
      <trkpt lat="44.42435" lon="6.24399">
        <ele>1190.25</ele>
        <time>2011-11-22T11:11:45Z</time>
      </trkpt>
      <trkpt lat="44.42438" lon="6.24405">
        <ele>1193.13</ele>
        <time>2011-11-22T11:11:50Z</time>
      </trkpt>
      <trkpt lat="44.4244" lon="6.24408">
        <ele>1192.65</ele>
        <time>2011-11-22T11:11:52Z</time>
      </trkpt>
      <trkpt lat="44.42441" lon="6.24412">
        <ele>1192.17</ele>
        <time>2011-11-22T11:11:55Z</time>
      </trkpt>
      <trkpt lat="44.42442" lon="6.24413">
        <ele>1192.65</ele>
        <time>2011-11-22T11:11:56Z</time>
      </trkpt>
      <trkpt lat="44.42443" lon="6.24414">
        <ele>1192.65</ele>
        <time>2011-11-22T11:11:57Z</time>
      </trkpt>
      <trkpt lat="44.42451" lon="6.24425">
        <ele>1193.61</ele>
        <time>2011-11-22T11:12:08Z</time>
      </trkpt>
      <trkpt lat="44.42456" lon="6.24427">
        <ele>1195.54</ele>
        <time>2011-11-22T11:12:13Z</time>
      </trkpt>
      <trkpt lat="44.42457" lon="6.24427">
        <ele>1195.54</ele>
        <time>2011-11-22T11:12:14Z</time>
      </trkpt>
      <trkpt lat="44.42466" lon="6.24416">
        <ele>1196.02</ele>
        <time>2011-11-22T11:12:23Z</time>
      </trkpt>
      <trkpt lat="44.42466" lon="6.24414">
        <ele>1196.5</ele>
        <time>2011-11-22T11:12:24Z</time>
      </trkpt>
      <trkpt lat="44.42466" lon="6.24412">
        <ele>1196.98</ele>
        <time>2011-11-22T11:12:25Z</time>
      </trkpt>
      <trkpt lat="44.42466" lon="6.24411">
        <ele>1195.54</ele>
        <time>2011-11-22T11:12:26Z</time>
      </trkpt>
      <trkpt lat="44.42461" lon="6.24395">
        <ele>1198.9</ele>
        <time>2011-11-22T11:12:35Z</time>
      </trkpt>
      <trkpt lat="44.42455" lon="6.2438">
        <ele>1199.86</ele>
        <time>2011-11-22T11:12:43Z</time>
      </trkpt>
      <trkpt lat="44.42454" lon="6.24369">
        <ele>1199.86</ele>
        <time>2011-11-22T11:12:48Z</time>
      </trkpt>
      <trkpt lat="44.42454" lon="6.24367">
        <ele>1200.82</ele>
        <time>2011-11-22T11:12:49Z</time>
      </trkpt>
      <trkpt lat="44.42454" lon="6.24364">
        <ele>1200.82</ele>
        <time>2011-11-22T11:12:50Z</time>
      </trkpt>
      <trkpt lat="44.42454" lon="6.24362">
        <ele>1200.82</ele>
        <time>2011-11-22T11:12:51Z</time>
      </trkpt>
      <trkpt lat="44.42453" lon="6.24359">
        <ele>1200.82</ele>
        <time>2011-11-22T11:12:52Z</time>
      </trkpt>
      <trkpt lat="44.42453" lon="6.24356">
        <ele>1201.79</ele>
        <time>2011-11-22T11:12:53Z</time>
      </trkpt>
      <trkpt lat="44.42447" lon="6.24327">
        <ele>1202.75</ele>
        <time>2011-11-22T11:13:07Z</time>
      </trkpt>
      <trkpt lat="44.42446" lon="6.24323">
        <ele>1202.75</ele>
        <time>2011-11-22T11:13:09Z</time>
      </trkpt>
      <trkpt lat="44.42446" lon="6.2432">
        <ele>1202.75</ele>
        <time>2011-11-22T11:13:10Z</time>
      </trkpt>
      <trkpt lat="44.42445" lon="6.24318">
        <ele>1202.75</ele>
        <time>2011-11-22T11:13:11Z</time>
      </trkpt>
      <trkpt lat="44.42444" lon="6.24315">
        <ele>1202.27</ele>
        <time>2011-11-22T11:13:12Z</time>
      </trkpt>
      <trkpt lat="44.42443" lon="6.24312">
        <ele>1202.27</ele>
        <time>2011-11-22T11:13:13Z</time>
      </trkpt>
      <trkpt lat="44.42443" lon="6.24309">
        <ele>1202.75</ele>
        <time>2011-11-22T11:13:14Z</time>
      </trkpt>
      <trkpt lat="44.42443" lon="6.24307">
        <ele>1202.27</ele>
        <time>2011-11-22T11:13:15Z</time>
      </trkpt>
      <trkpt lat="44.42443" lon="6.24305">
        <ele>1203.23</ele>
        <time>2011-11-22T11:13:16Z</time>
      </trkpt>
      <trkpt lat="44.42438" lon="6.24286">
        <ele>1205.15</ele>
        <time>2011-11-22T11:13:27Z</time>
      </trkpt>
      <trkpt lat="44.42433" lon="6.24263">
        <ele>1205.63</ele>
        <time>2011-11-22T11:13:35Z</time>
      </trkpt>
      <trkpt lat="44.42432" lon="6.24237">
        <ele>1205.15</ele>
        <time>2011-11-22T11:13:46Z</time>
      </trkpt>
      <trkpt lat="44.4243" lon="6.24228">
        <ele>1207.07</ele>
        <time>2011-11-22T11:13:51Z</time>
      </trkpt>
      <trkpt lat="44.4243" lon="6.24225">
        <ele>1207.55</ele>
        <time>2011-11-22T11:13:52Z</time>
      </trkpt>
      <trkpt lat="44.4243" lon="6.24222">
        <ele>1207.55</ele>
        <time>2011-11-22T11:13:53Z</time>
      </trkpt>
      <trkpt lat="44.4243" lon="6.2422">
        <ele>1207.55</ele>
        <time>2011-11-22T11:13:54Z</time>
      </trkpt>
      <trkpt lat="44.42425" lon="6.24203">
        <ele>1209.48</ele>
        <time>2011-11-22T11:14:05Z</time>
      </trkpt>
      <trkpt lat="44.42424" lon="6.24201">
        <ele>1211.4</ele>
        <time>2011-11-22T11:14:06Z</time>
      </trkpt>
      <trkpt lat="44.42422" lon="6.24199">
        <ele>1210.92</ele>
        <time>2011-11-22T11:14:07Z</time>
      </trkpt>
      <trkpt lat="44.42412" lon="6.24182">
        <ele>1212.36</ele>
        <time>2011-11-22T11:14:19Z</time>
      </trkpt>
      <trkpt lat="44.42409" lon="6.24178">
        <ele>1213.8</ele>
        <time>2011-11-22T11:14:22Z</time>
      </trkpt>
      <trkpt lat="44.42408" lon="6.24175">
        <ele>1214.28</ele>
        <time>2011-11-22T11:14:24Z</time>
      </trkpt>
      <trkpt lat="44.42407" lon="6.24174">
        <ele>1213.32</ele>
        <time>2011-11-22T11:14:25Z</time>
      </trkpt>
      <trkpt lat="44.42395" lon="6.24158">
        <ele>1215.72</ele>
        <time>2011-11-22T11:14:37Z</time>
      </trkpt>
      <trkpt lat="44.42394" lon="6.24157">
        <ele>1216.69</ele>
        <time>2011-11-22T11:14:38Z</time>
      </trkpt>
      <trkpt lat="44.4239" lon="6.24154">
        <ele>1216.69</ele>
        <time>2011-11-22T11:14:42Z</time>
      </trkpt>
      <trkpt lat="44.42384" lon="6.2415">
        <ele>1217.65</ele>
        <time>2011-11-22T11:14:47Z</time>
      </trkpt>
      <trkpt lat="44.42384" lon="6.24149">
        <ele>1216.69</ele>
        <time>2011-11-22T11:14:48Z</time>
      </trkpt>
      <trkpt lat="44.42383" lon="6.24147">
        <ele>1217.17</ele>
        <time>2011-11-22T11:14:49Z</time>
      </trkpt>
      <trkpt lat="44.42378" lon="6.24137">
        <ele>1218.61</ele>
        <time>2011-11-22T11:14:56Z</time>
      </trkpt>
      <trkpt lat="44.42379" lon="6.24134">
        <ele>1219.57</ele>
        <time>2011-11-22T11:14:57Z</time>
      </trkpt>
      <trkpt lat="44.42379" lon="6.24132">
        <ele>1219.09</ele>
        <time>2011-11-22T11:14:58Z</time>
      </trkpt>
      <trkpt lat="44.4238" lon="6.2413">
        <ele>1218.61</ele>
        <time>2011-11-22T11:14:59Z</time>
      </trkpt>
      <trkpt lat="44.4238" lon="6.24128">
        <ele>1219.09</ele>
        <time>2011-11-22T11:15:00Z</time>
      </trkpt>
      <trkpt lat="44.42385" lon="6.24121">
        <ele>1220.05</ele>
        <time>2011-11-22T11:15:06Z</time>
      </trkpt>
      <trkpt lat="44.42387" lon="6.24121">
        <ele>1220.05</ele>
        <time>2011-11-22T11:15:07Z</time>
      </trkpt>
      <trkpt lat="44.42401" lon="6.24131">
        <ele>1220.53</ele>
        <time>2011-11-22T11:15:19Z</time>
      </trkpt>
      <trkpt lat="44.42411" lon="6.24138">
        <ele>1221.49</ele>
        <time>2011-11-22T11:15:27Z</time>
      </trkpt>
      <trkpt lat="44.42416" lon="6.24142">
        <ele>1223.9</ele>
        <time>2011-11-22T11:15:31Z</time>
      </trkpt>
      <trkpt lat="44.42417" lon="6.24142">
        <ele>1222.45</ele>
        <time>2011-11-22T11:15:32Z</time>
      </trkpt>
      <trkpt lat="44.42418" lon="6.24143">
        <ele>1223.42</ele>
        <time>2011-11-22T11:15:33Z</time>
      </trkpt>
      <trkpt lat="44.4242" lon="6.24142">
        <ele>1223.42</ele>
        <time>2011-11-22T11:15:34Z</time>
      </trkpt>
      <trkpt lat="44.42432" lon="6.24138">
        <ele>1224.86</ele>
        <time>2011-11-22T11:15:43Z</time>
      </trkpt>
      <trkpt lat="44.4244" lon="6.24117">
        <ele>1227.26</ele>
        <time>2011-11-22T11:15:57Z</time>
      </trkpt>
      <trkpt lat="44.42441" lon="6.24112">
        <ele>1227.74</ele>
        <time>2011-11-22T11:16:00Z</time>
      </trkpt>
      <trkpt lat="44.42443" lon="6.24102">
        <ele>1228.7</ele>
        <time>2011-11-22T11:16:05Z</time>
      </trkpt>
      <trkpt lat="44.42444" lon="6.24101">
        <ele>1228.7</ele>
        <time>2011-11-22T11:16:06Z</time>
      </trkpt>
      <trkpt lat="44.42445" lon="6.24099">
        <ele>1229.66</ele>
        <time>2011-11-22T11:16:07Z</time>
      </trkpt>
      <trkpt lat="44.42446" lon="6.24097">
        <ele>1229.18</ele>
        <time>2011-11-22T11:16:08Z</time>
      </trkpt>
      <trkpt lat="44.42446" lon="6.24095">
        <ele>1228.7</ele>
        <time>2011-11-22T11:16:09Z</time>
      </trkpt>
      <trkpt lat="44.42446" lon="6.24093">
        <ele>1229.66</ele>
        <time>2011-11-22T11:16:10Z</time>
      </trkpt>
      <trkpt lat="44.42446" lon="6.24091">
        <ele>1230.14</ele>
        <time>2011-11-22T11:16:11Z</time>
      </trkpt>
      <trkpt lat="44.42447" lon="6.2409">
        <ele>1230.14</ele>
        <time>2011-11-22T11:16:12Z</time>
      </trkpt>
      <trkpt lat="44.42447" lon="6.24078">
        <ele>1231.11</ele>
        <time>2011-11-22T11:16:18Z</time>
      </trkpt>
      <trkpt lat="44.42447" lon="6.24075">
        <ele>1231.11</ele>
        <time>2011-11-22T11:16:19Z</time>
      </trkpt>
      <trkpt lat="44.42446" lon="6.24067">
        <ele>1231.11</ele>
        <time>2011-11-22T11:16:24Z</time>
      </trkpt>
      <trkpt lat="44.42444" lon="6.24067">
        <ele>1232.55</ele>
        <time>2011-11-22T11:16:25Z</time>
      </trkpt>
      <trkpt lat="44.42443" lon="6.24066">
        <ele>1232.55</ele>
        <time>2011-11-22T11:16:26Z</time>
      </trkpt>
      <trkpt lat="44.42442" lon="6.24066">
        <ele>1232.55</ele>
        <time>2011-11-22T11:16:27Z</time>
      </trkpt>
      <trkpt lat="44.42437" lon="6.24069">
        <ele>1233.99</ele>
        <time>2011-11-22T11:16:33Z</time>
      </trkpt>
      <trkpt lat="44.42434" lon="6.24073">
        <ele>1233.51</ele>
        <time>2011-11-22T11:16:36Z</time>
      </trkpt>
      <trkpt lat="44.42424" lon="6.24081">
        <ele>1234.95</ele>
        <time>2011-11-22T11:16:46Z</time>
      </trkpt>
      <trkpt lat="44.4242" lon="6.2408">
        <ele>1234.95</ele>
        <time>2011-11-22T11:16:50Z</time>
      </trkpt>
      <trkpt lat="44.42413" lon="6.24076">
        <ele>1236.87</ele>
        <time>2011-11-22T11:16:57Z</time>
      </trkpt>
      <trkpt lat="44.42412" lon="6.24075">
        <ele>1236.87</ele>
        <time>2011-11-22T11:16:58Z</time>
      </trkpt>
      <trkpt lat="44.42408" lon="6.24069">
        <ele>1236.87</ele>
        <time>2011-11-22T11:17:03Z</time>
      </trkpt>
      <trkpt lat="44.42407" lon="6.24067">
        <ele>1237.35</ele>
        <time>2011-11-22T11:17:05Z</time>
      </trkpt>
      <trkpt lat="44.42398" lon="6.24058">
        <ele>1238.8</ele>
        <time>2011-11-22T11:17:15Z</time>
      </trkpt>
      <trkpt lat="44.42397" lon="6.24056">
        <ele>1239.28</ele>
        <time>2011-11-22T11:17:16Z</time>
      </trkpt>
      <trkpt lat="44.42396" lon="6.24055">
        <ele>1238.8</ele>
        <time>2011-11-22T11:17:17Z</time>
      </trkpt>
      <trkpt lat="44.42387" lon="6.24045">
        <ele>1240.24</ele>
        <time>2011-11-22T11:17:27Z</time>
      </trkpt>
      <trkpt lat="44.4239" lon="6.24031">
        <ele>1242.16</ele>
        <time>2011-11-22T11:17:38Z</time>
      </trkpt>
      <trkpt lat="44.42391" lon="6.2403">
        <ele>1241.68</ele>
        <time>2011-11-22T11:17:39Z</time>
      </trkpt>
      <trkpt lat="44.42393" lon="6.2403">
        <ele>1243.12</ele>
        <time>2011-11-22T11:17:40Z</time>
      </trkpt>
      <trkpt lat="44.42394" lon="6.24031">
        <ele>1242.64</ele>
        <time>2011-11-22T11:17:41Z</time>
      </trkpt>
      <trkpt lat="44.42396" lon="6.24031">
        <ele>1242.16</ele>
        <time>2011-11-22T11:17:42Z</time>
      </trkpt>
      <trkpt lat="44.42397" lon="6.24031">
        <ele>1241.68</ele>
        <time>2011-11-22T11:17:43Z</time>
      </trkpt>
      <trkpt lat="44.42406" lon="6.24032">
        <ele>1243.12</ele>
        <time>2011-11-22T11:17:51Z</time>
      </trkpt>
      <trkpt lat="44.42416" lon="6.24033">
        <ele>1244.56</ele>
        <time>2011-11-22T11:17:59Z</time>
      </trkpt>
      <trkpt lat="44.42418" lon="6.24032">
        <ele>1243.6</ele>
        <time>2011-11-22T11:18:01Z</time>
      </trkpt>
      <trkpt lat="44.42419" lon="6.2403">
        <ele>1245.04</ele>
        <time>2011-11-22T11:18:02Z</time>
      </trkpt>
      <trkpt lat="44.4242" lon="6.24029">
        <ele>1245.53</ele>
        <time>2011-11-22T11:18:03Z</time>
      </trkpt>
      <trkpt lat="44.42425" lon="6.24015">
        <ele>1246.49</ele>
        <time>2011-11-22T11:18:14Z</time>
      </trkpt>
      <trkpt lat="44.42434" lon="6.23998">
        <ele>1248.41</ele>
        <time>2011-11-22T11:18:26Z</time>
      </trkpt>
      <trkpt lat="44.42437" lon="6.2399">
        <ele>1247.93</ele>
        <time>2011-11-22T11:18:30Z</time>
      </trkpt>
      <trkpt lat="44.42438" lon="6.23989">
        <ele>1246.97</ele>
        <time>2011-11-22T11:18:31Z</time>
      </trkpt>
      <trkpt lat="44.42439" lon="6.23987">
        <ele>1247.93</ele>
        <time>2011-11-22T11:18:32Z</time>
      </trkpt>
      <trkpt lat="44.4244" lon="6.23985">
        <ele>1248.89</ele>
        <time>2011-11-22T11:18:33Z</time>
      </trkpt>
      <trkpt lat="44.42441" lon="6.23983">
        <ele>1247.93</ele>
        <time>2011-11-22T11:18:34Z</time>
      </trkpt>
      <trkpt lat="44.42442" lon="6.23982">
        <ele>1249.37</ele>
        <time>2011-11-22T11:18:35Z</time>
      </trkpt>
      <trkpt lat="44.42454" lon="6.23954">
        <ele>1248.89</ele>
        <time>2011-11-22T11:18:48Z</time>
      </trkpt>
      <trkpt lat="44.42469" lon="6.23934">
        <ele>1250.33</ele>
        <time>2011-11-22T11:18:59Z</time>
      </trkpt>
      <trkpt lat="44.42477" lon="6.23927">
        <ele>1250.33</ele>
        <time>2011-11-22T11:19:04Z</time>
      </trkpt>
      <trkpt lat="44.42478" lon="6.23925">
        <ele>1250.33</ele>
        <time>2011-11-22T11:19:05Z</time>
      </trkpt>
      <trkpt lat="44.42507" lon="6.23917">
        <ele>1250.33</ele>
        <time>2011-11-22T11:19:18Z</time>
      </trkpt>
      <trkpt lat="44.42509" lon="6.23917">
        <ele>1250.81</ele>
        <time>2011-11-22T11:19:19Z</time>
      </trkpt>
      <trkpt lat="44.42511" lon="6.23916">
        <ele>1251.77</ele>
        <time>2011-11-22T11:19:20Z</time>
      </trkpt>
      <trkpt lat="44.42513" lon="6.23916">
        <ele>1252.25</ele>
        <time>2011-11-22T11:19:21Z</time>
      </trkpt>
      <trkpt lat="44.42518" lon="6.23916">
        <ele>1252.25</ele>
        <time>2011-11-22T11:19:25Z</time>
      </trkpt>
      <trkpt lat="44.42518" lon="6.23917">
        <ele>1250.81</ele>
        <time>2011-11-22T11:19:50Z</time>
      </trkpt>
      <trkpt lat="44.42519" lon="6.23917">
        <ele>1250.81</ele>
        <time>2011-11-22T11:21:21Z</time>
      </trkpt>
      <trkpt lat="44.42519" lon="6.23918">
        <ele>1251.29</ele>
        <time>2011-11-22T11:21:43Z</time>
      </trkpt>
      <trkpt lat="44.42519" lon="6.23916">
        <ele>1252.25</ele>
        <time>2011-11-22T11:22:10Z</time>
      </trkpt>
      <trkpt lat="44.42528" lon="6.2389">
        <ele>1251.29</ele>
        <time>2011-11-22T11:22:23Z</time>
      </trkpt>
      <trkpt lat="44.42521" lon="6.23863">
        <ele>1252.25</ele>
        <time>2011-11-22T11:22:32Z</time>
      </trkpt>
      <trkpt lat="44.42516" lon="6.23827">
        <ele>1253.22</ele>
        <time>2011-11-22T11:22:45Z</time>
      </trkpt>
      <trkpt lat="44.42526" lon="6.23805">
        <ele>1254.18</ele>
        <time>2011-11-22T11:22:56Z</time>
      </trkpt>
      <trkpt lat="44.42534" lon="6.23794">
        <ele>1254.18</ele>
        <time>2011-11-22T11:23:03Z</time>
      </trkpt>
      <trkpt lat="44.42547" lon="6.2377">
        <ele>1256.58</ele>
        <time>2011-11-22T11:23:14Z</time>
      </trkpt>
      <trkpt lat="44.42548" lon="6.23767">
        <ele>1256.58</ele>
        <time>2011-11-22T11:23:16Z</time>
      </trkpt>
      <trkpt lat="44.4255" lon="6.23764">
        <ele>1257.54</ele>
        <time>2011-11-22T11:23:17Z</time>
      </trkpt>
      <trkpt lat="44.42552" lon="6.23762">
        <ele>1257.06</ele>
        <time>2011-11-22T11:23:18Z</time>
      </trkpt>
      <trkpt lat="44.42553" lon="6.2376">
        <ele>1256.58</ele>
        <time>2011-11-22T11:23:19Z</time>
      </trkpt>
      <trkpt lat="44.42555" lon="6.23758">
        <ele>1257.54</ele>
        <time>2011-11-22T11:23:20Z</time>
      </trkpt>
      <trkpt lat="44.42557" lon="6.23756">
        <ele>1257.06</ele>
        <time>2011-11-22T11:23:21Z</time>
      </trkpt>
      <trkpt lat="44.42579" lon="6.23738">
        <ele>1259.46</ele>
        <time>2011-11-22T11:23:36Z</time>
      </trkpt>
      <trkpt lat="44.42591" lon="6.23726">
        <ele>1261.87</ele>
        <time>2011-11-22T11:23:45Z</time>
      </trkpt>
      <trkpt lat="44.42592" lon="6.23723">
        <ele>1261.39</ele>
        <time>2011-11-22T11:23:46Z</time>
      </trkpt>
      <trkpt lat="44.42597" lon="6.23709">
        <ele>1261.39</ele>
        <time>2011-11-22T11:23:53Z</time>
      </trkpt>
      <trkpt lat="44.42598" lon="6.23705">
        <ele>1262.35</ele>
        <time>2011-11-22T11:23:55Z</time>
      </trkpt>
      <trkpt lat="44.426" lon="6.23687">
        <ele>1263.31</ele>
        <time>2011-11-22T11:24:03Z</time>
      </trkpt>
      <trkpt lat="44.42601" lon="6.23685">
        <ele>1262.83</ele>
        <time>2011-11-22T11:24:04Z</time>
      </trkpt>
      <trkpt lat="44.42601" lon="6.23682">
        <ele>1264.27</ele>
        <time>2011-11-22T11:24:05Z</time>
      </trkpt>
      <trkpt lat="44.42602" lon="6.2368">
        <ele>1263.31</ele>
        <time>2011-11-22T11:24:06Z</time>
      </trkpt>
      <trkpt lat="44.42603" lon="6.23678">
        <ele>1264.27</ele>
        <time>2011-11-22T11:24:07Z</time>
      </trkpt>
      <trkpt lat="44.42609" lon="6.23649">
        <ele>1264.27</ele>
        <time>2011-11-22T11:24:21Z</time>
      </trkpt>
      <trkpt lat="44.42609" lon="6.23646">
        <ele>1263.79</ele>
        <time>2011-11-22T11:24:22Z</time>
      </trkpt>
      <trkpt lat="44.4261" lon="6.23644">
        <ele>1265.23</ele>
        <time>2011-11-22T11:24:23Z</time>
      </trkpt>
      <trkpt lat="44.4261" lon="6.23641">
        <ele>1264.75</ele>
        <time>2011-11-22T11:24:24Z</time>
      </trkpt>
      <trkpt lat="44.4261" lon="6.23639">
        <ele>1264.27</ele>
        <time>2011-11-22T11:24:25Z</time>
      </trkpt>
      <trkpt lat="44.4261" lon="6.23636">
        <ele>1264.27</ele>
        <time>2011-11-22T11:24:26Z</time>
      </trkpt>
      <trkpt lat="44.42611" lon="6.23633">
        <ele>1264.75</ele>
        <time>2011-11-22T11:24:27Z</time>
      </trkpt>
      <trkpt lat="44.42611" lon="6.2363">
        <ele>1265.23</ele>
        <time>2011-11-22T11:24:28Z</time>
      </trkpt>
      <trkpt lat="44.42612" lon="6.23628">
        <ele>1265.23</ele>
        <time>2011-11-22T11:24:29Z</time>
      </trkpt>
      <trkpt lat="44.42613" lon="6.23626">
        <ele>1265.23</ele>
        <time>2011-11-22T11:24:30Z</time>
      </trkpt>
      <trkpt lat="44.42618" lon="6.23599">
        <ele>1267.16</ele>
        <time>2011-11-22T11:24:43Z</time>
      </trkpt>
      <trkpt lat="44.42618" lon="6.23596">
        <ele>1267.16</ele>
        <time>2011-11-22T11:24:45Z</time>
      </trkpt>
      <trkpt lat="44.42619" lon="6.23593">
        <ele>1265.71</ele>
        <time>2011-11-22T11:24:46Z</time>
      </trkpt>
      <trkpt lat="44.42621" lon="6.23591">
        <ele>1266.67</ele>
        <time>2011-11-22T11:24:47Z</time>
      </trkpt>
      <trkpt lat="44.42631" lon="6.23576">
        <ele>1268.6</ele>
        <time>2011-11-22T11:24:56Z</time>
      </trkpt>
      <trkpt lat="44.42632" lon="6.23575">
        <ele>1269.08</ele>
        <time>2011-11-22T11:24:57Z</time>
      </trkpt>
      <trkpt lat="44.42644" lon="6.2356">
        <ele>1270.52</ele>
        <time>2011-11-22T11:25:09Z</time>
      </trkpt>
      <trkpt lat="44.42657" lon="6.23541">
        <ele>1272.44</ele>
        <time>2011-11-22T11:25:20Z</time>
      </trkpt>
      <trkpt lat="44.4266" lon="6.2353">
        <ele>1274.36</ele>
        <time>2011-11-22T11:25:26Z</time>
      </trkpt>
      <trkpt lat="44.42662" lon="6.23522">
        <ele>1274.36</ele>
        <time>2011-11-22T11:25:30Z</time>
      </trkpt>
      <trkpt lat="44.42663" lon="6.2352">
        <ele>1274.36</ele>
        <time>2011-11-22T11:25:31Z</time>
      </trkpt>
      <trkpt lat="44.42663" lon="6.23518">
        <ele>1273.88</ele>
        <time>2011-11-22T11:25:32Z</time>
      </trkpt>
      <trkpt lat="44.42664" lon="6.23516">
        <ele>1274.36</ele>
        <time>2011-11-22T11:25:33Z</time>
      </trkpt>
      <trkpt lat="44.42665" lon="6.23514">
        <ele>1273.88</ele>
        <time>2011-11-22T11:25:34Z</time>
      </trkpt>
      <trkpt lat="44.42666" lon="6.23512">
        <ele>1274.36</ele>
        <time>2011-11-22T11:25:35Z</time>
      </trkpt>
      <trkpt lat="44.42666" lon="6.2351">
        <ele>1274.36</ele>
        <time>2011-11-22T11:25:36Z</time>
      </trkpt>
      <trkpt lat="44.42667" lon="6.23501">
        <ele>1275.33</ele>
        <time>2011-11-22T11:25:47Z</time>
      </trkpt>
      <trkpt lat="44.42669" lon="6.23503">
        <ele>1275.81</ele>
        <time>2011-11-22T11:25:59Z</time>
      </trkpt>
      <trkpt lat="44.42669" lon="6.23505">
        <ele>1274.85</ele>
        <time>2011-11-22T11:26:09Z</time>
      </trkpt>
      <trkpt lat="44.4267" lon="6.23506">
        <ele>1275.33</ele>
        <time>2011-11-22T11:26:10Z</time>
      </trkpt>
      <trkpt lat="44.42671" lon="6.23508">
        <ele>1274.36</ele>
        <time>2011-11-22T11:26:11Z</time>
      </trkpt>
      <trkpt lat="44.42677" lon="6.23516">
        <ele>1274.36</ele>
        <time>2011-11-22T11:26:14Z</time>
      </trkpt>
      <trkpt lat="44.42699" lon="6.23523">
        <ele>1272.92</ele>
        <time>2011-11-22T11:26:25Z</time>
      </trkpt>
      <trkpt lat="44.42707" lon="6.23524">
        <ele>1272.92</ele>
        <time>2011-11-22T11:26:29Z</time>
      </trkpt>
      <trkpt lat="44.42709" lon="6.23525">
        <ele>1273.4</ele>
        <time>2011-11-22T11:26:30Z</time>
      </trkpt>
      <trkpt lat="44.4271" lon="6.23526">
        <ele>1272.92</ele>
        <time>2011-11-22T11:26:31Z</time>
      </trkpt>
      <trkpt lat="44.42712" lon="6.23527">
        <ele>1273.4</ele>
        <time>2011-11-22T11:26:32Z</time>
      </trkpt>
      <trkpt lat="44.42714" lon="6.23527">
        <ele>1272.92</ele>
        <time>2011-11-22T11:26:33Z</time>
      </trkpt>
      <trkpt lat="44.42715" lon="6.23528">
        <ele>1273.88</ele>
        <time>2011-11-22T11:26:34Z</time>
      </trkpt>
      <trkpt lat="44.42719" lon="6.23529">
        <ele>1274.36</ele>
        <time>2011-11-22T11:26:37Z</time>
      </trkpt>
      <trkpt lat="44.42727" lon="6.2353">
        <ele>1273.88</ele>
        <time>2011-11-22T11:26:42Z</time>
      </trkpt>
      <trkpt lat="44.42736" lon="6.23531">
        <ele>1274.85</ele>
        <time>2011-11-22T11:26:47Z</time>
      </trkpt>
      <trkpt lat="44.42738" lon="6.23532">
        <ele>1273.88</ele>
        <time>2011-11-22T11:26:49Z</time>
      </trkpt>
      <trkpt lat="44.4274" lon="6.23532">
        <ele>1274.85</ele>
        <time>2011-11-22T11:26:50Z</time>
      </trkpt>
      <trkpt lat="44.42742" lon="6.23532">
        <ele>1274.85</ele>
        <time>2011-11-22T11:26:51Z</time>
      </trkpt>
      <trkpt lat="44.42743" lon="6.23532">
        <ele>1274.85</ele>
        <time>2011-11-22T11:26:52Z</time>
      </trkpt>
      <trkpt lat="44.42745" lon="6.23531">
        <ele>1274.36</ele>
        <time>2011-11-22T11:26:53Z</time>
      </trkpt>
      <trkpt lat="44.42746" lon="6.23531">
        <ele>1274.36</ele>
        <time>2011-11-22T11:26:54Z</time>
      </trkpt>
      <trkpt lat="44.42748" lon="6.23531">
        <ele>1275.33</ele>
        <time>2011-11-22T11:26:55Z</time>
      </trkpt>
      <trkpt lat="44.42749" lon="6.23531">
        <ele>1275.33</ele>
        <time>2011-11-22T11:26:56Z</time>
      </trkpt>
      <trkpt lat="44.4275" lon="6.23531">
        <ele>1275.33</ele>
        <time>2011-11-22T11:26:57Z</time>
      </trkpt>
      <trkpt lat="44.42752" lon="6.23531">
        <ele>1275.81</ele>
        <time>2011-11-22T11:26:58Z</time>
      </trkpt>
      <trkpt lat="44.42758" lon="6.23533">
        <ele>1274.85</ele>
        <time>2011-11-22T11:27:03Z</time>
      </trkpt>
      <trkpt lat="44.42764" lon="6.23534">
        <ele>1276.29</ele>
        <time>2011-11-22T11:27:07Z</time>
      </trkpt>
      <trkpt lat="44.42767" lon="6.23534">
        <ele>1276.29</ele>
        <time>2011-11-22T11:27:08Z</time>
      </trkpt>
      <trkpt lat="44.42768" lon="6.23534">
        <ele>1277.25</ele>
        <time>2011-11-22T11:27:09Z</time>
      </trkpt>
      <trkpt lat="44.42787" lon="6.23536">
        <ele>1277.73</ele>
        <time>2011-11-22T11:27:21Z</time>
      </trkpt>
      <trkpt lat="44.42804" lon="6.23538">
        <ele>1278.21</ele>
        <time>2011-11-22T11:27:30Z</time>
      </trkpt>
      <trkpt lat="44.42805" lon="6.23538">
        <ele>1277.73</ele>
        <time>2011-11-22T11:27:31Z</time>
      </trkpt>
      <trkpt lat="44.42807" lon="6.23539">
        <ele>1277.73</ele>
        <time>2011-11-22T11:27:32Z</time>
      </trkpt>
      <trkpt lat="44.42812" lon="6.23538">
        <ele>1278.69</ele>
        <time>2011-11-22T11:27:35Z</time>
      </trkpt>
      <trkpt lat="44.42815" lon="6.23539">
        <ele>1278.69</ele>
        <time>2011-11-22T11:27:37Z</time>
      </trkpt>
      <trkpt lat="44.42817" lon="6.23538">
        <ele>1279.65</ele>
        <time>2011-11-22T11:27:38Z</time>
      </trkpt>
      <trkpt lat="44.42818" lon="6.23539">
        <ele>1279.17</ele>
        <time>2011-11-22T11:27:39Z</time>
      </trkpt>
      <trkpt lat="44.4282" lon="6.23539">
        <ele>1279.17</ele>
        <time>2011-11-22T11:27:40Z</time>
      </trkpt>
      <trkpt lat="44.42833" lon="6.23538">
        <ele>1280.61</ele>
        <time>2011-11-22T11:27:48Z</time>
      </trkpt>
      <trkpt lat="44.42854" lon="6.23542">
        <ele>1283.98</ele>
        <time>2011-11-22T11:28:01Z</time>
      </trkpt>
      <trkpt lat="44.42857" lon="6.23542">
        <ele>1284.46</ele>
        <time>2011-11-22T11:28:03Z</time>
      </trkpt>
      <trkpt lat="44.42875" lon="6.23546">
        <ele>1285.42</ele>
        <time>2011-11-22T11:28:15Z</time>
      </trkpt>
      <trkpt lat="44.42893" lon="6.23549">
        <ele>1285.42</ele>
        <time>2011-11-22T11:28:27Z</time>
      </trkpt>
      <trkpt lat="44.42925" lon="6.23556">
        <ele>1284.94</ele>
        <time>2011-11-22T11:28:38Z</time>
      </trkpt>
      <trkpt lat="44.42943" lon="6.23563">
        <ele>1282.54</ele>
        <time>2011-11-22T11:28:44Z</time>
      </trkpt>
      <trkpt lat="44.42956" lon="6.23567">
        <ele>1281.09</ele>
        <time>2011-11-22T11:28:48Z</time>
      </trkpt>
      <trkpt lat="44.42976" lon="6.23576">
        <ele>1278.21</ele>
        <time>2011-11-22T11:28:54Z</time>
      </trkpt>
      <trkpt lat="44.4298" lon="6.23576">
        <ele>1277.73</ele>
        <time>2011-11-22T11:28:55Z</time>
      </trkpt>
      <trkpt lat="44.42985" lon="6.23576">
        <ele>1276.77</ele>
        <time>2011-11-22T11:28:56Z</time>
      </trkpt>
      <trkpt lat="44.43022" lon="6.23574">
        <ele>1278.21</ele>
        <time>2011-11-22T11:29:06Z</time>
      </trkpt>
      <trkpt lat="44.43024" lon="6.23573">
        <ele>1277.73</ele>
        <time>2011-11-22T11:29:07Z</time>
      </trkpt>
      <trkpt lat="44.4305" lon="6.23563">
        <ele>1279.65</ele>
        <time>2011-11-22T11:29:20Z</time>
      </trkpt>
      <trkpt lat="44.43071" lon="6.23551">
        <ele>1281.57</ele>
        <time>2011-11-22T11:29:33Z</time>
      </trkpt>
      <trkpt lat="44.43095" lon="6.23542">
        <ele>1283.5</ele>
        <time>2011-11-22T11:29:49Z</time>
      </trkpt>
      <trkpt lat="44.43112" lon="6.23537">
        <ele>1285.42</ele>
        <time>2011-11-22T11:30:00Z</time>
      </trkpt>
      <trkpt lat="44.4312" lon="6.23535">
        <ele>1286.38</ele>
        <time>2011-11-22T11:30:05Z</time>
      </trkpt>
      <trkpt lat="44.43121" lon="6.23533">
        <ele>1285.9</ele>
        <time>2011-11-22T11:30:06Z</time>
      </trkpt>
      <trkpt lat="44.43128" lon="6.23528">
        <ele>1287.34</ele>
        <time>2011-11-22T11:30:13Z</time>
      </trkpt>
      <trkpt lat="44.4314" lon="6.23522">
        <ele>1288.78</ele>
        <time>2011-11-22T11:30:23Z</time>
      </trkpt>
      <trkpt lat="44.43147" lon="6.23519">
        <ele>1289.75</ele>
        <time>2011-11-22T11:30:31Z</time>
      </trkpt>
      <trkpt lat="44.43151" lon="6.23519">
        <ele>1290.71</ele>
        <time>2011-11-22T11:30:35Z</time>
      </trkpt>
      <trkpt lat="44.43154" lon="6.23518">
        <ele>1292.63</ele>
        <time>2011-11-22T11:30:39Z</time>
      </trkpt>
      <trkpt lat="44.43164" lon="6.2352">
        <ele>1293.59</ele>
        <time>2011-11-22T11:30:51Z</time>
      </trkpt>
      <trkpt lat="44.43167" lon="6.23519">
        <ele>1295.51</ele>
        <time>2011-11-22T11:30:56Z</time>
      </trkpt>
      <trkpt lat="44.43171" lon="6.23517">
        <ele>1296.48</ele>
        <time>2011-11-22T11:31:00Z</time>
      </trkpt>
      <trkpt lat="44.43181" lon="6.23513">
        <ele>1298.88</ele>
        <time>2011-11-22T11:31:14Z</time>
      </trkpt>
      <trkpt lat="44.43187" lon="6.2351">
        <ele>1300.32</ele>
        <time>2011-11-22T11:31:21Z</time>
      </trkpt>
      <trkpt lat="44.4319" lon="6.2351">
        <ele>1299.36</ele>
        <time>2011-11-22T11:31:23Z</time>
      </trkpt>
      <trkpt lat="44.43193" lon="6.23509">
        <ele>1300.8</ele>
        <time>2011-11-22T11:31:26Z</time>
      </trkpt>
      <trkpt lat="44.43207" lon="6.23503">
        <ele>1303.2</ele>
        <time>2011-11-22T11:31:40Z</time>
      </trkpt>
      <trkpt lat="44.43213" lon="6.23501">
        <ele>1304.17</ele>
        <time>2011-11-22T11:31:53Z</time>
      </trkpt>
      <trkpt lat="44.43222" lon="6.235">
        <ele>1305.13</ele>
        <time>2011-11-22T11:32:12Z</time>
      </trkpt>
      <trkpt lat="44.43234" lon="6.23495">
        <ele>1306.09</ele>
        <time>2011-11-22T11:32:25Z</time>
      </trkpt>
      <trkpt lat="44.43235" lon="6.23495">
        <ele>1306.57</ele>
        <time>2011-11-22T11:32:26Z</time>
      </trkpt>
      <trkpt lat="44.43236" lon="6.23494">
        <ele>1306.57</ele>
        <time>2011-11-22T11:32:27Z</time>
      </trkpt>
      <trkpt lat="44.43244" lon="6.23493">
        <ele>1308.49</ele>
        <time>2011-11-22T11:32:35Z</time>
      </trkpt>
      <trkpt lat="44.43245" lon="6.23493">
        <ele>1308.01</ele>
        <time>2011-11-22T11:32:36Z</time>
      </trkpt>
      <trkpt lat="44.43247" lon="6.23493">
        <ele>1308.01</ele>
        <time>2011-11-22T11:32:38Z</time>
      </trkpt>
      <trkpt lat="44.43248" lon="6.23493">
        <ele>1308.49</ele>
        <time>2011-11-22T11:32:39Z</time>
      </trkpt>
      <trkpt lat="44.43251" lon="6.23493">
        <ele>1308.97</ele>
        <time>2011-11-22T11:32:42Z</time>
      </trkpt>
      <trkpt lat="44.43264" lon="6.2349">
        <ele>1310.9</ele>
        <time>2011-11-22T11:32:53Z</time>
      </trkpt>
      <trkpt lat="44.43273" lon="6.23485">
        <ele>1312.34</ele>
        <time>2011-11-22T11:33:03Z</time>
      </trkpt>
      <trkpt lat="44.43274" lon="6.23485">
        <ele>1312.82</ele>
        <time>2011-11-22T11:33:04Z</time>
      </trkpt>
      <trkpt lat="44.43275" lon="6.23484">
        <ele>1312.34</ele>
        <time>2011-11-22T11:33:05Z</time>
      </trkpt>
      <trkpt lat="44.43276" lon="6.23484">
        <ele>1312.82</ele>
        <time>2011-11-22T11:33:06Z</time>
      </trkpt>
      <trkpt lat="44.43277" lon="6.23483">
        <ele>1312.82</ele>
        <time>2011-11-22T11:33:07Z</time>
      </trkpt>
      <trkpt lat="44.43278" lon="6.23482">
        <ele>1312.34</ele>
        <time>2011-11-22T11:33:08Z</time>
      </trkpt>
      <trkpt lat="44.43279" lon="6.23481">
        <ele>1312.82</ele>
        <time>2011-11-22T11:33:09Z</time>
      </trkpt>
      <trkpt lat="44.4328" lon="6.2348">
        <ele>1313.3</ele>
        <time>2011-11-22T11:33:10Z</time>
      </trkpt>
      <trkpt lat="44.43285" lon="6.23467">
        <ele>1315.7</ele>
        <time>2011-11-22T11:33:21Z</time>
      </trkpt>
      <trkpt lat="44.43297" lon="6.23454">
        <ele>1316.18</ele>
        <time>2011-11-22T11:33:35Z</time>
      </trkpt>
      <trkpt lat="44.43303" lon="6.23452">
        <ele>1317.62</ele>
        <time>2011-11-22T11:33:41Z</time>
      </trkpt>
      <trkpt lat="44.43305" lon="6.23452">
        <ele>1317.62</ele>
        <time>2011-11-22T11:33:43Z</time>
      </trkpt>
      <trkpt lat="44.43321" lon="6.2346">
        <ele>1319.55</ele>
        <time>2011-11-22T11:33:57Z</time>
      </trkpt>
      <trkpt lat="44.43322" lon="6.23462">
        <ele>1319.07</ele>
        <time>2011-11-22T11:33:59Z</time>
      </trkpt>
      <trkpt lat="44.43325" lon="6.23467">
        <ele>1321.47</ele>
        <time>2011-11-22T11:34:03Z</time>
      </trkpt>
      <trkpt lat="44.43326" lon="6.23469">
        <ele>1320.99</ele>
        <time>2011-11-22T11:34:04Z</time>
      </trkpt>
      <trkpt lat="44.43327" lon="6.23471">
        <ele>1320.51</ele>
        <time>2011-11-22T11:34:06Z</time>
      </trkpt>
      <trkpt lat="44.43328" lon="6.23473">
        <ele>1320.51</ele>
        <time>2011-11-22T11:34:08Z</time>
      </trkpt>
      <trkpt lat="44.4333" lon="6.23479">
        <ele>1320.99</ele>
        <time>2011-11-22T11:34:14Z</time>
      </trkpt>
      <trkpt lat="44.43334" lon="6.2349">
        <ele>1320.99</ele>
        <time>2011-11-22T11:34:22Z</time>
      </trkpt>
      <trkpt lat="44.43341" lon="6.23504">
        <ele>1323.39</ele>
        <time>2011-11-22T11:34:32Z</time>
      </trkpt>
      <trkpt lat="44.43342" lon="6.23505">
        <ele>1323.39</ele>
        <time>2011-11-22T11:34:33Z</time>
      </trkpt>
      <trkpt lat="44.43343" lon="6.23506">
        <ele>1323.39</ele>
        <time>2011-11-22T11:34:34Z</time>
      </trkpt>
      <trkpt lat="44.43351" lon="6.23521">
        <ele>1325.31</ele>
        <time>2011-11-22T11:34:46Z</time>
      </trkpt>
      <trkpt lat="44.4336" lon="6.23533">
        <ele>1325.31</ele>
        <time>2011-11-22T11:34:57Z</time>
      </trkpt>
      <trkpt lat="44.43364" lon="6.23536">
        <ele>1326.28</ele>
        <time>2011-11-22T11:35:00Z</time>
      </trkpt>
      <trkpt lat="44.43365" lon="6.23537">
        <ele>1326.76</ele>
        <time>2011-11-22T11:35:01Z</time>
      </trkpt>
      <trkpt lat="44.4337" lon="6.2354">
        <ele>1325.8</ele>
        <time>2011-11-22T11:35:05Z</time>
      </trkpt>
      <trkpt lat="44.43372" lon="6.23541">
        <ele>1325.31</ele>
        <time>2011-11-22T11:35:06Z</time>
      </trkpt>
      <trkpt lat="44.43374" lon="6.23542">
        <ele>1325.31</ele>
        <time>2011-11-22T11:35:07Z</time>
      </trkpt>
      <trkpt lat="44.43375" lon="6.23542">
        <ele>1326.28</ele>
        <time>2011-11-22T11:35:08Z</time>
      </trkpt>
      <trkpt lat="44.43378" lon="6.23542">
        <ele>1325.8</ele>
        <time>2011-11-22T11:35:09Z</time>
      </trkpt>
      <trkpt lat="44.4338" lon="6.23543">
        <ele>1326.28</ele>
        <time>2011-11-22T11:35:10Z</time>
      </trkpt>
      <trkpt lat="44.43382" lon="6.23543">
        <ele>1326.28</ele>
        <time>2011-11-22T11:35:11Z</time>
      </trkpt>
      <trkpt lat="44.43384" lon="6.23544">
        <ele>1325.31</ele>
        <time>2011-11-22T11:35:12Z</time>
      </trkpt>
      <trkpt lat="44.43385" lon="6.23544">
        <ele>1326.28</ele>
        <time>2011-11-22T11:35:13Z</time>
      </trkpt>
      <trkpt lat="44.43387" lon="6.23545">
        <ele>1325.8</ele>
        <time>2011-11-22T11:35:14Z</time>
      </trkpt>
      <trkpt lat="44.43389" lon="6.23545">
        <ele>1326.28</ele>
        <time>2011-11-22T11:35:15Z</time>
      </trkpt>
      <trkpt lat="44.43412" lon="6.23546">
        <ele>1325.8</ele>
        <time>2011-11-22T11:35:25Z</time>
      </trkpt>
      <trkpt lat="44.43414" lon="6.23545">
        <ele>1325.8</ele>
        <time>2011-11-22T11:35:26Z</time>
      </trkpt>
      <trkpt lat="44.43416" lon="6.23546">
        <ele>1325.8</ele>
        <time>2011-11-22T11:35:27Z</time>
      </trkpt>
      <trkpt lat="44.43417" lon="6.23546">
        <ele>1325.31</ele>
        <time>2011-11-22T11:35:28Z</time>
      </trkpt>
      <trkpt lat="44.43426" lon="6.23547">
        <ele>1325.31</ele>
        <time>2011-11-22T11:35:33Z</time>
      </trkpt>
      <trkpt lat="44.43428" lon="6.23547">
        <ele>1325.31</ele>
        <time>2011-11-22T11:35:34Z</time>
      </trkpt>
      <trkpt lat="44.43429" lon="6.23546">
        <ele>1324.83</ele>
        <time>2011-11-22T11:35:35Z</time>
      </trkpt>
      <trkpt lat="44.43431" lon="6.23546">
        <ele>1325.8</ele>
        <time>2011-11-22T11:35:36Z</time>
      </trkpt>
      <trkpt lat="44.43433" lon="6.23546">
        <ele>1324.83</ele>
        <time>2011-11-22T11:35:37Z</time>
      </trkpt>
      <trkpt lat="44.43442" lon="6.23547">
        <ele>1326.28</ele>
        <time>2011-11-22T11:35:43Z</time>
      </trkpt>
      <trkpt lat="44.43445" lon="6.23547">
        <ele>1325.8</ele>
        <time>2011-11-22T11:35:46Z</time>
      </trkpt>
      <trkpt lat="44.43448" lon="6.23547">
        <ele>1327.72</ele>
        <time>2011-11-22T11:35:48Z</time>
      </trkpt>
      <trkpt lat="44.43453" lon="6.23545">
        <ele>1328.2</ele>
        <time>2011-11-22T11:35:53Z</time>
      </trkpt>
      <trkpt lat="44.43466" lon="6.23536">
        <ele>1328.68</ele>
        <time>2011-11-22T11:36:04Z</time>
      </trkpt>
      <trkpt lat="44.4347" lon="6.23534">
        <ele>1328.68</ele>
        <time>2011-11-22T11:36:08Z</time>
      </trkpt>
      <trkpt lat="44.43473" lon="6.23533">
        <ele>1329.64</ele>
        <time>2011-11-22T11:36:11Z</time>
      </trkpt>
      <trkpt lat="44.43477" lon="6.23532">
        <ele>1330.6</ele>
        <time>2011-11-22T11:36:15Z</time>
      </trkpt>
      <trkpt lat="44.43485" lon="6.23526">
        <ele>1332.52</ele>
        <time>2011-11-22T11:36:25Z</time>
      </trkpt>
      <trkpt lat="44.43489" lon="6.23525">
        <ele>1333.01</ele>
        <time>2011-11-22T11:36:30Z</time>
      </trkpt>
      <trkpt lat="44.43494" lon="6.2352">
        <ele>1334.93</ele>
        <time>2011-11-22T11:36:36Z</time>
      </trkpt>
      <trkpt lat="44.43498" lon="6.23518">
        <ele>1335.89</ele>
        <time>2011-11-22T11:36:41Z</time>
      </trkpt>
      <trkpt lat="44.435" lon="6.23517">
        <ele>1334.93</ele>
        <time>2011-11-22T11:36:43Z</time>
      </trkpt>
      <trkpt lat="44.43503" lon="6.23515">
        <ele>1335.41</ele>
        <time>2011-11-22T11:36:47Z</time>
      </trkpt>
      <trkpt lat="44.43508" lon="6.23511">
        <ele>1336.85</ele>
        <time>2011-11-22T11:36:56Z</time>
      </trkpt>
      <trkpt lat="44.43514" lon="6.23506">
        <ele>1338.77</ele>
        <time>2011-11-22T11:37:05Z</time>
      </trkpt>
      <trkpt lat="44.43522" lon="6.23501">
        <ele>1338.77</ele>
        <time>2011-11-22T11:37:14Z</time>
      </trkpt>
      <trkpt lat="44.4353" lon="6.23496">
        <ele>1341.66</ele>
        <time>2011-11-22T11:37:25Z</time>
      </trkpt>
      <trkpt lat="44.43532" lon="6.23494">
        <ele>1341.18</ele>
        <time>2011-11-22T11:37:28Z</time>
      </trkpt>
      <trkpt lat="44.43535" lon="6.23493">
        <ele>1342.14</ele>
        <time>2011-11-22T11:37:33Z</time>
      </trkpt>
      <trkpt lat="44.43541" lon="6.23489">
        <ele>1345.02</ele>
        <time>2011-11-22T11:37:41Z</time>
      </trkpt>
      <trkpt lat="44.43544" lon="6.23488">
        <ele>1343.58</ele>
        <time>2011-11-22T11:37:47Z</time>
      </trkpt>
      <trkpt lat="44.43547" lon="6.23486">
        <ele>1345.02</ele>
        <time>2011-11-22T11:37:50Z</time>
      </trkpt>
      <trkpt lat="44.43553" lon="6.23482">
        <ele>1347.43</ele>
        <time>2011-11-22T11:37:59Z</time>
      </trkpt>
      <trkpt lat="44.43564" lon="6.23475">
        <ele>1348.87</ele>
        <time>2011-11-22T11:38:10Z</time>
      </trkpt>
      <trkpt lat="44.4357" lon="6.23471">
        <ele>1348.39</ele>
        <time>2011-11-22T11:38:16Z</time>
      </trkpt>
      <trkpt lat="44.43582" lon="6.23458">
        <ele>1349.35</ele>
        <time>2011-11-22T11:38:30Z</time>
      </trkpt>
      <trkpt lat="44.43584" lon="6.23456">
        <ele>1349.83</ele>
        <time>2011-11-22T11:38:33Z</time>
      </trkpt>
      <trkpt lat="44.43586" lon="6.23455">
        <ele>1350.31</ele>
        <time>2011-11-22T11:38:34Z</time>
      </trkpt>
      <trkpt lat="44.43596" lon="6.2345">
        <ele>1351.27</ele>
        <time>2011-11-22T11:38:44Z</time>
      </trkpt>
      <trkpt lat="44.436" lon="6.23449">
        <ele>1350.79</ele>
        <time>2011-11-22T11:38:48Z</time>
      </trkpt>
      <trkpt lat="44.43601" lon="6.23449">
        <ele>1350.79</ele>
        <time>2011-11-22T11:38:49Z</time>
      </trkpt>
      <trkpt lat="44.43602" lon="6.23449">
        <ele>1352.23</ele>
        <time>2011-11-22T11:38:50Z</time>
      </trkpt>
      <trkpt lat="44.43617" lon="6.23444">
        <ele>1351.75</ele>
        <time>2011-11-22T11:39:02Z</time>
      </trkpt>
      <trkpt lat="44.43637" lon="6.23433">
        <ele>1351.27</ele>
        <time>2011-11-22T11:39:15Z</time>
      </trkpt>
      <trkpt lat="44.43667" lon="6.23414">
        <ele>1350.79</ele>
        <time>2011-11-22T11:39:27Z</time>
      </trkpt>
      <trkpt lat="44.43704" lon="6.23383">
        <ele>1349.35</ele>
        <time>2011-11-22T11:39:39Z</time>
      </trkpt>
      <trkpt lat="44.43737" lon="6.23355">
        <ele>1348.39</ele>
        <time>2011-11-22T11:39:53Z</time>
      </trkpt>
      <trkpt lat="44.43768" lon="6.2334">
        <ele>1350.79</ele>
        <time>2011-11-22T11:40:07Z</time>
      </trkpt>
      <trkpt lat="44.43788" lon="6.23335">
        <ele>1354.15</ele>
        <time>2011-11-22T11:40:18Z</time>
      </trkpt>
      <trkpt lat="44.43801" lon="6.23331">
        <ele>1355.12</ele>
        <time>2011-11-22T11:40:30Z</time>
      </trkpt>
      <trkpt lat="44.43813" lon="6.23327">
        <ele>1357.52</ele>
        <time>2011-11-22T11:40:43Z</time>
      </trkpt>
      <trkpt lat="44.43814" lon="6.23327">
        <ele>1357.52</ele>
        <time>2011-11-22T11:40:44Z</time>
      </trkpt>
      <trkpt lat="44.43825" lon="6.23322">
        <ele>1359.44</ele>
        <time>2011-11-22T11:40:57Z</time>
      </trkpt>
      <trkpt lat="44.43836" lon="6.23316">
        <ele>1361.84</ele>
        <time>2011-11-22T11:41:09Z</time>
      </trkpt>
      <trkpt lat="44.43844" lon="6.23313">
        <ele>1361.84</ele>
        <time>2011-11-22T11:41:17Z</time>
      </trkpt>
      <trkpt lat="44.4385" lon="6.23316">
        <ele>1362.81</ele>
        <time>2011-11-22T11:41:24Z</time>
      </trkpt>
      <trkpt lat="44.43851" lon="6.23317">
        <ele>1363.77</ele>
        <time>2011-11-22T11:41:25Z</time>
      </trkpt>
      <trkpt lat="44.43852" lon="6.23317">
        <ele>1364.25</ele>
        <time>2011-11-22T11:41:27Z</time>
      </trkpt>
      <trkpt lat="44.4386" lon="6.23319">
        <ele>1366.17</ele>
        <time>2011-11-22T11:41:37Z</time>
      </trkpt>
      <trkpt lat="44.43862" lon="6.23318">
        <ele>1365.69</ele>
        <time>2011-11-22T11:41:57Z</time>
      </trkpt>
      <trkpt lat="44.43861" lon="6.23318">
        <ele>1366.65</ele>
        <time>2011-11-22T11:42:41Z</time>
      </trkpt>
      <trkpt lat="44.43864" lon="6.23319">
        <ele>1366.17</ele>
        <time>2011-11-22T11:43:33Z</time>
      </trkpt>
      <trkpt lat="44.43863" lon="6.23319">
        <ele>1367.61</ele>
        <time>2011-11-22T11:43:44Z</time>
      </trkpt>
      <trkpt lat="44.43861" lon="6.23319">
        <ele>1367.13</ele>
        <time>2011-11-22T11:44:00Z</time>
      </trkpt>
      <trkpt lat="44.43861" lon="6.23319">
        <ele>1367.61</ele>
        <time>2011-11-22T11:44:06Z</time>
      </trkpt>
      <trkpt lat="44.43861" lon="6.23319">
        <ele>1367.13</ele>
        <time>2011-11-22T11:44:56Z</time>
      </trkpt>
      <trkpt lat="44.43862" lon="6.23319">
        <ele>1366.65</ele>
        <time>2011-11-22T11:45:18Z</time>
      </trkpt>
      <trkpt lat="44.43862" lon="6.23319">
        <ele>1366.65</ele>
        <time>2011-11-22T11:45:33Z</time>
      </trkpt>
      <trkpt lat="44.43862" lon="6.23319">
        <ele>1367.61</ele>
        <time>2011-11-22T11:45:35Z</time>
      </trkpt>
      <trkpt lat="44.43862" lon="6.23319">
        <ele>1368.57</ele>
        <time>2011-11-22T11:46:35Z</time>
      </trkpt>
      <trkpt lat="44.43862" lon="6.23318">
        <ele>1368.57</ele>
        <time>2011-11-22T11:47:06Z</time>
      </trkpt>
      <trkpt lat="44.43864" lon="6.23319">
        <ele>1368.09</ele>
        <time>2011-11-22T11:47:39Z</time>
      </trkpt>
      <trkpt lat="44.43866" lon="6.23315">
        <ele>1369.05</ele>
        <time>2011-11-22T11:47:50Z</time>
      </trkpt>
      <trkpt lat="44.43865" lon="6.23314">
        <ele>1370.98</ele>
        <time>2011-11-22T11:47:54Z</time>
      </trkpt>
      <trkpt lat="44.43865" lon="6.23314">
        <ele>1370.02</ele>
        <time>2011-11-22T11:48:34Z</time>
      </trkpt>
      <trkpt lat="44.43865" lon="6.23314">
        <ele>1370.02</ele>
        <time>2011-11-22T11:48:40Z</time>
      </trkpt>
      <trkpt lat="44.43866" lon="6.23317">
        <ele>1369.54</ele>
        <time>2011-11-22T11:48:52Z</time>
      </trkpt>
      <trkpt lat="44.43867" lon="6.23318">
        <ele>1369.05</ele>
        <time>2011-11-22T11:49:05Z</time>
      </trkpt>
      <trkpt lat="44.43867" lon="6.23318">
        <ele>1369.54</ele>
        <time>2011-11-22T11:49:06Z</time>
      </trkpt>
      <trkpt lat="44.43867" lon="6.23318">
        <ele>1366.17</ele>
        <time>2011-11-22T11:49:10Z</time>
      </trkpt>
      <trkpt lat="44.43867" lon="6.23318">
        <ele>1369.54</ele>
        <time>2011-11-22T11:49:11Z</time>
      </trkpt>
      <trkpt lat="44.43867" lon="6.23318">
        <ele>1365.69</ele>
        <time>2011-11-22T11:49:13Z</time>
      </trkpt>
      <trkpt lat="44.43867" lon="6.23318">
        <ele>1374.34</ele>
        <time>2011-11-22T11:49:14Z</time>
      </trkpt>
      <trkpt lat="44.43867" lon="6.23318">
        <ele>1372.9</ele>
        <time>2011-11-22T11:49:15Z</time>
      </trkpt>
      <trkpt lat="44.43867" lon="6.23318">
        <ele>1369.54</ele>
        <time>2011-11-22T11:49:16Z</time>
      </trkpt>
      <trkpt lat="44.43867" lon="6.23318">
        <ele>1368.57</ele>
        <time>2011-11-22T11:49:18Z</time>
      </trkpt>
      <trkpt lat="44.43869" lon="6.2332">
        <ele>1370.02</ele>
        <time>2011-11-22T11:49:22Z</time>
      </trkpt>
      <trkpt lat="44.43874" lon="6.23321">
        <ele>1369.54</ele>
        <time>2011-11-22T11:49:25Z</time>
      </trkpt>
      <trkpt lat="44.43881" lon="6.23319">
        <ele>1368.09</ele>
        <time>2011-11-22T11:49:29Z</time>
      </trkpt>
      <trkpt lat="44.43887" lon="6.23303">
        <ele>1369.05</ele>
        <time>2011-11-22T11:49:44Z</time>
      </trkpt>
      <trkpt lat="44.43887" lon="6.23303">
        <ele>1369.05</ele>
        <time>2011-11-22T11:49:49Z</time>
      </trkpt>
      <trkpt lat="44.439" lon="6.23284">
        <ele>1367.61</ele>
        <time>2011-11-22T11:50:00Z</time>
      </trkpt>
      <trkpt lat="44.43923" lon="6.23274">
        <ele>1364.73</ele>
        <time>2011-11-22T11:50:07Z</time>
      </trkpt>
      <trkpt lat="44.43929" lon="6.23271">
        <ele>1363.77</ele>
        <time>2011-11-22T11:50:09Z</time>
      </trkpt>
      <trkpt lat="44.4394" lon="6.23267">
        <ele>1361.84</ele>
        <time>2011-11-22T11:50:13Z</time>
      </trkpt>
      <trkpt lat="44.43951" lon="6.23263">
        <ele>1359.44</ele>
        <time>2011-11-22T11:50:16Z</time>
      </trkpt>
      <trkpt lat="44.43955" lon="6.2326">
        <ele>1358.96</ele>
        <time>2011-11-22T11:50:17Z</time>
      </trkpt>
      <trkpt lat="44.43959" lon="6.23258">
        <ele>1358.48</ele>
        <time>2011-11-22T11:50:18Z</time>
      </trkpt>
      <trkpt lat="44.43962" lon="6.23254">
        <ele>1358</ele>
        <time>2011-11-22T11:50:19Z</time>
      </trkpt>
      <trkpt lat="44.43965" lon="6.2325">
        <ele>1358</ele>
        <time>2011-11-22T11:50:20Z</time>
      </trkpt>
      <trkpt lat="44.43968" lon="6.23244">
        <ele>1357.04</ele>
        <time>2011-11-22T11:50:21Z</time>
      </trkpt>
      <trkpt lat="44.43971" lon="6.23239">
        <ele>1357.04</ele>
        <time>2011-11-22T11:50:22Z</time>
      </trkpt>
      <trkpt lat="44.43973" lon="6.23235">
        <ele>1357.04</ele>
        <time>2011-11-22T11:50:23Z</time>
      </trkpt>
      <trkpt lat="44.43993" lon="6.23195">
        <ele>1353.67</ele>
        <time>2011-11-22T11:50:35Z</time>
      </trkpt>
      <trkpt lat="44.43995" lon="6.23192">
        <ele>1353.67</ele>
        <time>2011-11-22T11:50:36Z</time>
      </trkpt>
      <trkpt lat="44.44002" lon="6.23184">
        <ele>1352.23</ele>
        <time>2011-11-22T11:50:39Z</time>
      </trkpt>
      <trkpt lat="44.44021" lon="6.23161">
        <ele>1348.39</ele>
        <time>2011-11-22T11:50:46Z</time>
      </trkpt>
      <trkpt lat="44.44034" lon="6.23147">
        <ele>1345.02</ele>
        <time>2011-11-22T11:50:51Z</time>
      </trkpt>
      <trkpt lat="44.44036" lon="6.23144">
        <ele>1345.02</ele>
        <time>2011-11-22T11:50:52Z</time>
      </trkpt>
      <trkpt lat="44.44046" lon="6.23133">
        <ele>1342.62</ele>
        <time>2011-11-22T11:50:55Z</time>
      </trkpt>
      <trkpt lat="44.44062" lon="6.2311">
        <ele>1341.18</ele>
        <time>2011-11-22T11:50:59Z</time>
      </trkpt>
      <trkpt lat="44.44065" lon="6.23104">
        <ele>1341.18</ele>
        <time>2011-11-22T11:51:00Z</time>
      </trkpt>
      <trkpt lat="44.44088" lon="6.23064">
        <ele>1339.73</ele>
        <time>2011-11-22T11:51:10Z</time>
      </trkpt>
      <trkpt lat="44.44097" lon="6.23055">
        <ele>1338.29</ele>
        <time>2011-11-22T11:51:12Z</time>
      </trkpt>
      <trkpt lat="44.44102" lon="6.23048">
        <ele>1337.81</ele>
        <time>2011-11-22T11:51:13Z</time>
      </trkpt>
      <trkpt lat="44.44125" lon="6.23005">
        <ele>1336.85</ele>
        <time>2011-11-22T11:51:19Z</time>
      </trkpt>
      <trkpt lat="44.4413" lon="6.22999">
        <ele>1336.85</ele>
        <time>2011-11-22T11:51:20Z</time>
      </trkpt>
      <trkpt lat="44.44142" lon="6.22985">
        <ele>1336.85</ele>
        <time>2011-11-22T11:51:23Z</time>
      </trkpt>
      <trkpt lat="44.4416" lon="6.22969">
        <ele>1338.29</ele>
        <time>2011-11-22T11:51:32Z</time>
      </trkpt>
      <trkpt lat="44.44182" lon="6.22947">
        <ele>1340.22</ele>
        <time>2011-11-22T11:51:45Z</time>
      </trkpt>
      <trkpt lat="44.44203" lon="6.2293">
        <ele>1342.14</ele>
        <time>2011-11-22T11:51:58Z</time>
      </trkpt>
      <trkpt lat="44.44222" lon="6.22916">
        <ele>1345.02</ele>
        <time>2011-11-22T11:52:10Z</time>
      </trkpt>
      <trkpt lat="44.44242" lon="6.22891">
        <ele>1344.54</ele>
        <time>2011-11-22T11:52:23Z</time>
      </trkpt>
      <trkpt lat="44.44261" lon="6.22862">
        <ele>1345.98</ele>
        <time>2011-11-22T11:52:37Z</time>
      </trkpt>
      <trkpt lat="44.44276" lon="6.22833">
        <ele>1343.58</ele>
        <time>2011-11-22T11:52:46Z</time>
      </trkpt>
      <trkpt lat="44.44294" lon="6.22802">
        <ele>1340.7</ele>
        <time>2011-11-22T11:52:57Z</time>
      </trkpt>
      <trkpt lat="44.44296" lon="6.22796">
        <ele>1339.73</ele>
        <time>2011-11-22T11:52:59Z</time>
      </trkpt>
      <trkpt lat="44.4431" lon="6.22781">
        <ele>1339.73</ele>
        <time>2011-11-22T11:53:10Z</time>
      </trkpt>
      <trkpt lat="44.44311" lon="6.22781">
        <ele>1339.73</ele>
        <time>2011-11-22T11:53:11Z</time>
      </trkpt>
      <trkpt lat="44.44312" lon="6.22782">
        <ele>1340.7</ele>
        <time>2011-11-22T11:53:12Z</time>
      </trkpt>
      <trkpt lat="44.44314" lon="6.22782">
        <ele>1340.22</ele>
        <time>2011-11-22T11:53:13Z</time>
      </trkpt>
      <trkpt lat="44.44315" lon="6.22781">
        <ele>1339.73</ele>
        <time>2011-11-22T11:53:14Z</time>
      </trkpt>
      <trkpt lat="44.44316" lon="6.22781">
        <ele>1341.18</ele>
        <time>2011-11-22T11:53:15Z</time>
      </trkpt>
      <trkpt lat="44.44317" lon="6.2278">
        <ele>1341.18</ele>
        <time>2011-11-22T11:53:16Z</time>
      </trkpt>
      <trkpt lat="44.44318" lon="6.22779">
        <ele>1341.18</ele>
        <time>2011-11-22T11:53:17Z</time>
      </trkpt>
      <trkpt lat="44.4432" lon="6.22778">
        <ele>1341.18</ele>
        <time>2011-11-22T11:53:19Z</time>
      </trkpt>
      <trkpt lat="44.44321" lon="6.22778">
        <ele>1342.62</ele>
        <time>2011-11-22T11:53:20Z</time>
      </trkpt>
      <trkpt lat="44.44322" lon="6.22777">
        <ele>1342.14</ele>
        <time>2011-11-22T11:53:21Z</time>
      </trkpt>
      <trkpt lat="44.44323" lon="6.22776">
        <ele>1342.62</ele>
        <time>2011-11-22T11:53:22Z</time>
      </trkpt>
      <trkpt lat="44.44324" lon="6.22775">
        <ele>1342.14</ele>
        <time>2011-11-22T11:53:23Z</time>
      </trkpt>
      <trkpt lat="44.44325" lon="6.22774">
        <ele>1342.62</ele>
        <time>2011-11-22T11:53:24Z</time>
      </trkpt>
      <trkpt lat="44.44327" lon="6.22773">
        <ele>1342.62</ele>
        <time>2011-11-22T11:53:25Z</time>
      </trkpt>
      <trkpt lat="44.44328" lon="6.22772">
        <ele>1342.62</ele>
        <time>2011-11-22T11:53:26Z</time>
      </trkpt>
      <trkpt lat="44.44329" lon="6.22771">
        <ele>1343.1</ele>
        <time>2011-11-22T11:53:27Z</time>
      </trkpt>
      <trkpt lat="44.44331" lon="6.22771">
        <ele>1342.62</ele>
        <time>2011-11-22T11:53:28Z</time>
      </trkpt>
      <trkpt lat="44.44332" lon="6.22771">
        <ele>1343.1</ele>
        <time>2011-11-22T11:53:29Z</time>
      </trkpt>
      <trkpt lat="44.44335" lon="6.22769">
        <ele>1343.1</ele>
        <time>2011-11-22T11:53:32Z</time>
      </trkpt>
      <trkpt lat="44.44337" lon="6.22766">
        <ele>1344.06</ele>
        <time>2011-11-22T11:53:35Z</time>
      </trkpt>
      <trkpt lat="44.44339" lon="6.22765">
        <ele>1344.06</ele>
        <time>2011-11-22T11:53:36Z</time>
      </trkpt>
      <trkpt lat="44.4434" lon="6.22764">
        <ele>1343.58</ele>
        <time>2011-11-22T11:53:37Z</time>
      </trkpt>
      <trkpt lat="44.4434" lon="6.22763">
        <ele>1344.06</ele>
        <time>2011-11-22T11:53:38Z</time>
      </trkpt>
      <trkpt lat="44.44341" lon="6.22761">
        <ele>1344.06</ele>
        <time>2011-11-22T11:53:39Z</time>
      </trkpt>
      <trkpt lat="44.44342" lon="6.2276">
        <ele>1344.54</ele>
        <time>2011-11-22T11:53:40Z</time>
      </trkpt>
      <trkpt lat="44.44343" lon="6.22759">
        <ele>1344.54</ele>
        <time>2011-11-22T11:53:41Z</time>
      </trkpt>
      <trkpt lat="44.44346" lon="6.22755">
        <ele>1344.54</ele>
        <time>2011-11-22T11:53:45Z</time>
      </trkpt>
      <trkpt lat="44.44347" lon="6.22754">
        <ele>1345.02</ele>
        <time>2011-11-22T11:53:46Z</time>
      </trkpt>
      <trkpt lat="44.44348" lon="6.22753">
        <ele>1345.5</ele>
        <time>2011-11-22T11:53:47Z</time>
      </trkpt>
      <trkpt lat="44.44348" lon="6.22752">
        <ele>1344.54</ele>
        <time>2011-11-22T11:53:58Z</time>
      </trkpt>
      <trkpt lat="44.44347" lon="6.22755">
        <ele>1344.54</ele>
        <time>2011-11-22T11:54:01Z</time>
      </trkpt>
      <trkpt lat="44.44346" lon="6.22756">
        <ele>1344.54</ele>
        <time>2011-11-22T11:54:02Z</time>
      </trkpt>
      <trkpt lat="44.44341" lon="6.2276">
        <ele>1344.54</ele>
        <time>2011-11-22T11:54:07Z</time>
      </trkpt>
      <trkpt lat="44.44338" lon="6.22762">
        <ele>1344.54</ele>
        <time>2011-11-22T11:54:10Z</time>
      </trkpt>
      <trkpt lat="44.44337" lon="6.22763">
        <ele>1344.06</ele>
        <time>2011-11-22T11:54:11Z</time>
      </trkpt>
      <trkpt lat="44.44337" lon="6.22764">
        <ele>1344.06</ele>
        <time>2011-11-22T11:54:12Z</time>
      </trkpt>
      <trkpt lat="44.4433" lon="6.22773">
        <ele>1342.62</ele>
        <time>2011-11-22T11:54:22Z</time>
      </trkpt>
      <trkpt lat="44.4432" lon="6.2278">
        <ele>1341.66</ele>
        <time>2011-11-22T11:54:35Z</time>
      </trkpt>
      <trkpt lat="44.44316" lon="6.22781">
        <ele>1339.25</ele>
        <time>2011-11-22T11:54:38Z</time>
      </trkpt>
      <trkpt lat="44.44313" lon="6.22783">
        <ele>1340.7</ele>
        <time>2011-11-22T11:54:40Z</time>
      </trkpt>
      <trkpt lat="44.4431" lon="6.22784">
        <ele>1342.14</ele>
        <time>2011-11-22T11:54:42Z</time>
      </trkpt>
      <trkpt lat="44.44302" lon="6.22788">
        <ele>1338.77</ele>
        <time>2011-11-22T11:54:49Z</time>
      </trkpt>
      <trkpt lat="44.44294" lon="6.22799">
        <ele>1338.77</ele>
        <time>2011-11-22T11:55:00Z</time>
      </trkpt>
      <trkpt lat="44.44293" lon="6.22803">
        <ele>1339.73</ele>
        <time>2011-11-22T11:55:03Z</time>
      </trkpt>
      <trkpt lat="44.44293" lon="6.22805">
        <ele>1340.22</ele>
        <time>2011-11-22T11:55:04Z</time>
      </trkpt>
      <trkpt lat="44.44292" lon="6.22806">
        <ele>1340.7</ele>
        <time>2011-11-22T11:55:05Z</time>
      </trkpt>
      <trkpt lat="44.44289" lon="6.22815">
        <ele>1340.7</ele>
        <time>2011-11-22T11:55:12Z</time>
      </trkpt>
      <trkpt lat="44.44283" lon="6.22822">
        <ele>1341.18</ele>
        <time>2011-11-22T11:55:19Z</time>
      </trkpt>
      <trkpt lat="44.44282" lon="6.22823">
        <ele>1342.14</ele>
        <time>2011-11-22T11:55:20Z</time>
      </trkpt>
      <trkpt lat="44.44281" lon="6.22824">
        <ele>1342.14</ele>
        <time>2011-11-22T11:55:21Z</time>
      </trkpt>
      <trkpt lat="44.4428" lon="6.22827">
        <ele>1343.1</ele>
        <time>2011-11-22T11:55:23Z</time>
      </trkpt>
      <trkpt lat="44.44277" lon="6.22834">
        <ele>1342.62</ele>
        <time>2011-11-22T11:55:28Z</time>
      </trkpt>
      <trkpt lat="44.44276" lon="6.22835">
        <ele>1343.58</ele>
        <time>2011-11-22T11:55:29Z</time>
      </trkpt>
      <trkpt lat="44.44275" lon="6.22836">
        <ele>1344.06</ele>
        <time>2011-11-22T11:55:30Z</time>
      </trkpt>
      <trkpt lat="44.44274" lon="6.22838">
        <ele>1343.58</ele>
        <time>2011-11-22T11:55:31Z</time>
      </trkpt>
      <trkpt lat="44.44267" lon="6.22854">
        <ele>1344.54</ele>
        <time>2011-11-22T11:55:43Z</time>
      </trkpt>
      <trkpt lat="44.44262" lon="6.22862">
        <ele>1345.02</ele>
        <time>2011-11-22T11:55:52Z</time>
      </trkpt>
      <trkpt lat="44.44259" lon="6.22867">
        <ele>1345.98</ele>
        <time>2011-11-22T11:55:56Z</time>
      </trkpt>
      <trkpt lat="44.44253" lon="6.22877">
        <ele>1345.98</ele>
        <time>2011-11-22T11:56:08Z</time>
      </trkpt>
      <trkpt lat="44.44252" lon="6.2288">
        <ele>1345.5</ele>
        <time>2011-11-22T11:56:10Z</time>
      </trkpt>
      <trkpt lat="44.44251" lon="6.22882">
        <ele>1345.02</ele>
        <time>2011-11-22T11:56:11Z</time>
      </trkpt>
      <trkpt lat="44.44249" lon="6.22883">
        <ele>1345.98</ele>
        <time>2011-11-22T11:56:12Z</time>
      </trkpt>
      <trkpt lat="44.44248" lon="6.22884">
        <ele>1345.98</ele>
        <time>2011-11-22T11:56:13Z</time>
      </trkpt>
      <trkpt lat="44.44247" lon="6.22886">
        <ele>1346.46</ele>
        <time>2011-11-22T11:56:14Z</time>
      </trkpt>
      <trkpt lat="44.44246" lon="6.22887">
        <ele>1345.98</ele>
        <time>2011-11-22T11:56:15Z</time>
      </trkpt>
      <trkpt lat="44.44245" lon="6.22889">
        <ele>1344.54</ele>
        <time>2011-11-22T11:56:16Z</time>
      </trkpt>
      <trkpt lat="44.44244" lon="6.22889">
        <ele>1345.02</ele>
        <time>2011-11-22T11:56:17Z</time>
      </trkpt>
      <trkpt lat="44.44243" lon="6.2289">
        <ele>1345.5</ele>
        <time>2011-11-22T11:56:18Z</time>
      </trkpt>
      <trkpt lat="44.44242" lon="6.22892">
        <ele>1345.5</ele>
        <time>2011-11-22T11:56:19Z</time>
      </trkpt>
      <trkpt lat="44.44241" lon="6.22893">
        <ele>1345.5</ele>
        <time>2011-11-22T11:56:20Z</time>
      </trkpt>
      <trkpt lat="44.4424" lon="6.22895">
        <ele>1345.5</ele>
        <time>2011-11-22T11:56:21Z</time>
      </trkpt>
      <trkpt lat="44.44226" lon="6.22912">
        <ele>1345.5</ele>
        <time>2011-11-22T11:56:35Z</time>
      </trkpt>
      <trkpt lat="44.44215" lon="6.2292">
        <ele>1344.06</ele>
        <time>2011-11-22T11:56:44Z</time>
      </trkpt>
      <trkpt lat="44.44212" lon="6.22922">
        <ele>1343.58</ele>
        <time>2011-11-22T11:56:45Z</time>
      </trkpt>
      <trkpt lat="44.4421" lon="6.22924">
        <ele>1343.58</ele>
        <time>2011-11-22T11:56:46Z</time>
      </trkpt>
      <trkpt lat="44.4419" lon="6.22939">
        <ele>1340.22</ele>
        <time>2011-11-22T11:56:51Z</time>
      </trkpt>
      <trkpt lat="44.44185" lon="6.22943">
        <ele>1340.7</ele>
        <time>2011-11-22T11:56:52Z</time>
      </trkpt>
      <trkpt lat="44.44181" lon="6.22947">
        <ele>1340.7</ele>
        <time>2011-11-22T11:56:53Z</time>
      </trkpt>
      <trkpt lat="44.44161" lon="6.22968">
        <ele>1338.29</ele>
        <time>2011-11-22T11:56:57Z</time>
      </trkpt>
      <trkpt lat="44.44139" lon="6.22988">
        <ele>1336.37</ele>
        <time>2011-11-22T11:57:01Z</time>
      </trkpt>
      <trkpt lat="44.44124" lon="6.23006">
        <ele>1336.37</ele>
        <time>2011-11-22T11:57:04Z</time>
      </trkpt>
      <trkpt lat="44.44121" lon="6.23012">
        <ele>1336.37</ele>
        <time>2011-11-22T11:57:05Z</time>
      </trkpt>
      <trkpt lat="44.44107" lon="6.23037">
        <ele>1337.81</ele>
        <time>2011-11-22T11:57:14Z</time>
      </trkpt>
      <trkpt lat="44.44101" lon="6.23046">
        <ele>1337.81</ele>
        <time>2011-11-22T11:57:24Z</time>
      </trkpt>
      <trkpt lat="44.44102" lon="6.23046">
        <ele>1337.33</ele>
        <time>2011-11-22T11:57:27Z</time>
      </trkpt>
      <trkpt lat="44.44101" lon="6.23044">
        <ele>1338.77</ele>
        <time>2011-11-22T11:57:36Z</time>
      </trkpt>
      <trkpt lat="44.44103" lon="6.23044">
        <ele>1337.33</ele>
        <time>2011-11-22T11:57:47Z</time>
      </trkpt>
      <trkpt lat="44.44103" lon="6.23045">
        <ele>1337.33</ele>
        <time>2011-11-22T11:58:39Z</time>
      </trkpt>
      <trkpt lat="44.44101" lon="6.23045">
        <ele>1336.85</ele>
        <time>2011-11-22T11:58:49Z</time>
      </trkpt>
      <trkpt lat="44.44101" lon="6.23044">
        <ele>1336.85</ele>
        <time>2011-11-22T11:59:09Z</time>
      </trkpt>
      <trkpt lat="44.44101" lon="6.23044">
        <ele>1337.81</ele>
        <time>2011-11-22T11:59:13Z</time>
      </trkpt>
      <trkpt lat="44.44101" lon="6.23045">
        <ele>1337.33</ele>
        <time>2011-11-22T12:00:06Z</time>
      </trkpt>
      <trkpt lat="44.44102" lon="6.23045">
        <ele>1339.25</ele>
        <time>2011-11-22T12:00:49Z</time>
      </trkpt>
      <trkpt lat="44.44102" lon="6.23046">
        <ele>1338.77</ele>
        <time>2011-11-22T12:03:29Z</time>
      </trkpt>
      <trkpt lat="44.44102" lon="6.23046">
        <ele>1338.29</ele>
        <time>2011-11-22T12:06:17Z</time>
      </trkpt>
      <trkpt lat="44.44103" lon="6.23047">
        <ele>1339.73</ele>
        <time>2011-11-22T12:08:59Z</time>
      </trkpt>
      <trkpt lat="44.44103" lon="6.23048">
        <ele>1339.73</ele>
        <time>2011-11-22T12:10:05Z</time>
      </trkpt>
      <trkpt lat="44.44103" lon="6.23047">
        <ele>1339.73</ele>
        <time>2011-11-22T12:17:35Z</time>
      </trkpt>
      <trkpt lat="44.44102" lon="6.23047">
        <ele>1340.22</ele>
        <time>2011-11-22T12:19:35Z</time>
      </trkpt>
      <trkpt lat="44.44102" lon="6.23048">
        <ele>1339.73</ele>
        <time>2011-11-22T12:22:19Z</time>
      </trkpt>
      <trkpt lat="44.44103" lon="6.23047">
        <ele>1340.7</ele>
        <time>2011-11-22T12:31:15Z</time>
      </trkpt>
      <trkpt lat="44.44103" lon="6.23047">
        <ele>1340.22</ele>
        <time>2011-11-22T12:31:53Z</time>
      </trkpt>
      <trkpt lat="44.44102" lon="6.23047">
        <ele>1341.18</ele>
        <time>2011-11-22T12:33:50Z</time>
      </trkpt>
      <trkpt lat="44.44103" lon="6.23048">
        <ele>1341.18</ele>
        <time>2011-11-22T12:34:51Z</time>
      </trkpt>
      <trkpt lat="44.44103" lon="6.23047">
        <ele>1340.7</ele>
        <time>2011-11-22T12:37:02Z</time>
      </trkpt>
      <trkpt lat="44.44103" lon="6.23047">
        <ele>1341.66</ele>
        <time>2011-11-22T12:38:41Z</time>
      </trkpt>
      <trkpt lat="44.44103" lon="6.23047">
        <ele>1341.66</ele>
        <time>2011-11-22T12:39:04Z</time>
      </trkpt>
      <trkpt lat="44.44103" lon="6.23047">
        <ele>1341.18</ele>
        <time>2011-11-22T12:40:08Z</time>
      </trkpt>
      <trkpt lat="44.44103" lon="6.23048">
        <ele>1340.22</ele>
        <time>2011-11-22T12:41:09Z</time>
      </trkpt>
      <trkpt lat="44.44103" lon="6.23048">
        <ele>1340.22</ele>
        <time>2011-11-22T12:41:52Z</time>
      </trkpt>
      <trkpt lat="44.44103" lon="6.23048">
        <ele>1341.18</ele>
        <time>2011-11-22T12:41:54Z</time>
      </trkpt>
      <trkpt lat="44.44103" lon="6.23047">
        <ele>1340.22</ele>
        <time>2011-11-22T12:46:10Z</time>
      </trkpt>
      <trkpt lat="44.44103" lon="6.23045">
        <ele>1339.73</ele>
        <time>2011-11-22T12:54:08Z</time>
      </trkpt>
      <trkpt lat="44.44104" lon="6.23046">
        <ele>1341.66</ele>
        <time>2011-11-22T12:56:01Z</time>
      </trkpt>
      <trkpt lat="44.44104" lon="6.23046">
        <ele>1335.89</ele>
        <time>2011-11-22T12:57:18Z</time>
      </trkpt>
      <trkpt lat="44.44104" lon="6.23046">
        <ele>1341.66</ele>
        <time>2011-11-22T12:57:19Z</time>
      </trkpt>
      <trkpt lat="44.44104" lon="6.23046">
        <ele>1339.73</ele>
        <time>2011-11-22T12:57:22Z</time>
      </trkpt>
      <trkpt lat="44.44104" lon="6.23046">
        <ele>1341.18</ele>
        <time>2011-11-22T12:57:30Z</time>
      </trkpt>
      <trkpt lat="44.44104" lon="6.23046">
        <ele>1341.18</ele>
        <time>2011-11-22T13:01:48Z</time>
      </trkpt>
      <trkpt lat="44.44105" lon="6.23044">
        <ele>1341.66</ele>
        <time>2011-11-22T13:01:49Z</time>
      </trkpt>
      <trkpt lat="44.44106" lon="6.23043">
        <ele>1343.1</ele>
        <time>2011-11-22T13:01:50Z</time>
      </trkpt>
      <trkpt lat="44.44105" lon="6.23042">
        <ele>1342.62</ele>
        <time>2011-11-22T13:01:51Z</time>
      </trkpt>
      <trkpt lat="44.44105" lon="6.23042">
        <ele>1341.18</ele>
        <time>2011-11-22T13:01:53Z</time>
      </trkpt>
      <trkpt lat="44.44106" lon="6.23041">
        <ele>1340.7</ele>
        <time>2011-11-22T13:03:27Z</time>
      </trkpt>
      <trkpt lat="44.44106" lon="6.23041">
        <ele>1342.62</ele>
        <time>2011-11-22T13:03:30Z</time>
      </trkpt>
      <trkpt lat="44.44106" lon="6.23041">
        <ele>1339.25</ele>
        <time>2011-11-22T13:03:36Z</time>
      </trkpt>
      <trkpt lat="44.44106" lon="6.23041">
        <ele>1343.1</ele>
        <time>2011-11-22T13:03:38Z</time>
      </trkpt>
      <trkpt lat="44.44106" lon="6.23041">
        <ele>1343.1</ele>
        <time>2011-11-22T13:03:39Z</time>
      </trkpt>
      <trkpt lat="44.44106" lon="6.23041">
        <ele>1342.62</ele>
        <time>2011-11-22T13:03:55Z</time>
      </trkpt>
      <trkpt lat="44.44106" lon="6.23041">
        <ele>1343.1</ele>
        <time>2011-11-22T13:04:15Z</time>
      </trkpt>
      <trkpt lat="44.44106" lon="6.23041">
        <ele>1339.25</ele>
        <time>2011-11-22T13:04:20Z</time>
      </trkpt>
      <trkpt lat="44.44106" lon="6.23041">
        <ele>1341.18</ele>
        <time>2011-11-22T13:04:21Z</time>
      </trkpt>
      <trkpt lat="44.44105" lon="6.23042">
        <ele>1340.7</ele>
        <time>2011-11-22T13:05:05Z</time>
      </trkpt>
      <trkpt lat="44.44105" lon="6.23044">
        <ele>1343.1</ele>
        <time>2011-11-22T13:07:59Z</time>
      </trkpt>
      <trkpt lat="44.44105" lon="6.23044">
        <ele>1339.73</ele>
        <time>2011-11-22T13:08:09Z</time>
      </trkpt>
      <trkpt lat="44.44105" lon="6.23044">
        <ele>1342.62</ele>
        <time>2011-11-22T13:08:10Z</time>
      </trkpt>
      <trkpt lat="44.44105" lon="6.23044">
        <ele>1343.1</ele>
        <time>2011-11-22T13:08:21Z</time>
      </trkpt>
      <trkpt lat="44.44105" lon="6.23044">
        <ele>1338.77</ele>
        <time>2011-11-22T13:08:25Z</time>
      </trkpt>
      <trkpt lat="44.44105" lon="6.23044">
        <ele>1342.14</ele>
        <time>2011-11-22T13:08:26Z</time>
      </trkpt>
      <trkpt lat="44.44105" lon="6.23044">
        <ele>1331.56</ele>
        <time>2011-11-22T13:08:30Z</time>
      </trkpt>
      <trkpt lat="44.44104" lon="6.23043">
        <ele>1358.48</ele>
        <time>2011-11-22T13:08:31Z</time>
      </trkpt>
      <trkpt lat="44.44104" lon="6.23043">
        <ele>1348.39</ele>
        <time>2011-11-22T13:08:32Z</time>
      </trkpt>
      <trkpt lat="44.44104" lon="6.23043">
        <ele>1344.06</ele>
        <time>2011-11-22T13:08:33Z</time>
      </trkpt>
      <trkpt lat="44.44104" lon="6.23043">
        <ele>1343.1</ele>
        <time>2011-11-22T13:08:35Z</time>
      </trkpt>
      <trkpt lat="44.44104" lon="6.23043">
        <ele>1341.66</ele>
        <time>2011-11-22T13:08:39Z</time>
      </trkpt>
      <trkpt lat="44.44104" lon="6.23043">
        <ele>1342.62</ele>
        <time>2011-11-22T13:08:52Z</time>
      </trkpt>
      <trkpt lat="44.44104" lon="6.23044">
        <ele>1341.66</ele>
        <time>2011-11-22T13:09:34Z</time>
      </trkpt>
      <trkpt lat="44.44104" lon="6.23044">
        <ele>1341.66</ele>
        <time>2011-11-22T13:09:46Z</time>
      </trkpt>
      <trkpt lat="44.44104" lon="6.23045">
        <ele>1341.18</ele>
        <time>2011-11-22T13:09:57Z</time>
      </trkpt>
      <trkpt lat="44.44103" lon="6.23046">
        <ele>1342.14</ele>
        <time>2011-11-22T13:10:08Z</time>
      </trkpt>
      <trkpt lat="44.44103" lon="6.23054">
        <ele>1342.14</ele>
        <time>2011-11-22T13:10:15Z</time>
      </trkpt>
      <trkpt lat="44.44102" lon="6.23057">
        <ele>1343.1</ele>
        <time>2011-11-22T13:10:17Z</time>
      </trkpt>
      <trkpt lat="44.44095" lon="6.23064">
        <ele>1344.06</ele>
        <time>2011-11-22T13:10:27Z</time>
      </trkpt>
      <trkpt lat="44.44091" lon="6.23066">
        <ele>1344.06</ele>
        <time>2011-11-22T13:10:32Z</time>
      </trkpt>
      <trkpt lat="44.44088" lon="6.23067">
        <ele>1344.54</ele>
        <time>2011-11-22T13:10:42Z</time>
      </trkpt>
      <trkpt lat="44.44081" lon="6.23075">
        <ele>1345.5</ele>
        <time>2011-11-22T13:10:51Z</time>
      </trkpt>
      <trkpt lat="44.4408" lon="6.23077">
        <ele>1345.02</ele>
        <time>2011-11-22T13:10:52Z</time>
      </trkpt>
      <trkpt lat="44.44077" lon="6.23083">
        <ele>1348.87</ele>
        <time>2011-11-22T13:10:57Z</time>
      </trkpt>
      <trkpt lat="44.44076" lon="6.23084">
        <ele>1344.06</ele>
        <time>2011-11-22T13:10:59Z</time>
      </trkpt>
      <trkpt lat="44.44075" lon="6.23086">
        <ele>1347.91</ele>
        <time>2011-11-22T13:11:00Z</time>
      </trkpt>
      <trkpt lat="44.44071" lon="6.23095">
        <ele>1347.43</ele>
        <time>2011-11-22T13:11:07Z</time>
      </trkpt>
      <trkpt lat="44.44067" lon="6.23106">
        <ele>1344.54</ele>
        <time>2011-11-22T13:11:14Z</time>
      </trkpt>
      <trkpt lat="44.44067" lon="6.23108">
        <ele>1345.02</ele>
        <time>2011-11-22T13:11:15Z</time>
      </trkpt>
      <trkpt lat="44.44065" lon="6.23111">
        <ele>1345.98</ele>
        <time>2011-11-22T13:11:17Z</time>
      </trkpt>
      <trkpt lat="44.4406" lon="6.23119">
        <ele>1346.46</ele>
        <time>2011-11-22T13:11:23Z</time>
      </trkpt>
      <trkpt lat="44.44055" lon="6.23128">
        <ele>1343.1</ele>
        <time>2011-11-22T13:11:29Z</time>
      </trkpt>
      <trkpt lat="44.44054" lon="6.23129">
        <ele>1346.46</ele>
        <time>2011-11-22T13:11:30Z</time>
      </trkpt>
      <trkpt lat="44.44051" lon="6.23132">
        <ele>1341.66</ele>
        <time>2011-11-22T13:11:32Z</time>
      </trkpt>
      <trkpt lat="44.4405" lon="6.23132">
        <ele>1342.62</ele>
        <time>2011-11-22T13:11:33Z</time>
      </trkpt>
      <trkpt lat="44.44049" lon="6.23134">
        <ele>1346.46</ele>
        <time>2011-11-22T13:11:34Z</time>
      </trkpt>
      <trkpt lat="44.44047" lon="6.23137">
        <ele>1347.43</ele>
        <time>2011-11-22T13:11:36Z</time>
      </trkpt>
      <trkpt lat="44.44046" lon="6.23138">
        <ele>1346.46</ele>
        <time>2011-11-22T13:11:37Z</time>
      </trkpt>
      <trkpt lat="44.44043" lon="6.23142">
        <ele>1345.98</ele>
        <time>2011-11-22T13:11:41Z</time>
      </trkpt>
      <trkpt lat="44.44042" lon="6.23142">
        <ele>1349.83</ele>
        <time>2011-11-22T13:11:42Z</time>
      </trkpt>
      <trkpt lat="44.44041" lon="6.23143">
        <ele>1344.54</ele>
        <time>2011-11-22T13:11:43Z</time>
      </trkpt>
      <trkpt lat="44.4404" lon="6.23144">
        <ele>1348.87</ele>
        <time>2011-11-22T13:11:44Z</time>
      </trkpt>
      <trkpt lat="44.44037" lon="6.23149">
        <ele>1349.83</ele>
        <time>2011-11-22T13:11:50Z</time>
      </trkpt>
      <trkpt lat="44.4403" lon="6.23157">
        <ele>1351.27</ele>
        <time>2011-11-22T13:12:02Z</time>
      </trkpt>
      <trkpt lat="44.44023" lon="6.23166">
        <ele>1354.63</ele>
        <time>2011-11-22T13:12:14Z</time>
      </trkpt>
      <trkpt lat="44.44023" lon="6.23167">
        <ele>1350.79</ele>
        <time>2011-11-22T13:12:15Z</time>
      </trkpt>
      <trkpt lat="44.4402" lon="6.23169">
        <ele>1354.15</ele>
        <time>2011-11-22T13:12:19Z</time>
      </trkpt>
      <trkpt lat="44.44014" lon="6.23178">
        <ele>1354.15</ele>
        <time>2011-11-22T13:12:32Z</time>
      </trkpt>
      <trkpt lat="44.44006" lon="6.23186">
        <ele>1356.08</ele>
        <time>2011-11-22T13:12:53Z</time>
      </trkpt>
      <trkpt lat="44.44002" lon="6.23191">
        <ele>1354.63</ele>
        <time>2011-11-22T13:12:59Z</time>
      </trkpt>
      <trkpt lat="44.43997" lon="6.23198">
        <ele>1358.96</ele>
        <time>2011-11-22T13:13:07Z</time>
      </trkpt>
      <trkpt lat="44.43996" lon="6.23198">
        <ele>1358.48</ele>
        <time>2011-11-22T13:13:08Z</time>
      </trkpt>
      <trkpt lat="44.43991" lon="6.23205">
        <ele>1358.96</ele>
        <time>2011-11-22T13:13:16Z</time>
      </trkpt>
      <trkpt lat="44.4399" lon="6.23206">
        <ele>1358</ele>
        <time>2011-11-22T13:13:17Z</time>
      </trkpt>
      <trkpt lat="44.43987" lon="6.23214">
        <ele>1361.36</ele>
        <time>2011-11-22T13:13:24Z</time>
      </trkpt>
      <trkpt lat="44.43978" lon="6.23229">
        <ele>1358.96</ele>
        <time>2011-11-22T13:13:37Z</time>
      </trkpt>
      <trkpt lat="44.43977" lon="6.23231">
        <ele>1362.33</ele>
        <time>2011-11-22T13:13:39Z</time>
      </trkpt>
      <trkpt lat="44.43973" lon="6.23238">
        <ele>1364.73</ele>
        <time>2011-11-22T13:13:44Z</time>
      </trkpt>
      <trkpt lat="44.43973" lon="6.23239">
        <ele>1360.4</ele>
        <time>2011-11-22T13:13:45Z</time>
      </trkpt>
      <trkpt lat="44.43972" lon="6.2324">
        <ele>1360.4</ele>
        <time>2011-11-22T13:13:46Z</time>
      </trkpt>
      <trkpt lat="44.4397" lon="6.23243">
        <ele>1359.44</ele>
        <time>2011-11-22T13:13:48Z</time>
      </trkpt>
      <trkpt lat="44.4397" lon="6.23245">
        <ele>1361.84</ele>
        <time>2011-11-22T13:13:49Z</time>
      </trkpt>
      <trkpt lat="44.43969" lon="6.23246">
        <ele>1359.92</ele>
        <time>2011-11-22T13:13:50Z</time>
      </trkpt>
      <trkpt lat="44.43968" lon="6.23247">
        <ele>1363.29</ele>
        <time>2011-11-22T13:13:51Z</time>
      </trkpt>
      <trkpt lat="44.43967" lon="6.23248">
        <ele>1359.44</ele>
        <time>2011-11-22T13:13:52Z</time>
      </trkpt>
      <trkpt lat="44.43966" lon="6.2325">
        <ele>1362.81</ele>
        <time>2011-11-22T13:13:53Z</time>
      </trkpt>
      <trkpt lat="44.43965" lon="6.23251">
        <ele>1365.69</ele>
        <time>2011-11-22T13:13:54Z</time>
      </trkpt>
      <trkpt lat="44.43965" lon="6.23252">
        <ele>1361.84</ele>
        <time>2011-11-22T13:13:55Z</time>
      </trkpt>
      <trkpt lat="44.43964" lon="6.23253">
        <ele>1365.69</ele>
        <time>2011-11-22T13:13:56Z</time>
      </trkpt>
      <trkpt lat="44.43963" lon="6.23255">
        <ele>1361.36</ele>
        <time>2011-11-22T13:13:57Z</time>
      </trkpt>
      <trkpt lat="44.43959" lon="6.2326">
        <ele>1366.65</ele>
        <time>2011-11-22T13:14:02Z</time>
      </trkpt>
      <trkpt lat="44.43958" lon="6.23261">
        <ele>1362.33</ele>
        <time>2011-11-22T13:14:03Z</time>
      </trkpt>
      <trkpt lat="44.43957" lon="6.23261">
        <ele>1367.13</ele>
        <time>2011-11-22T13:14:04Z</time>
      </trkpt>
      <trkpt lat="44.43956" lon="6.23263">
        <ele>1363.29</ele>
        <time>2011-11-22T13:14:06Z</time>
      </trkpt>
      <trkpt lat="44.43955" lon="6.23263">
        <ele>1363.29</ele>
        <time>2011-11-22T13:14:07Z</time>
      </trkpt>
      <trkpt lat="44.43955" lon="6.23264">
        <ele>1367.13</ele>
        <time>2011-11-22T13:14:08Z</time>
      </trkpt>
      <trkpt lat="44.43954" lon="6.23264">
        <ele>1363.29</ele>
        <time>2011-11-22T13:14:09Z</time>
      </trkpt>
      <trkpt lat="44.43946" lon="6.23267">
        <ele>1367.61</ele>
        <time>2011-11-22T13:14:19Z</time>
      </trkpt>
      <trkpt lat="44.43941" lon="6.23268">
        <ele>1364.73</ele>
        <time>2011-11-22T13:14:24Z</time>
      </trkpt>
      <trkpt lat="44.43939" lon="6.23269">
        <ele>1367.61</ele>
        <time>2011-11-22T13:14:26Z</time>
      </trkpt>
      <trkpt lat="44.43939" lon="6.23269">
        <ele>1366.17</ele>
        <time>2011-11-22T13:14:27Z</time>
      </trkpt>
      <trkpt lat="44.4393" lon="6.23274">
        <ele>1365.69</ele>
        <time>2011-11-22T13:14:37Z</time>
      </trkpt>
      <trkpt lat="44.43928" lon="6.23274">
        <ele>1367.61</ele>
        <time>2011-11-22T13:14:39Z</time>
      </trkpt>
      <trkpt lat="44.43925" lon="6.23276">
        <ele>1371.94</ele>
        <time>2011-11-22T13:14:43Z</time>
      </trkpt>
      <trkpt lat="44.43925" lon="6.23276">
        <ele>1368.57</ele>
        <time>2011-11-22T13:14:44Z</time>
      </trkpt>
      <trkpt lat="44.43923" lon="6.23277">
        <ele>1369.54</ele>
        <time>2011-11-22T13:15:12Z</time>
      </trkpt>
      <trkpt lat="44.4392" lon="6.23278">
        <ele>1368.57</ele>
        <time>2011-11-22T13:15:15Z</time>
      </trkpt>
      <trkpt lat="44.43917" lon="6.2328">
        <ele>1371.94</ele>
        <time>2011-11-22T13:15:19Z</time>
      </trkpt>
      <trkpt lat="44.43913" lon="6.23281">
        <ele>1367.61</ele>
        <time>2011-11-22T13:15:23Z</time>
      </trkpt>
      <trkpt lat="44.43912" lon="6.23282">
        <ele>1371.46</ele>
        <time>2011-11-22T13:15:24Z</time>
      </trkpt>
      <trkpt lat="44.43904" lon="6.23285">
        <ele>1371.46</ele>
        <time>2011-11-22T13:15:32Z</time>
      </trkpt>
      <trkpt lat="44.43901" lon="6.23287">
        <ele>1371.94</ele>
        <time>2011-11-22T13:15:35Z</time>
      </trkpt>
      <trkpt lat="44.43896" lon="6.23291">
        <ele>1373.38</ele>
        <time>2011-11-22T13:15:41Z</time>
      </trkpt>
      <trkpt lat="44.43894" lon="6.23293">
        <ele>1376.26</ele>
        <time>2011-11-22T13:15:43Z</time>
      </trkpt>
      <trkpt lat="44.43894" lon="6.23293">
        <ele>1370.5</ele>
        <time>2011-11-22T13:15:44Z</time>
      </trkpt>
      <trkpt lat="44.43893" lon="6.23293">
        <ele>1373.86</ele>
        <time>2011-11-22T13:15:45Z</time>
      </trkpt>
      <trkpt lat="44.43892" lon="6.23294">
        <ele>1370.02</ele>
        <time>2011-11-22T13:15:46Z</time>
      </trkpt>
      <trkpt lat="44.43892" lon="6.23294">
        <ele>1373.38</ele>
        <time>2011-11-22T13:15:47Z</time>
      </trkpt>
      <trkpt lat="44.43891" lon="6.23294">
        <ele>1372.9</ele>
        <time>2011-11-22T13:16:04Z</time>
      </trkpt>
      <trkpt lat="44.43891" lon="6.23294">
        <ele>1372.42</ele>
        <time>2011-11-22T13:16:15Z</time>
      </trkpt>
      <trkpt lat="44.43891" lon="6.23295">
        <ele>1373.38</ele>
        <time>2011-11-22T13:17:02Z</time>
      </trkpt>
      <trkpt lat="44.43891" lon="6.23296">
        <ele>1372.42</ele>
        <time>2011-11-22T13:17:07Z</time>
      </trkpt>
      <trkpt lat="44.43891" lon="6.23296">
        <ele>1370.98</ele>
        <time>2011-11-22T13:17:12Z</time>
      </trkpt>
      <trkpt lat="44.43892" lon="6.23297">
        <ele>1370.98</ele>
        <time>2011-11-22T13:17:23Z</time>
      </trkpt>
      <trkpt lat="44.43892" lon="6.23297">
        <ele>1371.46</ele>
        <time>2011-11-22T13:17:24Z</time>
      </trkpt>
      <trkpt lat="44.43891" lon="6.23296">
        <ele>1376.75</ele>
        <time>2011-11-22T13:17:33Z</time>
      </trkpt>
      <trkpt lat="44.4389" lon="6.23297">
        <ele>1373.38</ele>
        <time>2011-11-22T13:17:35Z</time>
      </trkpt>
      <trkpt lat="44.43889" lon="6.23298">
        <ele>1370.02</ele>
        <time>2011-11-22T13:17:37Z</time>
      </trkpt>
      <trkpt lat="44.43886" lon="6.23299">
        <ele>1372.9</ele>
        <time>2011-11-22T13:17:39Z</time>
      </trkpt>
      <trkpt lat="44.43874" lon="6.23296">
        <ele>1372.42</ele>
        <time>2011-11-22T13:17:47Z</time>
      </trkpt>
      <trkpt lat="44.43865" lon="6.233">
        <ele>1371.46</ele>
        <time>2011-11-22T13:17:52Z</time>
      </trkpt>
      <trkpt lat="44.43838" lon="6.23319">
        <ele>1368.57</ele>
        <time>2011-11-22T13:18:02Z</time>
      </trkpt>
      <trkpt lat="44.43821" lon="6.23327">
        <ele>1365.21</ele>
        <time>2011-11-22T13:18:07Z</time>
      </trkpt>
      <trkpt lat="44.43817" lon="6.23329">
        <ele>1365.69</ele>
        <time>2011-11-22T13:18:08Z</time>
      </trkpt>
      <trkpt lat="44.43799" lon="6.23334">
        <ele>1363.77</ele>
        <time>2011-11-22T13:18:12Z</time>
      </trkpt>
      <trkpt lat="44.43786" lon="6.23337">
        <ele>1359.92</ele>
        <time>2011-11-22T13:18:15Z</time>
      </trkpt>
      <trkpt lat="44.43781" lon="6.23339">
        <ele>1360.4</ele>
        <time>2011-11-22T13:18:16Z</time>
      </trkpt>
      <trkpt lat="44.43719" lon="6.23373">
        <ele>1358</ele>
        <time>2011-11-22T13:18:27Z</time>
      </trkpt>
      <trkpt lat="44.43687" lon="6.23404">
        <ele>1358.96</ele>
        <time>2011-11-22T13:18:38Z</time>
      </trkpt>
      <trkpt lat="44.43684" lon="6.23406">
        <ele>1358.48</ele>
        <time>2011-11-22T13:18:39Z</time>
      </trkpt>
      <trkpt lat="44.43653" lon="6.23422">
        <ele>1360.4</ele>
        <time>2011-11-22T13:18:51Z</time>
      </trkpt>
      <trkpt lat="44.43628" lon="6.2344">
        <ele>1360.88</ele>
        <time>2011-11-22T13:19:03Z</time>
      </trkpt>
      <trkpt lat="44.4359" lon="6.23452">
        <ele>1358.48</ele>
        <time>2011-11-22T13:19:16Z</time>
      </trkpt>
      <trkpt lat="44.43576" lon="6.23465">
        <ele>1357.52</ele>
        <time>2011-11-22T13:19:20Z</time>
      </trkpt>
      <trkpt lat="44.43553" lon="6.23483">
        <ele>1355.12</ele>
        <time>2011-11-22T13:19:26Z</time>
      </trkpt>
      <trkpt lat="44.43538" lon="6.23491">
        <ele>1352.23</ele>
        <time>2011-11-22T13:19:30Z</time>
      </trkpt>
      <trkpt lat="44.43523" lon="6.23501">
        <ele>1348.87</ele>
        <time>2011-11-22T13:19:34Z</time>
      </trkpt>
      <trkpt lat="44.4352" lon="6.23504">
        <ele>1348.87</ele>
        <time>2011-11-22T13:19:35Z</time>
      </trkpt>
      <trkpt lat="44.43503" lon="6.23515">
        <ele>1345.98</ele>
        <time>2011-11-22T13:19:39Z</time>
      </trkpt>
      <trkpt lat="44.43499" lon="6.23517">
        <ele>1345.02</ele>
        <time>2011-11-22T13:19:40Z</time>
      </trkpt>
      <trkpt lat="44.43486" lon="6.23526">
        <ele>1342.62</ele>
        <time>2011-11-22T13:19:43Z</time>
      </trkpt>
      <trkpt lat="44.43469" lon="6.23537">
        <ele>1338.77</ele>
        <time>2011-11-22T13:19:47Z</time>
      </trkpt>
      <trkpt lat="44.43458" lon="6.23543">
        <ele>1336.85</ele>
        <time>2011-11-22T13:19:50Z</time>
      </trkpt>
      <trkpt lat="44.43448" lon="6.23547">
        <ele>1336.37</ele>
        <time>2011-11-22T13:19:52Z</time>
      </trkpt>
      <trkpt lat="44.43442" lon="6.23548">
        <ele>1336.37</ele>
        <time>2011-11-22T13:19:53Z</time>
      </trkpt>
      <trkpt lat="44.43422" lon="6.23547">
        <ele>1334.45</ele>
        <time>2011-11-22T13:19:56Z</time>
      </trkpt>
      <trkpt lat="44.4341" lon="6.23546">
        <ele>1333.97</ele>
        <time>2011-11-22T13:19:58Z</time>
      </trkpt>
      <trkpt lat="44.43405" lon="6.23546">
        <ele>1333.97</ele>
        <time>2011-11-22T13:19:59Z</time>
      </trkpt>
      <trkpt lat="44.4337" lon="6.23539">
        <ele>1334.93</ele>
        <time>2011-11-22T13:20:10Z</time>
      </trkpt>
      <trkpt lat="44.43346" lon="6.2351">
        <ele>1332.04</ele>
        <time>2011-11-22T13:20:20Z</time>
      </trkpt>
      <trkpt lat="44.43333" lon="6.23481">
        <ele>1329.64</ele>
        <time>2011-11-22T13:20:26Z</time>
      </trkpt>
      <trkpt lat="44.4333" lon="6.23477">
        <ele>1329.64</ele>
        <time>2011-11-22T13:20:27Z</time>
      </trkpt>
      <trkpt lat="44.43328" lon="6.23473">
        <ele>1328.68</ele>
        <time>2011-11-22T13:20:28Z</time>
      </trkpt>
      <trkpt lat="44.43325" lon="6.23468">
        <ele>1328.2</ele>
        <time>2011-11-22T13:20:29Z</time>
      </trkpt>
      <trkpt lat="44.43322" lon="6.23464">
        <ele>1329.16</ele>
        <time>2011-11-22T13:20:30Z</time>
      </trkpt>
      <trkpt lat="44.43317" lon="6.23461">
        <ele>1327.72</ele>
        <time>2011-11-22T13:20:31Z</time>
      </trkpt>
      <trkpt lat="44.43313" lon="6.23458">
        <ele>1327.72</ele>
        <time>2011-11-22T13:20:32Z</time>
      </trkpt>
      <trkpt lat="44.43307" lon="6.23457">
        <ele>1326.76</ele>
        <time>2011-11-22T13:20:33Z</time>
      </trkpt>
      <trkpt lat="44.43302" lon="6.23457">
        <ele>1326.76</ele>
        <time>2011-11-22T13:20:34Z</time>
      </trkpt>
      <trkpt lat="44.43298" lon="6.23459">
        <ele>1325.31</ele>
        <time>2011-11-22T13:20:35Z</time>
      </trkpt>
      <trkpt lat="44.43293" lon="6.23463">
        <ele>1324.83</ele>
        <time>2011-11-22T13:20:36Z</time>
      </trkpt>
      <trkpt lat="44.4329" lon="6.23467">
        <ele>1324.35</ele>
        <time>2011-11-22T13:20:37Z</time>
      </trkpt>
      <trkpt lat="44.43287" lon="6.23471">
        <ele>1323.87</ele>
        <time>2011-11-22T13:20:38Z</time>
      </trkpt>
      <trkpt lat="44.43285" lon="6.23475">
        <ele>1322.91</ele>
        <time>2011-11-22T13:20:39Z</time>
      </trkpt>
      <trkpt lat="44.43283" lon="6.2348">
        <ele>1323.39</ele>
        <time>2011-11-22T13:20:40Z</time>
      </trkpt>
      <trkpt lat="44.43279" lon="6.23484">
        <ele>1321.47</ele>
        <time>2011-11-22T13:20:41Z</time>
      </trkpt>
      <trkpt lat="44.43276" lon="6.23488">
        <ele>1321.47</ele>
        <time>2011-11-22T13:20:42Z</time>
      </trkpt>
      <trkpt lat="44.43271" lon="6.23491">
        <ele>1320.51</ele>
        <time>2011-11-22T13:20:43Z</time>
      </trkpt>
      <trkpt lat="44.43267" lon="6.23494">
        <ele>1320.03</ele>
        <time>2011-11-22T13:20:44Z</time>
      </trkpt>
      <trkpt lat="44.43262" lon="6.23495">
        <ele>1319.55</ele>
        <time>2011-11-22T13:20:45Z</time>
      </trkpt>
      <trkpt lat="44.43257" lon="6.23496">
        <ele>1319.07</ele>
        <time>2011-11-22T13:20:46Z</time>
      </trkpt>
      <trkpt lat="44.43252" lon="6.23497">
        <ele>1318.1</ele>
        <time>2011-11-22T13:20:47Z</time>
      </trkpt>
      <trkpt lat="44.43238" lon="6.23498">
        <ele>1316.18</ele>
        <time>2011-11-22T13:20:50Z</time>
      </trkpt>
      <trkpt lat="44.43234" lon="6.23499">
        <ele>1315.22</ele>
        <time>2011-11-22T13:20:51Z</time>
      </trkpt>
      <trkpt lat="44.43229" lon="6.235">
        <ele>1314.74</ele>
        <time>2011-11-22T13:20:52Z</time>
      </trkpt>
      <trkpt lat="44.43219" lon="6.23503">
        <ele>1314.26</ele>
        <time>2011-11-22T13:20:54Z</time>
      </trkpt>
      <trkpt lat="44.43214" lon="6.23504">
        <ele>1312.34</ele>
        <time>2011-11-22T13:20:55Z</time>
      </trkpt>
      <trkpt lat="44.4321" lon="6.23505">
        <ele>1312.34</ele>
        <time>2011-11-22T13:20:56Z</time>
      </trkpt>
      <trkpt lat="44.43198" lon="6.23509">
        <ele>1310.41</ele>
        <time>2011-11-22T13:20:59Z</time>
      </trkpt>
      <trkpt lat="44.43183" lon="6.23515">
        <ele>1308.49</ele>
        <time>2011-11-22T13:21:03Z</time>
      </trkpt>
      <trkpt lat="44.43171" lon="6.23521">
        <ele>1305.61</ele>
        <time>2011-11-22T13:21:07Z</time>
      </trkpt>
      <trkpt lat="44.43164" lon="6.23522">
        <ele>1304.65</ele>
        <time>2011-11-22T13:21:09Z</time>
      </trkpt>
      <trkpt lat="44.4316" lon="6.23522">
        <ele>1302.72</ele>
        <time>2011-11-22T13:21:10Z</time>
      </trkpt>
      <trkpt lat="44.43156" lon="6.23521">
        <ele>1302.24</ele>
        <time>2011-11-22T13:21:11Z</time>
      </trkpt>
      <trkpt lat="44.43149" lon="6.23522">
        <ele>1300.8</ele>
        <time>2011-11-22T13:21:13Z</time>
      </trkpt>
      <trkpt lat="44.43134" lon="6.23527">
        <ele>1297.44</ele>
        <time>2011-11-22T13:21:16Z</time>
      </trkpt>
      <trkpt lat="44.43113" lon="6.23539">
        <ele>1295.99</ele>
        <time>2011-11-22T13:21:20Z</time>
      </trkpt>
      <trkpt lat="44.43108" lon="6.23541">
        <ele>1295.03</ele>
        <time>2011-11-22T13:21:21Z</time>
      </trkpt>
      <trkpt lat="44.43103" lon="6.23542">
        <ele>1294.07</ele>
        <time>2011-11-22T13:21:22Z</time>
      </trkpt>
      <trkpt lat="44.43099" lon="6.23544">
        <ele>1293.59</ele>
        <time>2011-11-22T13:21:23Z</time>
      </trkpt>
      <trkpt lat="44.43094" lon="6.23545">
        <ele>1293.11</ele>
        <time>2011-11-22T13:21:24Z</time>
      </trkpt>
      <trkpt lat="44.43089" lon="6.23546">
        <ele>1292.63</ele>
        <time>2011-11-22T13:21:25Z</time>
      </trkpt>
      <trkpt lat="44.43073" lon="6.23552">
        <ele>1292.15</ele>
        <time>2011-11-22T13:21:28Z</time>
      </trkpt>
      <trkpt lat="44.43063" lon="6.23558">
        <ele>1289.75</ele>
        <time>2011-11-22T13:21:30Z</time>
      </trkpt>
      <trkpt lat="44.43027" lon="6.23574">
        <ele>1286.86</ele>
        <time>2011-11-22T13:21:36Z</time>
      </trkpt>
      <trkpt lat="44.4302" lon="6.23575">
        <ele>1286.38</ele>
        <time>2011-11-22T13:21:37Z</time>
      </trkpt>
      <trkpt lat="44.43013" lon="6.23575">
        <ele>1285.9</ele>
        <time>2011-11-22T13:21:38Z</time>
      </trkpt>
      <trkpt lat="44.4298" lon="6.23575">
        <ele>1286.38</ele>
        <time>2011-11-22T13:21:45Z</time>
      </trkpt>
      <trkpt lat="44.42978" lon="6.23576">
        <ele>1286.38</ele>
        <time>2011-11-22T13:21:46Z</time>
      </trkpt>
      <trkpt lat="44.42963" lon="6.23572">
        <ele>1289.75</ele>
        <time>2011-11-22T13:21:56Z</time>
      </trkpt>
      <trkpt lat="44.42962" lon="6.23572">
        <ele>1289.27</ele>
        <time>2011-11-22T13:21:57Z</time>
      </trkpt>
      <trkpt lat="44.42961" lon="6.23571">
        <ele>1290.23</ele>
        <time>2011-11-22T13:21:58Z</time>
      </trkpt>
      <trkpt lat="44.42959" lon="6.2357">
        <ele>1290.23</ele>
        <time>2011-11-22T13:21:59Z</time>
      </trkpt>
      <trkpt lat="44.42958" lon="6.23569">
        <ele>1289.27</ele>
        <time>2011-11-22T13:22:00Z</time>
      </trkpt>
      <trkpt lat="44.42957" lon="6.23569">
        <ele>1289.75</ele>
        <time>2011-11-22T13:22:01Z</time>
      </trkpt>
      <trkpt lat="44.42956" lon="6.23568">
        <ele>1289.75</ele>
        <time>2011-11-22T13:22:02Z</time>
      </trkpt>
      <trkpt lat="44.4294" lon="6.23561">
        <ele>1291.67</ele>
        <time>2011-11-22T13:22:15Z</time>
      </trkpt>
      <trkpt lat="44.42918" lon="6.23557">
        <ele>1293.59</ele>
        <time>2011-11-22T13:22:31Z</time>
      </trkpt>
      <trkpt lat="44.42903" lon="6.23553">
        <ele>1293.59</ele>
        <time>2011-11-22T13:22:41Z</time>
      </trkpt>
      <trkpt lat="44.42902" lon="6.23553">
        <ele>1294.07</ele>
        <time>2011-11-22T13:22:42Z</time>
      </trkpt>
      <trkpt lat="44.42901" lon="6.23553">
        <ele>1294.07</ele>
        <time>2011-11-22T13:22:43Z</time>
      </trkpt>
      <trkpt lat="44.42899" lon="6.23552">
        <ele>1294.07</ele>
        <time>2011-11-22T13:22:44Z</time>
      </trkpt>
      <trkpt lat="44.42898" lon="6.23552">
        <ele>1294.07</ele>
        <time>2011-11-22T13:22:45Z</time>
      </trkpt>
      <trkpt lat="44.42896" lon="6.23552">
        <ele>1294.07</ele>
        <time>2011-11-22T13:22:46Z</time>
      </trkpt>
      <trkpt lat="44.42895" lon="6.23551">
        <ele>1294.07</ele>
        <time>2011-11-22T13:22:47Z</time>
      </trkpt>
      <trkpt lat="44.42893" lon="6.23551">
        <ele>1294.07</ele>
        <time>2011-11-22T13:22:48Z</time>
      </trkpt>
      <trkpt lat="44.42892" lon="6.2355">
        <ele>1294.55</ele>
        <time>2011-11-22T13:22:49Z</time>
      </trkpt>
      <trkpt lat="44.4289" lon="6.2355">
        <ele>1294.55</ele>
        <time>2011-11-22T13:22:50Z</time>
      </trkpt>
      <trkpt lat="44.42889" lon="6.23549">
        <ele>1294.07</ele>
        <time>2011-11-22T13:22:51Z</time>
      </trkpt>
      <trkpt lat="44.42887" lon="6.23549">
        <ele>1294.55</ele>
        <time>2011-11-22T13:22:52Z</time>
      </trkpt>
      <trkpt lat="44.42886" lon="6.23549">
        <ele>1295.03</ele>
        <time>2011-11-22T13:22:53Z</time>
      </trkpt>
      <trkpt lat="44.42884" lon="6.2355">
        <ele>1294.55</ele>
        <time>2011-11-22T13:22:54Z</time>
      </trkpt>
      <trkpt lat="44.42882" lon="6.2355">
        <ele>1294.07</ele>
        <time>2011-11-22T13:22:55Z</time>
      </trkpt>
      <trkpt lat="44.4288" lon="6.2355">
        <ele>1294.55</ele>
        <time>2011-11-22T13:22:56Z</time>
      </trkpt>
      <trkpt lat="44.42847" lon="6.23543">
        <ele>1291.67</ele>
        <time>2011-11-22T13:23:09Z</time>
      </trkpt>
      <trkpt lat="44.42828" lon="6.23542">
        <ele>1288.3</ele>
        <time>2011-11-22T13:23:13Z</time>
      </trkpt>
      <trkpt lat="44.42824" lon="6.23542">
        <ele>1287.82</ele>
        <time>2011-11-22T13:23:14Z</time>
      </trkpt>
      <trkpt lat="44.42783" lon="6.23539">
        <ele>1284.46</ele>
        <time>2011-11-22T13:23:21Z</time>
      </trkpt>
      <trkpt lat="44.42778" lon="6.23539">
        <ele>1283.98</ele>
        <time>2011-11-22T13:23:22Z</time>
      </trkpt>
      <trkpt lat="44.42725" lon="6.23527">
        <ele>1282.54</ele>
        <time>2011-11-22T13:23:33Z</time>
      </trkpt>
      <trkpt lat="44.42679" lon="6.23511">
        <ele>1282.06</ele>
        <time>2011-11-22T13:23:45Z</time>
      </trkpt>
      <trkpt lat="44.42671" lon="6.23504">
        <ele>1281.57</ele>
        <time>2011-11-22T13:23:51Z</time>
      </trkpt>
      <trkpt lat="44.4267" lon="6.23503">
        <ele>1282.06</ele>
        <time>2011-11-22T13:23:52Z</time>
      </trkpt>
      <trkpt lat="44.4267" lon="6.23502">
        <ele>1283.5</ele>
        <time>2011-11-22T13:24:05Z</time>
      </trkpt>
      <trkpt lat="44.4267" lon="6.23502">
        <ele>1272.92</ele>
        <time>2011-11-22T13:24:18Z</time>
      </trkpt>
      <trkpt lat="44.4267" lon="6.23502">
        <ele>1283.5</ele>
        <time>2011-11-22T13:24:19Z</time>
      </trkpt>
      <trkpt lat="44.4267" lon="6.235">
        <ele>1282.54</ele>
        <time>2011-11-22T13:25:35Z</time>
      </trkpt>
      <trkpt lat="44.4267" lon="6.235">
        <ele>1278.69</ele>
        <time>2011-11-22T13:25:53Z</time>
      </trkpt>
      <trkpt lat="44.4267" lon="6.235">
        <ele>1282.54</ele>
        <time>2011-11-22T13:25:55Z</time>
      </trkpt>
      <trkpt lat="44.4267" lon="6.23499">
        <ele>1283.02</ele>
        <time>2011-11-22T13:26:45Z</time>
      </trkpt>
      <trkpt lat="44.4267" lon="6.23497">
        <ele>1282.54</ele>
        <time>2011-11-22T13:27:22Z</time>
      </trkpt>
      <trkpt lat="44.42672" lon="6.23492">
        <ele>1282.06</ele>
        <time>2011-11-22T13:27:51Z</time>
      </trkpt>
      <trkpt lat="44.42673" lon="6.2349">
        <ele>1282.54</ele>
        <time>2011-11-22T13:27:52Z</time>
      </trkpt>
      <trkpt lat="44.42673" lon="6.23488">
        <ele>1282.06</ele>
        <time>2011-11-22T13:27:53Z</time>
      </trkpt>
      <trkpt lat="44.42673" lon="6.23485">
        <ele>1281.57</ele>
        <time>2011-11-22T13:27:54Z</time>
      </trkpt>
      <trkpt lat="44.42674" lon="6.23481">
        <ele>1281.09</ele>
        <time>2011-11-22T13:27:55Z</time>
      </trkpt>
      <trkpt lat="44.42674" lon="6.23478">
        <ele>1281.09</ele>
        <time>2011-11-22T13:27:56Z</time>
      </trkpt>
      <trkpt lat="44.42674" lon="6.23474">
        <ele>1280.61</ele>
        <time>2011-11-22T13:27:57Z</time>
      </trkpt>
      <trkpt lat="44.42674" lon="6.2347">
        <ele>1281.09</ele>
        <time>2011-11-22T13:27:58Z</time>
      </trkpt>
      <trkpt lat="44.42673" lon="6.23467">
        <ele>1279.65</ele>
        <time>2011-11-22T13:27:59Z</time>
      </trkpt>
      <trkpt lat="44.42673" lon="6.23463">
        <ele>1279.65</ele>
        <time>2011-11-22T13:28:00Z</time>
      </trkpt>
      <trkpt lat="44.42672" lon="6.23456">
        <ele>1279.17</ele>
        <time>2011-11-22T13:28:07Z</time>
      </trkpt>
      <trkpt lat="44.42672" lon="6.23456">
        <ele>1283.98</ele>
        <time>2011-11-22T13:28:26Z</time>
      </trkpt>
      <trkpt lat="44.42672" lon="6.23456">
        <ele>1280.13</ele>
        <time>2011-11-22T13:28:27Z</time>
      </trkpt>
      <trkpt lat="44.42677" lon="6.23437">
        <ele>1277.25</ele>
        <time>2011-11-22T13:28:35Z</time>
      </trkpt>
      <trkpt lat="44.42678" lon="6.23434">
        <ele>1276.77</ele>
        <time>2011-11-22T13:28:36Z</time>
      </trkpt>
      <trkpt lat="44.42678" lon="6.23431">
        <ele>1276.29</ele>
        <time>2011-11-22T13:28:37Z</time>
      </trkpt>
      <trkpt lat="44.42677" lon="6.23425">
        <ele>1275.81</ele>
        <time>2011-11-22T13:28:39Z</time>
      </trkpt>
      <trkpt lat="44.42676" lon="6.23416">
        <ele>1273.88</ele>
        <time>2011-11-22T13:28:42Z</time>
      </trkpt>
      <trkpt lat="44.42671" lon="6.23392">
        <ele>1271.96</ele>
        <time>2011-11-22T13:28:48Z</time>
      </trkpt>
      <trkpt lat="44.42664" lon="6.23384">
        <ele>1270.52</ele>
        <time>2011-11-22T13:28:51Z</time>
      </trkpt>
      <trkpt lat="44.42662" lon="6.23379">
        <ele>1270.04</ele>
        <time>2011-11-22T13:28:52Z</time>
      </trkpt>
      <trkpt lat="44.42661" lon="6.23375">
        <ele>1269.56</ele>
        <time>2011-11-22T13:28:53Z</time>
      </trkpt>
      <trkpt lat="44.42659" lon="6.2337">
        <ele>1269.08</ele>
        <time>2011-11-22T13:28:54Z</time>
      </trkpt>
      <trkpt lat="44.42657" lon="6.23366">
        <ele>1268.12</ele>
        <time>2011-11-22T13:28:55Z</time>
      </trkpt>
      <trkpt lat="44.42656" lon="6.23362">
        <ele>1267.64</ele>
        <time>2011-11-22T13:28:56Z</time>
      </trkpt>
      <trkpt lat="44.42655" lon="6.23358">
        <ele>1267.64</ele>
        <time>2011-11-22T13:28:57Z</time>
      </trkpt>
      <trkpt lat="44.42652" lon="6.23338">
        <ele>1265.23</ele>
        <time>2011-11-22T13:29:01Z</time>
      </trkpt>
      <trkpt lat="44.42652" lon="6.23324">
        <ele>1262.83</ele>
        <time>2011-11-22T13:29:04Z</time>
      </trkpt>
      <trkpt lat="44.42649" lon="6.23304">
        <ele>1260.43</ele>
        <time>2011-11-22T13:29:09Z</time>
      </trkpt>
      <trkpt lat="44.42648" lon="6.23283">
        <ele>1257.06</ele>
        <time>2011-11-22T13:29:13Z</time>
      </trkpt>
      <trkpt lat="44.42647" lon="6.23277">
        <ele>1257.06</ele>
        <time>2011-11-22T13:29:14Z</time>
      </trkpt>
      <trkpt lat="44.42644" lon="6.23255">
        <ele>1254.18</ele>
        <time>2011-11-22T13:29:18Z</time>
      </trkpt>
      <trkpt lat="44.42641" lon="6.23241">
        <ele>1252.25</ele>
        <time>2011-11-22T13:29:21Z</time>
      </trkpt>
      <trkpt lat="44.4264" lon="6.23236">
        <ele>1250.81</ele>
        <time>2011-11-22T13:29:22Z</time>
      </trkpt>
      <trkpt lat="44.42641" lon="6.2323">
        <ele>1251.29</ele>
        <time>2011-11-22T13:29:23Z</time>
      </trkpt>
      <trkpt lat="44.42642" lon="6.23225">
        <ele>1251.29</ele>
        <time>2011-11-22T13:29:24Z</time>
      </trkpt>
      <trkpt lat="44.42651" lon="6.23208">
        <ele>1247.93</ele>
        <time>2011-11-22T13:29:28Z</time>
      </trkpt>
      <trkpt lat="44.42659" lon="6.23186">
        <ele>1244.56</ele>
        <time>2011-11-22T13:29:33Z</time>
      </trkpt>
      <trkpt lat="44.42665" lon="6.23167">
        <ele>1241.68</ele>
        <time>2011-11-22T13:29:37Z</time>
      </trkpt>
      <trkpt lat="44.4267" lon="6.23154">
        <ele>1240.24</ele>
        <time>2011-11-22T13:29:40Z</time>
      </trkpt>
      <trkpt lat="44.42673" lon="6.2315">
        <ele>1240.24</ele>
        <time>2011-11-22T13:29:41Z</time>
      </trkpt>
      <trkpt lat="44.42684" lon="6.23133">
        <ele>1237.35</ele>
        <time>2011-11-22T13:29:45Z</time>
      </trkpt>
      <trkpt lat="44.42687" lon="6.23128">
        <ele>1236.87</ele>
        <time>2011-11-22T13:29:46Z</time>
      </trkpt>
      <trkpt lat="44.4269" lon="6.23125">
        <ele>1235.43</ele>
        <time>2011-11-22T13:29:47Z</time>
      </trkpt>
      <trkpt lat="44.42693" lon="6.23121">
        <ele>1234.95</ele>
        <time>2011-11-22T13:29:48Z</time>
      </trkpt>
      <trkpt lat="44.42696" lon="6.23117">
        <ele>1234.95</ele>
        <time>2011-11-22T13:29:49Z</time>
      </trkpt>
      <trkpt lat="44.42712" lon="6.23099">
        <ele>1231.59</ele>
        <time>2011-11-22T13:29:55Z</time>
      </trkpt>
      <trkpt lat="44.42719" lon="6.23089">
        <ele>1230.14</ele>
        <time>2011-11-22T13:29:58Z</time>
      </trkpt>
      <trkpt lat="44.42724" lon="6.23077">
        <ele>1228.7</ele>
        <time>2011-11-22T13:30:01Z</time>
      </trkpt>
      <trkpt lat="44.42729" lon="6.23068">
        <ele>1226.3</ele>
        <time>2011-11-22T13:30:04Z</time>
      </trkpt>
      <trkpt lat="44.42729" lon="6.23064">
        <ele>1226.3</ele>
        <time>2011-11-22T13:30:05Z</time>
      </trkpt>
      <trkpt lat="44.4273" lon="6.23061">
        <ele>1226.3</ele>
        <time>2011-11-22T13:30:06Z</time>
      </trkpt>
      <trkpt lat="44.4273" lon="6.23059">
        <ele>1225.82</ele>
        <time>2011-11-22T13:30:07Z</time>
      </trkpt>
      <trkpt lat="44.42729" lon="6.23056">
        <ele>1225.82</ele>
        <time>2011-11-22T13:30:08Z</time>
      </trkpt>
      <trkpt lat="44.4273" lon="6.23054">
        <ele>1225.34</ele>
        <time>2011-11-22T13:30:09Z</time>
      </trkpt>
      <trkpt lat="44.4273" lon="6.23052">
        <ele>1224.86</ele>
        <time>2011-11-22T13:30:10Z</time>
      </trkpt>
      <trkpt lat="44.42731" lon="6.23051">
        <ele>1224.86</ele>
        <time>2011-11-22T13:30:11Z</time>
      </trkpt>
      <trkpt lat="44.4273" lon="6.23047">
        <ele>1224.38</ele>
        <time>2011-11-22T13:30:24Z</time>
      </trkpt>
      <trkpt lat="44.4273" lon="6.23047">
        <ele>1224.38</ele>
        <time>2011-11-22T13:31:13Z</time>
      </trkpt>
      <trkpt lat="44.42729" lon="6.23044">
        <ele>1223.42</ele>
        <time>2011-11-22T13:31:47Z</time>
      </trkpt>
      <trkpt lat="44.42728" lon="6.23043">
        <ele>1223.42</ele>
        <time>2011-11-22T13:31:48Z</time>
      </trkpt>
      <trkpt lat="44.42728" lon="6.23041">
        <ele>1223.42</ele>
        <time>2011-11-22T13:31:49Z</time>
      </trkpt>
      <trkpt lat="44.42727" lon="6.23038">
        <ele>1223.42</ele>
        <time>2011-11-22T13:31:50Z</time>
      </trkpt>
      <trkpt lat="44.42726" lon="6.23035">
        <ele>1223.42</ele>
        <time>2011-11-22T13:31:51Z</time>
      </trkpt>
      <trkpt lat="44.42716" lon="6.23019">
        <ele>1220.05</ele>
        <time>2011-11-22T13:31:56Z</time>
      </trkpt>
      <trkpt lat="44.42711" lon="6.23012">
        <ele>1219.57</ele>
        <time>2011-11-22T13:31:58Z</time>
      </trkpt>
      <trkpt lat="44.42702" lon="6.23001">
        <ele>1217.17</ele>
        <time>2011-11-22T13:32:01Z</time>
      </trkpt>
      <trkpt lat="44.42684" lon="6.22979">
        <ele>1212.84</ele>
        <time>2011-11-22T13:32:08Z</time>
      </trkpt>
      <trkpt lat="44.42682" lon="6.22975">
        <ele>1212.84</ele>
        <time>2011-11-22T13:32:09Z</time>
      </trkpt>
      <trkpt lat="44.42678" lon="6.2296">
        <ele>1209.48</ele>
        <time>2011-11-22T13:32:12Z</time>
      </trkpt>
      <trkpt lat="44.42677" lon="6.22955">
        <ele>1209.48</ele>
        <time>2011-11-22T13:32:13Z</time>
      </trkpt>
      <trkpt lat="44.42671" lon="6.2293">
        <ele>1207.07</ele>
        <time>2011-11-22T13:32:18Z</time>
      </trkpt>
      <trkpt lat="44.42669" lon="6.2292">
        <ele>1206.11</ele>
        <time>2011-11-22T13:32:20Z</time>
      </trkpt>
      <trkpt lat="44.42666" lon="6.22903">
        <ele>1203.23</ele>
        <time>2011-11-22T13:32:23Z</time>
      </trkpt>
      <trkpt lat="44.42665" lon="6.22897">
        <ele>1203.23</ele>
        <time>2011-11-22T13:32:24Z</time>
      </trkpt>
      <trkpt lat="44.42663" lon="6.22882">
        <ele>1201.79</ele>
        <time>2011-11-22T13:32:27Z</time>
      </trkpt>
      <trkpt lat="44.42663" lon="6.22862">
        <ele>1198.42</ele>
        <time>2011-11-22T13:32:31Z</time>
      </trkpt>
      <trkpt lat="44.42662" lon="6.22859">
        <ele>1197.94</ele>
        <time>2011-11-22T13:32:32Z</time>
      </trkpt>
      <trkpt lat="44.42654" lon="6.22847">
        <ele>1196.98</ele>
        <time>2011-11-22T13:32:36Z</time>
      </trkpt>
      <trkpt lat="44.42645" lon="6.22839">
        <ele>1193.13</ele>
        <time>2011-11-22T13:32:40Z</time>
      </trkpt>
      <trkpt lat="44.42643" lon="6.22834">
        <ele>1193.61</ele>
        <time>2011-11-22T13:32:41Z</time>
      </trkpt>
      <trkpt lat="44.42643" lon="6.2283">
        <ele>1192.65</ele>
        <time>2011-11-22T13:32:42Z</time>
      </trkpt>
      <trkpt lat="44.42644" lon="6.22826">
        <ele>1192.65</ele>
        <time>2011-11-22T13:32:43Z</time>
      </trkpt>
      <trkpt lat="44.42644" lon="6.22821">
        <ele>1191.69</ele>
        <time>2011-11-22T13:32:44Z</time>
      </trkpt>
      <trkpt lat="44.42646" lon="6.22817">
        <ele>1191.21</ele>
        <time>2011-11-22T13:32:45Z</time>
      </trkpt>
      <trkpt lat="44.42647" lon="6.22812">
        <ele>1190.73</ele>
        <time>2011-11-22T13:32:46Z</time>
      </trkpt>
      <trkpt lat="44.42648" lon="6.22807">
        <ele>1190.73</ele>
        <time>2011-11-22T13:32:47Z</time>
      </trkpt>
      <trkpt lat="44.42649" lon="6.22803">
        <ele>1189.77</ele>
        <time>2011-11-22T13:32:48Z</time>
      </trkpt>
      <trkpt lat="44.42649" lon="6.22799">
        <ele>1187.85</ele>
        <time>2011-11-22T13:32:49Z</time>
      </trkpt>
      <trkpt lat="44.4265" lon="6.22794">
        <ele>1187.37</ele>
        <time>2011-11-22T13:32:50Z</time>
      </trkpt>
      <trkpt lat="44.4265" lon="6.22778">
        <ele>1185.92</ele>
        <time>2011-11-22T13:32:53Z</time>
      </trkpt>
      <trkpt lat="44.42648" lon="6.22772">
        <ele>1185.44</ele>
        <time>2011-11-22T13:32:54Z</time>
      </trkpt>
      <trkpt lat="44.42643" lon="6.22759">
        <ele>1183.52</ele>
        <time>2011-11-22T13:32:57Z</time>
      </trkpt>
      <trkpt lat="44.42638" lon="6.22752">
        <ele>1182.08</ele>
        <time>2011-11-22T13:32:59Z</time>
      </trkpt>
      <trkpt lat="44.42626" lon="6.2274">
        <ele>1178.71</ele>
        <time>2011-11-22T13:33:03Z</time>
      </trkpt>
      <trkpt lat="44.42613" lon="6.22731">
        <ele>1177.27</ele>
        <time>2011-11-22T13:33:07Z</time>
      </trkpt>
      <trkpt lat="44.42607" lon="6.22724">
        <ele>1175.83</ele>
        <time>2011-11-22T13:33:09Z</time>
      </trkpt>
      <trkpt lat="44.42603" lon="6.22713">
        <ele>1173.91</ele>
        <time>2011-11-22T13:33:11Z</time>
      </trkpt>
      <trkpt lat="44.42601" lon="6.22708">
        <ele>1172.95</ele>
        <time>2011-11-22T13:33:12Z</time>
      </trkpt>
      <trkpt lat="44.42599" lon="6.22704">
        <ele>1172.95</ele>
        <time>2011-11-22T13:33:13Z</time>
      </trkpt>
      <trkpt lat="44.42597" lon="6.22701">
        <ele>1172.47</ele>
        <time>2011-11-22T13:33:14Z</time>
      </trkpt>
      <trkpt lat="44.42594" lon="6.22698">
        <ele>1171.98</ele>
        <time>2011-11-22T13:33:15Z</time>
      </trkpt>
      <trkpt lat="44.42591" lon="6.22695">
        <ele>1171.02</ele>
        <time>2011-11-22T13:33:16Z</time>
      </trkpt>
      <trkpt lat="44.42588" lon="6.22691">
        <ele>1169.58</ele>
        <time>2011-11-22T13:33:17Z</time>
      </trkpt>
      <trkpt lat="44.42583" lon="6.22681">
        <ele>1168.62</ele>
        <time>2011-11-22T13:33:19Z</time>
      </trkpt>
      <trkpt lat="44.42581" lon="6.22676">
        <ele>1167.66</ele>
        <time>2011-11-22T13:33:20Z</time>
      </trkpt>
      <trkpt lat="44.4258" lon="6.22669">
        <ele>1167.18</ele>
        <time>2011-11-22T13:33:21Z</time>
      </trkpt>
      <trkpt lat="44.42579" lon="6.22663">
        <ele>1166.22</ele>
        <time>2011-11-22T13:33:22Z</time>
      </trkpt>
      <trkpt lat="44.4258" lon="6.22656">
        <ele>1165.74</ele>
        <time>2011-11-22T13:33:23Z</time>
      </trkpt>
      <trkpt lat="44.4258" lon="6.2265">
        <ele>1164.77</ele>
        <time>2011-11-22T13:33:24Z</time>
      </trkpt>
      <trkpt lat="44.42581" lon="6.22644">
        <ele>1164.77</ele>
        <time>2011-11-22T13:33:25Z</time>
      </trkpt>
      <trkpt lat="44.42581" lon="6.22637">
        <ele>1163.81</ele>
        <time>2011-11-22T13:33:26Z</time>
      </trkpt>
      <trkpt lat="44.4258" lon="6.22631">
        <ele>1163.33</ele>
        <time>2011-11-22T13:33:27Z</time>
      </trkpt>
      <trkpt lat="44.42578" lon="6.22626">
        <ele>1162.37</ele>
        <time>2011-11-22T13:33:28Z</time>
      </trkpt>
      <trkpt lat="44.42575" lon="6.22621">
        <ele>1161.41</ele>
        <time>2011-11-22T13:33:29Z</time>
      </trkpt>
      <trkpt lat="44.42572" lon="6.22617">
        <ele>1159.97</ele>
        <time>2011-11-22T13:33:30Z</time>
      </trkpt>
      <trkpt lat="44.42569" lon="6.22613">
        <ele>1159.97</ele>
        <time>2011-11-22T13:33:31Z</time>
      </trkpt>
      <trkpt lat="44.42554" lon="6.22592">
        <ele>1157.08</ele>
        <time>2011-11-22T13:33:36Z</time>
      </trkpt>
      <trkpt lat="44.42551" lon="6.22587">
        <ele>1157.08</ele>
        <time>2011-11-22T13:33:37Z</time>
      </trkpt>
      <trkpt lat="44.42549" lon="6.22581">
        <ele>1155.16</ele>
        <time>2011-11-22T13:33:38Z</time>
      </trkpt>
      <trkpt lat="44.42548" lon="6.22576">
        <ele>1154.68</ele>
        <time>2011-11-22T13:33:39Z</time>
      </trkpt>
      <trkpt lat="44.42546" lon="6.2257">
        <ele>1153.24</ele>
        <time>2011-11-22T13:33:40Z</time>
      </trkpt>
      <trkpt lat="44.42545" lon="6.22564">
        <ele>1153.72</ele>
        <time>2011-11-22T13:33:41Z</time>
      </trkpt>
      <trkpt lat="44.42543" lon="6.22559">
        <ele>1154.2</ele>
        <time>2011-11-22T13:33:42Z</time>
      </trkpt>
      <trkpt lat="44.42541" lon="6.22555">
        <ele>1152.76</ele>
        <time>2011-11-22T13:33:43Z</time>
      </trkpt>
      <trkpt lat="44.42538" lon="6.2255">
        <ele>1151.32</ele>
        <time>2011-11-22T13:33:44Z</time>
      </trkpt>
      <trkpt lat="44.42535" lon="6.22545">
        <ele>1150.84</ele>
        <time>2011-11-22T13:33:45Z</time>
      </trkpt>
      <trkpt lat="44.42528" lon="6.22536">
        <ele>1150.35</ele>
        <time>2011-11-22T13:33:47Z</time>
      </trkpt>
      <trkpt lat="44.42522" lon="6.22526">
        <ele>1148.91</ele>
        <time>2011-11-22T13:33:49Z</time>
      </trkpt>
      <trkpt lat="44.42513" lon="6.22511">
        <ele>1146.99</ele>
        <time>2011-11-22T13:33:52Z</time>
      </trkpt>
      <trkpt lat="44.42511" lon="6.22506">
        <ele>1146.03</ele>
        <time>2011-11-22T13:33:53Z</time>
      </trkpt>
      <trkpt lat="44.42508" lon="6.22501">
        <ele>1144.59</ele>
        <time>2011-11-22T13:33:54Z</time>
      </trkpt>
      <trkpt lat="44.42505" lon="6.22496">
        <ele>1144.11</ele>
        <time>2011-11-22T13:33:55Z</time>
      </trkpt>
      <trkpt lat="44.42502" lon="6.22492">
        <ele>1144.11</ele>
        <time>2011-11-22T13:33:56Z</time>
      </trkpt>
      <trkpt lat="44.425" lon="6.22487">
        <ele>1142.66</ele>
        <time>2011-11-22T13:33:57Z</time>
      </trkpt>
      <trkpt lat="44.42498" lon="6.22481">
        <ele>1143.63</ele>
        <time>2011-11-22T13:33:58Z</time>
      </trkpt>
      <trkpt lat="44.42496" lon="6.22476">
        <ele>1142.18</ele>
        <time>2011-11-22T13:33:59Z</time>
      </trkpt>
      <trkpt lat="44.42494" lon="6.2247">
        <ele>1140.74</ele>
        <time>2011-11-22T13:34:00Z</time>
      </trkpt>
      <trkpt lat="44.42493" lon="6.22465">
        <ele>1140.26</ele>
        <time>2011-11-22T13:34:01Z</time>
      </trkpt>
      <trkpt lat="44.42493" lon="6.22459">
        <ele>1139.78</ele>
        <time>2011-11-22T13:34:02Z</time>
      </trkpt>
      <trkpt lat="44.42494" lon="6.22453">
        <ele>1138.34</ele>
        <time>2011-11-22T13:34:03Z</time>
      </trkpt>
      <trkpt lat="44.42495" lon="6.22447">
        <ele>1137.86</ele>
        <time>2011-11-22T13:34:04Z</time>
      </trkpt>
      <trkpt lat="44.42492" lon="6.22431">
        <ele>1135.94</ele>
        <time>2011-11-22T13:34:07Z</time>
      </trkpt>
      <trkpt lat="44.4249" lon="6.22426">
        <ele>1135.94</ele>
        <time>2011-11-22T13:34:08Z</time>
      </trkpt>
      <trkpt lat="44.4249" lon="6.2242">
        <ele>1134.97</ele>
        <time>2011-11-22T13:34:09Z</time>
      </trkpt>
      <trkpt lat="44.4249" lon="6.22414">
        <ele>1133.53</ele>
        <time>2011-11-22T13:34:10Z</time>
      </trkpt>
      <trkpt lat="44.42491" lon="6.22408">
        <ele>1132.09</ele>
        <time>2011-11-22T13:34:11Z</time>
      </trkpt>
      <trkpt lat="44.42492" lon="6.22403">
        <ele>1132.57</ele>
        <time>2011-11-22T13:34:12Z</time>
      </trkpt>
      <trkpt lat="44.42492" lon="6.22398">
        <ele>1131.61</ele>
        <time>2011-11-22T13:34:13Z</time>
      </trkpt>
      <trkpt lat="44.42493" lon="6.22392">
        <ele>1131.13</ele>
        <time>2011-11-22T13:34:14Z</time>
      </trkpt>
      <trkpt lat="44.42493" lon="6.22386">
        <ele>1130.65</ele>
        <time>2011-11-22T13:34:15Z</time>
      </trkpt>
      <trkpt lat="44.42493" lon="6.22379">
        <ele>1129.21</ele>
        <time>2011-11-22T13:34:16Z</time>
      </trkpt>
      <trkpt lat="44.42493" lon="6.22373">
        <ele>1128.73</ele>
        <time>2011-11-22T13:34:17Z</time>
      </trkpt>
      <trkpt lat="44.42494" lon="6.22353">
        <ele>1126.32</ele>
        <time>2011-11-22T13:34:20Z</time>
      </trkpt>
      <trkpt lat="44.42498" lon="6.22326">
        <ele>1123.92</ele>
        <time>2011-11-22T13:34:24Z</time>
      </trkpt>
      <trkpt lat="44.42499" lon="6.22319">
        <ele>1122.96</ele>
        <time>2011-11-22T13:34:25Z</time>
      </trkpt>
      <trkpt lat="44.42498" lon="6.22313">
        <ele>1122.48</ele>
        <time>2011-11-22T13:34:26Z</time>
      </trkpt>
      <trkpt lat="44.42498" lon="6.22308">
        <ele>1121.03</ele>
        <time>2011-11-22T13:34:27Z</time>
      </trkpt>
      <trkpt lat="44.42497" lon="6.22303">
        <ele>1120.07</ele>
        <time>2011-11-22T13:34:28Z</time>
      </trkpt>
      <trkpt lat="44.42496" lon="6.22301">
        <ele>1119.59</ele>
        <time>2011-11-22T13:34:29Z</time>
      </trkpt>
      <trkpt lat="44.42496" lon="6.223">
        <ele>1119.59</ele>
        <time>2011-11-22T13:34:39Z</time>
      </trkpt>
      <trkpt lat="44.42496" lon="6.22299">
        <ele>1119.59</ele>
        <time>2011-11-22T13:35:00Z</time>
      </trkpt>
      <trkpt lat="44.42496" lon="6.22299">
        <ele>1118.15</ele>
        <time>2011-11-22T13:35:19Z</time>
      </trkpt>
      <trkpt lat="44.42496" lon="6.22297">
        <ele>1119.11</ele>
        <time>2011-11-22T13:35:30Z</time>
      </trkpt>
      <trkpt lat="44.42496" lon="6.22293">
        <ele>1118.63</ele>
        <time>2011-11-22T13:35:44Z</time>
      </trkpt>
      <trkpt lat="44.42486" lon="6.22274">
        <ele>1115.75</ele>
        <time>2011-11-22T13:35:51Z</time>
      </trkpt>
      <trkpt lat="44.42483" lon="6.22269">
        <ele>1115.27</ele>
        <time>2011-11-22T13:35:52Z</time>
      </trkpt>
      <trkpt lat="44.42481" lon="6.22265">
        <ele>1114.79</ele>
        <time>2011-11-22T13:35:53Z</time>
      </trkpt>
      <trkpt lat="44.42476" lon="6.22258">
        <ele>1113.82</ele>
        <time>2011-11-22T13:35:55Z</time>
      </trkpt>
      <trkpt lat="44.42472" lon="6.22254">
        <ele>1113.34</ele>
        <time>2011-11-22T13:35:56Z</time>
      </trkpt>
      <trkpt lat="44.42458" lon="6.22242">
        <ele>1110.46</ele>
        <time>2011-11-22T13:36:00Z</time>
      </trkpt>
      <trkpt lat="44.42437" lon="6.22232">
        <ele>1106.61</ele>
        <time>2011-11-22T13:36:05Z</time>
      </trkpt>
      <trkpt lat="44.42433" lon="6.22229">
        <ele>1106.13</ele>
        <time>2011-11-22T13:36:06Z</time>
      </trkpt>
      <trkpt lat="44.42432" lon="6.22223">
        <ele>1106.13</ele>
        <time>2011-11-22T13:36:07Z</time>
      </trkpt>
      <trkpt lat="44.42433" lon="6.22218">
        <ele>1104.69</ele>
        <time>2011-11-22T13:36:08Z</time>
      </trkpt>
      <trkpt lat="44.42444" lon="6.22192">
        <ele>1101.81</ele>
        <time>2011-11-22T13:36:13Z</time>
      </trkpt>
      <trkpt lat="44.42454" lon="6.22171">
        <ele>1097.48</ele>
        <time>2011-11-22T13:36:18Z</time>
      </trkpt>
      <trkpt lat="44.4246" lon="6.22164">
        <ele>1096.04</ele>
        <time>2011-11-22T13:36:21Z</time>
      </trkpt>
      <trkpt lat="44.42463" lon="6.22163">
        <ele>1095.56</ele>
        <time>2011-11-22T13:36:22Z</time>
      </trkpt>
      <trkpt lat="44.42466" lon="6.22161">
        <ele>1095.08</ele>
        <time>2011-11-22T13:36:23Z</time>
      </trkpt>
      <trkpt lat="44.4247" lon="6.22158">
        <ele>1094.6</ele>
        <time>2011-11-22T13:36:24Z</time>
      </trkpt>
      <trkpt lat="44.42473" lon="6.22154">
        <ele>1094.12</ele>
        <time>2011-11-22T13:36:25Z</time>
      </trkpt>
      <trkpt lat="44.42475" lon="6.22149">
        <ele>1093.16</ele>
        <time>2011-11-22T13:36:26Z</time>
      </trkpt>
      <trkpt lat="44.42477" lon="6.22144">
        <ele>1091.71</ele>
        <time>2011-11-22T13:36:27Z</time>
      </trkpt>
      <trkpt lat="44.42479" lon="6.22139">
        <ele>1092.2</ele>
        <time>2011-11-22T13:36:28Z</time>
      </trkpt>
      <trkpt lat="44.4248" lon="6.22134">
        <ele>1091.71</ele>
        <time>2011-11-22T13:36:29Z</time>
      </trkpt>
      <trkpt lat="44.42482" lon="6.22128">
        <ele>1090.75</ele>
        <time>2011-11-22T13:36:30Z</time>
      </trkpt>
      <trkpt lat="44.42485" lon="6.22122">
        <ele>1089.79</ele>
        <time>2011-11-22T13:36:31Z</time>
      </trkpt>
      <trkpt lat="44.42492" lon="6.22112">
        <ele>1088.83</ele>
        <time>2011-11-22T13:36:33Z</time>
      </trkpt>
      <trkpt lat="44.42502" lon="6.22097">
        <ele>1086.43</ele>
        <time>2011-11-22T13:36:36Z</time>
      </trkpt>
      <trkpt lat="44.42512" lon="6.22077">
        <ele>1083.54</ele>
        <time>2011-11-22T13:36:40Z</time>
      </trkpt>
      <trkpt lat="44.42515" lon="6.22073">
        <ele>1083.54</ele>
        <time>2011-11-22T13:36:41Z</time>
      </trkpt>
      <trkpt lat="44.42523" lon="6.22064">
        <ele>1081.14</ele>
        <time>2011-11-22T13:36:43Z</time>
      </trkpt>
      <trkpt lat="44.42532" lon="6.22057">
        <ele>1080.66</ele>
        <time>2011-11-22T13:36:45Z</time>
      </trkpt>
      <trkpt lat="44.42536" lon="6.22054">
        <ele>1078.74</ele>
        <time>2011-11-22T13:36:46Z</time>
      </trkpt>
      <trkpt lat="44.42561" lon="6.22049">
        <ele>1075.37</ele>
        <time>2011-11-22T13:36:51Z</time>
      </trkpt>
      <trkpt lat="44.42575" lon="6.22049">
        <ele>1072.97</ele>
        <time>2011-11-22T13:36:54Z</time>
      </trkpt>
      <trkpt lat="44.42587" lon="6.22048">
        <ele>1071.53</ele>
        <time>2011-11-22T13:36:56Z</time>
      </trkpt>
      <trkpt lat="44.42592" lon="6.22048">
        <ele>1069.12</ele>
        <time>2011-11-22T13:36:57Z</time>
      </trkpt>
      <trkpt lat="44.42597" lon="6.22048">
        <ele>1069.12</ele>
        <time>2011-11-22T13:36:58Z</time>
      </trkpt>
      <trkpt lat="44.4261" lon="6.22043">
        <ele>1067.2</ele>
        <time>2011-11-22T13:37:01Z</time>
      </trkpt>
      <trkpt lat="44.42615" lon="6.22034">
        <ele>1064.8</ele>
        <time>2011-11-22T13:37:03Z</time>
      </trkpt>
      <trkpt lat="44.42616" lon="6.22029">
        <ele>1064.8</ele>
        <time>2011-11-22T13:37:04Z</time>
      </trkpt>
      <trkpt lat="44.42617" lon="6.22024">
        <ele>1062.87</ele>
        <time>2011-11-22T13:37:05Z</time>
      </trkpt>
      <trkpt lat="44.42618" lon="6.22014">
        <ele>1062.39</ele>
        <time>2011-11-22T13:37:07Z</time>
      </trkpt>
      <trkpt lat="44.42618" lon="6.21997">
        <ele>1060.47</ele>
        <time>2011-11-22T13:37:10Z</time>
      </trkpt>
      <trkpt lat="44.4262" lon="6.21979">
        <ele>1059.03</ele>
        <time>2011-11-22T13:37:13Z</time>
      </trkpt>
      <trkpt lat="44.42623" lon="6.21958">
        <ele>1055.67</ele>
        <time>2011-11-22T13:37:17Z</time>
      </trkpt>
      <trkpt lat="44.42628" lon="6.2194">
        <ele>1052.3</ele>
        <time>2011-11-22T13:37:21Z</time>
      </trkpt>
      <trkpt lat="44.42629" lon="6.21935">
        <ele>1052.3</ele>
        <time>2011-11-22T13:37:22Z</time>
      </trkpt>
      <trkpt lat="44.42634" lon="6.219">
        <ele>1048.45</ele>
        <time>2011-11-22T13:37:29Z</time>
      </trkpt>
      <trkpt lat="44.42633" lon="6.21895">
        <ele>1048.45</ele>
        <time>2011-11-22T13:37:30Z</time>
      </trkpt>
      <trkpt lat="44.4263" lon="6.21872">
        <ele>1046.05</ele>
        <time>2011-11-22T13:37:36Z</time>
      </trkpt>
      <trkpt lat="44.42631" lon="6.21869">
        <ele>1045.09</ele>
        <time>2011-11-22T13:37:37Z</time>
      </trkpt>
      <trkpt lat="44.42633" lon="6.21867">
        <ele>1046.05</ele>
        <time>2011-11-22T13:37:38Z</time>
      </trkpt>
      <trkpt lat="44.42635" lon="6.21865">
        <ele>1044.61</ele>
        <time>2011-11-22T13:37:39Z</time>
      </trkpt>
      <trkpt lat="44.42638" lon="6.21865">
        <ele>1043.65</ele>
        <time>2011-11-22T13:37:40Z</time>
      </trkpt>
      <trkpt lat="44.4264" lon="6.21867">
        <ele>1043.17</ele>
        <time>2011-11-22T13:37:41Z</time>
      </trkpt>
      <trkpt lat="44.42641" lon="6.2187">
        <ele>1043.17</ele>
        <time>2011-11-22T13:37:42Z</time>
      </trkpt>
      <trkpt lat="44.42643" lon="6.21874">
        <ele>1043.17</ele>
        <time>2011-11-22T13:37:43Z</time>
      </trkpt>
      <trkpt lat="44.42645" lon="6.21877">
        <ele>1042.69</ele>
        <time>2011-11-22T13:37:44Z</time>
      </trkpt>
      <trkpt lat="44.42647" lon="6.2188">
        <ele>1041.73</ele>
        <time>2011-11-22T13:37:45Z</time>
      </trkpt>
      <trkpt lat="44.42649" lon="6.21883">
        <ele>1041.25</ele>
        <time>2011-11-22T13:37:46Z</time>
      </trkpt>
      <trkpt lat="44.42666" lon="6.21904">
        <ele>1037.4</ele>
        <time>2011-11-22T13:37:52Z</time>
      </trkpt>
      <trkpt lat="44.42684" lon="6.21931">
        <ele>1034.04</ele>
        <time>2011-11-22T13:37:59Z</time>
      </trkpt>
      <trkpt lat="44.42688" lon="6.2195">
        <ele>1032.11</ele>
        <time>2011-11-22T13:38:03Z</time>
      </trkpt>
      <trkpt lat="44.4269" lon="6.21962">
        <ele>1031.15</ele>
        <time>2011-11-22T13:38:05Z</time>
      </trkpt>
      <trkpt lat="44.42691" lon="6.21968">
        <ele>1031.15</ele>
        <time>2011-11-22T13:38:06Z</time>
      </trkpt>
      <trkpt lat="44.42693" lon="6.21974">
        <ele>1029.71</ele>
        <time>2011-11-22T13:38:07Z</time>
      </trkpt>
      <trkpt lat="44.42702" lon="6.21996">
        <ele>1029.23</ele>
        <time>2011-11-22T13:38:11Z</time>
      </trkpt>
      <trkpt lat="44.42713" lon="6.21987">
        <ele>1027.31</ele>
        <time>2011-11-22T13:38:17Z</time>
      </trkpt>
      <trkpt lat="44.42713" lon="6.2197">
        <ele>1025.86</ele>
        <time>2011-11-22T13:38:21Z</time>
      </trkpt>
      <trkpt lat="44.42717" lon="6.21948">
        <ele>1022.5</ele>
        <time>2011-11-22T13:38:26Z</time>
      </trkpt>
      <trkpt lat="44.42718" lon="6.21945">
        <ele>1021.06</ele>
        <time>2011-11-22T13:38:27Z</time>
      </trkpt>
      <trkpt lat="44.42732" lon="6.21938">
        <ele>1017.21</ele>
        <time>2011-11-22T13:38:33Z</time>
      </trkpt>
      <trkpt lat="44.42736" lon="6.2194">
        <ele>1017.21</ele>
        <time>2011-11-22T13:38:34Z</time>
      </trkpt>
      <trkpt lat="44.4275" lon="6.21942">
        <ele>1013.85</ele>
        <time>2011-11-22T13:38:38Z</time>
      </trkpt>
      <trkpt lat="44.42752" lon="6.21942">
        <ele>1013.85</ele>
        <time>2011-11-22T13:38:39Z</time>
      </trkpt>
      <trkpt lat="44.42756" lon="6.21942">
        <ele>1014.33</ele>
        <time>2011-11-22T13:38:40Z</time>
      </trkpt>
      <trkpt lat="44.42761" lon="6.21942">
        <ele>1012.41</ele>
        <time>2011-11-22T13:38:41Z</time>
      </trkpt>
      <trkpt lat="44.42766" lon="6.2194">
        <ele>1011.44</ele>
        <time>2011-11-22T13:38:42Z</time>
      </trkpt>
      <trkpt lat="44.4277" lon="6.21938">
        <ele>1011.44</ele>
        <time>2011-11-22T13:38:43Z</time>
      </trkpt>
      <trkpt lat="44.42774" lon="6.21935">
        <ele>1010.48</ele>
        <time>2011-11-22T13:38:44Z</time>
      </trkpt>
      <trkpt lat="44.42778" lon="6.21931">
        <ele>1010</ele>
        <time>2011-11-22T13:38:45Z</time>
      </trkpt>
      <trkpt lat="44.42792" lon="6.21919">
        <ele>1007.6</ele>
        <time>2011-11-22T13:38:48Z</time>
      </trkpt>
      <trkpt lat="44.42805" lon="6.2191">
        <ele>1004.72</ele>
        <time>2011-11-22T13:38:51Z</time>
      </trkpt>
      <trkpt lat="44.42809" lon="6.21908">
        <ele>1004.72</ele>
        <time>2011-11-22T13:38:52Z</time>
      </trkpt>
      <trkpt lat="44.42826" lon="6.21894">
        <ele>1001.83</ele>
        <time>2011-11-22T13:38:57Z</time>
      </trkpt>
      <trkpt lat="44.42828" lon="6.21891">
        <ele>1000.87</ele>
        <time>2011-11-22T13:38:58Z</time>
      </trkpt>
      <trkpt lat="44.4283" lon="6.21886">
        <ele>1000.39</ele>
        <time>2011-11-22T13:38:59Z</time>
      </trkpt>
      <trkpt lat="44.42831" lon="6.21882">
        <ele>1000.87</ele>
        <time>2011-11-22T13:39:00Z</time>
      </trkpt>
      <trkpt lat="44.42831" lon="6.21876">
        <ele>999.43</ele>
        <time>2011-11-22T13:39:01Z</time>
      </trkpt>
      <trkpt lat="44.42831" lon="6.2187">
        <ele>998.47</ele>
        <time>2011-11-22T13:39:02Z</time>
      </trkpt>
      <trkpt lat="44.42831" lon="6.21863">
        <ele>998.47</ele>
        <time>2011-11-22T13:39:03Z</time>
      </trkpt>
      <trkpt lat="44.4283" lon="6.21851">
        <ele>996.54</ele>
        <time>2011-11-22T13:39:05Z</time>
      </trkpt>
      <trkpt lat="44.42829" lon="6.21845">
        <ele>996.06</ele>
        <time>2011-11-22T13:39:06Z</time>
      </trkpt>
      <trkpt lat="44.42828" lon="6.21839">
        <ele>996.06</ele>
        <time>2011-11-22T13:39:07Z</time>
      </trkpt>
      <trkpt lat="44.42826" lon="6.21833">
        <ele>995.1</ele>
        <time>2011-11-22T13:39:08Z</time>
      </trkpt>
      <trkpt lat="44.42823" lon="6.21827">
        <ele>995.58</ele>
        <time>2011-11-22T13:39:09Z</time>
      </trkpt>
      <trkpt lat="44.4282" lon="6.21822">
        <ele>994.14</ele>
        <time>2011-11-22T13:39:10Z</time>
      </trkpt>
      <trkpt lat="44.42816" lon="6.21816">
        <ele>993.18</ele>
        <time>2011-11-22T13:39:11Z</time>
      </trkpt>
      <trkpt lat="44.42812" lon="6.21812">
        <ele>992.22</ele>
        <time>2011-11-22T13:39:12Z</time>
      </trkpt>
      <trkpt lat="44.42807" lon="6.21807">
        <ele>991.74</ele>
        <time>2011-11-22T13:39:13Z</time>
      </trkpt>
      <trkpt lat="44.42803" lon="6.21802">
        <ele>990.3</ele>
        <time>2011-11-22T13:39:14Z</time>
      </trkpt>
      <trkpt lat="44.42798" lon="6.21798">
        <ele>989.33</ele>
        <time>2011-11-22T13:39:15Z</time>
      </trkpt>
      <trkpt lat="44.42786" lon="6.21783">
        <ele>987.89</ele>
        <time>2011-11-22T13:39:18Z</time>
      </trkpt>
      <trkpt lat="44.42783" lon="6.21777">
        <ele>987.89</ele>
        <time>2011-11-22T13:39:19Z</time>
      </trkpt>
      <trkpt lat="44.42775" lon="6.21762">
        <ele>985.49</ele>
        <time>2011-11-22T13:39:22Z</time>
      </trkpt>
      <trkpt lat="44.42774" lon="6.21757">
        <ele>983.57</ele>
        <time>2011-11-22T13:39:23Z</time>
      </trkpt>
      <trkpt lat="44.42773" lon="6.2175">
        <ele>983.57</ele>
        <time>2011-11-22T13:39:24Z</time>
      </trkpt>
      <trkpt lat="44.42773" lon="6.21744">
        <ele>982.6</ele>
        <time>2011-11-22T13:39:25Z</time>
      </trkpt>
      <trkpt lat="44.42775" lon="6.21739">
        <ele>982.6</ele>
        <time>2011-11-22T13:39:26Z</time>
      </trkpt>
      <trkpt lat="44.42776" lon="6.21734">
        <ele>982.12</ele>
        <time>2011-11-22T13:39:27Z</time>
      </trkpt>
      <trkpt lat="44.42778" lon="6.21728">
        <ele>982.12</ele>
        <time>2011-11-22T13:39:28Z</time>
      </trkpt>
      <trkpt lat="44.42779" lon="6.21722">
        <ele>981.16</ele>
        <time>2011-11-22T13:39:29Z</time>
      </trkpt>
      <trkpt lat="44.42781" lon="6.21716">
        <ele>980.2</ele>
        <time>2011-11-22T13:39:30Z</time>
      </trkpt>
      <trkpt lat="44.42782" lon="6.21709">
        <ele>978.76</ele>
        <time>2011-11-22T13:39:31Z</time>
      </trkpt>
      <trkpt lat="44.42783" lon="6.21703">
        <ele>978.76</ele>
        <time>2011-11-22T13:39:32Z</time>
      </trkpt>
      <trkpt lat="44.42787" lon="6.21685">
        <ele>976.84</ele>
        <time>2011-11-22T13:39:35Z</time>
      </trkpt>
      <trkpt lat="44.42788" lon="6.2168">
        <ele>976.36</ele>
        <time>2011-11-22T13:39:36Z</time>
      </trkpt>
      <trkpt lat="44.4279" lon="6.21673">
        <ele>976.36</ele>
        <time>2011-11-22T13:39:37Z</time>
      </trkpt>
      <trkpt lat="44.4279" lon="6.21665">
        <ele>974.91</ele>
        <time>2011-11-22T13:39:38Z</time>
      </trkpt>
      <trkpt lat="44.4279" lon="6.21657">
        <ele>972.99</ele>
        <time>2011-11-22T13:39:39Z</time>
      </trkpt>
      <trkpt lat="44.42789" lon="6.21649">
        <ele>972.51</ele>
        <time>2011-11-22T13:39:40Z</time>
      </trkpt>
      <trkpt lat="44.42789" lon="6.21643">
        <ele>972.51</ele>
        <time>2011-11-22T13:39:41Z</time>
      </trkpt>
      <trkpt lat="44.42788" lon="6.21638">
        <ele>972.03</ele>
        <time>2011-11-22T13:39:42Z</time>
      </trkpt>
      <trkpt lat="44.42787" lon="6.21632">
        <ele>971.07</ele>
        <time>2011-11-22T13:39:43Z</time>
      </trkpt>
      <trkpt lat="44.42785" lon="6.21626">
        <ele>971.07</ele>
        <time>2011-11-22T13:39:44Z</time>
      </trkpt>
      <trkpt lat="44.42775" lon="6.21603">
        <ele>967.22</ele>
        <time>2011-11-22T13:39:48Z</time>
      </trkpt>
      <trkpt lat="44.42773" lon="6.21599">
        <ele>966.74</ele>
        <time>2011-11-22T13:39:49Z</time>
      </trkpt>
      <trkpt lat="44.42771" lon="6.21595">
        <ele>965.78</ele>
        <time>2011-11-22T13:39:51Z</time>
      </trkpt>
      <trkpt lat="44.4277" lon="6.21594">
        <ele>965.78</ele>
        <time>2011-11-22T13:40:03Z</time>
      </trkpt>
      <trkpt lat="44.4277" lon="6.21594">
        <ele>965.78</ele>
        <time>2011-11-22T13:41:08Z</time>
      </trkpt>
      <trkpt lat="44.42771" lon="6.21594">
        <ele>964.82</ele>
        <time>2011-11-22T13:42:02Z</time>
      </trkpt>
      <trkpt lat="44.42771" lon="6.21594">
        <ele>965.3</ele>
        <time>2011-11-22T13:42:17Z</time>
      </trkpt>
      <trkpt lat="44.4277" lon="6.21594">
        <ele>965.78</ele>
        <time>2011-11-22T13:43:11Z</time>
      </trkpt>
      <trkpt lat="44.42769" lon="6.21593">
        <ele>965.3</ele>
        <time>2011-11-22T13:43:49Z</time>
      </trkpt>
      <trkpt lat="44.42769" lon="6.21593">
        <ele>964.82</ele>
        <time>2011-11-22T13:44:17Z</time>
      </trkpt>
      <trkpt lat="44.4276" lon="6.21579">
        <ele>963.86</ele>
        <time>2011-11-22T13:45:35Z</time>
      </trkpt>
      <trkpt lat="44.42754" lon="6.2157">
        <ele>964.34</ele>
        <time>2011-11-22T13:45:38Z</time>
      </trkpt>
      <trkpt lat="44.42752" lon="6.21567">
        <ele>963.86</ele>
        <time>2011-11-22T13:45:39Z</time>
      </trkpt>
      <trkpt lat="44.42749" lon="6.21563">
        <ele>962.9</ele>
        <time>2011-11-22T13:45:40Z</time>
      </trkpt>
      <trkpt lat="44.42747" lon="6.21559">
        <ele>962.42</ele>
        <time>2011-11-22T13:45:41Z</time>
      </trkpt>
      <trkpt lat="44.42744" lon="6.21556">
        <ele>961.94</ele>
        <time>2011-11-22T13:45:42Z</time>
      </trkpt>
      <trkpt lat="44.42727" lon="6.21524">
        <ele>959.05</ele>
        <time>2011-11-22T13:45:51Z</time>
      </trkpt>
      <trkpt lat="44.42724" lon="6.21515">
        <ele>957.61</ele>
        <time>2011-11-22T13:45:53Z</time>
      </trkpt>
      <trkpt lat="44.4272" lon="6.215">
        <ele>956.17</ele>
        <time>2011-11-22T13:45:56Z</time>
      </trkpt>
      <trkpt lat="44.42715" lon="6.21489">
        <ele>954.73</ele>
        <time>2011-11-22T13:45:58Z</time>
      </trkpt>
      <trkpt lat="44.42713" lon="6.21483">
        <ele>954.73</ele>
        <time>2011-11-22T13:45:59Z</time>
      </trkpt>
      <trkpt lat="44.4271" lon="6.21478">
        <ele>953.28</ele>
        <time>2011-11-22T13:46:00Z</time>
      </trkpt>
      <trkpt lat="44.42707" lon="6.21473">
        <ele>953.77</ele>
        <time>2011-11-22T13:46:01Z</time>
      </trkpt>
      <trkpt lat="44.42703" lon="6.21468">
        <ele>952.8</ele>
        <time>2011-11-22T13:46:02Z</time>
      </trkpt>
      <trkpt lat="44.427" lon="6.21464">
        <ele>952.8</ele>
        <time>2011-11-22T13:46:03Z</time>
      </trkpt>
      <trkpt lat="44.42696" lon="6.21459">
        <ele>952.32</ele>
        <time>2011-11-22T13:46:04Z</time>
      </trkpt>
      <trkpt lat="44.42694" lon="6.21454">
        <ele>951.84</ele>
        <time>2011-11-22T13:46:05Z</time>
      </trkpt>
      <trkpt lat="44.42692" lon="6.21448">
        <ele>951.36</ele>
        <time>2011-11-22T13:46:06Z</time>
      </trkpt>
      <trkpt lat="44.42691" lon="6.21442">
        <ele>951.36</ele>
        <time>2011-11-22T13:46:07Z</time>
      </trkpt>
      <trkpt lat="44.4269" lon="6.21436">
        <ele>950.4</ele>
        <time>2011-11-22T13:46:08Z</time>
      </trkpt>
      <trkpt lat="44.4269" lon="6.2143">
        <ele>950.4</ele>
        <time>2011-11-22T13:46:09Z</time>
      </trkpt>
      <trkpt lat="44.42691" lon="6.21424">
        <ele>949.92</ele>
        <time>2011-11-22T13:46:10Z</time>
      </trkpt>
      <trkpt lat="44.42691" lon="6.21418">
        <ele>949.92</ele>
        <time>2011-11-22T13:46:11Z</time>
      </trkpt>
      <trkpt lat="44.42694" lon="6.21401">
        <ele>948.48</ele>
        <time>2011-11-22T13:46:14Z</time>
      </trkpt>
      <trkpt lat="44.42697" lon="6.21384">
        <ele>945.59</ele>
        <time>2011-11-22T13:46:17Z</time>
      </trkpt>
      <trkpt lat="44.42698" lon="6.21355">
        <ele>943.67</ele>
        <time>2011-11-22T13:46:22Z</time>
      </trkpt>
      <trkpt lat="44.42697" lon="6.21348">
        <ele>943.19</ele>
        <time>2011-11-22T13:46:23Z</time>
      </trkpt>
      <trkpt lat="44.4269" lon="6.21321">
        <ele>940.79</ele>
        <time>2011-11-22T13:46:28Z</time>
      </trkpt>
      <trkpt lat="44.42689" lon="6.21309">
        <ele>939.83</ele>
        <time>2011-11-22T13:46:30Z</time>
      </trkpt>
      <trkpt lat="44.42688" lon="6.21303">
        <ele>938.86</ele>
        <time>2011-11-22T13:46:31Z</time>
      </trkpt>
      <trkpt lat="44.42688" lon="6.21291">
        <ele>938.38</ele>
        <time>2011-11-22T13:46:33Z</time>
      </trkpt>
      <trkpt lat="44.42687" lon="6.2128">
        <ele>937.42</ele>
        <time>2011-11-22T13:46:35Z</time>
      </trkpt>
      <trkpt lat="44.42686" lon="6.21274">
        <ele>936.94</ele>
        <time>2011-11-22T13:46:36Z</time>
      </trkpt>
      <trkpt lat="44.4268" lon="6.21263">
        <ele>935.98</ele>
        <time>2011-11-22T13:46:38Z</time>
      </trkpt>
      <trkpt lat="44.42676" lon="6.21252">
        <ele>934.54</ele>
        <time>2011-11-22T13:46:40Z</time>
      </trkpt>
      <trkpt lat="44.42674" lon="6.21247">
        <ele>934.54</ele>
        <time>2011-11-22T13:46:41Z</time>
      </trkpt>
      <trkpt lat="44.42672" lon="6.21241">
        <ele>934.06</ele>
        <time>2011-11-22T13:46:42Z</time>
      </trkpt>
      <trkpt lat="44.4267" lon="6.21236">
        <ele>933.58</ele>
        <time>2011-11-22T13:46:43Z</time>
      </trkpt>
      <trkpt lat="44.42668" lon="6.2123">
        <ele>933.1</ele>
        <time>2011-11-22T13:46:44Z</time>
      </trkpt>
      <trkpt lat="44.42662" lon="6.21219">
        <ele>932.62</ele>
        <time>2011-11-22T13:46:46Z</time>
      </trkpt>
      <trkpt lat="44.42659" lon="6.21213">
        <ele>931.65</ele>
        <time>2011-11-22T13:46:47Z</time>
      </trkpt>
      <trkpt lat="44.42651" lon="6.21204">
        <ele>930.21</ele>
        <time>2011-11-22T13:46:49Z</time>
      </trkpt>
      <trkpt lat="44.4263" lon="6.21177">
        <ele>926.85</ele>
        <time>2011-11-22T13:46:55Z</time>
      </trkpt>
      <trkpt lat="44.42622" lon="6.2117">
        <ele>925.89</ele>
        <time>2011-11-22T13:46:57Z</time>
      </trkpt>
      <trkpt lat="44.42619" lon="6.21167">
        <ele>925.41</ele>
        <time>2011-11-22T13:46:58Z</time>
      </trkpt>
      <trkpt lat="44.42615" lon="6.21164">
        <ele>924.45</ele>
        <time>2011-11-22T13:46:59Z</time>
      </trkpt>
      <trkpt lat="44.42611" lon="6.21163">
        <ele>923.96</ele>
        <time>2011-11-22T13:47:00Z</time>
      </trkpt>
      <trkpt lat="44.42607" lon="6.21161">
        <ele>923.96</ele>
        <time>2011-11-22T13:47:01Z</time>
      </trkpt>
      <trkpt lat="44.42595" lon="6.21148">
        <ele>922.04</ele>
        <time>2011-11-22T13:47:05Z</time>
      </trkpt>
      <trkpt lat="44.42593" lon="6.21142">
        <ele>921.56</ele>
        <time>2011-11-22T13:47:06Z</time>
      </trkpt>
      <trkpt lat="44.42592" lon="6.21136">
        <ele>920.12</ele>
        <time>2011-11-22T13:47:07Z</time>
      </trkpt>
      <trkpt lat="44.42592" lon="6.2113">
        <ele>920.12</ele>
        <time>2011-11-22T13:47:08Z</time>
      </trkpt>
      <trkpt lat="44.42592" lon="6.21124">
        <ele>920.6</ele>
        <time>2011-11-22T13:47:09Z</time>
      </trkpt>
      <trkpt lat="44.42594" lon="6.21118">
        <ele>919.64</ele>
        <time>2011-11-22T13:47:10Z</time>
      </trkpt>
      <trkpt lat="44.42595" lon="6.21112">
        <ele>920.12</ele>
        <time>2011-11-22T13:47:11Z</time>
      </trkpt>
      <trkpt lat="44.42597" lon="6.21105">
        <ele>919.16</ele>
        <time>2011-11-22T13:47:12Z</time>
      </trkpt>
      <trkpt lat="44.42597" lon="6.21098">
        <ele>918.68</ele>
        <time>2011-11-22T13:47:13Z</time>
      </trkpt>
      <trkpt lat="44.42598" lon="6.21091">
        <ele>918.2</ele>
        <time>2011-11-22T13:47:14Z</time>
      </trkpt>
      <trkpt lat="44.42598" lon="6.21084">
        <ele>918.2</ele>
        <time>2011-11-22T13:47:15Z</time>
      </trkpt>
      <trkpt lat="44.42599" lon="6.21068">
        <ele>916.75</ele>
        <time>2011-11-22T13:47:17Z</time>
      </trkpt>
      <trkpt lat="44.42598" lon="6.21061">
        <ele>916.75</ele>
        <time>2011-11-22T13:47:18Z</time>
      </trkpt>
      <trkpt lat="44.42599" lon="6.21038">
        <ele>915.79</ele>
        <time>2011-11-22T13:47:21Z</time>
      </trkpt>
      <trkpt lat="44.426" lon="6.21032">
        <ele>915.31</ele>
        <time>2011-11-22T13:47:22Z</time>
      </trkpt>
      <trkpt lat="44.42602" lon="6.21026">
        <ele>914.83</ele>
        <time>2011-11-22T13:47:23Z</time>
      </trkpt>
      <trkpt lat="44.42605" lon="6.21022">
        <ele>914.83</ele>
        <time>2011-11-22T13:47:24Z</time>
      </trkpt>
      <trkpt lat="44.42609" lon="6.21018">
        <ele>914.83</ele>
        <time>2011-11-22T13:47:25Z</time>
      </trkpt>
      <trkpt lat="44.42614" lon="6.21016">
        <ele>913.87</ele>
        <time>2011-11-22T13:47:26Z</time>
      </trkpt>
      <trkpt lat="44.42619" lon="6.21016">
        <ele>913.87</ele>
        <time>2011-11-22T13:47:27Z</time>
      </trkpt>
      <trkpt lat="44.42623" lon="6.21018">
        <ele>912.91</ele>
        <time>2011-11-22T13:47:28Z</time>
      </trkpt>
      <trkpt lat="44.42627" lon="6.2102">
        <ele>913.39</ele>
        <time>2011-11-22T13:47:29Z</time>
      </trkpt>
      <trkpt lat="44.4263" lon="6.21021">
        <ele>912.43</ele>
        <time>2011-11-22T13:47:30Z</time>
      </trkpt>
      <trkpt lat="44.42635" lon="6.21019">
        <ele>912.43</ele>
        <time>2011-11-22T13:47:31Z</time>
      </trkpt>
      <trkpt lat="44.42639" lon="6.21017">
        <ele>911.47</ele>
        <time>2011-11-22T13:47:32Z</time>
      </trkpt>
      <trkpt lat="44.42643" lon="6.21015">
        <ele>910.99</ele>
        <time>2011-11-22T13:47:33Z</time>
      </trkpt>
      <trkpt lat="44.42655" lon="6.21006">
        <ele>909.54</ele>
        <time>2011-11-22T13:47:36Z</time>
      </trkpt>
      <trkpt lat="44.42672" lon="6.20994">
        <ele>908.1</ele>
        <time>2011-11-22T13:47:40Z</time>
      </trkpt>
      <trkpt lat="44.42682" lon="6.20984">
        <ele>907.14</ele>
        <time>2011-11-22T13:47:42Z</time>
      </trkpt>
      <trkpt lat="44.42701" lon="6.20963">
        <ele>905.7</ele>
        <time>2011-11-22T13:47:46Z</time>
      </trkpt>
      <trkpt lat="44.42745" lon="6.20906">
        <ele>902.82</ele>
        <time>2011-11-22T13:47:55Z</time>
      </trkpt>
      <trkpt lat="44.42758" lon="6.20886">
        <ele>901.85</ele>
        <time>2011-11-22T13:47:58Z</time>
      </trkpt>
      <trkpt lat="44.42761" lon="6.20879">
        <ele>901.37</ele>
        <time>2011-11-22T13:47:59Z</time>
      </trkpt>
      <trkpt lat="44.42764" lon="6.20871">
        <ele>900.89</ele>
        <time>2011-11-22T13:48:00Z</time>
      </trkpt>
      <trkpt lat="44.42769" lon="6.20855">
        <ele>899.93</ele>
        <time>2011-11-22T13:48:02Z</time>
      </trkpt>
      <trkpt lat="44.42771" lon="6.20846">
        <ele>898.97</ele>
        <time>2011-11-22T13:48:03Z</time>
      </trkpt>
      <trkpt lat="44.42772" lon="6.20836">
        <ele>898.49</ele>
        <time>2011-11-22T13:48:04Z</time>
      </trkpt>
      <trkpt lat="44.42772" lon="6.20826">
        <ele>897.05</ele>
        <time>2011-11-22T13:48:05Z</time>
      </trkpt>
      <trkpt lat="44.42772" lon="6.20815">
        <ele>896.57</ele>
        <time>2011-11-22T13:48:06Z</time>
      </trkpt>
      <trkpt lat="44.42771" lon="6.20795">
        <ele>896.09</ele>
        <time>2011-11-22T13:48:08Z</time>
      </trkpt>
      <trkpt lat="44.42768" lon="6.20785">
        <ele>895.12</ele>
        <time>2011-11-22T13:48:09Z</time>
      </trkpt>
      <trkpt lat="44.42765" lon="6.20774">
        <ele>893.68</ele>
        <time>2011-11-22T13:48:10Z</time>
      </trkpt>
      <trkpt lat="44.42762" lon="6.20763">
        <ele>894.16</ele>
        <time>2011-11-22T13:48:11Z</time>
      </trkpt>
      <trkpt lat="44.4275" lon="6.20724">
        <ele>891.28</ele>
        <time>2011-11-22T13:48:15Z</time>
      </trkpt>
      <trkpt lat="44.42749" lon="6.20715">
        <ele>891.76</ele>
        <time>2011-11-22T13:48:16Z</time>
      </trkpt>
      <trkpt lat="44.42748" lon="6.20705">
        <ele>891.28</ele>
        <time>2011-11-22T13:48:17Z</time>
      </trkpt>
      <trkpt lat="44.42748" lon="6.20696">
        <ele>892.24</ele>
        <time>2011-11-22T13:48:18Z</time>
      </trkpt>
      <trkpt lat="44.42749" lon="6.20687">
        <ele>891.76</ele>
        <time>2011-11-22T13:48:19Z</time>
      </trkpt>
      <trkpt lat="44.42749" lon="6.20678">
        <ele>891.76</ele>
        <time>2011-11-22T13:48:20Z</time>
      </trkpt>
      <trkpt lat="44.42751" lon="6.2067">
        <ele>891.28</ele>
        <time>2011-11-22T13:48:21Z</time>
      </trkpt>
      <trkpt lat="44.42754" lon="6.20644">
        <ele>890.8</ele>
        <time>2011-11-22T13:48:24Z</time>
      </trkpt>
      <trkpt lat="44.42753" lon="6.20636">
        <ele>890.8</ele>
        <time>2011-11-22T13:48:25Z</time>
      </trkpt>
      <trkpt lat="44.42752" lon="6.20628">
        <ele>890.32</ele>
        <time>2011-11-22T13:48:26Z</time>
      </trkpt>
      <trkpt lat="44.42744" lon="6.20594">
        <ele>889.84</ele>
        <time>2011-11-22T13:48:31Z</time>
      </trkpt>
      <trkpt lat="44.42743" lon="6.20589">
        <ele>889.84</ele>
        <time>2011-11-22T13:48:32Z</time>
      </trkpt>
      <trkpt lat="44.42735" lon="6.20542">
        <ele>890.8</ele>
        <time>2011-11-22T13:48:44Z</time>
      </trkpt>
      <trkpt lat="44.42728" lon="6.20505">
        <ele>891.28</ele>
        <time>2011-11-22T13:48:55Z</time>
      </trkpt>
      <trkpt lat="44.42727" lon="6.20502">
        <ele>891.76</ele>
        <time>2011-11-22T13:48:56Z</time>
      </trkpt>
      <trkpt lat="44.42726" lon="6.20499">
        <ele>892.24</ele>
        <time>2011-11-22T13:48:57Z</time>
      </trkpt>
      <trkpt lat="44.42729" lon="6.20468">
        <ele>893.68</ele>
        <time>2011-11-22T13:49:10Z</time>
      </trkpt>
      <trkpt lat="44.42744" lon="6.20447">
        <ele>892.72</ele>
        <time>2011-11-22T13:49:17Z</time>
      </trkpt>
      <trkpt lat="44.42748" lon="6.20442">
        <ele>891.76</ele>
        <time>2011-11-22T13:49:18Z</time>
      </trkpt>
      <trkpt lat="44.42752" lon="6.20437">
        <ele>891.28</ele>
        <time>2011-11-22T13:49:19Z</time>
      </trkpt>
      <trkpt lat="44.42798" lon="6.20375">
        <ele>889.36</ele>
        <time>2011-11-22T13:49:30Z</time>
      </trkpt>
      <trkpt lat="44.42801" lon="6.2037">
        <ele>889.84</ele>
        <time>2011-11-22T13:49:31Z</time>
      </trkpt>
      <trkpt lat="44.42829" lon="6.20331">
        <ele>890.32</ele>
        <time>2011-11-22T13:49:43Z</time>
      </trkpt>
      <trkpt lat="44.42849" lon="6.20314">
        <ele>889.36</ele>
        <time>2011-11-22T13:49:52Z</time>
      </trkpt>
      <trkpt lat="44.42875" lon="6.20274">
        <ele>888.4</ele>
        <time>2011-11-22T13:50:02Z</time>
      </trkpt>
      <trkpt lat="44.42877" lon="6.20266">
        <ele>887.91</ele>
        <time>2011-11-22T13:50:03Z</time>
      </trkpt>
      <trkpt lat="44.42879" lon="6.20258">
        <ele>887.43</ele>
        <time>2011-11-22T13:50:04Z</time>
      </trkpt>
      <trkpt lat="44.42904" lon="6.20174">
        <ele>884.55</ele>
        <time>2011-11-22T13:50:14Z</time>
      </trkpt>
      <trkpt lat="44.42905" lon="6.20165">
        <ele>884.55</ele>
        <time>2011-11-22T13:50:15Z</time>
      </trkpt>
      <trkpt lat="44.42903" lon="6.20145">
        <ele>883.11</ele>
        <time>2011-11-22T13:50:22Z</time>
      </trkpt>
      <trkpt lat="44.429" lon="6.20128">
        <ele>883.11</ele>
        <time>2011-11-22T13:50:36Z</time>
      </trkpt>
      <trkpt lat="44.42891" lon="6.20093">
        <ele>880.71</ele>
        <time>2011-11-22T13:50:43Z</time>
      </trkpt>
      <trkpt lat="44.4288" lon="6.20029">
        <ele>877.82</ele>
        <time>2011-11-22T13:50:51Z</time>
      </trkpt>
      <trkpt lat="44.42877" lon="6.19968">
        <ele>876.38</ele>
        <time>2011-11-22T13:50:58Z</time>
      </trkpt>
      <trkpt lat="44.42876" lon="6.19959">
        <ele>875.9</ele>
        <time>2011-11-22T13:50:59Z</time>
      </trkpt>
      <trkpt lat="44.42873" lon="6.19951">
        <ele>874.94</ele>
        <time>2011-11-22T13:51:00Z</time>
      </trkpt>
      <trkpt lat="44.42871" lon="6.19942">
        <ele>875.42</ele>
        <time>2011-11-22T13:51:01Z</time>
      </trkpt>
      <trkpt lat="44.42867" lon="6.19935">
        <ele>875.42</ele>
        <time>2011-11-22T13:51:02Z</time>
      </trkpt>
      <trkpt lat="44.42863" lon="6.19928">
        <ele>874.94</ele>
        <time>2011-11-22T13:51:03Z</time>
      </trkpt>
      <trkpt lat="44.42859" lon="6.19921">
        <ele>873.98</ele>
        <time>2011-11-22T13:51:04Z</time>
      </trkpt>
      <trkpt lat="44.42854" lon="6.19914">
        <ele>873.5</ele>
        <time>2011-11-22T13:51:05Z</time>
      </trkpt>
      <trkpt lat="44.42849" lon="6.19909">
        <ele>873.98</ele>
        <time>2011-11-22T13:51:06Z</time>
      </trkpt>
      <trkpt lat="44.42843" lon="6.19906">
        <ele>872.05</ele>
        <time>2011-11-22T13:51:07Z</time>
      </trkpt>
      <trkpt lat="44.42837" lon="6.19902">
        <ele>872.53</ele>
        <time>2011-11-22T13:51:08Z</time>
      </trkpt>
      <trkpt lat="44.42823" lon="6.19898">
        <ele>871.09</ele>
        <time>2011-11-22T13:51:10Z</time>
      </trkpt>
      <trkpt lat="44.42816" lon="6.19897">
        <ele>872.05</ele>
        <time>2011-11-22T13:51:11Z</time>
      </trkpt>
      <trkpt lat="44.4275" lon="6.19893">
        <ele>869.17</ele>
        <time>2011-11-22T13:51:20Z</time>
      </trkpt>
      <trkpt lat="44.42744" lon="6.19891">
        <ele>868.21</ele>
        <time>2011-11-22T13:51:21Z</time>
      </trkpt>
      <trkpt lat="44.42739" lon="6.19888">
        <ele>868.21</ele>
        <time>2011-11-22T13:51:22Z</time>
      </trkpt>
      <trkpt lat="44.42734" lon="6.19884">
        <ele>868.69</ele>
        <time>2011-11-22T13:51:23Z</time>
      </trkpt>
      <trkpt lat="44.42729" lon="6.19879">
        <ele>868.69</ele>
        <time>2011-11-22T13:51:24Z</time>
      </trkpt>
      <trkpt lat="44.42725" lon="6.19875">
        <ele>868.21</ele>
        <time>2011-11-22T13:51:25Z</time>
      </trkpt>
      <trkpt lat="44.42715" lon="6.19868">
        <ele>867.73</ele>
        <time>2011-11-22T13:51:27Z</time>
      </trkpt>
      <trkpt lat="44.42686" lon="6.19853">
        <ele>866.77</ele>
        <time>2011-11-22T13:51:35Z</time>
      </trkpt>
      <trkpt lat="44.42694" lon="6.19846">
        <ele>865.8</ele>
        <time>2011-11-22T13:51:39Z</time>
      </trkpt>
      <trkpt lat="44.42699" lon="6.19848">
        <ele>865.8</ele>
        <time>2011-11-22T13:51:40Z</time>
      </trkpt>
      <trkpt lat="44.42704" lon="6.19849">
        <ele>864.84</ele>
        <time>2011-11-22T13:51:41Z</time>
      </trkpt>
      <trkpt lat="44.4271" lon="6.19851">
        <ele>864.36</ele>
        <time>2011-11-22T13:51:42Z</time>
      </trkpt>
      <trkpt lat="44.42717" lon="6.19853">
        <ele>863.88</ele>
        <time>2011-11-22T13:51:43Z</time>
      </trkpt>
      <trkpt lat="44.42746" lon="6.19864">
        <ele>861.96</ele>
        <time>2011-11-22T13:51:47Z</time>
      </trkpt>
      <trkpt lat="44.4278" lon="6.19868">
        <ele>860.04</ele>
        <time>2011-11-22T13:51:52Z</time>
      </trkpt>
      <trkpt lat="44.4284" lon="6.19865">
        <ele>858.59</ele>
        <time>2011-11-22T13:52:04Z</time>
      </trkpt>
      <trkpt lat="44.42847" lon="6.19856">
        <ele>857.63</ele>
        <time>2011-11-22T13:52:08Z</time>
      </trkpt>
      <trkpt lat="44.42846" lon="6.19853">
        <ele>857.15</ele>
        <time>2011-11-22T13:52:09Z</time>
      </trkpt>
      <trkpt lat="44.42845" lon="6.19849">
        <ele>857.15</ele>
        <time>2011-11-22T13:52:10Z</time>
      </trkpt>
      <trkpt lat="44.42843" lon="6.19847">
        <ele>857.15</ele>
        <time>2011-11-22T13:52:11Z</time>
      </trkpt>
      <trkpt lat="44.4284" lon="6.19845">
        <ele>856.67</ele>
        <time>2011-11-22T13:52:12Z</time>
      </trkpt>
      <trkpt lat="44.42817" lon="6.19844">
        <ele>855.71</ele>
        <time>2011-11-22T13:52:23Z</time>
      </trkpt>
      <trkpt lat="44.42817" lon="6.19844">
        <ele>856.67</ele>
        <time>2011-11-22T13:52:24Z</time>
      </trkpt>
      <trkpt lat="44.42814" lon="6.19842">
        <ele>856.19</ele>
        <time>2011-11-22T13:52:40Z</time>
      </trkpt>
      <trkpt lat="44.42813" lon="6.19837">
        <ele>856.19</ele>
        <time>2011-11-22T13:52:55Z</time>
      </trkpt>
      <trkpt lat="44.42813" lon="6.19837">
        <ele>852.83</ele>
        <time>2011-11-22T13:52:57Z</time>
      </trkpt>
      <trkpt lat="44.42813" lon="6.19836">
        <ele>856.19</ele>
        <time>2011-11-22T13:52:58Z</time>
      </trkpt>
      <trkpt lat="44.42812" lon="6.19836">
        <ele>856.19</ele>
        <time>2011-11-22T13:53:16Z</time>
      </trkpt>
      <trkpt lat="44.42812" lon="6.19837">
        <ele>855.23</ele>
        <time>2011-11-22T13:53:32Z</time>
      </trkpt>
      <trkpt lat="44.42812" lon="6.19839">
        <ele>855.71</ele>
        <time>2011-11-22T13:53:33Z</time>
      </trkpt>
      <trkpt lat="44.4281" lon="6.19841">
        <ele>855.23</ele>
        <time>2011-11-22T13:53:37Z</time>
      </trkpt>
      <trkpt lat="44.42808" lon="6.1984">
        <ele>855.23</ele>
        <time>2011-11-22T13:53:54Z</time>
      </trkpt>
      <trkpt lat="44.42808" lon="6.1984">
        <ele>850.9</ele>
        <time>2011-11-22T13:54:00Z</time>
      </trkpt>
      <trkpt lat="44.42808" lon="6.1984">
        <ele>855.23</ele>
        <time>2011-11-22T13:54:01Z</time>
      </trkpt>
      <trkpt lat="44.42808" lon="6.1984">
        <ele>858.59</ele>
        <time>2011-11-22T13:54:03Z</time>
      </trkpt>
      <trkpt lat="44.42808" lon="6.1984">
        <ele>856.67</ele>
        <time>2011-11-22T13:54:04Z</time>
      </trkpt>
      <trkpt lat="44.42808" lon="6.1984">
        <ele>855.71</ele>
        <time>2011-11-22T13:54:06Z</time>
      </trkpt>
      <trkpt lat="44.42807" lon="6.1984">
        <ele>853.31</ele>
        <time>2011-11-22T13:55:31Z</time>
      </trkpt>
    </trkseg>
  </trk>
</gpx>